<?xml version='1.0' encoding='UTF-8'?><gpx version="1.1" creator="JPX - https://github.com/jenetics/jpx" xmlns="http://www.topografix.com/GPX/1/1"><trk><trkseg><trkpt lat="45.8826757" lon="9.6358223"><ele>437.0</ele><time>2026-03-28T08:13:02.113Z</time></trkpt><trkpt lat="45.8826791" lon="9.6359339"><ele>437.0</ele><time>2026-03-28T08:13:08.112Z</time></trkpt><trkpt lat="45.8826666" lon="9.6360233"><ele>437.0</ele><time>2026-03-28T08:13:13.112Z</time></trkpt><trkpt lat="45.8826747" lon="9.6361178"><ele>437.0</ele><time>2026-03-28T08:13:24.113Z</time></trkpt><trkpt lat="45.8827045" lon="9.6362006"><ele>437.0</ele><time>2026-03-28T08:13:34.112Z</time></trkpt><trkpt lat="45.882736" lon="9.6362922"><ele>437.0</ele><time>2026-03-28T08:13:47.136Z</time></trkpt><trkpt lat="45.8827962" lon="9.6363249"><ele>437.0</ele><time>2026-03-28T08:14:05.113Z</time></trkpt><trkpt lat="45.882731" lon="9.6362405"><ele>437.0</ele><time>2026-03-28T08:15:36.16Z</time></trkpt><trkpt lat="45.8828145" lon="9.6362075"><ele>437.00000000000006</ele><time>2026-03-28T08:17:44.582Z</time></trkpt><trkpt lat="45.8828683" lon="9.6361584"><ele>437.00000000000006</ele><time>2026-03-28T08:17:48.126Z</time></trkpt><trkpt lat="45.8829661" lon="9.6360668"><ele>437.0</ele><time>2026-03-28T08:17:49.112Z</time></trkpt><trkpt lat="45.8830446" lon="9.6359553"><ele>437.0</ele><time>2026-03-28T08:17:50.112Z</time></trkpt><trkpt lat="45.8830857" lon="9.6358423"><ele>436.99999999999994</ele><time>2026-03-28T08:17:51.113Z</time></trkpt><trkpt lat="45.883092" lon="9.6357126"><ele>437.0</ele><time>2026-03-28T08:17:52.113Z</time></trkpt><trkpt lat="45.8830847" lon="9.6355815"><ele>437.0</ele><time>2026-03-28T08:17:53.113Z</time></trkpt><trkpt lat="45.8830852" lon="9.6354619"><ele>437.0</ele><time>2026-03-28T08:17:54.112Z</time></trkpt><trkpt lat="45.8830872" lon="9.6353531"><ele>436.99999999999994</ele><time>2026-03-28T08:17:55.113Z</time></trkpt><trkpt lat="45.8830853" lon="9.6352562"><ele>437.0</ele><time>2026-03-28T08:17:56.112Z</time></trkpt><trkpt lat="45.8830554" lon="9.6351437"><ele>436.66666666666663</ele><time>2026-03-28T08:17:58.113Z</time></trkpt><trkpt lat="45.8829857" lon="9.6351017"><ele>436.3333333333333</ele><time>2026-03-28T08:18:00.113Z</time></trkpt><trkpt lat="45.8829203" lon="9.6350429"><ele>436.0</ele><time>2026-03-28T08:18:03.112Z</time></trkpt><trkpt lat="45.8828423" lon="9.6350147"><ele>435.66666666666663</ele><time>2026-03-28T08:18:06.112Z</time></trkpt><trkpt lat="45.8827547" lon="9.6349966"><ele>435.3333333333333</ele><time>2026-03-28T08:18:08.113Z</time></trkpt><trkpt lat="45.882648" lon="9.6349787"><ele>435.0</ele><time>2026-03-28T08:18:10.113Z</time></trkpt><trkpt lat="45.8825579" lon="9.6349442"><ele>431.8333333333333</ele><time>2026-03-28T08:18:12.113Z</time></trkpt><trkpt lat="45.8824665" lon="9.6349383"><ele>428.66666666666663</ele><time>2026-03-28T08:18:15.113Z</time></trkpt><trkpt lat="45.8823987" lon="9.634968"><ele>425.5</ele><time>2026-03-28T08:18:17.113Z</time></trkpt><trkpt lat="45.8823285" lon="9.6349622"><ele>422.3333333333333</ele><time>2026-03-28T08:18:18.113Z</time></trkpt><trkpt lat="45.8822687" lon="9.6349256"><ele>419.16666666666663</ele><time>2026-03-28T08:18:19.113Z</time></trkpt><trkpt lat="45.882163" lon="9.634864"><ele>416.0</ele><time>2026-03-28T08:18:21.113Z</time></trkpt><trkpt lat="45.882091" lon="9.6348146"><ele>416.0</ele><time>2026-03-28T08:18:23.113Z</time></trkpt><trkpt lat="45.8821047" lon="9.6346267"><ele>416.0</ele><time>2026-03-28T08:18:25.113Z</time></trkpt><trkpt lat="45.8821385" lon="9.6344996"><ele>416.0</ele><time>2026-03-28T08:18:26.112Z</time></trkpt><trkpt lat="45.8821789" lon="9.6343466"><ele>416.0</ele><time>2026-03-28T08:18:27.112Z</time></trkpt><trkpt lat="45.8822183" lon="9.634168"><ele>416.75</ele><time>2026-03-28T08:18:28.113Z</time></trkpt><trkpt lat="45.882251" lon="9.6339817"><ele>417.5</ele><time>2026-03-28T08:18:29.112Z</time></trkpt><trkpt lat="45.8822894" lon="9.6337841"><ele>418.25</ele><time>2026-03-28T08:18:30.112Z</time></trkpt><trkpt lat="45.8823252" lon="9.6335838"><ele>419.0</ele><time>2026-03-28T08:18:31.113Z</time></trkpt><trkpt lat="45.8823595" lon="9.6333929"><ele>419.25</ele><time>2026-03-28T08:18:32.113Z</time></trkpt><trkpt lat="45.8823956" lon="9.6331962"><ele>419.5</ele><time>2026-03-28T08:18:33.113Z</time></trkpt><trkpt lat="45.8824331" lon="9.6329879"><ele>419.75</ele><time>2026-03-28T08:18:34.113Z</time></trkpt><trkpt lat="45.8824694" lon="9.6327705"><ele>420.0</ele><time>2026-03-28T08:18:35.112Z</time></trkpt><trkpt lat="45.8825046" lon="9.6325509"><ele>422.66666666666663</ele><time>2026-03-28T08:18:36.113Z</time></trkpt><trkpt lat="45.8825406" lon="9.6323281"><ele>425.3333333333333</ele><time>2026-03-28T08:18:37.112Z</time></trkpt><trkpt lat="45.8825795" lon="9.6321008"><ele>428.0</ele><time>2026-03-28T08:18:38.113Z</time></trkpt><trkpt lat="45.8826219" lon="9.6318776"><ele>428.0</ele><time>2026-03-28T08:18:39.112Z</time></trkpt><trkpt lat="45.8826607" lon="9.6316717"><ele>428.0</ele><time>2026-03-28T08:18:40.112Z</time></trkpt><trkpt lat="45.8827009" lon="9.631489"><ele>428.0</ele><time>2026-03-28T08:18:41.113Z</time></trkpt><trkpt lat="45.8827364" lon="9.6313213"><ele>428.0</ele><time>2026-03-28T08:18:42.113Z</time></trkpt><trkpt lat="45.8827651" lon="9.63117"><ele>428.2</ele><time>2026-03-28T08:18:43.112Z</time></trkpt><trkpt lat="45.8827795" lon="9.6310433"><ele>428.4</ele><time>2026-03-28T08:18:44.112Z</time></trkpt><trkpt lat="45.8827881" lon="9.6309414"><ele>428.59999999999997</ele><time>2026-03-28T08:18:45.112Z</time></trkpt><trkpt lat="45.8827761" lon="9.6307798"><ele>428.79999999999995</ele><time>2026-03-28T08:18:47.112Z</time></trkpt><trkpt lat="45.8827789" lon="9.6306487"><ele>429.0</ele><time>2026-03-28T08:18:49.112Z</time></trkpt><trkpt lat="45.8828277" lon="9.6305122"><ele>429.0</ele><time>2026-03-28T08:18:51.113Z</time></trkpt><trkpt lat="45.8827703" lon="9.6304699"><ele>429.0</ele><time>2026-03-28T08:18:56.112Z</time></trkpt><trkpt lat="45.8827361" lon="9.6303734"><ele>429.0</ele><time>2026-03-28T08:18:58.113Z</time></trkpt><trkpt lat="45.8826586" lon="9.6304573"><ele>429.0</ele><time>2026-03-28T08:19:02.113Z</time></trkpt><trkpt lat="45.8826432" lon="9.6305762"><ele>429.0</ele><time>2026-03-28T08:19:04.113Z</time></trkpt><trkpt lat="45.8826123" lon="9.6304056"><ele>429.0</ele><time>2026-03-28T08:19:08.113Z</time></trkpt><trkpt lat="45.8825753" lon="9.6302685"><ele>432.79999999999995</ele><time>2026-03-28T08:19:10.112Z</time></trkpt><trkpt lat="45.882525" lon="9.6303461"><ele>436.59999999999997</ele><time>2026-03-28T08:19:13.113Z</time></trkpt><trkpt lat="45.8824645" lon="9.6304622"><ele>440.4</ele><time>2026-03-28T08:19:15.112Z</time></trkpt><trkpt lat="45.8823711" lon="9.6305495"><ele>444.2</ele><time>2026-03-28T08:19:17.112Z</time></trkpt><trkpt lat="45.8823064" lon="9.6306376"><ele>448.0</ele><time>2026-03-28T08:19:19.112Z</time></trkpt><trkpt lat="45.8821981" lon="9.6306342"><ele>448.00000000000006</ele><time>2026-03-28T08:19:21.113Z</time></trkpt><trkpt lat="45.882077" lon="9.6306228"><ele>448.0</ele><time>2026-03-28T08:19:23.113Z</time></trkpt><trkpt lat="45.8820154" lon="9.6305912"><ele>448.0</ele><time>2026-03-28T08:19:25.112Z</time></trkpt><trkpt lat="45.8819464" lon="9.6305769"><ele>448.0</ele><time>2026-03-28T08:19:27.113Z</time></trkpt><trkpt lat="45.881861" lon="9.6305876"><ele>448.00000000000006</ele><time>2026-03-28T08:19:28.113Z</time></trkpt><trkpt lat="45.8817892" lon="9.6305334"><ele>448.0</ele><time>2026-03-28T08:19:31.113Z</time></trkpt><trkpt lat="45.881719" lon="9.6304363"><ele>451.50000000000006</ele><time>2026-03-28T08:19:33.113Z</time></trkpt><trkpt lat="45.881637" lon="9.6303687"><ele>455.0</ele><time>2026-03-28T08:19:35.112Z</time></trkpt><trkpt lat="45.8815519" lon="9.6303247"><ele>458.5</ele><time>2026-03-28T08:19:37.112Z</time></trkpt><trkpt lat="45.8814579" lon="9.6302897"><ele>462.0</ele><time>2026-03-28T08:19:39.113Z</time></trkpt><trkpt lat="45.8813791" lon="9.6302452"><ele>465.50000000000006</ele><time>2026-03-28T08:19:41.112Z</time></trkpt><trkpt lat="45.8813245" lon="9.6301993"><ele>469.0</ele><time>2026-03-28T08:19:43.113Z</time></trkpt><trkpt lat="45.8812731" lon="9.6301426"><ele>469.6666666666667</ele><time>2026-03-28T08:19:46.113Z</time></trkpt><trkpt lat="45.8812192" lon="9.6300662"><ele>470.33333333333337</ele><time>2026-03-28T08:19:49.112Z</time></trkpt><trkpt lat="45.8811694" lon="9.6300049"><ele>471.0</ele><time>2026-03-28T08:19:52.112Z</time></trkpt><trkpt lat="45.8811159" lon="9.6299216"><ele>471.66666666666663</ele><time>2026-03-28T08:19:55.113Z</time></trkpt><trkpt lat="45.8811585" lon="9.6298197"><ele>472.3333333333333</ele><time>2026-03-28T08:20:00.113Z</time></trkpt><trkpt lat="45.8811594" lon="9.6297239"><ele>473.0</ele><time>2026-03-28T08:20:02.113Z</time></trkpt><trkpt lat="45.8811265" lon="9.6296035"><ele>472.99999999999994</ele><time>2026-03-28T08:20:05.112Z</time></trkpt><trkpt lat="45.8810987" lon="9.629508"><ele>473.0</ele><time>2026-03-28T08:20:07.112Z</time></trkpt><trkpt lat="45.881026" lon="9.6294645"><ele>473.0</ele><time>2026-03-28T08:20:10.113Z</time></trkpt><trkpt lat="45.8809555" lon="9.6294451"><ele>473.0</ele><time>2026-03-28T08:20:12.113Z</time></trkpt><trkpt lat="45.8808725" lon="9.6294198"><ele>472.99999999999994</ele><time>2026-03-28T08:20:14.113Z</time></trkpt><trkpt lat="45.8807913" lon="9.6293993"><ele>473.0</ele><time>2026-03-28T08:20:16.112Z</time></trkpt><trkpt lat="45.8807184" lon="9.6293896"><ele>475.99999999999994</ele><time>2026-03-28T08:20:18.113Z</time></trkpt><trkpt lat="45.8806475" lon="9.6293955"><ele>479.0</ele><time>2026-03-28T08:20:20.112Z</time></trkpt><trkpt lat="45.8805868" lon="9.6294341"><ele>482.0</ele><time>2026-03-28T08:20:22.112Z</time></trkpt><trkpt lat="45.8805224" lon="9.6294993"><ele>485.0</ele><time>2026-03-28T08:20:25.112Z</time></trkpt><trkpt lat="45.8804437" lon="9.6294306"><ele>487.99999999999994</ele><time>2026-03-28T08:20:28.113Z</time></trkpt><trkpt lat="45.880388" lon="9.6293268"><ele>491.0</ele><time>2026-03-28T08:20:30.113Z</time></trkpt><trkpt lat="45.8803399" lon="9.6292366"><ele>491.8333333333333</ele><time>2026-03-28T08:20:33.113Z</time></trkpt><trkpt lat="45.8802724" lon="9.6291876"><ele>492.66666666666663</ele><time>2026-03-28T08:20:37.113Z</time></trkpt><trkpt lat="45.8802109" lon="9.6291154"><ele>493.5</ele><time>2026-03-28T08:20:39.112Z</time></trkpt><trkpt lat="45.8801442" lon="9.6290609"><ele>494.33333333333337</ele><time>2026-03-28T08:20:41.113Z</time></trkpt><trkpt lat="45.8800878" lon="9.6290082"><ele>495.1666666666667</ele><time>2026-03-28T08:20:43.112Z</time></trkpt><trkpt lat="45.8800101" lon="9.6289192"><ele>496.0</ele><time>2026-03-28T08:20:45.112Z</time></trkpt><trkpt lat="45.8799509" lon="9.6288507"><ele>498.14285714285717</ele><time>2026-03-28T08:20:47.113Z</time></trkpt><trkpt lat="45.8798812" lon="9.6287704"><ele>500.28571428571433</ele><time>2026-03-28T08:20:49.112Z</time></trkpt><trkpt lat="45.879815" lon="9.6287361"><ele>502.42857142857144</ele><time>2026-03-28T08:20:51.112Z</time></trkpt><trkpt lat="45.8797511" lon="9.6287491"><ele>504.57142857142856</ele><time>2026-03-28T08:20:53.112Z</time></trkpt><trkpt lat="45.8796959" lon="9.6288126"><ele>506.7142857142857</ele><time>2026-03-28T08:20:55.112Z</time></trkpt><trkpt lat="45.8796812" lon="9.6289279"><ele>508.8571428571429</ele><time>2026-03-28T08:20:57.112Z</time></trkpt><trkpt lat="45.879662" lon="9.6290142"><ele>511.0</ele><time>2026-03-28T08:20:59.113Z</time></trkpt><trkpt lat="45.8796376" lon="9.6291187"><ele>511.00000000000006</ele><time>2026-03-28T08:21:01.113Z</time></trkpt><trkpt lat="45.8796319" lon="9.6292269"><ele>511.0</ele><time>2026-03-28T08:21:04.19Z</time></trkpt><trkpt lat="45.8796291" lon="9.6294172"><ele>511.0</ele><time>2026-03-28T08:21:08.999Z</time></trkpt><trkpt lat="45.8795575" lon="9.6294468"><ele>511.0</ele><time>2026-03-28T08:21:15.101Z</time></trkpt><trkpt lat="45.8795465" lon="9.6295478"><ele>511.00000000000006</ele><time>2026-03-28T08:21:21.185Z</time></trkpt><trkpt lat="45.8795097" lon="9.6296357"><ele>511.0</ele><time>2026-03-28T08:21:47.13Z</time></trkpt><trkpt lat="45.8794769" lon="9.6295558"><ele>513.1666666666667</ele><time>2026-03-28T08:21:51.144Z</time></trkpt><trkpt lat="45.879462" lon="9.6296813"><ele>515.3333333333334</ele><time>2026-03-28T08:21:55.157Z</time></trkpt><trkpt lat="45.8793941" lon="9.6296777"><ele>517.5</ele><time>2026-03-28T08:22:09.113Z</time></trkpt><trkpt lat="45.8793207" lon="9.6296699"><ele>519.6666666666666</ele><time>2026-03-28T08:22:52.191Z</time></trkpt><trkpt lat="45.8793051" lon="9.6295122"><ele>521.8333333333333</ele><time>2026-03-28T08:22:55.113Z</time></trkpt><trkpt lat="45.8792836" lon="9.62962"><ele>524.0</ele><time>2026-03-28T08:23:12.113Z</time></trkpt><trkpt lat="45.8792614" lon="9.6297065"><ele>524.0</ele><time>2026-03-28T08:23:14.113Z</time></trkpt><trkpt lat="45.8792549" lon="9.62984"><ele>524.0</ele><time>2026-03-28T08:23:16.112Z</time></trkpt><trkpt lat="45.8792774" lon="9.6299608"><ele>524.0</ele><time>2026-03-28T08:23:17.112Z</time></trkpt><trkpt lat="45.8792799" lon="9.630068"><ele>524.0</ele><time>2026-03-28T08:23:18.113Z</time></trkpt><trkpt lat="45.8792668" lon="9.6302245"><ele>524.0</ele><time>2026-03-28T08:23:20.113Z</time></trkpt><trkpt lat="45.8792472" lon="9.6303604"><ele>533.6666666666666</ele><time>2026-03-28T08:23:22.113Z</time></trkpt><trkpt lat="45.879264" lon="9.6304537"><ele>543.3333333333333</ele><time>2026-03-28T08:23:27.112Z</time></trkpt><trkpt lat="45.8792111" lon="9.6305687"><ele>553.0</ele><time>2026-03-28T08:23:31.113Z</time></trkpt><trkpt lat="45.8791814" lon="9.6306752"><ele>562.6666666666666</ele><time>2026-03-28T08:23:33.113Z</time></trkpt><trkpt lat="45.8791672" lon="9.6308134"><ele>572.3333333333334</ele><time>2026-03-28T08:23:35.113Z</time></trkpt><trkpt lat="45.8791749" lon="9.6309625"><ele>582.0</ele><time>2026-03-28T08:23:37.113Z</time></trkpt><trkpt lat="45.8792019" lon="9.6310657"><ele>582.0</ele><time>2026-03-28T08:23:39.113Z</time></trkpt><trkpt lat="45.8791572" lon="9.630966"><ele>582.0</ele><time>2026-03-28T08:23:45.112Z</time></trkpt><trkpt lat="45.8790899" lon="9.6309523"><ele>582.0</ele><time>2026-03-28T08:23:52.112Z</time></trkpt><trkpt lat="45.8790894" lon="9.6310678"><ele>582.0</ele><time>2026-03-28T08:23:55.112Z</time></trkpt><trkpt lat="45.8790767" lon="9.6311577"><ele>582.0</ele><time>2026-03-28T08:23:56.113Z</time></trkpt><trkpt lat="45.87905" lon="9.6312396"><ele>582.0</ele><time>2026-03-28T08:23:57.112Z</time></trkpt><trkpt lat="45.8790415" lon="9.6313756"><ele>580.8333333333334</ele><time>2026-03-28T08:23:58.112Z</time></trkpt><trkpt lat="45.8790383" lon="9.6315045"><ele>579.6666666666666</ele><time>2026-03-28T08:23:59.113Z</time></trkpt><trkpt lat="45.8790005" lon="9.6316222"><ele>578.5</ele><time>2026-03-28T08:24:00.112Z</time></trkpt><trkpt lat="45.878972" lon="9.6317296"><ele>577.3333333333333</ele><time>2026-03-28T08:24:01.112Z</time></trkpt><trkpt lat="45.8789368" lon="9.631813"><ele>576.1666666666666</ele><time>2026-03-28T08:24:02.112Z</time></trkpt><trkpt lat="45.8789029" lon="9.6318892"><ele>575.0</ele><time>2026-03-28T08:24:03.113Z</time></trkpt><trkpt lat="45.8788478" lon="9.6319598"><ele>572.6</ele><time>2026-03-28T08:24:04.113Z</time></trkpt><trkpt lat="45.8787843" lon="9.6320221"><ele>570.2</ele><time>2026-03-28T08:24:05.112Z</time></trkpt><trkpt lat="45.8786923" lon="9.6321111"><ele>567.8</ele><time>2026-03-28T08:24:07.113Z</time></trkpt><trkpt lat="45.8786259" lon="9.6322195"><ele>565.4</ele><time>2026-03-28T08:24:09.113Z</time></trkpt><trkpt lat="45.878581" lon="9.6322837"><ele>563.0</ele><time>2026-03-28T08:24:10.113Z</time></trkpt><trkpt lat="45.8785267" lon="9.6324304"><ele>563.0</ele><time>2026-03-28T08:24:12.113Z</time></trkpt><trkpt lat="45.8784905" lon="9.6325173"><ele>563.0</ele><time>2026-03-28T08:24:13.112Z</time></trkpt><trkpt lat="45.878422" lon="9.6326273"><ele>563.0</ele><time>2026-03-28T08:24:15.112Z</time></trkpt><trkpt lat="45.8783531" lon="9.6327404"><ele>563.0</ele><time>2026-03-28T08:24:17.112Z</time></trkpt><trkpt lat="45.8782839" lon="9.6328392"><ele>563.0</ele><time>2026-03-28T08:24:19.113Z</time></trkpt><trkpt lat="45.8781772" lon="9.6328832"><ele>564.0</ele><time>2026-03-28T08:24:21.113Z</time></trkpt><trkpt lat="45.8781108" lon="9.6329083"><ele>565.0</ele><time>2026-03-28T08:24:22.113Z</time></trkpt><trkpt lat="45.878003" lon="9.6329704"><ele>566.0</ele><time>2026-03-28T08:24:24.113Z</time></trkpt><trkpt lat="45.8779128" lon="9.6330699"><ele>567.0</ele><time>2026-03-28T08:24:26.112Z</time></trkpt><trkpt lat="45.877829" lon="9.6331984"><ele>568.0</ele><time>2026-03-28T08:24:28.112Z</time></trkpt><trkpt lat="45.8777368" lon="9.6333041"><ele>568.0</ele><time>2026-03-28T08:24:30.112Z</time></trkpt><trkpt lat="45.8776507" lon="9.6334039"><ele>568.0</ele><time>2026-03-28T08:24:32.113Z</time></trkpt><trkpt lat="45.8775749" lon="9.6335173"><ele>568.0</ele><time>2026-03-28T08:24:34.113Z</time></trkpt><trkpt lat="45.8774984" lon="9.6336163"><ele>568.0</ele><time>2026-03-28T08:24:36.113Z</time></trkpt><trkpt lat="45.877453" lon="9.6336812"><ele>568.0</ele><time>2026-03-28T08:24:38.112Z</time></trkpt><trkpt lat="45.8774428" lon="9.6337749"><ele>569.5</ele><time>2026-03-28T08:24:41.113Z</time></trkpt><trkpt lat="45.8773824" lon="9.6338109"><ele>571.0</ele><time>2026-03-28T08:24:43.113Z</time></trkpt><trkpt lat="45.8773393" lon="9.6339012"><ele>572.5</ele><time>2026-03-28T08:24:46.112Z</time></trkpt><trkpt lat="45.8773249" lon="9.6340133"><ele>574.0</ele><time>2026-03-28T08:24:48.113Z</time></trkpt><trkpt lat="45.8772843" lon="9.6341472"><ele>575.5</ele><time>2026-03-28T08:24:50.112Z</time></trkpt><trkpt lat="45.8772286" lon="9.634228"><ele>577.0</ele><time>2026-03-28T08:24:52.112Z</time></trkpt><trkpt lat="45.8771705" lon="9.6342776"><ele>577.0</ele><time>2026-03-28T08:24:54.112Z</time></trkpt><trkpt lat="45.8770762" lon="9.6343654"><ele>577.0</ele><time>2026-03-28T08:25:05.112Z</time></trkpt><trkpt lat="45.8769922" lon="9.6344431"><ele>577.0</ele><time>2026-03-28T08:25:08.112Z</time></trkpt><trkpt lat="45.8769082" lon="9.6345161"><ele>577.0</ele><time>2026-03-28T08:25:10.113Z</time></trkpt><trkpt lat="45.8768251" lon="9.6345585"><ele>577.0</ele><time>2026-03-28T08:25:11.112Z</time></trkpt><trkpt lat="45.8767332" lon="9.6345908"><ele>578.4</ele><time>2026-03-28T08:25:12.113Z</time></trkpt><trkpt lat="45.8766638" lon="9.6346331"><ele>579.8000000000001</ele><time>2026-03-28T08:25:13.112Z</time></trkpt><trkpt lat="45.8765653" lon="9.6347336"><ele>581.2</ele><time>2026-03-28T08:25:15.112Z</time></trkpt><trkpt lat="45.8764771" lon="9.6348302"><ele>582.6</ele><time>2026-03-28T08:25:17.113Z</time></trkpt><trkpt lat="45.8763823" lon="9.6348856"><ele>584.0</ele><time>2026-03-28T08:25:19.113Z</time></trkpt><trkpt lat="45.8763126" lon="9.6349586"><ele>584.0</ele><time>2026-03-28T08:25:21.112Z</time></trkpt><trkpt lat="45.8762696" lon="9.6350931"><ele>584.0</ele><time>2026-03-28T08:25:23.113Z</time></trkpt><trkpt lat="45.8762769" lon="9.6352115"><ele>584.0</ele><time>2026-03-28T08:25:25.113Z</time></trkpt><trkpt lat="45.8762739" lon="9.6353057"><ele>584.0</ele><time>2026-03-28T08:25:27.112Z</time></trkpt><trkpt lat="45.8762707" lon="9.6354367"><ele>584.0</ele><time>2026-03-28T08:25:29.113Z</time></trkpt><trkpt lat="45.876274" lon="9.6355312"><ele>584.0</ele><time>2026-03-28T08:25:30.113Z</time></trkpt><trkpt lat="45.8762951" lon="9.6356918"><ele>584.1666666666666</ele><time>2026-03-28T08:25:32.113Z</time></trkpt><trkpt lat="45.8762934" lon="9.6358411"><ele>584.3333333333333</ele><time>2026-03-28T08:25:34.113Z</time></trkpt><trkpt lat="45.8762996" lon="9.6359386"><ele>584.5</ele><time>2026-03-28T08:25:36.113Z</time></trkpt><trkpt lat="45.8763323" lon="9.6360348"><ele>584.6666666666666</ele><time>2026-03-28T08:25:38.113Z</time></trkpt><trkpt lat="45.8763807" lon="9.6360947"><ele>584.8333333333334</ele><time>2026-03-28T08:25:39.112Z</time></trkpt><trkpt lat="45.8764837" lon="9.6362057"><ele>585.0</ele><time>2026-03-28T08:25:41.113Z</time></trkpt><trkpt lat="45.8765634" lon="9.6363041"><ele>586.4</ele><time>2026-03-28T08:25:43.113Z</time></trkpt><trkpt lat="45.8765888" lon="9.6364019"><ele>587.8</ele><time>2026-03-28T08:25:45.113Z</time></trkpt><trkpt lat="45.8765892" lon="9.6365775"><ele>589.2</ele><time>2026-03-28T08:25:47.113Z</time></trkpt><trkpt lat="45.8765819" lon="9.6366804"><ele>590.6</ele><time>2026-03-28T08:25:48.112Z</time></trkpt><trkpt lat="45.8765771" lon="9.6368416"><ele>592.0</ele><time>2026-03-28T08:25:50.113Z</time></trkpt><trkpt lat="45.8764938" lon="9.6368975"><ele>592.0</ele><time>2026-03-28T08:25:53.113Z</time></trkpt><trkpt lat="45.8763753" lon="9.636839"><ele>592.0</ele><time>2026-03-28T08:25:55.112Z</time></trkpt><trkpt lat="45.8762785" lon="9.6367521"><ele>592.0</ele><time>2026-03-28T08:25:57.113Z</time></trkpt><trkpt lat="45.8761644" lon="9.63675"><ele>592.0</ele><time>2026-03-28T08:25:59.113Z</time></trkpt><trkpt lat="45.8760655" lon="9.6366693"><ele>592.0</ele><time>2026-03-28T08:26:02.112Z</time></trkpt><trkpt lat="45.8759948" lon="9.6366696"><ele>592.0</ele><time>2026-03-28T08:26:04.112Z</time></trkpt><trkpt lat="45.8758875" lon="9.6366766"><ele>592.0</ele><time>2026-03-28T08:26:06.112Z</time></trkpt><trkpt lat="45.8757901" lon="9.6366919"><ele>592.0</ele><time>2026-03-28T08:26:08.113Z</time></trkpt><trkpt lat="45.8757324" lon="9.6367873"><ele>592.0</ele><time>2026-03-28T08:26:11.113Z</time></trkpt><trkpt lat="45.875675" lon="9.6368724"><ele>592.0</ele><time>2026-03-28T08:26:13.113Z</time></trkpt><trkpt lat="45.8755936" lon="9.6369676"><ele>587.5</ele><time>2026-03-28T08:26:15.113Z</time></trkpt><trkpt lat="45.8755187" lon="9.6370583"><ele>583.0</ele><time>2026-03-28T08:26:17.112Z</time></trkpt><trkpt lat="45.8754472" lon="9.6371451"><ele>578.5</ele><time>2026-03-28T08:26:19.113Z</time></trkpt><trkpt lat="45.8753776" lon="9.6372067"><ele>574.0</ele><time>2026-03-28T08:26:21.112Z</time></trkpt><trkpt lat="45.8753242" lon="9.6372817"><ele>569.5</ele><time>2026-03-28T08:26:24.113Z</time></trkpt><trkpt lat="45.8753514" lon="9.6374062"><ele>565.0</ele><time>2026-03-28T08:26:26.113Z</time></trkpt><trkpt lat="45.8753905" lon="9.6375395"><ele>565.0</ele><time>2026-03-28T08:26:28.113Z</time></trkpt><trkpt lat="45.875317" lon="9.6376304"><ele>565.0</ele><time>2026-03-28T08:26:31.113Z</time></trkpt><trkpt lat="45.8752293" lon="9.6376828"><ele>565.0</ele><time>2026-03-28T08:26:33.113Z</time></trkpt><trkpt lat="45.875161" lon="9.6377543"><ele>565.0</ele><time>2026-03-28T08:26:35.113Z</time></trkpt><trkpt lat="45.8751154" lon="9.6378441"><ele>565.0</ele><time>2026-03-28T08:26:37.112Z</time></trkpt><trkpt lat="45.8751034" lon="9.6379739"><ele>565.0</ele><time>2026-03-28T08:26:39.112Z</time></trkpt><trkpt lat="45.8751278" lon="9.6381203"><ele>565.2</ele><time>2026-03-28T08:26:41.112Z</time></trkpt><trkpt lat="45.8751543" lon="9.6382146"><ele>565.4</ele><time>2026-03-28T08:26:43.112Z</time></trkpt><trkpt lat="45.8751556" lon="9.6383718"><ele>565.6</ele><time>2026-03-28T08:26:45.113Z</time></trkpt><trkpt lat="45.8751002" lon="9.6385395"><ele>565.8</ele><time>2026-03-28T08:26:47.113Z</time></trkpt><trkpt lat="45.8750655" lon="9.638635"><ele>566.0</ele><time>2026-03-28T08:26:48.112Z</time></trkpt><trkpt lat="45.8750299" lon="9.6387272"><ele>566.0</ele><time>2026-03-28T08:26:49.113Z</time></trkpt><trkpt lat="45.8749432" lon="9.6388337"><ele>566.0</ele><time>2026-03-28T08:26:51.113Z</time></trkpt><trkpt lat="45.874839" lon="9.6388568"><ele>566.0</ele><time>2026-03-28T08:26:53.113Z</time></trkpt><trkpt lat="45.874775" lon="9.6388499"><ele>566.0</ele><time>2026-03-28T08:26:54.113Z</time></trkpt><trkpt lat="45.8747029" lon="9.6388347"><ele>566.0</ele><time>2026-03-28T08:26:55.113Z</time></trkpt><trkpt lat="45.874634" lon="9.6388328"><ele>566.0</ele><time>2026-03-28T08:26:56.112Z</time></trkpt><trkpt lat="45.874547" lon="9.6388649"><ele>566.0</ele><time>2026-03-28T08:26:57.112Z</time></trkpt><trkpt lat="45.8744635" lon="9.6389036"><ele>566.0</ele><time>2026-03-28T08:26:58.113Z</time></trkpt><trkpt lat="45.8744009" lon="9.6389223"><ele>566.0</ele><time>2026-03-28T08:26:59.112Z</time></trkpt><trkpt lat="45.8742865" lon="9.6388885"><ele>566.0</ele><time>2026-03-28T08:27:01.113Z</time></trkpt><trkpt lat="45.8742172" lon="9.6389011"><ele>566.0</ele><time>2026-03-28T08:27:02.112Z</time></trkpt><trkpt lat="45.8741536" lon="9.6389488"><ele>566.0</ele><time>2026-03-28T08:27:03.112Z</time></trkpt><trkpt lat="45.8740892" lon="9.6390135"><ele>567.8</ele><time>2026-03-28T08:27:04.113Z</time></trkpt><trkpt lat="45.8740328" lon="9.6390669"><ele>569.6</ele><time>2026-03-28T08:27:05.113Z</time></trkpt><trkpt lat="45.8739188" lon="9.6391249"><ele>571.4</ele><time>2026-03-28T08:27:07.113Z</time></trkpt><trkpt lat="45.8738176" lon="9.6391379"><ele>573.2</ele><time>2026-03-28T08:27:09.113Z</time></trkpt><trkpt lat="45.8737419" lon="9.6390736"><ele>575.0</ele><time>2026-03-28T08:27:11.113Z</time></trkpt><trkpt lat="45.8736876" lon="9.639003"><ele>575.0</ele><time>2026-03-28T08:27:13.112Z</time></trkpt><trkpt lat="45.8736086" lon="9.6389273"><ele>575.0</ele><time>2026-03-28T08:27:15.113Z</time></trkpt><trkpt lat="45.8735368" lon="9.6388021"><ele>575.0</ele><time>2026-03-28T08:27:17.113Z</time></trkpt><trkpt lat="45.8734339" lon="9.6387556"><ele>575.0</ele><time>2026-03-28T08:27:19.113Z</time></trkpt><trkpt lat="45.8733122" lon="9.638771"><ele>575.0</ele><time>2026-03-28T08:27:21.112Z</time></trkpt><trkpt lat="45.8732466" lon="9.6387885"><ele>573.8333333333333</ele><time>2026-03-28T08:27:22.113Z</time></trkpt><trkpt lat="45.8731444" lon="9.6387844"><ele>572.6666666666666</ele><time>2026-03-28T08:27:24.112Z</time></trkpt><trkpt lat="45.8730501" lon="9.6387483"><ele>571.5</ele><time>2026-03-28T08:27:26.112Z</time></trkpt><trkpt lat="45.8729574" lon="9.6387107"><ele>570.3333333333334</ele><time>2026-03-28T08:27:28.113Z</time></trkpt><trkpt lat="45.8728823" lon="9.6386883"><ele>569.1666666666667</ele><time>2026-03-28T08:27:30.113Z</time></trkpt><trkpt lat="45.872809" lon="9.6386771"><ele>568.0</ele><time>2026-03-28T08:27:32.113Z</time></trkpt><trkpt lat="45.8727409" lon="9.6386386"><ele>568.5</ele><time>2026-03-28T08:27:34.113Z</time></trkpt><trkpt lat="45.8726792" lon="9.6386038"><ele>569.0</ele><time>2026-03-28T08:27:35.113Z</time></trkpt><trkpt lat="45.8726052" lon="9.6385853"><ele>569.5</ele><time>2026-03-28T08:27:36.112Z</time></trkpt><trkpt lat="45.8725338" lon="9.6385509"><ele>570.0</ele><time>2026-03-28T08:27:37.113Z</time></trkpt><trkpt lat="45.8724604" lon="9.6384963"><ele>570.5</ele><time>2026-03-28T08:27:38.113Z</time></trkpt><trkpt lat="45.872393" lon="9.6384309"><ele>571.0</ele><time>2026-03-28T08:27:39.113Z</time></trkpt><trkpt lat="45.8723423" lon="9.6383496"><ele>571.0</ele><time>2026-03-28T08:27:40.112Z</time></trkpt><trkpt lat="45.8722925" lon="9.6382636"><ele>571.0</ele><time>2026-03-28T08:27:41.112Z</time></trkpt><trkpt lat="45.8722047" lon="9.6381813"><ele>571.0</ele><time>2026-03-28T08:27:43.113Z</time></trkpt><trkpt lat="45.8721528" lon="9.6382351"><ele>571.0</ele><time>2026-03-28T08:27:45.112Z</time></trkpt><trkpt lat="45.8720991" lon="9.638314"><ele>571.0</ele><time>2026-03-28T08:27:46.113Z</time></trkpt><trkpt lat="45.8720433" lon="9.6383874"><ele>571.0</ele><time>2026-03-28T08:27:47.113Z</time></trkpt><trkpt lat="45.8719432" lon="9.6384451"><ele>571.0</ele><time>2026-03-28T08:27:49.112Z</time></trkpt><trkpt lat="45.8718364" lon="9.6384753"><ele>571.0</ele><time>2026-03-28T08:27:51.113Z</time></trkpt><trkpt lat="45.8717883" lon="9.6386219"><ele>571.0</ele><time>2026-03-28T08:27:53.112Z</time></trkpt><trkpt lat="45.8717826" lon="9.6387532"><ele>571.0</ele><time>2026-03-28T08:27:54.113Z</time></trkpt><trkpt lat="45.8717772" lon="9.6388902"><ele>571.0</ele><time>2026-03-28T08:27:55.113Z</time></trkpt><trkpt lat="45.8717776" lon="9.6390186"><ele>569.0</ele><time>2026-03-28T08:27:56.113Z</time></trkpt><trkpt lat="45.8717746" lon="9.6391466"><ele>567.0</ele><time>2026-03-28T08:27:57.113Z</time></trkpt><trkpt lat="45.8717828" lon="9.6392656"><ele>565.0</ele><time>2026-03-28T08:27:58.113Z</time></trkpt><trkpt lat="45.8718134" lon="9.6393552"><ele>563.0</ele><time>2026-03-28T08:27:59.113Z</time></trkpt><trkpt lat="45.8718341" lon="9.6395388"><ele>561.0</ele><time>2026-03-28T08:28:01.113Z</time></trkpt><trkpt lat="45.8718362" lon="9.6396505"><ele>559.0</ele><time>2026-03-28T08:28:02.112Z</time></trkpt><trkpt lat="45.8718375" lon="9.6397661"><ele>556.4</ele><time>2026-03-28T08:28:03.113Z</time></trkpt><trkpt lat="45.8718481" lon="9.6398864"><ele>553.8</ele><time>2026-03-28T08:28:04.112Z</time></trkpt><trkpt lat="45.8718488" lon="9.6400075"><ele>551.2</ele><time>2026-03-28T08:28:05.113Z</time></trkpt><trkpt lat="45.8718417" lon="9.6401467"><ele>548.6</ele><time>2026-03-28T08:28:06.113Z</time></trkpt><trkpt lat="45.8718504" lon="9.6403242"><ele>546.0</ele><time>2026-03-28T08:28:07.113Z</time></trkpt><trkpt lat="45.871856" lon="9.6405061"><ele>546.0</ele><time>2026-03-28T08:28:08.113Z</time></trkpt><trkpt lat="45.8718492" lon="9.6406771"><ele>546.0</ele><time>2026-03-28T08:28:09.113Z</time></trkpt><trkpt lat="45.8718402" lon="9.6408414"><ele>546.0</ele><time>2026-03-28T08:28:10.113Z</time></trkpt><trkpt lat="45.871832" lon="9.6409778"><ele>546.0</ele><time>2026-03-28T08:28:11.112Z</time></trkpt><trkpt lat="45.8718144" lon="9.6410863"><ele>546.0</ele><time>2026-03-28T08:28:12.112Z</time></trkpt><trkpt lat="45.8717999" lon="9.6411804"><ele>548.6</ele><time>2026-03-28T08:28:13.113Z</time></trkpt><trkpt lat="45.871783" lon="9.6413273"><ele>551.2</ele><time>2026-03-28T08:28:15.112Z</time></trkpt><trkpt lat="45.8718416" lon="9.6414381"><ele>553.8</ele><time>2026-03-28T08:28:17.112Z</time></trkpt><trkpt lat="45.8719173" lon="9.6414957"><ele>556.4</ele><time>2026-03-28T08:28:20.113Z</time></trkpt><trkpt lat="45.8720485" lon="9.6415555"><ele>559.0</ele><time>2026-03-28T08:29:53.113Z</time></trkpt><trkpt lat="45.8721227" lon="9.6415969"><ele>559.0</ele><time>2026-03-28T08:29:54.113Z</time></trkpt><trkpt lat="45.8722019" lon="9.6416503"><ele>559.0</ele><time>2026-03-28T08:29:55.113Z</time></trkpt><trkpt lat="45.8722669" lon="9.6417198"><ele>559.0</ele><time>2026-03-28T08:29:56.113Z</time></trkpt><trkpt lat="45.8723154" lon="9.6417856"><ele>559.0</ele><time>2026-03-28T08:29:57.113Z</time></trkpt><trkpt lat="45.8723465" lon="9.6418771"><ele>559.0</ele><time>2026-03-28T08:29:58.113Z</time></trkpt><trkpt lat="45.8723679" lon="9.6419797"><ele>559.0</ele><time>2026-03-28T08:29:59.113Z</time></trkpt><trkpt lat="45.8723815" lon="9.6420763"><ele>559.0</ele><time>2026-03-28T08:30:00.112Z</time></trkpt><trkpt lat="45.872396" lon="9.6421704"><ele>560.1666666666667</ele><time>2026-03-28T08:30:01.112Z</time></trkpt><trkpt lat="45.8723873" lon="9.6422671"><ele>561.3333333333334</ele><time>2026-03-28T08:30:02.112Z</time></trkpt><trkpt lat="45.8723697" lon="9.6423553"><ele>562.5</ele><time>2026-03-28T08:30:03.113Z</time></trkpt><trkpt lat="45.8723926" lon="9.6425257"><ele>563.6666666666666</ele><time>2026-03-28T08:30:05.113Z</time></trkpt><trkpt lat="45.8724157" lon="9.6426198"><ele>564.8333333333333</ele><time>2026-03-28T08:30:06.113Z</time></trkpt><trkpt lat="45.8724515" lon="9.6426982"><ele>566.0</ele><time>2026-03-28T08:30:07.113Z</time></trkpt><trkpt lat="45.8725388" lon="9.6427948"><ele>564.4</ele><time>2026-03-28T08:30:09.112Z</time></trkpt><trkpt lat="45.872574" lon="9.6428846"><ele>562.8</ele><time>2026-03-28T08:30:10.113Z</time></trkpt><trkpt lat="45.8725873" lon="9.6430295"><ele>561.1999999999999</ele><time>2026-03-28T08:30:11.113Z</time></trkpt><trkpt lat="45.8725899" lon="9.6431842"><ele>559.6</ele><time>2026-03-28T08:30:12.113Z</time></trkpt><trkpt lat="45.8725874" lon="9.643321"><ele>558.0</ele><time>2026-03-28T08:30:13.112Z</time></trkpt><trkpt lat="45.8725813" lon="9.643441"><ele>558.0</ele><time>2026-03-28T08:30:14.113Z</time></trkpt><trkpt lat="45.8725713" lon="9.6435388"><ele>558.0</ele><time>2026-03-28T08:30:15.113Z</time></trkpt><trkpt lat="45.8725334" lon="9.6436179"><ele>558.0</ele><time>2026-03-28T08:30:17.113Z</time></trkpt><trkpt lat="45.8724371" lon="9.6436202"><ele>558.0</ele><time>2026-03-28T08:30:19.113Z</time></trkpt><trkpt lat="45.8723376" lon="9.6435713"><ele>558.0</ele><time>2026-03-28T08:30:20.113Z</time></trkpt><trkpt lat="45.8722312" lon="9.6434847"><ele>558.0</ele><time>2026-03-28T08:30:21.113Z</time></trkpt><trkpt lat="45.8721289" lon="9.6433703"><ele>558.0</ele><time>2026-03-28T08:30:22.112Z</time></trkpt><trkpt lat="45.872021" lon="9.6432442"><ele>558.0</ele><time>2026-03-28T08:30:23.112Z</time></trkpt><trkpt lat="45.8719055" lon="9.6431304"><ele>558.0</ele><time>2026-03-28T08:30:24.113Z</time></trkpt><trkpt lat="45.8717789" lon="9.6430593"><ele>558.25</ele><time>2026-03-28T08:30:25.113Z</time></trkpt><trkpt lat="45.87165" lon="9.6430344"><ele>558.5</ele><time>2026-03-28T08:30:26.112Z</time></trkpt><trkpt lat="45.87153" lon="9.6430349"><ele>558.75</ele><time>2026-03-28T08:30:27.113Z</time></trkpt><trkpt lat="45.871411" lon="9.6430316"><ele>559.0</ele><time>2026-03-28T08:30:28.112Z</time></trkpt><trkpt lat="45.871297" lon="9.6430215"><ele>559.0</ele><time>2026-03-28T08:30:29.113Z</time></trkpt><trkpt lat="45.871179" lon="9.6430038"><ele>559.0</ele><time>2026-03-28T08:30:30.113Z</time></trkpt><trkpt lat="45.8710676" lon="9.6429936"><ele>559.0</ele><time>2026-03-28T08:30:31.113Z</time></trkpt><trkpt lat="45.8709534" lon="9.6429817"><ele>559.0</ele><time>2026-03-28T08:30:32.113Z</time></trkpt><trkpt lat="45.8708385" lon="9.6429735"><ele>558.6666666666667</ele><time>2026-03-28T08:30:33.113Z</time></trkpt><trkpt lat="45.8707483" lon="9.6429598"><ele>558.3333333333334</ele><time>2026-03-28T08:30:34.113Z</time></trkpt><trkpt lat="45.8706657" lon="9.6429384"><ele>558.0</ele><time>2026-03-28T08:30:35.113Z</time></trkpt><trkpt lat="45.8705842" lon="9.6429176"><ele>557.6666666666666</ele><time>2026-03-28T08:30:36.113Z</time></trkpt><trkpt lat="45.8705103" lon="9.6429067"><ele>557.3333333333333</ele><time>2026-03-28T08:30:37.112Z</time></trkpt><trkpt lat="45.8704451" lon="9.6429129"><ele>557.0</ele><time>2026-03-28T08:30:38.113Z</time></trkpt><trkpt lat="45.8703799" lon="9.6429101"><ele>557.0</ele><time>2026-03-28T08:30:39.112Z</time></trkpt><trkpt lat="45.8702553" lon="9.6428772"><ele>557.0</ele><time>2026-03-28T08:30:41.113Z</time></trkpt><trkpt lat="45.8701621" lon="9.6429111"><ele>557.0</ele><time>2026-03-28T08:30:43.113Z</time></trkpt><trkpt lat="45.8700851" lon="9.6429582"><ele>557.0</ele><time>2026-03-28T08:30:45.112Z</time></trkpt><trkpt lat="45.8700095" lon="9.6428695"><ele>557.0</ele><time>2026-03-28T08:30:48.113Z</time></trkpt><trkpt lat="45.869929" lon="9.6427927"><ele>556.6</ele><time>2026-03-28T08:30:50.113Z</time></trkpt><trkpt lat="45.8698174" lon="9.6427803"><ele>556.2</ele><time>2026-03-28T08:30:52.112Z</time></trkpt><trkpt lat="45.8697196" lon="9.6427987"><ele>555.8</ele><time>2026-03-28T08:30:54.113Z</time></trkpt><trkpt lat="45.8696343" lon="9.6428572"><ele>555.4</ele><time>2026-03-28T08:30:56.112Z</time></trkpt><trkpt lat="45.8695504" lon="9.6427747"><ele>555.0</ele><time>2026-03-28T08:30:59.113Z</time></trkpt><trkpt lat="45.8694529" lon="9.6427236"><ele>556.3333333333334</ele><time>2026-03-28T08:31:01.113Z</time></trkpt><trkpt lat="45.869367" lon="9.6426415"><ele>557.6666666666666</ele><time>2026-03-28T08:31:02.112Z</time></trkpt><trkpt lat="45.8693306" lon="9.6425055"><ele>559.0</ele><time>2026-03-28T08:31:03.112Z</time></trkpt><trkpt lat="45.8693027" lon="9.6423799"><ele>560.3333333333333</ele><time>2026-03-28T08:31:04.113Z</time></trkpt><trkpt lat="45.8692775" lon="9.6422817"><ele>561.6666666666666</ele><time>2026-03-28T08:31:05.113Z</time></trkpt><trkpt lat="45.8692631" lon="9.6421845"><ele>563.0</ele><time>2026-03-28T08:31:06.113Z</time></trkpt><trkpt lat="45.8692324" lon="9.6420496"><ele>564.8333333333333</ele><time>2026-03-28T08:31:07.113Z</time></trkpt><trkpt lat="45.8691901" lon="9.6419029"><ele>566.6666666666666</ele><time>2026-03-28T08:31:08.112Z</time></trkpt><trkpt lat="45.8691559" lon="9.6417773"><ele>568.5</ele><time>2026-03-28T08:31:09.113Z</time></trkpt><trkpt lat="45.8691342" lon="9.641673"><ele>570.3333333333334</ele><time>2026-03-28T08:31:10.112Z</time></trkpt><trkpt lat="45.869128" lon="9.6415505"><ele>572.1666666666667</ele><time>2026-03-28T08:31:11.113Z</time></trkpt><trkpt lat="45.8691304" lon="9.6414373"><ele>574.0</ele><time>2026-03-28T08:31:12.113Z</time></trkpt><trkpt lat="45.8690685" lon="9.6413472"><ele>574.0</ele><time>2026-03-28T08:31:14.113Z</time></trkpt><trkpt lat="45.8689454" lon="9.6413898"><ele>574.0</ele><time>2026-03-28T08:31:16.112Z</time></trkpt><trkpt lat="45.8688644" lon="9.6414236"><ele>574.0</ele><time>2026-03-28T08:31:17.112Z</time></trkpt><trkpt lat="45.8687796" lon="9.6414368"><ele>574.0</ele><time>2026-03-28T08:31:18.113Z</time></trkpt><trkpt lat="45.8687077" lon="9.6414581"><ele>574.0</ele><time>2026-03-28T08:31:19.113Z</time></trkpt><trkpt lat="45.8686655" lon="9.6415325"><ele>574.0</ele><time>2026-03-28T08:31:20.113Z</time></trkpt><trkpt lat="45.8686124" lon="9.641583"><ele>574.0</ele><time>2026-03-28T08:31:23.112Z</time></trkpt><trkpt lat="45.8686142" lon="9.6417485"><ele>574.0</ele><time>2026-03-28T08:31:27.113Z</time></trkpt><trkpt lat="45.8685353" lon="9.6419074"><ele>574.0</ele><time>2026-03-28T08:31:28.113Z</time></trkpt><trkpt lat="45.8684521" lon="9.6419608"><ele>574.0</ele><time>2026-03-28T08:31:29.113Z</time></trkpt><trkpt lat="45.8683646" lon="9.6419911"><ele>574.0</ele><time>2026-03-28T08:31:30.113Z</time></trkpt><trkpt lat="45.8682647" lon="9.6420295"><ele>573.0</ele><time>2026-03-28T08:31:32.112Z</time></trkpt><trkpt lat="45.8681859" lon="9.6420743"><ele>572.0</ele><time>2026-03-28T08:31:33.113Z</time></trkpt><trkpt lat="45.8680963" lon="9.6421442"><ele>571.0</ele><time>2026-03-28T08:31:34.113Z</time></trkpt><trkpt lat="45.8680311" lon="9.6421988"><ele>570.0</ele><time>2026-03-28T08:31:35.113Z</time></trkpt><trkpt lat="45.8679175" lon="9.6422314"><ele>569.0</ele><time>2026-03-28T08:31:37.113Z</time></trkpt><trkpt lat="45.8678331" lon="9.6421359"><ele>569.0</ele><time>2026-03-28T08:31:39.113Z</time></trkpt><trkpt lat="45.8677863" lon="9.64204"><ele>569.0</ele><time>2026-03-28T08:31:40.113Z</time></trkpt><trkpt lat="45.8677394" lon="9.6419574"><ele>569.0</ele><time>2026-03-28T08:31:41.113Z</time></trkpt><trkpt lat="45.8676884" lon="9.641889"><ele>569.0</ele><time>2026-03-28T08:31:42.113Z</time></trkpt><trkpt lat="45.867631" lon="9.6418222"><ele>569.0</ele><time>2026-03-28T08:31:43.112Z</time></trkpt><trkpt lat="45.8675972" lon="9.6417313"><ele>569.0</ele><time>2026-03-28T08:31:45.113Z</time></trkpt><trkpt lat="45.8676227" lon="9.6415434"><ele>570.8</ele><time>2026-03-28T08:31:47.112Z</time></trkpt><trkpt lat="45.8676138" lon="9.6414181"><ele>572.5999999999999</ele><time>2026-03-28T08:31:48.113Z</time></trkpt><trkpt lat="45.8675814" lon="9.64131"><ele>574.4</ele><time>2026-03-28T08:31:49.113Z</time></trkpt><trkpt lat="45.8675541" lon="9.6412242"><ele>576.1999999999999</ele><time>2026-03-28T08:31:50.113Z</time></trkpt><trkpt lat="45.8675408" lon="9.6410942"><ele>578.0</ele><time>2026-03-28T08:31:52.112Z</time></trkpt><trkpt lat="45.8675537" lon="9.6409176"><ele>581.0</ele><time>2026-03-28T08:31:54.113Z</time></trkpt><trkpt lat="45.8675847" lon="9.6407643"><ele>584.0</ele><time>2026-03-28T08:31:56.112Z</time></trkpt><trkpt lat="45.8675805" lon="9.6406541"><ele>587.0</ele><time>2026-03-28T08:31:57.113Z</time></trkpt><trkpt lat="45.8675749" lon="9.6405131"><ele>590.0</ele><time>2026-03-28T08:31:58.113Z</time></trkpt><trkpt lat="45.8675733" lon="9.6403811"><ele>593.0</ele><time>2026-03-28T08:31:59.112Z</time></trkpt><trkpt lat="45.8675767" lon="9.6402559"><ele>594.1999999999999</ele><time>2026-03-28T08:32:00.112Z</time></trkpt><trkpt lat="45.8675832" lon="9.6401272"><ele>595.4</ele><time>2026-03-28T08:32:01.112Z</time></trkpt><trkpt lat="45.8675881" lon="9.6399972"><ele>596.5999999999999</ele><time>2026-03-28T08:32:02.113Z</time></trkpt><trkpt lat="45.8675995" lon="9.6398523"><ele>597.8</ele><time>2026-03-28T08:32:03.113Z</time></trkpt><trkpt lat="45.8676209" lon="9.6396851"><ele>599.0</ele><time>2026-03-28T08:32:04.112Z</time></trkpt><trkpt lat="45.8676113" lon="9.6395902"><ele>599.0</ele><time>2026-03-28T08:32:05.113Z</time></trkpt><trkpt lat="45.8675609" lon="9.6395248"><ele>599.0</ele><time>2026-03-28T08:32:06.113Z</time></trkpt><trkpt lat="45.8675113" lon="9.6394128"><ele>599.0</ele><time>2026-03-28T08:32:07.113Z</time></trkpt><trkpt lat="45.8674842" lon="9.6392677"><ele>599.0</ele><time>2026-03-28T08:32:08.112Z</time></trkpt><trkpt lat="45.8674751" lon="9.6391421"><ele>599.0</ele><time>2026-03-28T08:32:09.113Z</time></trkpt><trkpt lat="45.8674708" lon="9.6390299"><ele>599.0</ele><time>2026-03-28T08:32:10.112Z</time></trkpt><trkpt lat="45.8673935" lon="9.6388674"><ele>600.3333333333333</ele><time>2026-03-28T08:32:12.113Z</time></trkpt><trkpt lat="45.8673354" lon="9.6387856"><ele>601.6666666666666</ele><time>2026-03-28T08:32:13.113Z</time></trkpt><trkpt lat="45.8672703" lon="9.6387219"><ele>603.0</ele><time>2026-03-28T08:32:14.112Z</time></trkpt><trkpt lat="45.8672119" lon="9.638672"><ele>604.3333333333334</ele><time>2026-03-28T08:32:15.112Z</time></trkpt><trkpt lat="45.8671254" lon="9.6385548"><ele>605.6666666666667</ele><time>2026-03-28T08:32:17.113Z</time></trkpt><trkpt lat="45.8670999" lon="9.6384707"><ele>607.0</ele><time>2026-03-28T08:32:18.112Z</time></trkpt><trkpt lat="45.8670034" lon="9.6383871"><ele>610.0</ele><time>2026-03-28T08:32:20.113Z</time></trkpt><trkpt lat="45.8669537" lon="9.6382853"><ele>613.0</ele><time>2026-03-28T08:32:22.113Z</time></trkpt><trkpt lat="45.8669491" lon="9.6381229"><ele>616.0</ele><time>2026-03-28T08:32:24.112Z</time></trkpt><trkpt lat="45.8669666" lon="9.6380159"><ele>619.0</ele><time>2026-03-28T08:32:25.113Z</time></trkpt><trkpt lat="45.8669877" lon="9.6379127"><ele>622.0</ele><time>2026-03-28T08:32:26.113Z</time></trkpt><trkpt lat="45.8669884" lon="9.6378154"><ele>625.0</ele><time>2026-03-28T08:32:27.113Z</time></trkpt><trkpt lat="45.8669457" lon="9.6376647"><ele>623.5</ele><time>2026-03-28T08:32:29.112Z</time></trkpt><trkpt lat="45.866877" lon="9.6375506"><ele>622.0</ele><time>2026-03-28T08:32:31.112Z</time></trkpt><trkpt lat="45.8668164" lon="9.6374635"><ele>620.5</ele><time>2026-03-28T08:32:33.113Z</time></trkpt><trkpt lat="45.8667758" lon="9.6373698"><ele>619.0</ele><time>2026-03-28T08:32:35.112Z</time></trkpt><trkpt lat="45.8667448" lon="9.6372796"><ele>617.5</ele><time>2026-03-28T08:32:39.113Z</time></trkpt><trkpt lat="45.866662" lon="9.6373323"><ele>616.0</ele><time>2026-03-28T08:32:43.113Z</time></trkpt><trkpt lat="45.8665945" lon="9.637359"><ele>616.0</ele><time>2026-03-28T08:32:45.114Z</time></trkpt><trkpt lat="45.8665313" lon="9.6373603"><ele>616.0</ele><time>2026-03-28T08:32:46.114Z</time></trkpt><trkpt lat="45.8663784" lon="9.6372917"><ele>616.0</ele><time>2026-03-28T08:32:48.114Z</time></trkpt><trkpt lat="45.8662863" lon="9.6372267"><ele>616.0</ele><time>2026-03-28T08:32:49.114Z</time></trkpt><trkpt lat="45.8662002" lon="9.6371859"><ele>616.0</ele><time>2026-03-28T08:32:50.113Z</time></trkpt><trkpt lat="45.8661125" lon="9.6371502"><ele>616.0</ele><time>2026-03-28T08:32:51.113Z</time></trkpt><trkpt lat="45.8660219" lon="9.6371181"><ele>616.0</ele><time>2026-03-28T08:32:52.114Z</time></trkpt><trkpt lat="45.8659466" lon="9.6370877"><ele>616.0</ele><time>2026-03-28T08:32:53.114Z</time></trkpt><trkpt lat="45.8658841" lon="9.6369934"><ele>616.0</ele><time>2026-03-28T08:32:55.113Z</time></trkpt><trkpt lat="45.8658741" lon="9.636854"><ele>616.0</ele><time>2026-03-28T08:32:57.113Z</time></trkpt><trkpt lat="45.8658978" lon="9.6367677"><ele>616.0</ele><time>2026-03-28T08:32:58.113Z</time></trkpt><trkpt lat="45.8658779" lon="9.6366589"><ele>617.8</ele><time>2026-03-28T08:33:00.113Z</time></trkpt><trkpt lat="45.8657708" lon="9.6366948"><ele>619.6</ele><time>2026-03-28T08:33:02.114Z</time></trkpt><trkpt lat="45.865669" lon="9.6367251"><ele>621.4</ele><time>2026-03-28T08:33:04.114Z</time></trkpt><trkpt lat="45.8655924" lon="9.636732"><ele>623.2</ele><time>2026-03-28T08:33:06.114Z</time></trkpt><trkpt lat="45.8654825" lon="9.6366312"><ele>625.0</ele><time>2026-03-28T08:33:08.114Z</time></trkpt><trkpt lat="45.8653725" lon="9.6365991"><ele>625.0</ele><time>2026-03-28T08:33:10.113Z</time></trkpt><trkpt lat="45.8652765" lon="9.6366291"><ele>625.0</ele><time>2026-03-28T08:33:12.113Z</time></trkpt><trkpt lat="45.8651779" lon="9.6366144"><ele>625.0</ele><time>2026-03-28T08:33:14.114Z</time></trkpt><trkpt lat="45.8650915" lon="9.636586"><ele>625.0</ele><time>2026-03-28T08:33:16.113Z</time></trkpt><trkpt lat="45.8650037" lon="9.6365996"><ele>625.0</ele><time>2026-03-28T08:33:18.114Z</time></trkpt><trkpt lat="45.8649256" lon="9.6365999"><ele>622.8333333333334</ele><time>2026-03-28T08:33:19.113Z</time></trkpt><trkpt lat="45.8648489" lon="9.6366188"><ele>620.6666666666667</ele><time>2026-03-28T08:33:20.114Z</time></trkpt><trkpt lat="45.8647184" lon="9.6366038"><ele>618.5</ele><time>2026-03-28T08:33:22.114Z</time></trkpt><trkpt lat="45.8646357" lon="9.6365621"><ele>616.3333333333334</ele><time>2026-03-28T08:33:23.113Z</time></trkpt><trkpt lat="45.8645774" lon="9.636525"><ele>614.1666666666666</ele><time>2026-03-28T08:33:24.114Z</time></trkpt><trkpt lat="45.8645258" lon="9.6364732"><ele>612.0</ele><time>2026-03-28T08:33:25.113Z</time></trkpt><trkpt lat="45.864428" lon="9.6363904"><ele>612.0</ele><time>2026-03-28T08:33:27.114Z</time></trkpt><trkpt lat="45.8643238" lon="9.6363134"><ele>612.0</ele><time>2026-03-28T08:33:29.114Z</time></trkpt><trkpt lat="45.8642339" lon="9.6362026"><ele>612.0</ele><time>2026-03-28T08:33:31.113Z</time></trkpt><trkpt lat="45.8641526" lon="9.6360956"><ele>612.0</ele><time>2026-03-28T08:33:33.114Z</time></trkpt><trkpt lat="45.8640414" lon="9.6360241"><ele>616.3333333333334</ele><time>2026-03-28T08:33:35.114Z</time></trkpt><trkpt lat="45.8639756" lon="9.6359951"><ele>620.6666666666666</ele><time>2026-03-28T08:33:36.114Z</time></trkpt><trkpt lat="45.8639127" lon="9.6360021"><ele>625.0</ele><time>2026-03-28T08:33:37.113Z</time></trkpt><trkpt lat="45.8638478" lon="9.6360386"><ele>629.3333333333333</ele><time>2026-03-28T08:33:38.114Z</time></trkpt><trkpt lat="45.8637818" lon="9.6360712"><ele>633.6666666666666</ele><time>2026-03-28T08:33:39.114Z</time></trkpt><trkpt lat="45.8636805" lon="9.6360471"><ele>638.0</ele><time>2026-03-28T08:33:41.114Z</time></trkpt><trkpt lat="45.863567" lon="9.6360206"><ele>638.0</ele><time>2026-03-28T08:33:43.113Z</time></trkpt><trkpt lat="45.8635034" lon="9.6360753"><ele>638.0</ele><time>2026-03-28T08:33:44.114Z</time></trkpt><trkpt lat="45.8634532" lon="9.6361376"><ele>638.0</ele><time>2026-03-28T08:33:45.114Z</time></trkpt><trkpt lat="45.8633543" lon="9.6362132"><ele>638.0</ele><time>2026-03-28T08:33:47.114Z</time></trkpt><trkpt lat="45.8632423" lon="9.63623"><ele>638.0</ele><time>2026-03-28T08:33:49.114Z</time></trkpt><trkpt lat="45.8631413" lon="9.6362427"><ele>638.1666666666666</ele><time>2026-03-28T08:33:51.113Z</time></trkpt><trkpt lat="45.8630782" lon="9.6362684"><ele>638.3333333333333</ele><time>2026-03-28T08:33:52.114Z</time></trkpt><trkpt lat="45.8629541" lon="9.6362717"><ele>638.5</ele><time>2026-03-28T08:33:54.114Z</time></trkpt><trkpt lat="45.8628869" lon="9.6362239"><ele>638.6666666666666</ele><time>2026-03-28T08:33:55.113Z</time></trkpt><trkpt lat="45.8628253" lon="9.6361763"><ele>638.8333333333334</ele><time>2026-03-28T08:33:56.113Z</time></trkpt><trkpt lat="45.862763" lon="9.6361502"><ele>639.0</ele><time>2026-03-28T08:33:57.113Z</time></trkpt><trkpt lat="45.8626745" lon="9.6360661"><ele>639.0</ele><time>2026-03-28T08:33:59.113Z</time></trkpt><trkpt lat="45.8626325" lon="9.6359899"><ele>639.0</ele><time>2026-03-28T08:34:02.114Z</time></trkpt><trkpt lat="45.8625531" lon="9.6359411"><ele>639.0</ele><time>2026-03-28T08:34:04.114Z</time></trkpt><trkpt lat="45.8624927" lon="9.6358842"><ele>639.0</ele><time>2026-03-28T08:34:05.114Z</time></trkpt><trkpt lat="45.8624454" lon="9.6358146"><ele>639.0</ele><time>2026-03-28T08:34:06.113Z</time></trkpt><trkpt lat="45.8623629" lon="9.6357064"><ele>639.0</ele><time>2026-03-28T08:34:08.113Z</time></trkpt><trkpt lat="45.8622749" lon="9.6356662"><ele>639.0</ele><time>2026-03-28T08:34:10.114Z</time></trkpt><trkpt lat="45.862161" lon="9.6355871"><ele>639.0</ele><time>2026-03-28T08:34:12.113Z</time></trkpt><trkpt lat="45.8620733" lon="9.6354812"><ele>639.0</ele><time>2026-03-28T08:34:14.114Z</time></trkpt><trkpt lat="45.8620213" lon="9.6354169"><ele>639.0</ele><time>2026-03-28T08:34:15.114Z</time></trkpt><trkpt lat="45.8619722" lon="9.6353521"><ele>639.0</ele><time>2026-03-28T08:34:16.114Z</time></trkpt><trkpt lat="45.8618919" lon="9.6352528"><ele>640.1428571428572</ele><time>2026-03-28T08:34:18.113Z</time></trkpt><trkpt lat="45.8618385" lon="9.6351971"><ele>641.2857142857143</ele><time>2026-03-28T08:34:20.113Z</time></trkpt><trkpt lat="45.8617807" lon="9.6351171"><ele>642.4285714285714</ele><time>2026-03-28T08:34:23.114Z</time></trkpt><trkpt lat="45.8617213" lon="9.6350778"><ele>643.5714285714287</ele><time>2026-03-28T08:34:26.114Z</time></trkpt><trkpt lat="45.8616454" lon="9.6350609"><ele>644.7142857142858</ele><time>2026-03-28T08:34:32.114Z</time></trkpt><trkpt lat="45.8615828" lon="9.6351281"><ele>645.8571428571429</ele><time>2026-03-28T08:34:36.114Z</time></trkpt><trkpt lat="45.8615543" lon="9.6352226"><ele>647.0</ele><time>2026-03-28T08:34:39.114Z</time></trkpt><trkpt lat="45.861583" lon="9.6353096"><ele>647.0</ele><time>2026-03-28T08:34:41.114Z</time></trkpt><trkpt lat="45.8614798" lon="9.635477"><ele>647.0</ele><time>2026-03-28T08:35:22.114Z</time></trkpt><trkpt lat="45.8614518" lon="9.635605"><ele>647.0</ele><time>2026-03-28T08:35:24.113Z</time></trkpt><trkpt lat="45.861421" lon="9.6356901"><ele>647.0</ele><time>2026-03-28T08:35:26.114Z</time></trkpt><trkpt lat="45.8613572" lon="9.635718"><ele>647.0</ele><time>2026-03-28T08:35:30.114Z</time></trkpt><trkpt lat="45.8612903" lon="9.6357245"><ele>647.0</ele><time>2026-03-28T08:35:32.113Z</time></trkpt><trkpt lat="45.8612299" lon="9.6357666"><ele>647.0</ele><time>2026-03-28T08:35:34.113Z</time></trkpt><trkpt lat="45.861168" lon="9.6357978"><ele>647.0</ele><time>2026-03-28T08:35:36.114Z</time></trkpt><trkpt lat="45.8610845" lon="9.6357838"><ele>647.0</ele><time>2026-03-28T08:35:39.114Z</time></trkpt><trkpt lat="45.8609941" lon="9.6357946"><ele>647.0</ele><time>2026-03-28T08:35:42.113Z</time></trkpt><trkpt lat="45.8609109" lon="9.635829"><ele>647.0</ele><time>2026-03-28T08:35:45.113Z</time></trkpt><trkpt lat="45.8608287" lon="9.6358836"><ele>651.6666666666666</ele><time>2026-03-28T08:35:48.114Z</time></trkpt><trkpt lat="45.8607666" lon="9.635934"><ele>656.3333333333333</ele><time>2026-03-28T08:35:51.114Z</time></trkpt><trkpt lat="45.8606813" lon="9.6359321"><ele>661.0</ele><time>2026-03-28T08:35:54.114Z</time></trkpt><trkpt lat="45.8606462" lon="9.6360136"><ele>665.6666666666666</ele><time>2026-03-28T08:35:58.187Z</time></trkpt><trkpt lat="45.8605435" lon="9.6361298"><ele>670.3333333333334</ele><time>2026-03-28T08:36:02.118Z</time></trkpt><trkpt lat="45.8605122" lon="9.6362371"><ele>675.0</ele><time>2026-03-28T08:36:05.128Z</time></trkpt><trkpt lat="45.8604493" lon="9.6362816"><ele>676.4</ele><time>2026-03-28T08:36:08.137Z</time></trkpt><trkpt lat="45.8603814" lon="9.6363023"><ele>677.8</ele><time>2026-03-28T08:36:18.088Z</time></trkpt><trkpt lat="45.8603155" lon="9.6363167"><ele>679.2</ele><time>2026-03-28T08:36:22.176Z</time></trkpt><trkpt lat="45.8603496" lon="9.6364407"><ele>680.6</ele><time>2026-03-28T08:36:52.15Z</time></trkpt><trkpt lat="45.8603436" lon="9.6365313"><ele>682.0</ele><time>2026-03-28T08:36:55.194Z</time></trkpt><trkpt lat="45.8603341" lon="9.6367734"><ele>682.0</ele><time>2026-03-28T08:36:59.114Z</time></trkpt><trkpt lat="45.860324" lon="9.6368796"><ele>682.0</ele><time>2026-03-28T08:37:02.176Z</time></trkpt><trkpt lat="45.8603392" lon="9.6369861"><ele>682.0</ele><time>2026-03-28T08:37:07.189Z</time></trkpt><trkpt lat="45.8603594" lon="9.6370725"><ele>682.0</ele><time>2026-03-28T08:37:11.15Z</time></trkpt><trkpt lat="45.8603262" lon="9.6371632"><ele>682.0</ele><time>2026-03-28T08:37:14.113Z</time></trkpt><trkpt lat="45.860278" lon="9.6372939"><ele>682.0</ele><time>2026-03-28T08:37:17.113Z</time></trkpt><trkpt lat="45.8602375" lon="9.6373756"><ele>682.3333333333334</ele><time>2026-03-28T08:37:20.115Z</time></trkpt><trkpt lat="45.8602288" lon="9.6375066"><ele>682.6666666666667</ele><time>2026-03-28T08:37:23.123Z</time></trkpt><trkpt lat="45.8601583" lon="9.6374993"><ele>683.0</ele><time>2026-03-28T08:37:27.136Z</time></trkpt><trkpt lat="45.8600938" lon="9.6374576"><ele>683.3333333333334</ele><time>2026-03-28T08:37:37.163Z</time></trkpt><trkpt lat="45.8600204" lon="9.6374748"><ele>683.6666666666666</ele><time>2026-03-28T08:37:41.174Z</time></trkpt><trkpt lat="45.8599403" lon="9.6375154"><ele>684.0</ele><time>2026-03-28T08:37:45.114Z</time></trkpt><trkpt lat="45.8598764" lon="9.6375712"><ele>690.5</ele><time>2026-03-28T08:37:48.113Z</time></trkpt><trkpt lat="45.85985" lon="9.6376649"><ele>697.0</ele><time>2026-03-28T08:37:49.113Z</time></trkpt><trkpt lat="45.8598031" lon="9.6377398"><ele>703.5</ele><time>2026-03-28T08:37:51.113Z</time></trkpt><trkpt lat="45.8597231" lon="9.6378607"><ele>710.0</ele><time>2026-03-28T08:37:54.114Z</time></trkpt><trkpt lat="45.859668" lon="9.6379439"><ele>716.5</ele><time>2026-03-28T08:37:55.114Z</time></trkpt><trkpt lat="45.8596128" lon="9.6380272"><ele>723.0</ele><time>2026-03-28T08:38:06.114Z</time></trkpt><trkpt lat="45.8595782" lon="9.6381244"><ele>723.8333333333334</ele><time>2026-03-28T08:38:08.114Z</time></trkpt><trkpt lat="45.8595212" lon="9.6382676"><ele>724.6666666666666</ele><time>2026-03-28T08:38:23.114Z</time></trkpt><trkpt lat="45.8594914" lon="9.638382"><ele>725.5</ele><time>2026-03-28T08:38:25.114Z</time></trkpt><trkpt lat="45.8595021" lon="9.6385064"><ele>726.3333333333333</ele><time>2026-03-28T08:38:29.114Z</time></trkpt><trkpt lat="45.8595386" lon="9.6386136"><ele>727.1666666666666</ele><time>2026-03-28T08:38:33.113Z</time></trkpt><trkpt lat="45.8595852" lon="9.6387044"><ele>728.0</ele><time>2026-03-28T08:38:35.114Z</time></trkpt><trkpt lat="45.8596435" lon="9.6387924"><ele>728.8</ele><time>2026-03-28T08:38:37.114Z</time></trkpt><trkpt lat="45.8596984" lon="9.6388732"><ele>729.5999999999999</ele><time>2026-03-28T08:38:40.114Z</time></trkpt><trkpt lat="45.859759" lon="9.6389624"><ele>730.4000000000001</ele><time>2026-03-28T08:38:43.114Z</time></trkpt><trkpt lat="45.8598607" lon="9.639113"><ele>731.2</ele><time>2026-03-28T08:38:45.114Z</time></trkpt><trkpt lat="45.8599191" lon="9.6392135"><ele>732.0</ele><time>2026-03-28T08:38:46.114Z</time></trkpt><trkpt lat="45.8599761" lon="9.6392981"><ele>732.0</ele><time>2026-03-28T08:38:47.114Z</time></trkpt><trkpt lat="45.8600509" lon="9.63938"><ele>732.0</ele><time>2026-03-28T08:38:48.114Z</time></trkpt><trkpt lat="45.8601259" lon="9.6394611"><ele>732.0</ele><time>2026-03-28T08:38:49.114Z</time></trkpt><trkpt lat="45.8601788" lon="9.6395254"><ele>732.0</ele><time>2026-03-28T08:38:50.113Z</time></trkpt><trkpt lat="45.8602672" lon="9.6396352"><ele>732.0</ele><time>2026-03-28T08:38:52.113Z</time></trkpt><trkpt lat="45.8603188" lon="9.6396909"><ele>732.0</ele><time>2026-03-28T08:38:53.114Z</time></trkpt><trkpt lat="45.8603725" lon="9.6398206"><ele>727.8333333333334</ele><time>2026-03-28T08:38:55.114Z</time></trkpt><trkpt lat="45.8604358" lon="9.6398864"><ele>723.6666666666666</ele><time>2026-03-28T08:38:56.114Z</time></trkpt><trkpt lat="45.8605148" lon="9.6399327"><ele>719.5</ele><time>2026-03-28T08:38:57.114Z</time></trkpt><trkpt lat="45.8605889" lon="9.6399558"><ele>715.3333333333333</ele><time>2026-03-28T08:38:58.114Z</time></trkpt><trkpt lat="45.8606537" lon="9.6399781"><ele>711.1666666666666</ele><time>2026-03-28T08:38:59.113Z</time></trkpt><trkpt lat="45.8607479" lon="9.6400967"><ele>707.0</ele><time>2026-03-28T08:39:01.113Z</time></trkpt><trkpt lat="45.8607812" lon="9.6401868"><ele>707.0</ele><time>2026-03-28T08:39:02.114Z</time></trkpt><trkpt lat="45.860827" lon="9.6402685"><ele>707.0</ele><time>2026-03-28T08:39:03.114Z</time></trkpt><trkpt lat="45.8608844" lon="9.6403234"><ele>707.0</ele><time>2026-03-28T08:39:04.114Z</time></trkpt><trkpt lat="45.8609897" lon="9.6403667"><ele>707.0</ele><time>2026-03-28T08:39:06.114Z</time></trkpt><trkpt lat="45.8610608" lon="9.6404801"><ele>707.0</ele><time>2026-03-28T08:39:08.114Z</time></trkpt><trkpt lat="45.8611227" lon="9.6405519"><ele>707.0</ele><time>2026-03-28T08:39:09.113Z</time></trkpt><trkpt lat="45.8611848" lon="9.6406251"><ele>703.8</ele><time>2026-03-28T08:39:10.114Z</time></trkpt><trkpt lat="45.8612395" lon="9.6406948"><ele>700.6</ele><time>2026-03-28T08:39:11.114Z</time></trkpt><trkpt lat="45.8613424" lon="9.6407789"><ele>697.4</ele><time>2026-03-28T08:39:13.113Z</time></trkpt><trkpt lat="45.8614523" lon="9.640903"><ele>694.1999999999999</ele><time>2026-03-28T08:39:15.113Z</time></trkpt><trkpt lat="45.8615134" lon="9.6409651"><ele>691.0</ele><time>2026-03-28T08:39:16.114Z</time></trkpt><trkpt lat="45.8615693" lon="9.641023"><ele>691.0</ele><time>2026-03-28T08:39:17.113Z</time></trkpt><trkpt lat="45.8616254" lon="9.6410874"><ele>691.0</ele><time>2026-03-28T08:39:18.113Z</time></trkpt><trkpt lat="45.8616809" lon="9.6411547"><ele>691.0</ele><time>2026-03-28T08:39:19.114Z</time></trkpt><trkpt lat="45.8617459" lon="9.6412638"><ele>691.0</ele><time>2026-03-28T08:39:21.114Z</time></trkpt><trkpt lat="45.8618396" lon="9.6413771"><ele>691.0</ele><time>2026-03-28T08:39:23.114Z</time></trkpt><trkpt lat="45.8618999" lon="9.641428"><ele>691.0</ele><time>2026-03-28T08:39:24.113Z</time></trkpt><trkpt lat="45.8619584" lon="9.6414843"><ele>686.1999999999999</ele><time>2026-03-28T08:39:25.113Z</time></trkpt><trkpt lat="45.8620168" lon="9.6415395"><ele>681.4</ele><time>2026-03-28T08:39:26.113Z</time></trkpt><trkpt lat="45.8621077" lon="9.6416223"><ele>676.6</ele><time>2026-03-28T08:39:28.114Z</time></trkpt><trkpt lat="45.862198" lon="9.6417281"><ele>671.8</ele><time>2026-03-28T08:39:30.114Z</time></trkpt><trkpt lat="45.8622944" lon="9.6418383"><ele>667.0</ele><time>2026-03-28T08:39:32.114Z</time></trkpt><trkpt lat="45.8623535" lon="9.6418847"><ele>667.8</ele><time>2026-03-28T08:39:33.113Z</time></trkpt><trkpt lat="45.8624216" lon="9.6420151"><ele>668.6</ele><time>2026-03-28T08:39:35.114Z</time></trkpt><trkpt lat="45.8624937" lon="9.6421417"><ele>669.4</ele><time>2026-03-28T08:39:37.114Z</time></trkpt><trkpt lat="45.8625069" lon="9.6422604"><ele>670.1999999999999</ele><time>2026-03-28T08:39:39.114Z</time></trkpt><trkpt lat="45.8624697" lon="9.6424202"><ele>671.0</ele><time>2026-03-28T08:39:41.113Z</time></trkpt><trkpt lat="45.8624399" lon="9.6425"><ele>671.0</ele><time>2026-03-28T08:39:42.113Z</time></trkpt><trkpt lat="45.8624061" lon="9.6425771"><ele>671.0</ele><time>2026-03-28T08:39:43.114Z</time></trkpt><trkpt lat="45.8623821" lon="9.6426629"><ele>671.0</ele><time>2026-03-28T08:39:44.114Z</time></trkpt><trkpt lat="45.8623523" lon="9.6428262"><ele>671.0</ele><time>2026-03-28T08:39:46.113Z</time></trkpt><trkpt lat="45.8623052" lon="9.6429855"><ele>671.0</ele><time>2026-03-28T08:39:48.114Z</time></trkpt><trkpt lat="45.8622824" lon="9.6430779"><ele>671.0</ele><time>2026-03-28T08:39:49.113Z</time></trkpt><trkpt lat="45.8622731" lon="9.6431737"><ele>668.1999999999999</ele><time>2026-03-28T08:39:50.113Z</time></trkpt><trkpt lat="45.862278" lon="9.6432904"><ele>665.4</ele><time>2026-03-28T08:39:52.113Z</time></trkpt><trkpt lat="45.8622865" lon="9.643417"><ele>662.6</ele><time>2026-03-28T08:39:54.114Z</time></trkpt><trkpt lat="45.8622782" lon="9.6435539"><ele>659.8</ele><time>2026-03-28T08:39:56.113Z</time></trkpt><trkpt lat="45.8622919" lon="9.6437166"><ele>657.0</ele><time>2026-03-28T08:39:58.113Z</time></trkpt><trkpt lat="45.8623105" lon="9.6438552"><ele>654.6</ele><time>2026-03-28T08:40:00.113Z</time></trkpt><trkpt lat="45.8623033" lon="9.6440191"><ele>652.2</ele><time>2026-03-28T08:40:02.114Z</time></trkpt><trkpt lat="45.8622943" lon="9.6441927"><ele>649.8</ele><time>2026-03-28T08:40:04.113Z</time></trkpt><trkpt lat="45.8622796" lon="9.644353"><ele>647.4</ele><time>2026-03-28T08:40:06.114Z</time></trkpt><trkpt lat="45.8622379" lon="9.6444478"><ele>645.0</ele><time>2026-03-28T08:40:08.114Z</time></trkpt><trkpt lat="45.8622194" lon="9.6445832"><ele>644.0</ele><time>2026-03-28T08:40:10.114Z</time></trkpt><trkpt lat="45.8622954" lon="9.6447309"><ele>643.0</ele><time>2026-03-28T08:40:12.114Z</time></trkpt><trkpt lat="45.8623762" lon="9.644843"><ele>642.0</ele><time>2026-03-28T08:40:14.114Z</time></trkpt><trkpt lat="45.862407" lon="9.6449811"><ele>641.0</ele><time>2026-03-28T08:40:16.113Z</time></trkpt><trkpt lat="45.8624262" lon="9.6451245"><ele>640.0</ele><time>2026-03-28T08:40:18.113Z</time></trkpt><trkpt lat="45.8624784" lon="9.6452548"><ele>638.6666666666667</ele><time>2026-03-28T08:40:20.114Z</time></trkpt><trkpt lat="45.8625175" lon="9.6453568"><ele>637.3333333333334</ele><time>2026-03-28T08:40:22.114Z</time></trkpt><trkpt lat="45.8625579" lon="9.6454501"><ele>636.0</ele><time>2026-03-28T08:40:24.113Z</time></trkpt><trkpt lat="45.8626023" lon="9.6455212"><ele>634.6666666666666</ele><time>2026-03-28T08:40:26.114Z</time></trkpt><trkpt lat="45.8626707" lon="9.6456284"><ele>633.3333333333333</ele><time>2026-03-28T08:40:28.113Z</time></trkpt><trkpt lat="45.8627057" lon="9.6457767"><ele>632.0</ele><time>2026-03-28T08:40:30.114Z</time></trkpt><trkpt lat="45.8627046" lon="9.6459336"><ele>623.6</ele><time>2026-03-28T08:40:32.113Z</time></trkpt><trkpt lat="45.8627081" lon="9.6461018"><ele>615.2</ele><time>2026-03-28T08:40:34.114Z</time></trkpt><trkpt lat="45.8627113" lon="9.6462492"><ele>606.8</ele><time>2026-03-28T08:40:36.114Z</time></trkpt><trkpt lat="45.8627321" lon="9.6463798"><ele>598.4</ele><time>2026-03-28T08:40:38.114Z</time></trkpt><trkpt lat="45.8627369" lon="9.6464842"><ele>590.0</ele><time>2026-03-28T08:40:40.114Z</time></trkpt><trkpt lat="45.8627792" lon="9.6465991"><ele>590.0</ele><time>2026-03-28T08:40:42.114Z</time></trkpt><trkpt lat="45.8628254" lon="9.646706"><ele>590.0</ele><time>2026-03-28T08:40:44.114Z</time></trkpt><trkpt lat="45.8628153" lon="9.6468158"><ele>590.0</ele><time>2026-03-28T08:40:47.113Z</time></trkpt><trkpt lat="45.862741" lon="9.6468547"><ele>590.0</ele><time>2026-03-28T08:40:48.114Z</time></trkpt><trkpt lat="45.8626561" lon="9.646905"><ele>590.0</ele><time>2026-03-28T08:40:49.114Z</time></trkpt><trkpt lat="45.8625625" lon="9.646975"><ele>590.0</ele><time>2026-03-28T08:40:50.113Z</time></trkpt><trkpt lat="45.8624802" lon="9.6470545"><ele>589.8</ele><time>2026-03-28T08:40:51.114Z</time></trkpt><trkpt lat="45.8623918" lon="9.647123"><ele>589.6</ele><time>2026-03-28T08:40:52.114Z</time></trkpt><trkpt lat="45.8623028" lon="9.6471848"><ele>589.4</ele><time>2026-03-28T08:40:53.114Z</time></trkpt><trkpt lat="45.8622273" lon="9.6472344"><ele>589.2</ele><time>2026-03-28T08:40:54.113Z</time></trkpt><trkpt lat="45.8621667" lon="9.6473193"><ele>589.0</ele><time>2026-03-28T08:40:55.114Z</time></trkpt><trkpt lat="45.8621349" lon="9.6474335"><ele>589.0</ele><time>2026-03-28T08:40:56.114Z</time></trkpt><trkpt lat="45.8621287" lon="9.6475716"><ele>589.0</ele><time>2026-03-28T08:40:57.114Z</time></trkpt><trkpt lat="45.862146" lon="9.6477118"><ele>589.0</ele><time>2026-03-28T08:40:58.113Z</time></trkpt><trkpt lat="45.8621687" lon="9.6478412"><ele>589.0</ele><time>2026-03-28T08:40:59.114Z</time></trkpt><trkpt lat="45.8621744" lon="9.6479537"><ele>589.0</ele><time>2026-03-28T08:41:00.113Z</time></trkpt><trkpt lat="45.8621563" lon="9.6480634"><ele>589.0</ele><time>2026-03-28T08:41:01.114Z</time></trkpt><trkpt lat="45.8621484" lon="9.64816"><ele>590.1666666666667</ele><time>2026-03-28T08:41:02.113Z</time></trkpt><trkpt lat="45.8620755" lon="9.6481814"><ele>591.3333333333334</ele><time>2026-03-28T08:41:04.114Z</time></trkpt><trkpt lat="45.8619875" lon="9.6482085"><ele>592.5</ele><time>2026-03-28T08:41:05.114Z</time></trkpt><trkpt lat="45.8619117" lon="9.6482523"><ele>593.6666666666666</ele><time>2026-03-28T08:41:06.113Z</time></trkpt><trkpt lat="45.8618419" lon="9.6482778"><ele>594.8333333333333</ele><time>2026-03-28T08:41:07.114Z</time></trkpt><trkpt lat="45.8617258" lon="9.6482687"><ele>596.0</ele><time>2026-03-28T08:41:09.114Z</time></trkpt><trkpt lat="45.8616521" lon="9.6482451"><ele>596.0</ele><time>2026-03-28T08:41:10.113Z</time></trkpt><trkpt lat="45.8615812" lon="9.6482676"><ele>596.0</ele><time>2026-03-28T08:41:11.114Z</time></trkpt><trkpt lat="45.8615182" lon="9.6483346"><ele>596.0</ele><time>2026-03-28T08:41:12.114Z</time></trkpt><trkpt lat="45.8614698" lon="9.6483989"><ele>596.0</ele><time>2026-03-28T08:41:13.114Z</time></trkpt><trkpt lat="45.8614173" lon="9.64849"><ele>596.0</ele><time>2026-03-28T08:41:14.114Z</time></trkpt><trkpt lat="45.8613518" lon="9.6485964"><ele>596.0</ele><time>2026-03-28T08:41:15.113Z</time></trkpt><trkpt lat="45.8612879" lon="9.6487008"><ele>590.4</ele><time>2026-03-28T08:41:16.114Z</time></trkpt><trkpt lat="45.8612144" lon="9.6487846"><ele>584.8</ele><time>2026-03-28T08:41:17.114Z</time></trkpt><trkpt lat="45.8611636" lon="9.6488642"><ele>579.1999999999999</ele><time>2026-03-28T08:41:18.114Z</time></trkpt><trkpt lat="45.8611372" lon="9.6490603"><ele>573.6</ele><time>2026-03-28T08:41:20.114Z</time></trkpt><trkpt lat="45.8611499" lon="9.649174"><ele>568.0</ele><time>2026-03-28T08:41:21.114Z</time></trkpt><trkpt lat="45.861149" lon="9.6492878"><ele>568.0</ele><time>2026-03-28T08:41:22.114Z</time></trkpt><trkpt lat="45.8611476" lon="9.6494012"><ele>568.0</ele><time>2026-03-28T08:41:23.114Z</time></trkpt><trkpt lat="45.8611355" lon="9.6495059"><ele>568.0</ele><time>2026-03-28T08:41:24.114Z</time></trkpt><trkpt lat="45.8610859" lon="9.6496235"><ele>568.0</ele><time>2026-03-28T08:41:26.114Z</time></trkpt><trkpt lat="45.8609855" lon="9.6496567"><ele>568.0</ele><time>2026-03-28T08:41:28.114Z</time></trkpt><trkpt lat="45.8608524" lon="9.6496474"><ele>569.8333333333334</ele><time>2026-03-28T08:41:30.114Z</time></trkpt><trkpt lat="45.8607611" lon="9.6496229"><ele>571.6666666666667</ele><time>2026-03-28T08:41:31.114Z</time></trkpt><trkpt lat="45.8606871" lon="9.6496013"><ele>573.5</ele><time>2026-03-28T08:41:32.114Z</time></trkpt><trkpt lat="45.8606057" lon="9.6495769"><ele>575.3333333333334</ele><time>2026-03-28T08:41:33.114Z</time></trkpt><trkpt lat="45.860532" lon="9.6495669"><ele>577.1666666666666</ele><time>2026-03-28T08:41:34.114Z</time></trkpt><trkpt lat="45.860466" lon="9.6495659"><ele>579.0</ele><time>2026-03-28T08:41:35.113Z</time></trkpt><trkpt lat="45.860404" lon="9.6496037"><ele>579.0</ele><time>2026-03-28T08:41:36.113Z</time></trkpt><trkpt lat="45.8603302" lon="9.6496882"><ele>579.0</ele><time>2026-03-28T08:41:38.113Z</time></trkpt><trkpt lat="45.8602876" lon="9.6498077"><ele>579.0</ele><time>2026-03-28T08:41:40.114Z</time></trkpt><trkpt lat="45.8602533" lon="9.6499817"><ele>579.0</ele><time>2026-03-28T08:41:42.114Z</time></trkpt><trkpt lat="45.860239" lon="9.6500896"><ele>579.0</ele><time>2026-03-28T08:41:43.114Z</time></trkpt><trkpt lat="45.8602144" lon="9.6502439"><ele>582.2</ele><time>2026-03-28T08:41:45.113Z</time></trkpt><trkpt lat="45.8601902" lon="9.6503277"><ele>585.4</ele><time>2026-03-28T08:41:46.113Z</time></trkpt><trkpt lat="45.8601453" lon="9.6504643"><ele>588.6</ele><time>2026-03-28T08:41:48.114Z</time></trkpt><trkpt lat="45.8600533" lon="9.6505813"><ele>591.8</ele><time>2026-03-28T08:41:50.113Z</time></trkpt><trkpt lat="45.8599195" lon="9.6506399"><ele>595.0</ele><time>2026-03-28T08:41:52.114Z</time></trkpt><trkpt lat="45.8598433" lon="9.6506828"><ele>595.0</ele><time>2026-03-28T08:41:53.114Z</time></trkpt><trkpt lat="45.8597621" lon="9.6507365"><ele>595.0</ele><time>2026-03-28T08:41:54.113Z</time></trkpt><trkpt lat="45.8596779" lon="9.6507729"><ele>595.0</ele><time>2026-03-28T08:41:55.114Z</time></trkpt><trkpt lat="45.8595903" lon="9.6508035"><ele>595.0</ele><time>2026-03-28T08:41:56.114Z</time></trkpt><trkpt lat="45.8595033" lon="9.6508368"><ele>595.0</ele><time>2026-03-28T08:41:57.113Z</time></trkpt><trkpt lat="45.8594077" lon="9.6508597"><ele>595.0</ele><time>2026-03-28T08:41:58.114Z</time></trkpt><trkpt lat="45.8593094" lon="9.6508601"><ele>595.0</ele><time>2026-03-28T08:41:59.113Z</time></trkpt><trkpt lat="45.85922" lon="9.6508622"><ele>595.0</ele><time>2026-03-28T08:42:00.114Z</time></trkpt><trkpt lat="45.8591544" lon="9.6508742"><ele>595.0</ele><time>2026-03-28T08:42:01.114Z</time></trkpt><trkpt lat="45.8590635" lon="9.6508811"><ele>595.0</ele><time>2026-03-28T08:42:03.114Z</time></trkpt><trkpt lat="45.8589839" lon="9.6508921"><ele>595.0</ele><time>2026-03-28T08:42:05.114Z</time></trkpt><trkpt lat="45.8588807" lon="9.6509524"><ele>595.8333333333334</ele><time>2026-03-28T08:42:07.114Z</time></trkpt><trkpt lat="45.8588134" lon="9.6509917"><ele>596.6666666666667</ele><time>2026-03-28T08:42:08.113Z</time></trkpt><trkpt lat="45.8587409" lon="9.6510207"><ele>597.5</ele><time>2026-03-28T08:42:09.113Z</time></trkpt><trkpt lat="45.8586643" lon="9.6510664"><ele>598.3333333333334</ele><time>2026-03-28T08:42:10.113Z</time></trkpt><trkpt lat="45.8585945" lon="9.6511104"><ele>599.1666666666666</ele><time>2026-03-28T08:42:11.113Z</time></trkpt><trkpt lat="45.8585394" lon="9.6511577"><ele>600.0</ele><time>2026-03-28T08:42:12.113Z</time></trkpt><trkpt lat="45.8584671" lon="9.6512026"><ele>602.1666666666666</ele><time>2026-03-28T08:42:14.113Z</time></trkpt><trkpt lat="45.8583801" lon="9.6512337"><ele>604.3333333333334</ele><time>2026-03-28T08:42:18.114Z</time></trkpt><trkpt lat="45.8583163" lon="9.65128"><ele>606.5</ele><time>2026-03-28T08:42:20.113Z</time></trkpt><trkpt lat="45.8582446" lon="9.6512878"><ele>608.6666666666667</ele><time>2026-03-28T08:42:22.114Z</time></trkpt><trkpt lat="45.8581809" lon="9.6513274"><ele>610.8333333333334</ele><time>2026-03-28T08:42:26.114Z</time></trkpt><trkpt lat="45.8581008" lon="9.6513505"><ele>613.0</ele><time>2026-03-28T08:42:30.114Z</time></trkpt><trkpt lat="45.8580311" lon="9.6513078"><ele>613.0</ele><time>2026-03-28T08:42:34.113Z</time></trkpt><trkpt lat="45.8579651" lon="9.6512316"><ele>613.0</ele><time>2026-03-28T08:42:38.114Z</time></trkpt><trkpt lat="45.8578639" lon="9.6511179"><ele>613.0</ele><time>2026-03-28T08:42:57.114Z</time></trkpt><trkpt lat="45.857796" lon="9.6510495"><ele>613.0</ele><time>2026-03-28T08:42:59.114Z</time></trkpt><trkpt lat="45.8576821" lon="9.6510003"><ele>613.0</ele><time>2026-03-28T08:43:01.114Z</time></trkpt><trkpt lat="45.8576213" lon="9.6509742"><ele>617.7142857142858</ele><time>2026-03-28T08:43:02.114Z</time></trkpt><trkpt lat="45.857559" lon="9.650946"><ele>622.4285714285714</ele><time>2026-03-28T08:43:04.114Z</time></trkpt><trkpt lat="45.8574828" lon="9.6509437"><ele>627.1428571428571</ele><time>2026-03-28T08:43:07.114Z</time></trkpt><trkpt lat="45.8574076" lon="9.650922"><ele>631.8571428571429</ele><time>2026-03-28T08:43:10.114Z</time></trkpt><trkpt lat="45.8573257" lon="9.6508881"><ele>636.5714285714286</ele><time>2026-03-28T08:43:13.114Z</time></trkpt><trkpt lat="45.8572776" lon="9.65082"><ele>641.2857142857143</ele><time>2026-03-28T08:43:15.114Z</time></trkpt><trkpt lat="45.8572265" lon="9.6507602"><ele>646.0</ele><time>2026-03-28T08:43:18.114Z</time></trkpt><trkpt lat="45.8571549" lon="9.6507328"><ele>646.0</ele><time>2026-03-28T08:43:21.114Z</time></trkpt><trkpt lat="45.8570739" lon="9.6507512"><ele>646.0</ele><time>2026-03-28T08:43:24.113Z</time></trkpt><trkpt lat="45.8570046" lon="9.6508068"><ele>646.0</ele><time>2026-03-28T08:43:26.113Z</time></trkpt><trkpt lat="45.8569442" lon="9.6508323"><ele>646.0</ele><time>2026-03-28T08:43:28.114Z</time></trkpt><trkpt lat="45.8568325" lon="9.6508829"><ele>646.0</ele><time>2026-03-28T08:44:17.113Z</time></trkpt><trkpt lat="45.856758" lon="9.65094"><ele>646.0</ele><time>2026-03-28T08:44:19.114Z</time></trkpt><trkpt lat="45.856722" lon="9.6510293"><ele>646.1666666666667</ele><time>2026-03-28T08:44:20.113Z</time></trkpt><trkpt lat="45.856688" lon="9.6511283"><ele>646.3333333333334</ele><time>2026-03-28T08:44:21.114Z</time></trkpt><trkpt lat="45.8566434" lon="9.6512548"><ele>646.5</ele><time>2026-03-28T08:44:22.113Z</time></trkpt><trkpt lat="45.8565955" lon="9.6513547"><ele>646.6666666666666</ele><time>2026-03-28T08:44:23.113Z</time></trkpt><trkpt lat="45.8565433" lon="9.6514354"><ele>646.8333333333333</ele><time>2026-03-28T08:44:24.113Z</time></trkpt><trkpt lat="45.8564894" lon="9.6515025"><ele>647.0</ele><time>2026-03-28T08:44:25.114Z</time></trkpt><trkpt lat="45.8564272" lon="9.6515463"><ele>647.0</ele><time>2026-03-28T08:44:26.114Z</time></trkpt><trkpt lat="45.8563601" lon="9.6515842"><ele>647.0</ele><time>2026-03-28T08:44:27.114Z</time></trkpt><trkpt lat="45.8563033" lon="9.6516342"><ele>647.0</ele><time>2026-03-28T08:44:28.113Z</time></trkpt><trkpt lat="45.8562436" lon="9.6516919"><ele>647.0</ele><time>2026-03-28T08:44:31.113Z</time></trkpt><trkpt lat="45.8561944" lon="9.6516233"><ele>647.0</ele><time>2026-03-28T08:44:34.114Z</time></trkpt><trkpt lat="45.8561202" lon="9.6516699"><ele>647.0</ele><time>2026-03-28T08:44:38.113Z</time></trkpt><trkpt lat="45.8560589" lon="9.6516979"><ele>647.0</ele><time>2026-03-28T08:44:40.113Z</time></trkpt><trkpt lat="45.8559932" lon="9.6517625"><ele>649.2</ele><time>2026-03-28T08:44:42.114Z</time></trkpt><trkpt lat="45.8558657" lon="9.6518334"><ele>651.4000000000001</ele><time>2026-03-28T08:44:44.114Z</time></trkpt><trkpt lat="45.8557659" lon="9.6519125"><ele>653.5999999999999</ele><time>2026-03-28T08:44:45.114Z</time></trkpt><trkpt lat="45.855712" lon="9.6519752"><ele>655.8</ele><time>2026-03-28T08:44:46.114Z</time></trkpt><trkpt lat="45.8556297" lon="9.6520169"><ele>658.0</ele><time>2026-03-28T08:44:47.113Z</time></trkpt><trkpt lat="45.8555399" lon="9.652113"><ele>658.0</ele><time>2026-03-28T08:44:49.114Z</time></trkpt><trkpt lat="45.8554804" lon="9.6521612"><ele>658.0</ele><time>2026-03-28T08:44:50.113Z</time></trkpt><trkpt lat="45.8554184" lon="9.6521928"><ele>658.0</ele><time>2026-03-28T08:44:51.113Z</time></trkpt><trkpt lat="45.8553361" lon="9.6522202"><ele>658.0</ele><time>2026-03-28T08:44:52.113Z</time></trkpt><trkpt lat="45.8552538" lon="9.6522679"><ele>658.0</ele><time>2026-03-28T08:44:53.114Z</time></trkpt><trkpt lat="45.8551875" lon="9.6523241"><ele>658.0</ele><time>2026-03-28T08:44:54.114Z</time></trkpt><trkpt lat="45.8551366" lon="9.6523795"><ele>658.0</ele><time>2026-03-28T08:44:55.114Z</time></trkpt><trkpt lat="45.8550388" lon="9.6524744"><ele>663.0</ele><time>2026-03-28T08:44:57.113Z</time></trkpt><trkpt lat="45.8549469" lon="9.6525699"><ele>668.0</ele><time>2026-03-28T08:44:59.113Z</time></trkpt><trkpt lat="45.8548305" lon="9.6526647"><ele>673.0</ele><time>2026-03-28T08:45:01.113Z</time></trkpt><trkpt lat="45.8547666" lon="9.6527107"><ele>678.0</ele><time>2026-03-28T08:45:02.114Z</time></trkpt><trkpt lat="45.8546983" lon="9.6527444"><ele>683.0</ele><time>2026-03-28T08:45:03.114Z</time></trkpt><trkpt lat="45.8546297" lon="9.6527729"><ele>680.3333333333333</ele><time>2026-03-28T08:45:04.114Z</time></trkpt><trkpt lat="45.8545616" lon="9.6528006"><ele>677.6666666666666</ele><time>2026-03-28T08:45:05.114Z</time></trkpt><trkpt lat="45.8544949" lon="9.6528384"><ele>675.0</ele><time>2026-03-28T08:45:06.113Z</time></trkpt><trkpt lat="45.8544196" lon="9.6528758"><ele>672.3333333333334</ele><time>2026-03-28T08:45:07.114Z</time></trkpt><trkpt lat="45.8543383" lon="9.6528943"><ele>669.6666666666667</ele><time>2026-03-28T08:45:08.114Z</time></trkpt><trkpt lat="45.8542467" lon="9.6529055"><ele>667.0</ele><time>2026-03-28T08:45:09.114Z</time></trkpt><trkpt lat="45.8541598" lon="9.6529119"><ele>667.0000000000001</ele><time>2026-03-28T08:45:10.114Z</time></trkpt><trkpt lat="45.8540827" lon="9.6529134"><ele>667.0</ele><time>2026-03-28T08:45:11.114Z</time></trkpt><trkpt lat="45.8540128" lon="9.6529062"><ele>667.0</ele><time>2026-03-28T08:45:12.114Z</time></trkpt><trkpt lat="45.8539491" lon="9.6528742"><ele>667.0</ele><time>2026-03-28T08:45:13.113Z</time></trkpt><trkpt lat="45.8538846" lon="9.6528382"><ele>667.0</ele><time>2026-03-28T08:45:14.113Z</time></trkpt><trkpt lat="45.8538203" lon="9.6528218"><ele>667.0000000000001</ele><time>2026-03-28T08:45:15.113Z</time></trkpt><trkpt lat="45.8537453" lon="9.6527908"><ele>667.0</ele><time>2026-03-28T08:45:16.113Z</time></trkpt><trkpt lat="45.8536752" lon="9.6527508"><ele>671.5</ele><time>2026-03-28T08:45:17.113Z</time></trkpt><trkpt lat="45.8536085" lon="9.6527079"><ele>676.0</ele><time>2026-03-28T08:45:18.113Z</time></trkpt><trkpt lat="45.8535213" lon="9.6526718"><ele>680.5</ele><time>2026-03-28T08:45:20.114Z</time></trkpt><trkpt lat="45.8534525" lon="9.652644"><ele>685.0</ele><time>2026-03-28T08:45:22.114Z</time></trkpt><trkpt lat="45.8533823" lon="9.652609"><ele>689.5</ele><time>2026-03-28T08:45:25.113Z</time></trkpt><trkpt lat="45.8533195" lon="9.6525875"><ele>694.0</ele><time>2026-03-28T08:45:27.113Z</time></trkpt><trkpt lat="45.8532418" lon="9.652576"><ele>694.0</ele><time>2026-03-28T08:45:29.114Z</time></trkpt><trkpt lat="45.8531633" lon="9.6525601"><ele>694.0</ele><time>2026-03-28T08:45:33.114Z</time></trkpt><trkpt lat="45.8530863" lon="9.652579"><ele>694.0</ele><time>2026-03-28T08:45:35.114Z</time></trkpt><trkpt lat="45.8530128" lon="9.6526122"><ele>694.0</ele><time>2026-03-28T08:45:36.113Z</time></trkpt><trkpt lat="45.8529193" lon="9.6526576"><ele>694.0</ele><time>2026-03-28T08:45:37.114Z</time></trkpt><trkpt lat="45.8528094" lon="9.6526937"><ele>694.0</ele><time>2026-03-28T08:45:38.113Z</time></trkpt><trkpt lat="45.8527149" lon="9.6527719"><ele>689.4000000000001</ele><time>2026-03-28T08:45:39.114Z</time></trkpt><trkpt lat="45.8526233" lon="9.6528461"><ele>684.8</ele><time>2026-03-28T08:45:40.114Z</time></trkpt><trkpt lat="45.8525263" lon="9.6528855"><ele>680.2</ele><time>2026-03-28T08:45:41.114Z</time></trkpt><trkpt lat="45.8524281" lon="9.6528814"><ele>675.5999999999999</ele><time>2026-03-28T08:45:42.113Z</time></trkpt><trkpt lat="45.852344" lon="9.6528729"><ele>671.0</ele><time>2026-03-28T08:45:43.113Z</time></trkpt><trkpt lat="45.8522643" lon="9.6528682"><ele>671.0</ele><time>2026-03-28T08:45:44.113Z</time></trkpt><trkpt lat="45.8521826" lon="9.652871"><ele>671.0</ele><time>2026-03-28T08:45:45.113Z</time></trkpt><trkpt lat="45.8520915" lon="9.6528983"><ele>671.0</ele><time>2026-03-28T08:45:46.113Z</time></trkpt><trkpt lat="45.8519988" lon="9.6529666"><ele>671.0</ele><time>2026-03-28T08:45:47.113Z</time></trkpt><trkpt lat="45.8519222" lon="9.6530736"><ele>671.0</ele><time>2026-03-28T08:45:48.114Z</time></trkpt><trkpt lat="45.8518613" lon="9.6531962"><ele>671.0</ele><time>2026-03-28T08:45:49.114Z</time></trkpt><trkpt lat="45.8518087" lon="9.6533132"><ele>671.0</ele><time>2026-03-28T08:45:50.114Z</time></trkpt><trkpt lat="45.8517717" lon="9.6533982"><ele>671.0</ele><time>2026-03-28T08:45:51.113Z</time></trkpt><trkpt lat="45.8517001" lon="9.6535042"><ele>671.0</ele><time>2026-03-28T08:45:53.114Z</time></trkpt><trkpt lat="45.8516333" lon="9.6535383"><ele>671.0</ele><time>2026-03-28T08:45:54.113Z</time></trkpt><trkpt lat="45.8515597" lon="9.6535717"><ele>671.0</ele><time>2026-03-28T08:45:55.113Z</time></trkpt><trkpt lat="45.8514782" lon="9.6536059"><ele>667.6666666666666</ele><time>2026-03-28T08:45:56.113Z</time></trkpt><trkpt lat="45.8513955" lon="9.6536695"><ele>664.3333333333333</ele><time>2026-03-28T08:45:57.113Z</time></trkpt><trkpt lat="45.8513199" lon="9.6537345"><ele>661.0</ele><time>2026-03-28T08:45:58.114Z</time></trkpt><trkpt lat="45.8512475" lon="9.6537794"><ele>657.6666666666666</ele><time>2026-03-28T08:45:59.114Z</time></trkpt><trkpt lat="45.8511779" lon="9.6538121"><ele>654.3333333333334</ele><time>2026-03-28T08:46:00.114Z</time></trkpt><trkpt lat="45.8511186" lon="9.6538448"><ele>651.0</ele><time>2026-03-28T08:46:01.114Z</time></trkpt><trkpt lat="45.8510187" lon="9.6538901"><ele>652.5</ele><time>2026-03-28T08:46:03.114Z</time></trkpt><trkpt lat="45.85093" lon="9.6537677"><ele>654.0</ele><time>2026-03-28T08:46:05.114Z</time></trkpt><trkpt lat="45.85089" lon="9.6536367"><ele>655.5</ele><time>2026-03-28T08:46:06.113Z</time></trkpt><trkpt lat="45.8508407" lon="9.6534904"><ele>657.0</ele><time>2026-03-28T08:46:07.114Z</time></trkpt><trkpt lat="45.8507694" lon="9.653336"><ele>660.75</ele><time>2026-03-28T08:46:08.114Z</time></trkpt><trkpt lat="45.8506977" lon="9.6531966"><ele>664.5</ele><time>2026-03-28T08:46:09.114Z</time></trkpt><trkpt lat="45.8506399" lon="9.6530654"><ele>668.25</ele><time>2026-03-28T08:46:10.114Z</time></trkpt><trkpt lat="45.8505814" lon="9.6529227"><ele>672.0</ele><time>2026-03-28T08:46:11.114Z</time></trkpt><trkpt lat="45.8505316" lon="9.6527656"><ele>677.25</ele><time>2026-03-28T08:46:12.114Z</time></trkpt><trkpt lat="45.8504913" lon="9.6525812"><ele>682.5</ele><time>2026-03-28T08:46:13.113Z</time></trkpt><trkpt lat="45.8504506" lon="9.6523846"><ele>687.75</ele><time>2026-03-28T08:46:14.113Z</time></trkpt><trkpt lat="45.8503823" lon="9.6521917"><ele>693.0</ele><time>2026-03-28T08:46:15.114Z</time></trkpt><trkpt lat="45.8502964" lon="9.6520087"><ele>689.0</ele><time>2026-03-28T08:46:16.114Z</time></trkpt><trkpt lat="45.8502005" lon="9.6518215"><ele>685.0</ele><time>2026-03-28T08:46:17.113Z</time></trkpt><trkpt lat="45.8501043" lon="9.6516303"><ele>681.0</ele><time>2026-03-28T08:46:18.114Z</time></trkpt><trkpt lat="45.8500041" lon="9.6514386"><ele>681.0</ele><time>2026-03-28T08:46:19.114Z</time></trkpt><trkpt lat="45.8499008" lon="9.651247"><ele>681.0</ele><time>2026-03-28T08:46:20.113Z</time></trkpt><trkpt lat="45.8497988" lon="9.6510625"><ele>681.0</ele><time>2026-03-28T08:46:21.113Z</time></trkpt><trkpt lat="45.8497024" lon="9.6508946"><ele>680.5</ele><time>2026-03-28T08:46:22.113Z</time></trkpt><trkpt lat="45.8496113" lon="9.6507413"><ele>680.0</ele><time>2026-03-28T08:46:23.113Z</time></trkpt><trkpt lat="45.8495207" lon="9.6506133"><ele>679.5</ele><time>2026-03-28T08:46:24.114Z</time></trkpt><trkpt lat="45.8494136" lon="9.6505008"><ele>679.0</ele><time>2026-03-28T08:46:25.114Z</time></trkpt><trkpt lat="45.8492781" lon="9.6504259"><ele>679.0</ele><time>2026-03-28T08:46:26.113Z</time></trkpt><trkpt lat="45.8491302" lon="9.6503771"><ele>679.0</ele><time>2026-03-28T08:46:27.114Z</time></trkpt><trkpt lat="45.8489817" lon="9.6503244"><ele>679.0</ele><time>2026-03-28T08:46:28.114Z</time></trkpt><trkpt lat="45.8488334" lon="9.6502634"><ele>681.5</ele><time>2026-03-28T08:46:29.114Z</time></trkpt><trkpt lat="45.848688" lon="9.6501981"><ele>684.0</ele><time>2026-03-28T08:46:30.114Z</time></trkpt><trkpt lat="45.8485504" lon="9.6501453"><ele>686.5</ele><time>2026-03-28T08:46:31.114Z</time></trkpt><trkpt lat="45.8484228" lon="9.6501049"><ele>689.0</ele><time>2026-03-28T08:46:32.113Z</time></trkpt><trkpt lat="45.8483109" lon="9.6500798"><ele>689.0</ele><time>2026-03-28T08:46:33.114Z</time></trkpt><trkpt lat="45.8482157" lon="9.6501086"><ele>689.0</ele><time>2026-03-28T08:46:34.114Z</time></trkpt><trkpt lat="45.8481245" lon="9.6502129"><ele>689.0</ele><time>2026-03-28T08:46:35.114Z</time></trkpt><trkpt lat="45.8480449" lon="9.6503476"><ele>689.0</ele><time>2026-03-28T08:46:36.114Z</time></trkpt><trkpt lat="45.8479934" lon="9.6505095"><ele>689.0</ele><time>2026-03-28T08:46:37.114Z</time></trkpt><trkpt lat="45.8479561" lon="9.6506667"><ele>689.0</ele><time>2026-03-28T08:46:38.114Z</time></trkpt><trkpt lat="45.8479521" lon="9.6508102"><ele>689.0</ele><time>2026-03-28T08:46:39.113Z</time></trkpt><trkpt lat="45.8479928" lon="9.6509555"><ele>689.0</ele><time>2026-03-28T08:46:40.114Z</time></trkpt><trkpt lat="45.8480599" lon="9.651086"><ele>689.0</ele><time>2026-03-28T08:46:41.113Z</time></trkpt><trkpt lat="45.8481385" lon="9.6512171"><ele>689.0</ele><time>2026-03-28T08:46:42.114Z</time></trkpt><trkpt lat="45.8482052" lon="9.6513279"><ele>689.0</ele><time>2026-03-28T08:46:43.114Z</time></trkpt><trkpt lat="45.8482506" lon="9.6514237"><ele>689.0</ele><time>2026-03-28T08:46:44.114Z</time></trkpt><trkpt lat="45.8482368" lon="9.6515138"><ele>689.0</ele><time>2026-03-28T08:46:47.114Z</time></trkpt><trkpt lat="45.8481805" lon="9.6513722"><ele>689.0</ele><time>2026-03-28T08:46:49.113Z</time></trkpt><trkpt lat="45.8481209" lon="9.651273"><ele>689.0</ele><time>2026-03-28T08:46:50.113Z</time></trkpt><trkpt lat="45.8480423" lon="9.6511653"><ele>689.0</ele><time>2026-03-28T08:46:51.114Z</time></trkpt><trkpt lat="45.8479532" lon="9.6510549"><ele>689.0</ele><time>2026-03-28T08:46:52.114Z</time></trkpt><trkpt lat="45.8478732" lon="9.6509418"><ele>689.0</ele><time>2026-03-28T08:46:53.114Z</time></trkpt><trkpt lat="45.8478035" lon="9.6508409"><ele>689.0</ele><time>2026-03-28T08:46:54.113Z</time></trkpt><trkpt lat="45.8477355" lon="9.6507586"><ele>689.2</ele><time>2026-03-28T08:46:55.113Z</time></trkpt><trkpt lat="45.8476597" lon="9.6506896"><ele>689.4000000000001</ele><time>2026-03-28T08:46:56.114Z</time></trkpt><trkpt lat="45.8475716" lon="9.6506237"><ele>689.6</ele><time>2026-03-28T08:46:57.114Z</time></trkpt><trkpt lat="45.8474774" lon="9.6505552"><ele>689.8</ele><time>2026-03-28T08:46:58.114Z</time></trkpt><trkpt lat="45.847369" lon="9.6505149"><ele>690.0</ele><time>2026-03-28T08:46:59.114Z</time></trkpt><trkpt lat="45.8472556" lon="9.6504779"><ele>690.0</ele><time>2026-03-28T08:47:00.114Z</time></trkpt><trkpt lat="45.8471486" lon="9.6504015"><ele>690.0</ele><time>2026-03-28T08:47:01.114Z</time></trkpt><trkpt lat="45.8470642" lon="9.6503005"><ele>690.0</ele><time>2026-03-28T08:47:02.113Z</time></trkpt><trkpt lat="45.8469963" lon="9.650203"><ele>690.0</ele><time>2026-03-28T08:47:03.113Z</time></trkpt><trkpt lat="45.8469355" lon="9.6501559"><ele>690.0</ele><time>2026-03-28T08:47:04.114Z</time></trkpt><trkpt lat="45.8468705" lon="9.6501616"><ele>688.8</ele><time>2026-03-28T08:47:05.114Z</time></trkpt><trkpt lat="45.8467961" lon="9.6501969"><ele>687.6</ele><time>2026-03-28T08:47:06.114Z</time></trkpt><trkpt lat="45.8467095" lon="9.6502399"><ele>686.4000000000001</ele><time>2026-03-28T08:47:07.113Z</time></trkpt><trkpt lat="45.8466002" lon="9.650295"><ele>685.2</ele><time>2026-03-28T08:47:08.113Z</time></trkpt><trkpt lat="45.8464931" lon="9.650351"><ele>684.0</ele><time>2026-03-28T08:47:09.113Z</time></trkpt><trkpt lat="45.846397" lon="9.6503949"><ele>684.0</ele><time>2026-03-28T08:47:10.113Z</time></trkpt><trkpt lat="45.846324" lon="9.6504158"><ele>684.0</ele><time>2026-03-28T08:47:11.114Z</time></trkpt><trkpt lat="45.8462238" lon="9.650358"><ele>684.0</ele><time>2026-03-28T08:47:13.114Z</time></trkpt><trkpt lat="45.8461286" lon="9.6502573"><ele>684.0</ele><time>2026-03-28T08:47:15.114Z</time></trkpt><trkpt lat="45.8460494" lon="9.6501948"><ele>684.0</ele><time>2026-03-28T08:47:17.113Z</time></trkpt><trkpt lat="45.8459822" lon="9.6501829"><ele>686.1666666666666</ele><time>2026-03-28T08:47:19.114Z</time></trkpt><trkpt lat="45.8459145" lon="9.6501222"><ele>688.3333333333334</ele><time>2026-03-28T08:47:22.114Z</time></trkpt><trkpt lat="45.8458517" lon="9.6501"><ele>690.5</ele><time>2026-03-28T08:47:25.114Z</time></trkpt><trkpt lat="45.8457938" lon="9.650028"><ele>692.6666666666667</ele><time>2026-03-28T08:47:27.113Z</time></trkpt><trkpt lat="45.8457215" lon="9.6499594"><ele>694.8333333333334</ele><time>2026-03-28T08:47:28.113Z</time></trkpt><trkpt lat="45.8456537" lon="9.6498938"><ele>697.0</ele><time>2026-03-28T08:47:29.113Z</time></trkpt><trkpt lat="45.8455891" lon="9.649836"><ele>697.0</ele><time>2026-03-28T08:47:30.113Z</time></trkpt><trkpt lat="45.8455222" lon="9.6496882"><ele>697.0</ele><time>2026-03-28T08:47:32.113Z</time></trkpt><trkpt lat="45.8455105" lon="9.6495558"><ele>697.0</ele><time>2026-03-28T08:47:33.114Z</time></trkpt><trkpt lat="45.8454962" lon="9.6494258"><ele>697.0</ele><time>2026-03-28T08:47:34.114Z</time></trkpt><trkpt lat="45.8454583" lon="9.6493235"><ele>697.0</ele><time>2026-03-28T08:47:35.114Z</time></trkpt><trkpt lat="45.8454188" lon="9.6492326"><ele>694.0</ele><time>2026-03-28T08:47:36.114Z</time></trkpt><trkpt lat="45.8453651" lon="9.649165"><ele>691.0</ele><time>2026-03-28T08:47:38.114Z</time></trkpt><trkpt lat="45.8453011" lon="9.6491804"><ele>688.0</ele><time>2026-03-28T08:47:39.113Z</time></trkpt><trkpt lat="45.845233" lon="9.6491991"><ele>685.0</ele><time>2026-03-28T08:47:40.113Z</time></trkpt><trkpt lat="45.8451656" lon="9.6492064"><ele>682.0</ele><time>2026-03-28T08:47:41.114Z</time></trkpt><trkpt lat="45.8450786" lon="9.649181"><ele>679.0</ele><time>2026-03-28T08:47:43.114Z</time></trkpt><trkpt lat="45.8450275" lon="9.6490272"><ele>679.0</ele><time>2026-03-28T08:47:45.114Z</time></trkpt><trkpt lat="45.8449836" lon="9.6489353"><ele>679.0</ele><time>2026-03-28T08:47:46.114Z</time></trkpt><trkpt lat="45.8448729" lon="9.6489107"><ele>679.0</ele><time>2026-03-28T08:47:48.113Z</time></trkpt><trkpt lat="45.8447813" lon="9.6488634"><ele>679.0</ele><time>2026-03-28T08:47:50.113Z</time></trkpt><trkpt lat="45.8446908" lon="9.6487703"><ele>679.0</ele><time>2026-03-28T08:47:52.114Z</time></trkpt><trkpt lat="45.8446023" lon="9.6486775"><ele>675.6</ele><time>2026-03-28T08:47:54.113Z</time></trkpt><trkpt lat="45.8445521" lon="9.6485401"><ele>672.2</ele><time>2026-03-28T08:47:56.114Z</time></trkpt><trkpt lat="45.8444969" lon="9.6484611"><ele>668.8000000000001</ele><time>2026-03-28T08:47:58.113Z</time></trkpt><trkpt lat="45.8444071" lon="9.6484279"><ele>665.4000000000001</ele><time>2026-03-28T08:48:00.114Z</time></trkpt><trkpt lat="45.8443138" lon="9.6483482"><ele>662.0</ele><time>2026-03-28T08:48:02.113Z</time></trkpt><trkpt lat="45.844245" lon="9.6482446"><ele>662.0</ele><time>2026-03-28T08:48:04.114Z</time></trkpt><trkpt lat="45.8441865" lon="9.6481661"><ele>662.0</ele><time>2026-03-28T08:48:06.114Z</time></trkpt><trkpt lat="45.8441247" lon="9.6481396"><ele>662.0</ele><time>2026-03-28T08:48:08.113Z</time></trkpt><trkpt lat="45.8440343" lon="9.6481037"><ele>662.0</ele><time>2026-03-28T08:48:10.114Z</time></trkpt><trkpt lat="45.8439743" lon="9.6480435"><ele>662.0</ele><time>2026-03-28T08:48:12.113Z</time></trkpt><trkpt lat="45.8439246" lon="9.6479613"><ele>662.0</ele><time>2026-03-28T08:48:14.114Z</time></trkpt><trkpt lat="45.8438639" lon="9.6478542"><ele>666.6666666666666</ele><time>2026-03-28T08:48:16.114Z</time></trkpt><trkpt lat="45.8438524" lon="9.6477182"><ele>671.3333333333333</ele><time>2026-03-28T08:48:18.114Z</time></trkpt><trkpt lat="45.8438513" lon="9.6476065"><ele>676.0</ele><time>2026-03-28T08:48:20.113Z</time></trkpt><trkpt lat="45.8437727" lon="9.6475655"><ele>680.6666666666666</ele><time>2026-03-28T08:48:22.114Z</time></trkpt><trkpt lat="45.8436876" lon="9.6475346"><ele>685.3333333333334</ele><time>2026-03-28T08:48:24.114Z</time></trkpt><trkpt lat="45.8436335" lon="9.6474785"><ele>690.0</ele><time>2026-03-28T08:48:26.114Z</time></trkpt><trkpt lat="45.8436061" lon="9.6473788"><ele>690.0</ele><time>2026-03-28T08:48:28.114Z</time></trkpt><trkpt lat="45.843543" lon="9.6472909"><ele>690.0</ele><time>2026-03-28T08:48:30.114Z</time></trkpt><trkpt lat="45.8434795" lon="9.6471998"><ele>690.0</ele><time>2026-03-28T08:48:32.113Z</time></trkpt><trkpt lat="45.8433902" lon="9.6471014"><ele>690.0</ele><time>2026-03-28T08:48:34.114Z</time></trkpt><trkpt lat="45.8433116" lon="9.6469953"><ele>690.0</ele><time>2026-03-28T08:48:36.114Z</time></trkpt><trkpt lat="45.8432586" lon="9.6468874"><ele>685.4285714285714</ele><time>2026-03-28T08:48:38.114Z</time></trkpt><trkpt lat="45.8432524" lon="9.6467783"><ele>680.8571428571429</ele><time>2026-03-28T08:48:40.114Z</time></trkpt><trkpt lat="45.8431973" lon="9.6467174"><ele>676.2857142857142</ele><time>2026-03-28T08:48:42.114Z</time></trkpt><trkpt lat="45.8431375" lon="9.6466658"><ele>671.7142857142858</ele><time>2026-03-28T08:48:44.114Z</time></trkpt><trkpt lat="45.8431148" lon="9.6467679"><ele>667.1428571428571</ele><time>2026-03-28T08:48:47.114Z</time></trkpt><trkpt lat="45.8431225" lon="9.6468684"><ele>662.5714285714286</ele><time>2026-03-28T08:48:49.114Z</time></trkpt><trkpt lat="45.8431179" lon="9.6469608"><ele>658.0</ele><time>2026-03-28T08:48:54.113Z</time></trkpt><trkpt lat="45.8430673" lon="9.6468964"><ele>658.0</ele><time>2026-03-28T08:49:00.114Z</time></trkpt><trkpt lat="45.8430012" lon="9.646807"><ele>658.0</ele><time>2026-03-28T08:49:03.114Z</time></trkpt><trkpt lat="45.8429685" lon="9.6466687"><ele>658.0</ele><time>2026-03-28T08:49:05.114Z</time></trkpt><trkpt lat="45.8429541" lon="9.6465498"><ele>658.0</ele><time>2026-03-28T08:49:06.113Z</time></trkpt><trkpt lat="45.842936" lon="9.6464356"><ele>658.0</ele><time>2026-03-28T08:49:08.113Z</time></trkpt><trkpt lat="45.8428661" lon="9.6463986"><ele>658.0</ele><time>2026-03-28T08:49:10.113Z</time></trkpt><trkpt lat="45.8428054" lon="9.6464241"><ele>658.0</ele><time>2026-03-28T08:49:12.114Z</time></trkpt><trkpt lat="45.8427769" lon="9.6465183"><ele>658.0</ele><time>2026-03-28T08:49:15.114Z</time></trkpt><trkpt lat="45.842787" lon="9.6466226"><ele>658.0</ele><time>2026-03-28T08:49:37.114Z</time></trkpt><trkpt lat="45.8428126" lon="9.6468287"><ele>658.0</ele><time>2026-03-28T08:49:39.114Z</time></trkpt><trkpt lat="45.8428243" lon="9.6469758"><ele>658.0</ele><time>2026-03-28T08:49:40.114Z</time></trkpt><trkpt lat="45.842832" lon="9.6471417"><ele>654.75</ele><time>2026-03-28T08:49:41.114Z</time></trkpt><trkpt lat="45.8428383" lon="9.6473313"><ele>651.5</ele><time>2026-03-28T08:49:42.113Z</time></trkpt><trkpt lat="45.8428502" lon="9.6475101"><ele>648.25</ele><time>2026-03-28T08:49:43.114Z</time></trkpt><trkpt lat="45.8428673" lon="9.647685"><ele>645.0</ele><time>2026-03-28T08:49:44.113Z</time></trkpt><trkpt lat="45.8428992" lon="9.6478276"><ele>640.5</ele><time>2026-03-28T08:49:45.114Z</time></trkpt><trkpt lat="45.8429384" lon="9.6479692"><ele>636.0</ele><time>2026-03-28T08:49:46.113Z</time></trkpt><trkpt lat="45.8429817" lon="9.6481228"><ele>631.5</ele><time>2026-03-28T08:49:47.114Z</time></trkpt><trkpt lat="45.8430242" lon="9.6482799"><ele>627.0</ele><time>2026-03-28T08:49:48.114Z</time></trkpt><trkpt lat="45.8430902" lon="9.6484349"><ele>627.0</ele><time>2026-03-28T08:49:49.114Z</time></trkpt><trkpt lat="45.8431574" lon="9.6485946"><ele>627.0</ele><time>2026-03-28T08:49:50.114Z</time></trkpt><trkpt lat="45.8432359" lon="9.6487507"><ele>627.0</ele><time>2026-03-28T08:49:51.113Z</time></trkpt><trkpt lat="45.8433065" lon="9.6489309"><ele>627.0</ele><time>2026-03-28T08:49:52.114Z</time></trkpt><trkpt lat="45.8433774" lon="9.6491012"><ele>627.75</ele><time>2026-03-28T08:49:53.113Z</time></trkpt><trkpt lat="45.8434627" lon="9.6492575"><ele>628.5</ele><time>2026-03-28T08:49:54.113Z</time></trkpt><trkpt lat="45.8435331" lon="9.6494075"><ele>629.25</ele><time>2026-03-28T08:49:55.114Z</time></trkpt><trkpt lat="45.8436" lon="9.6495427"><ele>630.0</ele><time>2026-03-28T08:49:56.114Z</time></trkpt><trkpt lat="45.8436632" lon="9.6496618"><ele>625.6</ele><time>2026-03-28T08:49:57.113Z</time></trkpt><trkpt lat="45.8437224" lon="9.6497591"><ele>621.2</ele><time>2026-03-28T08:49:58.114Z</time></trkpt><trkpt lat="45.8437655" lon="9.6498457"><ele>616.8</ele><time>2026-03-28T08:49:59.114Z</time></trkpt><trkpt lat="45.8437891" lon="9.6499674"><ele>612.4</ele><time>2026-03-28T08:50:00.114Z</time></trkpt><trkpt lat="45.8438074" lon="9.6501071"><ele>608.0</ele><time>2026-03-28T08:50:01.114Z</time></trkpt><trkpt lat="45.8438402" lon="9.6502411"><ele>605.75</ele><time>2026-03-28T08:50:02.113Z</time></trkpt><trkpt lat="45.8438917" lon="9.6503661"><ele>603.5</ele><time>2026-03-28T08:50:03.114Z</time></trkpt><trkpt lat="45.8439534" lon="9.6505021"><ele>601.25</ele><time>2026-03-28T08:50:04.114Z</time></trkpt><trkpt lat="45.8440237" lon="9.6506695"><ele>599.0</ele><time>2026-03-28T08:50:05.113Z</time></trkpt><trkpt lat="45.8440856" lon="9.6508727"><ele>599.0</ele><time>2026-03-28T08:50:06.113Z</time></trkpt><trkpt lat="45.8441339" lon="9.651093"><ele>599.0</ele><time>2026-03-28T08:50:07.114Z</time></trkpt><trkpt lat="45.8441693" lon="9.6513276"><ele>599.0</ele><time>2026-03-28T08:50:08.113Z</time></trkpt><trkpt lat="45.8442101" lon="9.651566"><ele>598.75</ele><time>2026-03-28T08:50:09.114Z</time></trkpt><trkpt lat="45.8442539" lon="9.6517783"><ele>598.5</ele><time>2026-03-28T08:50:10.114Z</time></trkpt><trkpt lat="45.8443026" lon="9.6519394"><ele>598.25</ele><time>2026-03-28T08:50:11.113Z</time></trkpt><trkpt lat="45.8443577" lon="9.6520638"><ele>598.0</ele><time>2026-03-28T08:50:12.114Z</time></trkpt><trkpt lat="45.8444182" lon="9.6521496"><ele>599.7142857142857</ele><time>2026-03-28T08:50:13.114Z</time></trkpt><trkpt lat="45.8444738" lon="9.6522009"><ele>601.4285714285714</ele><time>2026-03-28T08:50:14.114Z</time></trkpt><trkpt lat="45.8445351" lon="9.6522424"><ele>603.1428571428571</ele><time>2026-03-28T08:50:15.113Z</time></trkpt><trkpt lat="45.8445819" lon="9.6523068"><ele>604.8571428571429</ele><time>2026-03-28T08:50:16.113Z</time></trkpt><trkpt lat="45.8446277" lon="9.6523873"><ele>606.5714285714286</ele><time>2026-03-28T08:50:17.114Z</time></trkpt><trkpt lat="45.8446457" lon="9.6524931"><ele>608.2857142857143</ele><time>2026-03-28T08:50:18.114Z</time></trkpt><trkpt lat="45.8446474" lon="9.6525989"><ele>610.0</ele><time>2026-03-28T08:50:19.114Z</time></trkpt><trkpt lat="45.8446525" lon="9.6527492"><ele>610.0</ele><time>2026-03-28T08:50:20.114Z</time></trkpt><trkpt lat="45.8446614" lon="9.6529232"><ele>610.0</ele><time>2026-03-28T08:50:21.114Z</time></trkpt><trkpt lat="45.8446768" lon="9.6530658"><ele>610.0</ele><time>2026-03-28T08:50:22.114Z</time></trkpt><trkpt lat="45.8446728" lon="9.6532542"><ele>610.0</ele><time>2026-03-28T08:50:23.114Z</time></trkpt><trkpt lat="45.8446561" lon="9.6534532"><ele>606.25</ele><time>2026-03-28T08:50:24.114Z</time></trkpt><trkpt lat="45.8446407" lon="9.6536446"><ele>602.5</ele><time>2026-03-28T08:50:25.113Z</time></trkpt><trkpt lat="45.8446213" lon="9.6538141"><ele>598.75</ele><time>2026-03-28T08:50:26.113Z</time></trkpt><trkpt lat="45.8446066" lon="9.6539742"><ele>595.0</ele><time>2026-03-28T08:50:27.113Z</time></trkpt><trkpt lat="45.8446019" lon="9.654131"><ele>595.0</ele><time>2026-03-28T08:50:28.114Z</time></trkpt><trkpt lat="45.844596" lon="9.6542975"><ele>595.0</ele><time>2026-03-28T08:50:29.113Z</time></trkpt><trkpt lat="45.8445821" lon="9.6544344"><ele>595.0</ele><time>2026-03-28T08:50:30.113Z</time></trkpt><trkpt lat="45.8445956" lon="9.6545383"><ele>595.0</ele><time>2026-03-28T08:50:31.113Z</time></trkpt><trkpt lat="45.8446156" lon="9.6546262"><ele>595.0</ele><time>2026-03-28T08:50:32.114Z</time></trkpt><trkpt lat="45.8446246" lon="9.6548065"><ele>593.1666666666667</ele><time>2026-03-28T08:50:34.114Z</time></trkpt><trkpt lat="45.8446268" lon="9.6549224"><ele>591.3333333333334</ele><time>2026-03-28T08:50:35.113Z</time></trkpt><trkpt lat="45.8446466" lon="9.6550498"><ele>589.5</ele><time>2026-03-28T08:50:36.114Z</time></trkpt><trkpt lat="45.8446518" lon="9.6551531"><ele>587.6666666666666</ele><time>2026-03-28T08:50:37.114Z</time></trkpt><trkpt lat="45.8446316" lon="9.6552495"><ele>585.8333333333333</ele><time>2026-03-28T08:50:38.114Z</time></trkpt><trkpt lat="45.8446096" lon="9.6553642"><ele>584.0</ele><time>2026-03-28T08:50:39.114Z</time></trkpt><trkpt lat="45.8446097" lon="9.6555099"><ele>583.4</ele><time>2026-03-28T08:50:40.114Z</time></trkpt><trkpt lat="45.8446264" lon="9.6556532"><ele>582.8</ele><time>2026-03-28T08:50:41.113Z</time></trkpt><trkpt lat="45.8446408" lon="9.6558096"><ele>582.2</ele><time>2026-03-28T08:50:42.113Z</time></trkpt><trkpt lat="45.8446681" lon="9.6559659"><ele>581.6</ele><time>2026-03-28T08:50:43.114Z</time></trkpt><trkpt lat="45.844712" lon="9.6561334"><ele>581.0</ele><time>2026-03-28T08:50:44.114Z</time></trkpt><trkpt lat="45.8447665" lon="9.6563135"><ele>581.0</ele><time>2026-03-28T08:50:45.114Z</time></trkpt><trkpt lat="45.8448074" lon="9.6564898"><ele>581.0</ele><time>2026-03-28T08:50:46.114Z</time></trkpt><trkpt lat="45.8448448" lon="9.6566506"><ele>581.0</ele><time>2026-03-28T08:50:47.114Z</time></trkpt><trkpt lat="45.8448865" lon="9.6568067"><ele>581.0</ele><time>2026-03-28T08:50:48.114Z</time></trkpt><trkpt lat="45.8449219" lon="9.6569296"><ele>581.8333333333333</ele><time>2026-03-28T08:50:49.114Z</time></trkpt><trkpt lat="45.8449478" lon="9.6570216"><ele>582.6666666666666</ele><time>2026-03-28T08:50:50.113Z</time></trkpt><trkpt lat="45.8449117" lon="9.6571612"><ele>583.5</ele><time>2026-03-28T08:50:52.114Z</time></trkpt><trkpt lat="45.8448327" lon="9.6572175"><ele>584.3333333333334</ele><time>2026-03-28T08:50:53.113Z</time></trkpt><trkpt lat="45.8447592" lon="9.6572711"><ele>585.1666666666667</ele><time>2026-03-28T08:50:54.113Z</time></trkpt><trkpt lat="45.8447032" lon="9.6573459"><ele>586.0</ele><time>2026-03-28T08:50:55.113Z</time></trkpt><trkpt lat="45.8446673" lon="9.6574351"><ele>585.9999999999999</ele><time>2026-03-28T08:50:56.114Z</time></trkpt><trkpt lat="45.8446505" lon="9.6575249"><ele>586.0</ele><time>2026-03-28T08:50:57.114Z</time></trkpt><trkpt lat="45.8446245" lon="9.6576104"><ele>586.0</ele><time>2026-03-28T08:50:58.114Z</time></trkpt><trkpt lat="45.844594" lon="9.657709"><ele>586.0</ele><time>2026-03-28T08:50:59.113Z</time></trkpt><trkpt lat="45.8445564" lon="9.6578037"><ele>586.0</ele><time>2026-03-28T08:51:00.114Z</time></trkpt><trkpt lat="45.8445082" lon="9.6578988"><ele>585.9999999999999</ele><time>2026-03-28T08:51:01.113Z</time></trkpt><trkpt lat="45.8444595" lon="9.6579693"><ele>586.0</ele><time>2026-03-28T08:51:02.113Z</time></trkpt><trkpt lat="45.8443674" lon="9.6580085"><ele>584.5</ele><time>2026-03-28T08:51:03.114Z</time></trkpt><trkpt lat="45.8442683" lon="9.6580426"><ele>583.0</ele><time>2026-03-28T08:51:04.113Z</time></trkpt><trkpt lat="45.8441807" lon="9.6580936"><ele>581.5</ele><time>2026-03-28T08:51:05.114Z</time></trkpt><trkpt lat="45.8441082" lon="9.6581359"><ele>580.0</ele><time>2026-03-28T08:51:06.114Z</time></trkpt><trkpt lat="45.8440503" lon="9.6581953"><ele>578.5</ele><time>2026-03-28T08:51:07.113Z</time></trkpt><trkpt lat="45.8440054" lon="9.6582697"><ele>577.0</ele><time>2026-03-28T08:51:08.113Z</time></trkpt><trkpt lat="45.8439403" lon="9.6583821"><ele>577.0</ele><time>2026-03-28T08:51:10.114Z</time></trkpt><trkpt lat="45.8440408" lon="9.6584851"><ele>577.0</ele><time>2026-03-28T08:51:16.114Z</time></trkpt><trkpt lat="45.8441403" lon="9.6585027"><ele>577.0</ele><time>2026-03-28T08:51:17.114Z</time></trkpt><trkpt lat="45.8442498" lon="9.6585203"><ele>577.0</ele><time>2026-03-28T08:51:18.113Z</time></trkpt><trkpt lat="45.8443544" lon="9.658533"><ele>577.0</ele><time>2026-03-28T08:51:19.114Z</time></trkpt><trkpt lat="45.8444245" lon="9.6585726"><ele>570.75</ele><time>2026-03-28T08:51:20.113Z</time></trkpt><trkpt lat="45.8444306" lon="9.6587131"><ele>564.5</ele><time>2026-03-28T08:51:22.114Z</time></trkpt><trkpt lat="45.8443065" lon="9.658769"><ele>558.25</ele><time>2026-03-28T08:51:24.114Z</time></trkpt><trkpt lat="45.8441948" lon="9.658801"><ele>552.0</ele><time>2026-03-28T08:51:25.113Z</time></trkpt><trkpt lat="45.8440753" lon="9.658864"><ele>552.0</ele><time>2026-03-28T08:51:26.114Z</time></trkpt><trkpt lat="45.8439609" lon="9.6589328"><ele>552.0</ele><time>2026-03-28T08:51:27.113Z</time></trkpt><trkpt lat="45.8438625" lon="9.6589849"><ele>552.0</ele><time>2026-03-28T08:51:28.114Z</time></trkpt><trkpt lat="45.8437705" lon="9.659006"><ele>552.0</ele><time>2026-03-28T08:51:29.113Z</time></trkpt><trkpt lat="45.8436741" lon="9.6589759"><ele>552.0</ele><time>2026-03-28T08:51:30.113Z</time></trkpt><trkpt lat="45.8435696" lon="9.6589401"><ele>553.2</ele><time>2026-03-28T08:51:31.113Z</time></trkpt><trkpt lat="45.8434618" lon="9.6589597"><ele>554.4000000000001</ele><time>2026-03-28T08:51:32.114Z</time></trkpt><trkpt lat="45.8433574" lon="9.6590141"><ele>555.5999999999999</ele><time>2026-03-28T08:51:33.114Z</time></trkpt><trkpt lat="45.8432532" lon="9.6590841"><ele>556.8</ele><time>2026-03-28T08:51:34.114Z</time></trkpt><trkpt lat="45.8431614" lon="9.6591688"><ele>558.0</ele><time>2026-03-28T08:51:35.114Z</time></trkpt><trkpt lat="45.8430711" lon="9.6592557"><ele>558.0</ele><time>2026-03-28T08:51:36.114Z</time></trkpt><trkpt lat="45.8430023" lon="9.6593214"><ele>558.0</ele><time>2026-03-28T08:51:37.113Z</time></trkpt><trkpt lat="45.8429545" lon="9.6594441"><ele>558.0</ele><time>2026-03-28T08:51:39.114Z</time></trkpt><trkpt lat="45.8430471" lon="9.6595856"><ele>558.0</ele><time>2026-03-28T08:51:41.114Z</time></trkpt><trkpt lat="45.8430875" lon="9.659671"><ele>558.0</ele><time>2026-03-28T08:51:42.113Z</time></trkpt><trkpt lat="45.8430887" lon="9.6597676"><ele>556.0</ele><time>2026-03-28T08:51:43.113Z</time></trkpt><trkpt lat="45.8430503" lon="9.6598723"><ele>554.0</ele><time>2026-03-28T08:51:45.113Z</time></trkpt><trkpt lat="45.8431032" lon="9.6599645"><ele>552.0</ele><time>2026-03-28T08:51:48.113Z</time></trkpt><trkpt lat="45.8431935" lon="9.6600148"><ele>550.0</ele><time>2026-03-28T08:51:50.113Z</time></trkpt><trkpt lat="45.8432316" lon="9.6601209"><ele>548.0</ele><time>2026-03-28T08:51:52.114Z</time></trkpt><trkpt lat="45.8432447" lon="9.660233"><ele>546.0</ele><time>2026-03-28T08:51:55.113Z</time></trkpt><trkpt lat="45.84324" lon="9.6603712"><ele>542.1666666666666</ele><time>2026-03-28T08:51:57.114Z</time></trkpt><trkpt lat="45.8432642" lon="9.6604763"><ele>538.3333333333334</ele><time>2026-03-28T08:51:58.114Z</time></trkpt><trkpt lat="45.8433032" lon="9.6605936"><ele>534.5</ele><time>2026-03-28T08:51:59.114Z</time></trkpt><trkpt lat="45.8433295" lon="9.6606977"><ele>530.6666666666667</ele><time>2026-03-28T08:52:00.114Z</time></trkpt><trkpt lat="45.8433382" lon="9.6608405"><ele>526.8333333333334</ele><time>2026-03-28T08:52:02.114Z</time></trkpt><trkpt lat="45.8433987" lon="9.6608938"><ele>523.0</ele><time>2026-03-28T08:52:04.114Z</time></trkpt><trkpt lat="45.8434322" lon="9.6609713"><ele>523.0</ele><time>2026-03-28T08:52:06.114Z</time></trkpt><trkpt lat="45.8434051" lon="9.6610783"><ele>523.0</ele><time>2026-03-28T08:52:07.114Z</time></trkpt><trkpt lat="45.8433671" lon="9.6611878"><ele>523.0</ele><time>2026-03-28T08:52:08.113Z</time></trkpt><trkpt lat="45.8433503" lon="9.6612808"><ele>523.0</ele><time>2026-03-28T08:52:09.113Z</time></trkpt><trkpt lat="45.8433742" lon="9.6614118"><ele>523.0</ele><time>2026-03-28T08:52:11.114Z</time></trkpt><trkpt lat="45.8433418" lon="9.6615856"><ele>519.0</ele><time>2026-03-28T08:52:13.114Z</time></trkpt><trkpt lat="45.8433063" lon="9.6617014"><ele>515.0</ele><time>2026-03-28T08:52:14.113Z</time></trkpt><trkpt lat="45.8432915" lon="9.6618184"><ele>511.0</ele><time>2026-03-28T08:52:16.114Z</time></trkpt><trkpt lat="45.8433371" lon="9.6618901"><ele>507.0</ele><time>2026-03-28T08:52:18.114Z</time></trkpt><trkpt lat="45.8433723" lon="9.6620614"><ele>503.00000000000006</ele><time>2026-03-28T08:52:20.114Z</time></trkpt><trkpt lat="45.8433858" lon="9.6621703"><ele>499.0</ele><time>2026-03-28T08:52:21.113Z</time></trkpt><trkpt lat="45.8433939" lon="9.6622755"><ele>496.4</ele><time>2026-03-28T08:52:22.114Z</time></trkpt><trkpt lat="45.8433807" lon="9.6624159"><ele>493.79999999999995</ele><time>2026-03-28T08:52:24.114Z</time></trkpt><trkpt lat="45.8432774" lon="9.6624685"><ele>491.20000000000005</ele><time>2026-03-28T08:52:26.113Z</time></trkpt><trkpt lat="45.8431738" lon="9.6624892"><ele>488.6</ele><time>2026-03-28T08:52:27.114Z</time></trkpt><trkpt lat="45.8430714" lon="9.6625146"><ele>486.0</ele><time>2026-03-28T08:52:28.113Z</time></trkpt><trkpt lat="45.8429766" lon="9.6625103"><ele>486.0</ele><time>2026-03-28T08:52:29.113Z</time></trkpt><trkpt lat="45.8428811" lon="9.6624958"><ele>486.0</ele><time>2026-03-28T08:52:30.113Z</time></trkpt><trkpt lat="45.8427735" lon="9.6624489"><ele>486.0</ele><time>2026-03-28T08:52:31.114Z</time></trkpt><trkpt lat="45.8426548" lon="9.6624022"><ele>486.0</ele><time>2026-03-28T08:52:32.114Z</time></trkpt><trkpt lat="45.8425438" lon="9.6623561"><ele>486.0</ele><time>2026-03-28T08:52:33.113Z</time></trkpt><trkpt lat="45.8424435" lon="9.6623169"><ele>484.20000000000005</ele><time>2026-03-28T08:52:34.113Z</time></trkpt><trkpt lat="45.8423637" lon="9.6622893"><ele>482.40000000000003</ele><time>2026-03-28T08:52:35.113Z</time></trkpt><trkpt lat="45.8422678" lon="9.6622288"><ele>480.6</ele><time>2026-03-28T08:52:37.114Z</time></trkpt><trkpt lat="45.8421813" lon="9.6620837"><ele>478.8</ele><time>2026-03-28T08:52:39.114Z</time></trkpt><trkpt lat="45.8421392" lon="9.6619691"><ele>477.0</ele><time>2026-03-28T08:52:40.113Z</time></trkpt><trkpt lat="45.842103" lon="9.6618604"><ele>476.3333333333333</ele><time>2026-03-28T08:52:41.114Z</time></trkpt><trkpt lat="45.8420649" lon="9.6617884"><ele>475.66666666666663</ele><time>2026-03-28T08:52:42.113Z</time></trkpt><trkpt lat="45.8419652" lon="9.6616968"><ele>475.0</ele><time>2026-03-28T08:52:44.113Z</time></trkpt><trkpt lat="45.8418909" lon="9.6616632"><ele>474.3333333333333</ele><time>2026-03-28T08:52:45.113Z</time></trkpt><trkpt lat="45.8418195" lon="9.6616296"><ele>473.66666666666663</ele><time>2026-03-28T08:52:46.114Z</time></trkpt><trkpt lat="45.8417505" lon="9.6616"><ele>473.0</ele><time>2026-03-28T08:52:47.114Z</time></trkpt><trkpt lat="45.8416876" lon="9.661561"><ele>472.99999999999994</ele><time>2026-03-28T08:52:48.114Z</time></trkpt><trkpt lat="45.8415809" lon="9.6615088"><ele>473.0</ele><time>2026-03-28T08:52:50.113Z</time></trkpt><trkpt lat="45.8414577" lon="9.6615231"><ele>473.0</ele><time>2026-03-28T08:52:52.114Z</time></trkpt><trkpt lat="45.841392" lon="9.6615498"><ele>473.0</ele><time>2026-03-28T08:52:53.114Z</time></trkpt><trkpt lat="45.8413234" lon="9.6615617"><ele>472.99999999999994</ele><time>2026-03-28T08:52:54.114Z</time></trkpt><trkpt lat="45.841253" lon="9.6615717"><ele>473.0</ele><time>2026-03-28T08:52:55.114Z</time></trkpt><trkpt lat="45.841181" lon="9.661559"><ele>473.0</ele><time>2026-03-28T08:52:56.114Z</time></trkpt><trkpt lat="45.8410848" lon="9.6614915"><ele>472.99999999999994</ele><time>2026-03-28T08:52:58.113Z</time></trkpt><trkpt lat="45.8409874" lon="9.6613813"><ele>472.99999999999994</ele><time>2026-03-28T08:53:00.113Z</time></trkpt><trkpt lat="45.8409281" lon="9.6612787"><ele>473.0</ele><time>2026-03-28T08:53:01.114Z</time></trkpt><trkpt lat="45.840879" lon="9.661183"><ele>473.0</ele><time>2026-03-28T08:53:02.114Z</time></trkpt><trkpt lat="45.8408549" lon="9.6610937"><ele>473.8333333333333</ele><time>2026-03-28T08:53:03.114Z</time></trkpt><trkpt lat="45.8407991" lon="9.6609766"><ele>474.66666666666663</ele><time>2026-03-28T08:53:05.113Z</time></trkpt><trkpt lat="45.8407312" lon="9.6609514"><ele>475.5</ele><time>2026-03-28T08:53:06.114Z</time></trkpt><trkpt lat="45.8406567" lon="9.6609078"><ele>476.33333333333337</ele><time>2026-03-28T08:53:07.113Z</time></trkpt><trkpt lat="45.840576" lon="9.6608824"><ele>477.1666666666667</ele><time>2026-03-28T08:53:08.114Z</time></trkpt><trkpt lat="45.8404947" lon="9.6608943"><ele>478.0</ele><time>2026-03-28T08:53:09.114Z</time></trkpt><trkpt lat="45.8404069" lon="9.6609601"><ele>478.00000000000006</ele><time>2026-03-28T08:53:10.113Z</time></trkpt><trkpt lat="45.8403212" lon="9.6610143"><ele>478.0</ele><time>2026-03-28T08:53:11.114Z</time></trkpt><trkpt lat="45.8402468" lon="9.6610349"><ele>478.0</ele><time>2026-03-28T08:53:12.113Z</time></trkpt><trkpt lat="45.840184" lon="9.6610171"><ele>478.0</ele><time>2026-03-28T08:53:13.114Z</time></trkpt><trkpt lat="45.84012" lon="9.6609888"><ele>478.00000000000006</ele><time>2026-03-28T08:53:14.113Z</time></trkpt><trkpt lat="45.8400319" lon="9.6610453"><ele>478.0</ele><time>2026-03-28T08:53:16.113Z</time></trkpt><trkpt lat="45.8400158" lon="9.6611442"><ele>466.59999999999997</ele><time>2026-03-28T08:53:17.114Z</time></trkpt><trkpt lat="45.8400063" lon="9.661266"><ele>455.19999999999993</ele><time>2026-03-28T08:53:18.113Z</time></trkpt><trkpt lat="45.8400068" lon="9.6613689"><ele>443.8</ele><time>2026-03-28T08:53:19.114Z</time></trkpt><trkpt lat="45.8399762" lon="9.6614491"><ele>432.4</ele><time>2026-03-28T08:53:21.114Z</time></trkpt><trkpt lat="45.8398359" lon="9.6613911"><ele>421.0</ele><time>2026-03-28T08:53:23.113Z</time></trkpt><trkpt lat="45.8397406" lon="9.6613366"><ele>421.0</ele><time>2026-03-28T08:53:24.114Z</time></trkpt><trkpt lat="45.8396567" lon="9.6612483"><ele>421.0</ele><time>2026-03-28T08:53:25.114Z</time></trkpt><trkpt lat="45.8395973" lon="9.6611669"><ele>421.0</ele><time>2026-03-28T08:53:26.114Z</time></trkpt><trkpt lat="45.8394873" lon="9.6611514"><ele>421.0</ele><time>2026-03-28T08:53:28.114Z</time></trkpt><trkpt lat="45.8394882" lon="9.6612853"><ele>421.0</ele><time>2026-03-28T08:53:30.114Z</time></trkpt><trkpt lat="45.8395283" lon="9.6613905"><ele>421.0</ele><time>2026-03-28T08:53:31.114Z</time></trkpt><trkpt lat="45.83953" lon="9.6615242"><ele>421.0</ele><time>2026-03-28T08:53:33.113Z</time></trkpt><trkpt lat="45.8394479" lon="9.661554"><ele>421.0</ele><time>2026-03-28T08:53:35.114Z</time></trkpt><trkpt lat="45.8393516" lon="9.6615379"><ele>421.0</ele><time>2026-03-28T08:53:36.113Z</time></trkpt><trkpt lat="45.8392482" lon="9.6615469"><ele>421.0</ele><time>2026-03-28T08:53:37.114Z</time></trkpt><trkpt lat="45.8391701" lon="9.6616059"><ele>419.33333333333337</ele><time>2026-03-28T08:53:38.114Z</time></trkpt><trkpt lat="45.8391281" lon="9.6617099"><ele>417.6666666666667</ele><time>2026-03-28T08:53:39.113Z</time></trkpt><trkpt lat="45.8391206" lon="9.6618219"><ele>416.0</ele><time>2026-03-28T08:53:40.113Z</time></trkpt><trkpt lat="45.8391559" lon="9.661913"><ele>414.33333333333337</ele><time>2026-03-28T08:53:41.113Z</time></trkpt><trkpt lat="45.839206" lon="9.6619987"><ele>412.6666666666667</ele><time>2026-03-28T08:53:42.114Z</time></trkpt><trkpt lat="45.8392691" lon="9.6620783"><ele>411.0</ele><time>2026-03-28T08:53:43.114Z</time></trkpt><trkpt lat="45.8393388" lon="9.662157"><ele>409.20000000000005</ele><time>2026-03-28T08:53:44.114Z</time></trkpt><trkpt lat="45.8394165" lon="9.6622389"><ele>407.40000000000003</ele><time>2026-03-28T08:53:45.113Z</time></trkpt><trkpt lat="45.8395019" lon="9.6623249"><ele>405.6</ele><time>2026-03-28T08:53:46.114Z</time></trkpt><trkpt lat="45.8395876" lon="9.6624116"><ele>403.8</ele><time>2026-03-28T08:53:47.114Z</time></trkpt><trkpt lat="45.8396682" lon="9.6624759"><ele>402.0</ele><time>2026-03-28T08:53:48.114Z</time></trkpt><trkpt lat="45.8397385" lon="9.6625265"><ele>402.0</ele><time>2026-03-28T08:53:49.113Z</time></trkpt><trkpt lat="45.8396979" lon="9.6626406"><ele>402.0</ele><time>2026-03-28T08:53:52.114Z</time></trkpt><trkpt lat="45.8396188" lon="9.6626262"><ele>402.0</ele><time>2026-03-28T08:53:53.114Z</time></trkpt><trkpt lat="45.8395188" lon="9.6626124"><ele>402.0</ele><time>2026-03-28T08:53:54.113Z</time></trkpt><trkpt lat="45.8394224" lon="9.6626509"><ele>402.0</ele><time>2026-03-28T08:53:55.114Z</time></trkpt><trkpt lat="45.83933" lon="9.6627223"><ele>395.20000000000005</ele><time>2026-03-28T08:53:56.114Z</time></trkpt><trkpt lat="45.8392378" lon="9.662804"><ele>388.4</ele><time>2026-03-28T08:53:57.113Z</time></trkpt><trkpt lat="45.8391548" lon="9.6628588"><ele>381.6</ele><time>2026-03-28T08:53:58.113Z</time></trkpt><trkpt lat="45.8390662" lon="9.6628871"><ele>374.79999999999995</ele><time>2026-03-28T08:53:59.114Z</time></trkpt><trkpt lat="45.8389884" lon="9.6628938"><ele>368.0</ele><time>2026-03-28T08:54:00.114Z</time></trkpt><trkpt lat="45.8389054" lon="9.6628632"><ele>368.0</ele><time>2026-03-28T08:54:01.114Z</time></trkpt><trkpt lat="45.8387931" lon="9.6628097"><ele>368.0</ele><time>2026-03-28T08:54:02.114Z</time></trkpt><trkpt lat="45.8386672" lon="9.6627382"><ele>368.0</ele><time>2026-03-28T08:54:03.113Z</time></trkpt><trkpt lat="45.8385352" lon="9.662668"><ele>368.0</ele><time>2026-03-28T08:54:04.113Z</time></trkpt><trkpt lat="45.8384197" lon="9.6626285"><ele>366.79999999999995</ele><time>2026-03-28T08:54:05.113Z</time></trkpt><trkpt lat="45.8383136" lon="9.6626159"><ele>365.6</ele><time>2026-03-28T08:54:06.114Z</time></trkpt><trkpt lat="45.8382373" lon="9.6626175"><ele>364.4</ele><time>2026-03-28T08:54:07.114Z</time></trkpt><trkpt lat="45.8381678" lon="9.6626338"><ele>363.20000000000005</ele><time>2026-03-28T08:54:08.113Z</time></trkpt><trkpt lat="45.838094" lon="9.6627602"><ele>362.0</ele><time>2026-03-28T08:54:10.113Z</time></trkpt><trkpt lat="45.8381003" lon="9.6628912"><ele>362.0</ele><time>2026-03-28T08:54:11.113Z</time></trkpt><trkpt lat="45.8381107" lon="9.6630057"><ele>362.0</ele><time>2026-03-28T08:54:12.114Z</time></trkpt><trkpt lat="45.8381198" lon="9.6631091"><ele>362.0</ele><time>2026-03-28T08:54:14.114Z</time></trkpt><trkpt lat="45.8382328" lon="9.6631718"><ele>362.0</ele><time>2026-03-28T08:54:16.114Z</time></trkpt><trkpt lat="45.8383426" lon="9.6631824"><ele>362.0</ele><time>2026-03-28T08:54:17.114Z</time></trkpt><trkpt lat="45.8384517" lon="9.6632182"><ele>363.5</ele><time>2026-03-28T08:54:18.113Z</time></trkpt><trkpt lat="45.8385712" lon="9.6632813"><ele>365.0</ele><time>2026-03-28T08:54:19.114Z</time></trkpt><trkpt lat="45.8386915" lon="9.6633611"><ele>366.5</ele><time>2026-03-28T08:54:20.114Z</time></trkpt><trkpt lat="45.83881" lon="9.6634421"><ele>368.0</ele><time>2026-03-28T08:54:21.114Z</time></trkpt><trkpt lat="45.8389275" lon="9.663513"><ele>368.0</ele><time>2026-03-28T08:54:22.114Z</time></trkpt><trkpt lat="45.839041" lon="9.6635866"><ele>368.0</ele><time>2026-03-28T08:54:23.113Z</time></trkpt><trkpt lat="45.8391523" lon="9.6636566"><ele>368.0</ele><time>2026-03-28T08:54:24.114Z</time></trkpt><trkpt lat="45.8392606" lon="9.6637296"><ele>368.0</ele><time>2026-03-28T08:54:25.113Z</time></trkpt><trkpt lat="45.8393687" lon="9.6638002"><ele>368.25</ele><time>2026-03-28T08:54:26.114Z</time></trkpt><trkpt lat="45.8394792" lon="9.6638749"><ele>368.5</ele><time>2026-03-28T08:54:27.113Z</time></trkpt><trkpt lat="45.8395921" lon="9.6639457"><ele>368.75</ele><time>2026-03-28T08:54:28.114Z</time></trkpt><trkpt lat="45.8397049" lon="9.6640143"><ele>369.0</ele><time>2026-03-28T08:54:29.113Z</time></trkpt><trkpt lat="45.8398153" lon="9.6640853"><ele>369.0</ele><time>2026-03-28T08:54:30.114Z</time></trkpt><trkpt lat="45.839925" lon="9.6641512"><ele>369.0</ele><time>2026-03-28T08:54:31.113Z</time></trkpt><trkpt lat="45.840029" lon="9.6642204"><ele>369.0</ele><time>2026-03-28T08:54:32.113Z</time></trkpt><trkpt lat="45.8401379" lon="9.6642915"><ele>369.0</ele><time>2026-03-28T08:54:33.113Z</time></trkpt><trkpt lat="45.8402419" lon="9.664367"><ele>368.0</ele><time>2026-03-28T08:54:34.114Z</time></trkpt><trkpt lat="45.8403586" lon="9.6644395"><ele>367.0</ele><time>2026-03-28T08:54:35.113Z</time></trkpt><trkpt lat="45.8404794" lon="9.664511"><ele>366.0</ele><time>2026-03-28T08:54:36.114Z</time></trkpt><trkpt lat="45.8405947" lon="9.6645667"><ele>365.0</ele><time>2026-03-28T08:54:37.114Z</time></trkpt><trkpt lat="45.8407193" lon="9.6646157"><ele>365.0</ele><time>2026-03-28T08:54:38.114Z</time></trkpt><trkpt lat="45.8408436" lon="9.6646362"><ele>365.0</ele><time>2026-03-28T08:54:39.114Z</time></trkpt><trkpt lat="45.8409531" lon="9.6646411"><ele>365.0</ele><time>2026-03-28T08:54:40.114Z</time></trkpt><trkpt lat="45.8410413" lon="9.6646502"><ele>365.0</ele><time>2026-03-28T08:54:41.114Z</time></trkpt><trkpt lat="45.8411082" lon="9.6646709"><ele>365.0</ele><time>2026-03-28T08:54:42.114Z</time></trkpt><trkpt lat="45.8412089" lon="9.6647119"><ele>365.83333333333337</ele><time>2026-03-28T08:54:44.114Z</time></trkpt><trkpt lat="45.8412814" lon="9.6647763"><ele>366.6666666666667</ele><time>2026-03-28T08:54:46.114Z</time></trkpt><trkpt lat="45.8413361" lon="9.6648369"><ele>367.5</ele><time>2026-03-28T08:54:48.113Z</time></trkpt><trkpt lat="45.8413689" lon="9.6649225"><ele>368.3333333333333</ele><time>2026-03-28T08:54:51.113Z</time></trkpt><trkpt lat="45.8413346" lon="9.6650139"><ele>369.16666666666663</ele><time>2026-03-28T08:54:55.113Z</time></trkpt><trkpt lat="45.8412894" lon="9.6651524"><ele>370.0</ele><time>2026-03-28T08:54:57.114Z</time></trkpt><trkpt lat="45.8412586" lon="9.6652511"><ele>368.5</ele><time>2026-03-28T08:54:59.114Z</time></trkpt><trkpt lat="45.8412249" lon="9.6653671"><ele>367.0</ele><time>2026-03-28T08:55:02.114Z</time></trkpt><trkpt lat="45.8411796" lon="9.6654843"><ele>365.5</ele><time>2026-03-28T08:55:05.114Z</time></trkpt><trkpt lat="45.8411513" lon="9.6655768"><ele>364.0</ele><time>2026-03-28T08:55:07.113Z</time></trkpt><trkpt lat="45.8411218" lon="9.6656683"><ele>362.5</ele><time>2026-03-28T08:55:09.114Z</time></trkpt><trkpt lat="45.8410827" lon="9.6657616"><ele>361.0</ele><time>2026-03-28T08:55:12.114Z</time></trkpt><trkpt lat="45.8410524" lon="9.6658493"><ele>361.0</ele><time>2026-03-28T08:55:16.113Z</time></trkpt><trkpt lat="45.8410078" lon="9.6659245"><ele>361.0</ele><time>2026-03-28T08:55:27.114Z</time></trkpt><trkpt lat="45.8409421" lon="9.6661082"><ele>361.0</ele><time>2026-03-28T08:55:41.113Z</time></trkpt><trkpt lat="45.840906" lon="9.6661926"><ele>361.0</ele><time>2026-03-28T08:55:43.114Z</time></trkpt><trkpt lat="45.8408603" lon="9.6663952"><ele>361.0</ele><time>2026-03-28T08:55:45.114Z</time></trkpt><trkpt lat="45.8408162" lon="9.6665352"><ele>360.8</ele><time>2026-03-28T08:55:46.113Z</time></trkpt><trkpt lat="45.8407425" lon="9.6666826"><ele>360.6</ele><time>2026-03-28T08:55:47.114Z</time></trkpt><trkpt lat="45.8406804" lon="9.6668258"><ele>360.4</ele><time>2026-03-28T08:55:48.114Z</time></trkpt><trkpt lat="45.8406385" lon="9.6669523"><ele>360.2</ele><time>2026-03-28T08:55:49.113Z</time></trkpt><trkpt lat="45.8405942" lon="9.6670459"><ele>360.0</ele><time>2026-03-28T08:55:50.114Z</time></trkpt><trkpt lat="45.8404785" lon="9.6670366"><ele>360.0</ele><time>2026-03-28T08:55:52.113Z</time></trkpt><trkpt lat="45.8403798" lon="9.6669591"><ele>360.0</ele><time>2026-03-28T08:55:53.113Z</time></trkpt><trkpt lat="45.8402775" lon="9.6668786"><ele>360.0</ele><time>2026-03-28T08:55:54.113Z</time></trkpt><trkpt lat="45.8401557" lon="9.6667994"><ele>360.0</ele><time>2026-03-28T08:55:55.114Z</time></trkpt><trkpt lat="45.840023" lon="9.6667107"><ele>361.25</ele><time>2026-03-28T08:55:56.113Z</time></trkpt><trkpt lat="45.8398743" lon="9.6666362"><ele>362.5</ele><time>2026-03-28T08:55:57.114Z</time></trkpt><trkpt lat="45.839735" lon="9.6665738"><ele>363.75</ele><time>2026-03-28T08:55:58.113Z</time></trkpt><trkpt lat="45.8396023" lon="9.6665255"><ele>365.0</ele><time>2026-03-28T08:55:59.114Z</time></trkpt><trkpt lat="45.8394699" lon="9.6664794"><ele>365.0</ele><time>2026-03-28T08:56:00.114Z</time></trkpt><trkpt lat="45.8393435" lon="9.6664349"><ele>365.0</ele><time>2026-03-28T08:56:01.113Z</time></trkpt><trkpt lat="45.839216" lon="9.6663915"><ele>365.0</ele><time>2026-03-28T08:56:02.114Z</time></trkpt><trkpt lat="45.8390826" lon="9.6663438"><ele>365.0</ele><time>2026-03-28T08:56:03.114Z</time></trkpt><trkpt lat="45.8389467" lon="9.666299"><ele>365.25</ele><time>2026-03-28T08:56:04.114Z</time></trkpt><trkpt lat="45.8388186" lon="9.6662423"><ele>365.5</ele><time>2026-03-28T08:56:05.113Z</time></trkpt><trkpt lat="45.8386989" lon="9.6662049"><ele>365.75</ele><time>2026-03-28T08:56:06.114Z</time></trkpt><trkpt lat="45.8385815" lon="9.6661651"><ele>366.0</ele><time>2026-03-28T08:56:07.114Z</time></trkpt><trkpt lat="45.8384753" lon="9.6661309"><ele>364.3333333333333</ele><time>2026-03-28T08:56:08.114Z</time></trkpt><trkpt lat="45.838377" lon="9.6660996"><ele>362.6666666666667</ele><time>2026-03-28T08:56:09.113Z</time></trkpt><trkpt lat="45.8382853" lon="9.6660697"><ele>361.0</ele><time>2026-03-28T08:56:10.114Z</time></trkpt><trkpt lat="45.8382122" lon="9.6660478"><ele>359.33333333333337</ele><time>2026-03-28T08:56:11.113Z</time></trkpt><trkpt lat="45.8381319" lon="9.666015"><ele>357.6666666666667</ele><time>2026-03-28T08:56:13.114Z</time></trkpt><trkpt lat="45.8380689" lon="9.6659975"><ele>356.0</ele><time>2026-03-28T08:56:16.113Z</time></trkpt><trkpt lat="45.8380028" lon="9.6659646"><ele>356.0</ele><time>2026-03-28T08:56:18.113Z</time></trkpt><trkpt lat="45.8379286" lon="9.6659419"><ele>356.0</ele><time>2026-03-28T08:56:23.113Z</time></trkpt><trkpt lat="45.8378529" lon="9.6659243"><ele>356.0</ele><time>2026-03-28T08:56:25.114Z</time></trkpt><trkpt lat="45.8377483" lon="9.6659025"><ele>356.0</ele><time>2026-03-28T08:56:27.114Z</time></trkpt><trkpt lat="45.837684" lon="9.6658713"><ele>356.0</ele><time>2026-03-28T08:56:28.113Z</time></trkpt><trkpt lat="45.8376238" lon="9.6658385"><ele>356.0</ele><time>2026-03-28T08:56:29.114Z</time></trkpt><trkpt lat="45.8375481" lon="9.6657977"><ele>356.0</ele><time>2026-03-28T08:56:30.114Z</time></trkpt><trkpt lat="45.8374604" lon="9.665741"><ele>356.0</ele><time>2026-03-28T08:56:31.113Z</time></trkpt><trkpt lat="45.8373592" lon="9.6656589"><ele>356.0</ele><time>2026-03-28T08:56:32.114Z</time></trkpt><trkpt lat="45.8372511" lon="9.665546"><ele>356.0</ele><time>2026-03-28T08:56:33.113Z</time></trkpt><trkpt lat="45.8371383" lon="9.6654162"><ele>356.0</ele><time>2026-03-28T08:56:34.113Z</time></trkpt><trkpt lat="45.8370271" lon="9.6652792"><ele>356.0</ele><time>2026-03-28T08:56:35.114Z</time></trkpt><trkpt lat="45.8369153" lon="9.6651658"><ele>356.0</ele><time>2026-03-28T08:56:36.113Z</time></trkpt><trkpt lat="45.8368082" lon="9.6650688"><ele>356.0</ele><time>2026-03-28T08:56:37.113Z</time></trkpt><trkpt lat="45.8367028" lon="9.6650032"><ele>356.0</ele><time>2026-03-28T08:56:38.113Z</time></trkpt><trkpt lat="45.8365957" lon="9.6649962"><ele>356.0</ele><time>2026-03-28T08:56:39.114Z</time></trkpt><trkpt lat="45.8364703" lon="9.6650436"><ele>356.0</ele><time>2026-03-28T08:56:40.113Z</time></trkpt><trkpt lat="45.8363412" lon="9.6651156"><ele>356.0</ele><time>2026-03-28T08:56:41.114Z</time></trkpt><trkpt lat="45.8362114" lon="9.6651961"><ele>356.0</ele><time>2026-03-28T08:56:42.114Z</time></trkpt><trkpt lat="45.8360851" lon="9.6652779"><ele>356.0</ele><time>2026-03-28T08:56:43.113Z</time></trkpt><trkpt lat="45.8359631" lon="9.6653501"><ele>356.0</ele><time>2026-03-28T08:56:44.114Z</time></trkpt><trkpt lat="45.8358422" lon="9.6654113"><ele>356.0</ele><time>2026-03-28T08:56:45.114Z</time></trkpt><trkpt lat="45.8357239" lon="9.6654799"><ele>356.4</ele><time>2026-03-28T08:56:46.114Z</time></trkpt><trkpt lat="45.8356107" lon="9.6655452"><ele>356.8</ele><time>2026-03-28T08:56:47.113Z</time></trkpt><trkpt lat="45.8355029" lon="9.6656078"><ele>357.2</ele><time>2026-03-28T08:56:48.113Z</time></trkpt><trkpt lat="45.8354064" lon="9.6656537"><ele>357.59999999999997</ele><time>2026-03-28T08:56:49.114Z</time></trkpt><trkpt lat="45.8353294" lon="9.6657058"><ele>358.0</ele><time>2026-03-28T08:56:50.114Z</time></trkpt><trkpt lat="45.8352806" lon="9.6657647"><ele>358.0</ele><time>2026-03-28T08:56:51.114Z</time></trkpt><trkpt lat="45.8352812" lon="9.6659498"><ele>358.0</ele><time>2026-03-28T08:56:53.114Z</time></trkpt><trkpt lat="45.835322" lon="9.6660531"><ele>358.0</ele><time>2026-03-28T08:56:54.114Z</time></trkpt><trkpt lat="45.8353539" lon="9.6661904"><ele>358.0</ele><time>2026-03-28T08:56:56.114Z</time></trkpt><trkpt lat="45.8353216" lon="9.6662813"><ele>358.0</ele><time>2026-03-28T08:56:57.113Z</time></trkpt><trkpt lat="45.8352519" lon="9.666381"><ele>358.3333333333333</ele><time>2026-03-28T08:56:58.114Z</time></trkpt><trkpt lat="45.8351913" lon="9.6665118"><ele>358.66666666666663</ele><time>2026-03-28T08:57:00.114Z</time></trkpt><trkpt lat="45.8351899" lon="9.6666091"><ele>359.0</ele><time>2026-03-28T08:57:01.114Z</time></trkpt><trkpt lat="45.8351896" lon="9.6667084"><ele>359.3333333333333</ele><time>2026-03-28T08:57:02.113Z</time></trkpt><trkpt lat="45.8352157" lon="9.6668269"><ele>359.6666666666667</ele><time>2026-03-28T08:57:04.114Z</time></trkpt><trkpt lat="45.835259" lon="9.6669544"><ele>360.0</ele><time>2026-03-28T08:57:07.114Z</time></trkpt><trkpt lat="45.8352862" lon="9.6670737"><ele>362.3333333333333</ele><time>2026-03-28T08:57:08.114Z</time></trkpt><trkpt lat="45.8353155" lon="9.6672117"><ele>364.6666666666667</ele><time>2026-03-28T08:57:09.114Z</time></trkpt><trkpt lat="45.8353474" lon="9.6673508"><ele>367.0</ele><time>2026-03-28T08:57:10.113Z</time></trkpt><trkpt lat="45.8353851" lon="9.6674723"><ele>369.33333333333337</ele><time>2026-03-28T08:57:11.114Z</time></trkpt><trkpt lat="45.8354263" lon="9.6675559"><ele>371.6666666666667</ele><time>2026-03-28T08:57:12.114Z</time></trkpt><trkpt lat="45.8355053" lon="9.6675613"><ele>374.0</ele><time>2026-03-28T08:57:13.114Z</time></trkpt><trkpt lat="45.8356156" lon="9.6675534"><ele>374.0</ele><time>2026-03-28T08:57:14.114Z</time></trkpt><trkpt lat="45.8357258" lon="9.6675423"><ele>374.0</ele><time>2026-03-28T08:57:15.113Z</time></trkpt><trkpt lat="45.8358508" lon="9.6675316"><ele>374.0</ele><time>2026-03-28T08:57:16.114Z</time></trkpt><trkpt lat="45.8359835" lon="9.6675248"><ele>374.0</ele><time>2026-03-28T08:57:17.114Z</time></trkpt><trkpt lat="45.8361195" lon="9.6675305"><ele>377.5</ele><time>2026-03-28T08:57:18.114Z</time></trkpt><trkpt lat="45.8362393" lon="9.667562"><ele>381.0</ele><time>2026-03-28T08:57:19.113Z</time></trkpt><trkpt lat="45.8363592" lon="9.6675766"><ele>384.5</ele><time>2026-03-28T08:57:20.114Z</time></trkpt><trkpt lat="45.8364848" lon="9.6675481"><ele>388.0</ele><time>2026-03-28T08:57:21.114Z</time></trkpt><trkpt lat="45.8366079" lon="9.6675102"><ele>388.0</ele><time>2026-03-28T08:57:22.114Z</time></trkpt><trkpt lat="45.8367412" lon="9.6674704"><ele>388.0</ele><time>2026-03-28T08:57:23.114Z</time></trkpt><trkpt lat="45.8368656" lon="9.6674386"><ele>388.0</ele><time>2026-03-28T08:57:24.114Z</time></trkpt><trkpt lat="45.8369746" lon="9.6674317"><ele>388.0</ele><time>2026-03-28T08:57:25.113Z</time></trkpt><trkpt lat="45.8370882" lon="9.6674567"><ele>390.5</ele><time>2026-03-28T08:57:26.114Z</time></trkpt><trkpt lat="45.8372064" lon="9.6675104"><ele>393.0</ele><time>2026-03-28T08:57:27.114Z</time></trkpt><trkpt lat="45.8373259" lon="9.6675806"><ele>395.5</ele><time>2026-03-28T08:57:28.113Z</time></trkpt><trkpt lat="45.8374454" lon="9.66768"><ele>398.0</ele><time>2026-03-28T08:57:29.113Z</time></trkpt><trkpt lat="45.8375645" lon="9.6677897"><ele>400.4</ele><time>2026-03-28T08:57:30.113Z</time></trkpt><trkpt lat="45.8376906" lon="9.667886"><ele>402.79999999999995</ele><time>2026-03-28T08:57:31.114Z</time></trkpt><trkpt lat="45.8378042" lon="9.6679553"><ele>405.2</ele><time>2026-03-28T08:57:32.114Z</time></trkpt><trkpt lat="45.8378956" lon="9.6680133"><ele>407.6</ele><time>2026-03-28T08:57:33.114Z</time></trkpt><trkpt lat="45.8379613" lon="9.6680813"><ele>410.0</ele><time>2026-03-28T08:57:34.113Z</time></trkpt><trkpt lat="45.8379827" lon="9.6681692"><ele>410.0</ele><time>2026-03-28T08:57:35.114Z</time></trkpt><trkpt lat="45.8379639" lon="9.6683004"><ele>410.0</ele><time>2026-03-28T08:57:36.113Z</time></trkpt><trkpt lat="45.8379389" lon="9.6684627"><ele>410.0</ele><time>2026-03-28T08:57:37.113Z</time></trkpt><trkpt lat="45.8379389" lon="9.6686261"><ele>410.0</ele><time>2026-03-28T08:57:38.113Z</time></trkpt><trkpt lat="45.8379719" lon="9.6688067"><ele>414.0</ele><time>2026-03-28T08:57:39.113Z</time></trkpt><trkpt lat="45.8380251" lon="9.6689849"><ele>418.0</ele><time>2026-03-28T08:57:40.113Z</time></trkpt><trkpt lat="45.8380886" lon="9.6691599"><ele>422.0</ele><time>2026-03-28T08:57:41.113Z</time></trkpt><trkpt lat="45.8381541" lon="9.669299"><ele>426.0</ele><time>2026-03-28T08:57:42.113Z</time></trkpt><trkpt lat="45.8382399" lon="9.6693833"><ele>426.0</ele><time>2026-03-28T08:57:43.113Z</time></trkpt><trkpt lat="45.8383392" lon="9.6694303"><ele>426.0</ele><time>2026-03-28T08:57:44.114Z</time></trkpt><trkpt lat="45.8384656" lon="9.6694451"><ele>426.0</ele><time>2026-03-28T08:57:45.113Z</time></trkpt><trkpt lat="45.8385783" lon="9.6694449"><ele>426.0</ele><time>2026-03-28T08:57:46.113Z</time></trkpt><trkpt lat="45.838661" lon="9.669456"><ele>426.0</ele><time>2026-03-28T08:57:47.113Z</time></trkpt><trkpt lat="45.8387309" lon="9.669556"><ele>426.0</ele><time>2026-03-28T08:57:49.114Z</time></trkpt><trkpt lat="45.8386864" lon="9.669752"><ele>426.0</ele><time>2026-03-28T08:57:51.113Z</time></trkpt><trkpt lat="45.8386754" lon="9.6699"><ele>426.0</ele><time>2026-03-28T08:57:53.114Z</time></trkpt><trkpt lat="45.8387087" lon="9.6699963"><ele>426.0</ele><time>2026-03-28T08:57:55.113Z</time></trkpt><trkpt lat="45.8386206" lon="9.6700635"><ele>426.0</ele><time>2026-03-28T08:57:58.114Z</time></trkpt><trkpt lat="45.8385123" lon="9.6701573"><ele>430.0</ele><time>2026-03-28T08:58:00.114Z</time></trkpt><trkpt lat="45.8384663" lon="9.6702524"><ele>434.0</ele><time>2026-03-28T08:58:01.114Z</time></trkpt><trkpt lat="45.8384219" lon="9.670378"><ele>438.0</ele><time>2026-03-28T08:58:02.114Z</time></trkpt><trkpt lat="45.8383743" lon="9.6705312"><ele>442.0</ele><time>2026-03-28T08:58:03.114Z</time></trkpt><trkpt lat="45.8383399" lon="9.6706729"><ele>446.0</ele><time>2026-03-28T08:58:04.113Z</time></trkpt><trkpt lat="45.8383101" lon="9.6707932"><ele>448.8333333333333</ele><time>2026-03-28T08:58:05.113Z</time></trkpt><trkpt lat="45.8382996" lon="9.6709013"><ele>451.66666666666663</ele><time>2026-03-28T08:58:06.114Z</time></trkpt><trkpt lat="45.8383033" lon="9.670995"><ele>454.5</ele><time>2026-03-28T08:58:07.114Z</time></trkpt><trkpt lat="45.8382513" lon="9.6711255"><ele>457.33333333333337</ele><time>2026-03-28T08:58:09.113Z</time></trkpt><trkpt lat="45.8382789" lon="9.6712073"><ele>460.1666666666667</ele><time>2026-03-28T08:58:11.114Z</time></trkpt><trkpt lat="45.8383871" lon="9.6712815"><ele>463.0</ele><time>2026-03-28T08:58:13.113Z</time></trkpt><trkpt lat="45.8384428" lon="9.6713492"><ele>464.59999999999997</ele><time>2026-03-28T08:58:14.114Z</time></trkpt><trkpt lat="45.8385037" lon="9.67144"><ele>466.19999999999993</ele><time>2026-03-28T08:58:15.113Z</time></trkpt><trkpt lat="45.8385642" lon="9.67157"><ele>467.8</ele><time>2026-03-28T08:58:16.113Z</time></trkpt><trkpt lat="45.8386162" lon="9.6717049"><ele>469.4</ele><time>2026-03-28T08:58:17.114Z</time></trkpt><trkpt lat="45.8386824" lon="9.6718728"><ele>471.0</ele><time>2026-03-28T08:58:18.113Z</time></trkpt><trkpt lat="45.8387391" lon="9.6720556"><ele>475.6</ele><time>2026-03-28T08:58:19.114Z</time></trkpt><trkpt lat="45.8387979" lon="9.6721912"><ele>480.20000000000005</ele><time>2026-03-28T08:58:20.113Z</time></trkpt><trkpt lat="45.8388428" lon="9.6722801"><ele>484.79999999999995</ele><time>2026-03-28T08:58:21.114Z</time></trkpt><trkpt lat="45.8389013" lon="9.6724057"><ele>489.4</ele><time>2026-03-28T08:58:23.113Z</time></trkpt><trkpt lat="45.8390203" lon="9.672406"><ele>494.0</ele><time>2026-03-28T08:58:25.113Z</time></trkpt><trkpt lat="45.8390926" lon="9.6723594"><ele>494.0</ele><time>2026-03-28T08:58:26.114Z</time></trkpt><trkpt lat="45.8391571" lon="9.6722665"><ele>494.0</ele><time>2026-03-28T08:58:27.113Z</time></trkpt><trkpt lat="45.8392356" lon="9.6721253"><ele>494.0</ele><time>2026-03-28T08:58:29.114Z</time></trkpt><trkpt lat="45.8392127" lon="9.6722362"><ele>494.0</ele><time>2026-03-28T08:58:34.114Z</time></trkpt><trkpt lat="45.8393013" lon="9.6722268"><ele>494.0</ele><time>2026-03-28T08:58:37.114Z</time></trkpt><trkpt lat="45.8393247" lon="9.6723869"><ele>494.0</ele><time>2026-03-28T08:58:40.113Z</time></trkpt><trkpt lat="45.8393015" lon="9.6725146"><ele>494.0</ele><time>2026-03-28T08:58:41.113Z</time></trkpt><trkpt lat="45.8392891" lon="9.6726671"><ele>494.0</ele><time>2026-03-28T08:58:42.114Z</time></trkpt><trkpt lat="45.8392822" lon="9.6728032"><ele>494.0</ele><time>2026-03-28T08:58:43.113Z</time></trkpt><trkpt lat="45.8392766" lon="9.6729318"><ele>494.0</ele><time>2026-03-28T08:58:44.114Z</time></trkpt><trkpt lat="45.8392738" lon="9.6730568"><ele>498.79999999999995</ele><time>2026-03-28T08:58:45.113Z</time></trkpt><trkpt lat="45.8392644" lon="9.6731573"><ele>503.59999999999997</ele><time>2026-03-28T08:58:46.113Z</time></trkpt><trkpt lat="45.839253" lon="9.6733283"><ele>508.4</ele><time>2026-03-28T08:58:48.114Z</time></trkpt><trkpt lat="45.8392677" lon="9.6734176"><ele>513.1999999999999</ele><time>2026-03-28T08:58:49.114Z</time></trkpt><trkpt lat="45.8392491" lon="9.6735481"><ele>518.0</ele><time>2026-03-28T08:58:51.113Z</time></trkpt><trkpt lat="45.8392253" lon="9.6737201"><ele>521.8333333333333</ele><time>2026-03-28T08:58:53.113Z</time></trkpt><trkpt lat="45.8392044" lon="9.6738077"><ele>525.6666666666666</ele><time>2026-03-28T08:58:54.114Z</time></trkpt><trkpt lat="45.8391081" lon="9.6739381"><ele>529.5</ele><time>2026-03-28T08:58:56.114Z</time></trkpt><trkpt lat="45.8390583" lon="9.6740167"><ele>533.3333333333334</ele><time>2026-03-28T08:58:57.113Z</time></trkpt><trkpt lat="45.8390618" lon="9.6741152"><ele>537.1666666666667</ele><time>2026-03-28T08:59:00.113Z</time></trkpt><trkpt lat="45.8391601" lon="9.6740958"><ele>541.0</ele><time>2026-03-28T08:59:03.114Z</time></trkpt><trkpt lat="45.8392704" lon="9.673986"><ele>540.6666666666667</ele><time>2026-03-28T08:59:05.114Z</time></trkpt><trkpt lat="45.8393277" lon="9.6739207"><ele>540.3333333333334</ele><time>2026-03-28T08:59:06.114Z</time></trkpt><trkpt lat="45.8393954" lon="9.6738824"><ele>540.0</ele><time>2026-03-28T08:59:07.113Z</time></trkpt><trkpt lat="45.8394654" lon="9.673895"><ele>539.6666666666666</ele><time>2026-03-28T08:59:08.113Z</time></trkpt><trkpt lat="45.8395437" lon="9.6739281"><ele>539.3333333333333</ele><time>2026-03-28T08:59:09.114Z</time></trkpt><trkpt lat="45.8396362" lon="9.6739579"><ele>539.0</ele><time>2026-03-28T08:59:10.114Z</time></trkpt><trkpt lat="45.8397323" lon="9.6739888"><ele>539.0</ele><time>2026-03-28T08:59:11.114Z</time></trkpt><trkpt lat="45.8398174" lon="9.6740336"><ele>539.0</ele><time>2026-03-28T08:59:12.114Z</time></trkpt><trkpt lat="45.83989" lon="9.6740676"><ele>539.0</ele><time>2026-03-28T08:59:13.114Z</time></trkpt><trkpt lat="45.8399547" lon="9.6740964"><ele>539.0</ele><time>2026-03-28T08:59:14.113Z</time></trkpt><trkpt lat="45.8400366" lon="9.6741906"><ele>539.0</ele><time>2026-03-28T08:59:16.113Z</time></trkpt><trkpt lat="45.8400887" lon="9.6743577"><ele>541.5</ele><time>2026-03-28T08:59:18.113Z</time></trkpt><trkpt lat="45.840114" lon="9.6744802"><ele>544.0</ele><time>2026-03-28T08:59:19.114Z</time></trkpt><trkpt lat="45.8401566" lon="9.6746057"><ele>546.5</ele><time>2026-03-28T08:59:20.114Z</time></trkpt><trkpt lat="45.8402163" lon="9.6747058"><ele>549.0</ele><time>2026-03-28T08:59:21.114Z</time></trkpt><trkpt lat="45.8402609" lon="9.6748074"><ele>551.5</ele><time>2026-03-28T08:59:22.114Z</time></trkpt><trkpt lat="45.8402914" lon="9.6749179"><ele>554.0</ele><time>2026-03-28T08:59:23.113Z</time></trkpt><trkpt lat="45.8403004" lon="9.675036"><ele>548.5</ele><time>2026-03-28T08:59:24.114Z</time></trkpt><trkpt lat="45.8403049" lon="9.675173"><ele>543.0</ele><time>2026-03-28T08:59:25.114Z</time></trkpt><trkpt lat="45.8403162" lon="9.6753151"><ele>537.5</ele><time>2026-03-28T08:59:26.114Z</time></trkpt><trkpt lat="45.8403272" lon="9.6754467"><ele>532.0</ele><time>2026-03-28T08:59:27.114Z</time></trkpt><trkpt lat="45.8403196" lon="9.6755619"><ele>526.5</ele><time>2026-03-28T08:59:28.114Z</time></trkpt><trkpt lat="45.8402928" lon="9.6756629"><ele>521.0</ele><time>2026-03-28T08:59:29.114Z</time></trkpt><trkpt lat="45.8402579" lon="9.6757639"><ele>519.8333333333333</ele><time>2026-03-28T08:59:30.114Z</time></trkpt><trkpt lat="45.8402231" lon="9.675852"><ele>518.6666666666666</ele><time>2026-03-28T08:59:31.114Z</time></trkpt><trkpt lat="45.8401966" lon="9.675935"><ele>517.5</ele><time>2026-03-28T08:59:32.113Z</time></trkpt><trkpt lat="45.8401586" lon="9.6760303"><ele>516.3333333333334</ele><time>2026-03-28T08:59:33.114Z</time></trkpt><trkpt lat="45.8400917" lon="9.6761148"><ele>515.1666666666667</ele><time>2026-03-28T08:59:34.113Z</time></trkpt><trkpt lat="45.8400228" lon="9.6761994"><ele>514.0</ele><time>2026-03-28T08:59:35.114Z</time></trkpt><trkpt lat="45.8399643" lon="9.6762543"><ele>520.8333333333334</ele><time>2026-03-28T08:59:36.113Z</time></trkpt><trkpt lat="45.8399538" lon="9.6763921"><ele>527.6666666666667</ele><time>2026-03-28T08:59:38.114Z</time></trkpt><trkpt lat="45.8399617" lon="9.6764848"><ele>534.5</ele><time>2026-03-28T08:59:39.114Z</time></trkpt><trkpt lat="45.8399693" lon="9.676606"><ele>541.3333333333334</ele><time>2026-03-28T08:59:40.114Z</time></trkpt><trkpt lat="45.839983" lon="9.676747"><ele>548.1666666666666</ele><time>2026-03-28T08:59:41.114Z</time></trkpt><trkpt lat="45.8399963" lon="9.6768883"><ele>555.0</ele><time>2026-03-28T08:59:42.114Z</time></trkpt><trkpt lat="45.8400013" lon="9.6770091"><ele>555.0</ele><time>2026-03-28T08:59:43.114Z</time></trkpt><trkpt lat="45.8400052" lon="9.6771132"><ele>555.0</ele><time>2026-03-28T08:59:44.114Z</time></trkpt><trkpt lat="45.83996" lon="9.677232"><ele>555.0</ele><time>2026-03-28T08:59:45.113Z</time></trkpt><trkpt lat="45.8399078" lon="9.6773513"><ele>555.0</ele><time>2026-03-28T08:59:46.113Z</time></trkpt><trkpt lat="45.839848" lon="9.677482"><ele>555.0</ele><time>2026-03-28T08:59:47.114Z</time></trkpt><trkpt lat="45.8398008" lon="9.6776057"><ele>555.0</ele><time>2026-03-28T08:59:48.114Z</time></trkpt><trkpt lat="45.8397889" lon="9.6777306"><ele>555.0</ele><time>2026-03-28T08:59:49.113Z</time></trkpt><trkpt lat="45.8397924" lon="9.677856"><ele>555.0</ele><time>2026-03-28T08:59:50.114Z</time></trkpt><trkpt lat="45.8397942" lon="9.6779706"><ele>555.0</ele><time>2026-03-28T08:59:51.114Z</time></trkpt><trkpt lat="45.8397906" lon="9.6780793"><ele>555.0</ele><time>2026-03-28T08:59:52.113Z</time></trkpt><trkpt lat="45.8397763" lon="9.6781957"><ele>555.0</ele><time>2026-03-28T08:59:53.113Z</time></trkpt><trkpt lat="45.8397535" lon="9.678299"><ele>555.3333333333334</ele><time>2026-03-28T08:59:54.114Z</time></trkpt><trkpt lat="45.8397485" lon="9.6783907"><ele>555.6666666666666</ele><time>2026-03-28T08:59:55.113Z</time></trkpt><trkpt lat="45.8397554" lon="9.6785377"><ele>556.0</ele><time>2026-03-28T08:59:57.114Z</time></trkpt><trkpt lat="45.8397068" lon="9.6786772"><ele>556.3333333333333</ele><time>2026-03-28T08:59:59.114Z</time></trkpt><trkpt lat="45.8396734" lon="9.6787592"><ele>556.6666666666666</ele><time>2026-03-28T09:00:00.113Z</time></trkpt><trkpt lat="45.8396406" lon="9.6788375"><ele>557.0</ele><time>2026-03-28T09:00:01.113Z</time></trkpt><trkpt lat="45.8396034" lon="9.6789183"><ele>557.0</ele><time>2026-03-28T09:00:02.113Z</time></trkpt><trkpt lat="45.8395412" lon="9.6790407"><ele>557.0</ele><time>2026-03-28T09:00:04.113Z</time></trkpt><trkpt lat="45.8395036" lon="9.6791974"><ele>557.0</ele><time>2026-03-28T09:00:06.114Z</time></trkpt><trkpt lat="45.8394683" lon="9.6793349"><ele>557.0</ele><time>2026-03-28T09:00:07.114Z</time></trkpt><trkpt lat="45.8394295" lon="9.6794833"><ele>557.0</ele><time>2026-03-28T09:00:08.113Z</time></trkpt><trkpt lat="45.8394009" lon="9.6796516"><ele>555.0</ele><time>2026-03-28T09:00:09.113Z</time></trkpt><trkpt lat="45.8393739" lon="9.6798087"><ele>553.0</ele><time>2026-03-28T09:00:10.114Z</time></trkpt><trkpt lat="45.8393465" lon="9.6799363"><ele>551.0</ele><time>2026-03-28T09:00:11.114Z</time></trkpt><trkpt lat="45.8393332" lon="9.6800343"><ele>549.0</ele><time>2026-03-28T09:00:12.114Z</time></trkpt><trkpt lat="45.8392834" lon="9.6801731"><ele>547.0</ele><time>2026-03-28T09:00:14.114Z</time></trkpt><trkpt lat="45.8392372" lon="9.6802473"><ele>554.3333333333334</ele><time>2026-03-28T09:00:15.113Z</time></trkpt><trkpt lat="45.8391961" lon="9.68032"><ele>561.6666666666667</ele><time>2026-03-28T09:00:16.114Z</time></trkpt><trkpt lat="45.8391448" lon="9.6803968"><ele>569.0</ele><time>2026-03-28T09:00:18.113Z</time></trkpt><trkpt lat="45.8391328" lon="9.6805419"><ele>576.3333333333334</ele><time>2026-03-28T09:00:20.114Z</time></trkpt><trkpt lat="45.8391353" lon="9.6806341"><ele>583.6666666666666</ele><time>2026-03-28T09:00:21.114Z</time></trkpt><trkpt lat="45.8391223" lon="9.6807367"><ele>591.0</ele><time>2026-03-28T09:00:22.114Z</time></trkpt><trkpt lat="45.839107" lon="9.6808379"><ele>591.0</ele><time>2026-03-28T09:00:23.113Z</time></trkpt><trkpt lat="45.8390806" lon="9.6809328"><ele>591.0</ele><time>2026-03-28T09:00:24.113Z</time></trkpt><trkpt lat="45.8390197" lon="9.6810236"><ele>591.0</ele><time>2026-03-28T09:00:25.114Z</time></trkpt><trkpt lat="45.8389541" lon="9.6811231"><ele>591.0</ele><time>2026-03-28T09:00:26.114Z</time></trkpt><trkpt lat="45.8388907" lon="9.6812319"><ele>591.0</ele><time>2026-03-28T09:00:27.114Z</time></trkpt><trkpt lat="45.8388234" lon="9.6813669"><ele>589.6666666666666</ele><time>2026-03-28T09:00:28.114Z</time></trkpt><trkpt lat="45.8387582" lon="9.6814708"><ele>588.3333333333334</ele><time>2026-03-28T09:00:29.114Z</time></trkpt><trkpt lat="45.8387009" lon="9.6815981"><ele>587.0</ele><time>2026-03-28T09:00:30.114Z</time></trkpt><trkpt lat="45.8386685" lon="9.6817223"><ele>585.6666666666667</ele><time>2026-03-28T09:00:31.113Z</time></trkpt><trkpt lat="45.8386416" lon="9.6818253"><ele>584.3333333333334</ele><time>2026-03-28T09:00:32.114Z</time></trkpt><trkpt lat="45.8386067" lon="9.6819173"><ele>583.0</ele><time>2026-03-28T09:00:33.113Z</time></trkpt><trkpt lat="45.8385584" lon="9.6820115"><ele>580.0</ele><time>2026-03-28T09:00:34.114Z</time></trkpt><trkpt lat="45.8385154" lon="9.6821045"><ele>577.0</ele><time>2026-03-28T09:00:35.114Z</time></trkpt><trkpt lat="45.8384694" lon="9.6821849"><ele>574.0</ele><time>2026-03-28T09:00:36.113Z</time></trkpt><trkpt lat="45.8384225" lon="9.6823088"><ele>571.0</ele><time>2026-03-28T09:00:38.113Z</time></trkpt><trkpt lat="45.8384263" lon="9.6824072"><ele>568.0</ele><time>2026-03-28T09:00:39.113Z</time></trkpt><trkpt lat="45.8384535" lon="9.6825138"><ele>565.0</ele><time>2026-03-28T09:00:41.113Z</time></trkpt><trkpt lat="45.838458" lon="9.6826475"><ele>571.6666666666667</ele><time>2026-03-28T09:00:43.114Z</time></trkpt><trkpt lat="45.8384322" lon="9.682737"><ele>578.3333333333334</ele><time>2026-03-28T09:00:44.114Z</time></trkpt><trkpt lat="45.8383469" lon="9.682799"><ele>585.0</ele><time>2026-03-28T09:00:45.114Z</time></trkpt><trkpt lat="45.8382782" lon="9.6828401"><ele>591.6666666666666</ele><time>2026-03-28T09:00:46.114Z</time></trkpt><trkpt lat="45.8381395" lon="9.6828778"><ele>598.3333333333333</ele><time>2026-03-28T09:00:48.114Z</time></trkpt><trkpt lat="45.8380793" lon="9.682925"><ele>605.0</ele><time>2026-03-28T09:00:49.113Z</time></trkpt><trkpt lat="45.8380099" lon="9.6830625"><ele>605.0</ele><time>2026-03-28T09:00:51.114Z</time></trkpt><trkpt lat="45.837977" lon="9.6831588"><ele>605.0</ele><time>2026-03-28T09:00:52.114Z</time></trkpt><trkpt lat="45.8379561" lon="9.6832494"><ele>605.0</ele><time>2026-03-28T09:00:53.114Z</time></trkpt><trkpt lat="45.8379248" lon="9.6833293"><ele>605.0</ele><time>2026-03-28T09:00:54.114Z</time></trkpt><trkpt lat="45.8378692" lon="9.6834163"><ele>605.0</ele><time>2026-03-28T09:00:56.113Z</time></trkpt><trkpt lat="45.837879" lon="9.6835317"><ele>605.0</ele><time>2026-03-28T09:00:58.114Z</time></trkpt><trkpt lat="45.8378961" lon="9.6836264"><ele>605.0</ele><time>2026-03-28T09:01:00.114Z</time></trkpt><trkpt lat="45.8378809" lon="9.6837536"><ele>603.6</ele><time>2026-03-28T09:01:02.114Z</time></trkpt><trkpt lat="45.8378154" lon="9.6839377"><ele>602.2</ele><time>2026-03-28T09:01:04.114Z</time></trkpt><trkpt lat="45.8377768" lon="9.6840566"><ele>600.8</ele><time>2026-03-28T09:01:05.113Z</time></trkpt><trkpt lat="45.8377374" lon="9.6841707"><ele>599.4</ele><time>2026-03-28T09:01:06.113Z</time></trkpt><trkpt lat="45.8376923" lon="9.6842679"><ele>598.0</ele><time>2026-03-28T09:01:07.114Z</time></trkpt><trkpt lat="45.8376593" lon="9.6843739"><ele>600.0</ele><time>2026-03-28T09:01:08.113Z</time></trkpt><trkpt lat="45.8376362" lon="9.6844913"><ele>602.0</ele><time>2026-03-28T09:01:09.113Z</time></trkpt><trkpt lat="45.8376144" lon="9.6846057"><ele>604.0</ele><time>2026-03-28T09:01:10.114Z</time></trkpt><trkpt lat="45.8375978" lon="9.6847207"><ele>606.0</ele><time>2026-03-28T09:01:11.113Z</time></trkpt><trkpt lat="45.8375727" lon="9.6848305"><ele>608.0</ele><time>2026-03-28T09:01:12.114Z</time></trkpt><trkpt lat="45.8375273" lon="9.6849236"><ele>610.0</ele><time>2026-03-28T09:01:13.114Z</time></trkpt><trkpt lat="45.8374521" lon="9.6849981"><ele>614.5</ele><time>2026-03-28T09:01:14.114Z</time></trkpt><trkpt lat="45.8373805" lon="9.6850722"><ele>619.0</ele><time>2026-03-28T09:01:15.113Z</time></trkpt><trkpt lat="45.8373207" lon="9.6851542"><ele>623.5</ele><time>2026-03-28T09:01:16.114Z</time></trkpt><trkpt lat="45.8372593" lon="9.685234"><ele>628.0</ele><time>2026-03-28T09:01:17.114Z</time></trkpt><trkpt lat="45.8372064" lon="9.6853065"><ele>632.5</ele><time>2026-03-28T09:01:18.113Z</time></trkpt><trkpt lat="45.8372699" lon="9.6854266"><ele>637.0</ele><time>2026-03-28T09:01:23.114Z</time></trkpt><trkpt lat="45.8373576" lon="9.6854668"><ele>634.8000000000001</ele><time>2026-03-28T09:01:24.114Z</time></trkpt><trkpt lat="45.8374579" lon="9.6855355"><ele>632.6</ele><time>2026-03-28T09:01:25.114Z</time></trkpt><trkpt lat="45.8375592" lon="9.685604"><ele>630.4000000000001</ele><time>2026-03-28T09:01:26.113Z</time></trkpt><trkpt lat="45.8376568" lon="9.6856472"><ele>628.2</ele><time>2026-03-28T09:01:27.114Z</time></trkpt><trkpt lat="45.8377465" lon="9.6856635"><ele>626.0</ele><time>2026-03-28T09:01:28.114Z</time></trkpt><trkpt lat="45.8378199" lon="9.6856602"><ele>626.0</ele><time>2026-03-28T09:01:29.114Z</time></trkpt><trkpt lat="45.8378851" lon="9.6856531"><ele>626.0</ele><time>2026-03-28T09:01:30.113Z</time></trkpt><trkpt lat="45.8379552" lon="9.6856656"><ele>626.0</ele><time>2026-03-28T09:01:31.114Z</time></trkpt><trkpt lat="45.8380191" lon="9.6856984"><ele>626.0</ele><time>2026-03-28T09:01:32.114Z</time></trkpt><trkpt lat="45.8380857" lon="9.6858118"><ele>626.0</ele><time>2026-03-28T09:01:34.114Z</time></trkpt><trkpt lat="45.8380849" lon="9.6859075"><ele>626.0</ele><time>2026-03-28T09:01:35.114Z</time></trkpt><trkpt lat="45.838071" lon="9.6860136"><ele>626.0</ele><time>2026-03-28T09:01:36.114Z</time></trkpt><trkpt lat="45.8380369" lon="9.6861365"><ele>626.6</ele><time>2026-03-28T09:01:37.114Z</time></trkpt><trkpt lat="45.8379951" lon="9.6862688"><ele>627.2</ele><time>2026-03-28T09:01:38.114Z</time></trkpt><trkpt lat="45.8379695" lon="9.6863998"><ele>627.8</ele><time>2026-03-28T09:01:39.114Z</time></trkpt><trkpt lat="45.8379535" lon="9.6865394"><ele>628.4</ele><time>2026-03-28T09:01:40.113Z</time></trkpt><trkpt lat="45.8379285" lon="9.6866503"><ele>629.0</ele><time>2026-03-28T09:01:41.113Z</time></trkpt><trkpt lat="45.8378944" lon="9.6867716"><ele>629.0</ele><time>2026-03-28T09:01:42.114Z</time></trkpt><trkpt lat="45.8378591" lon="9.686891"><ele>629.0</ele><time>2026-03-28T09:01:43.113Z</time></trkpt><trkpt lat="45.8378367" lon="9.6869969"><ele>629.0</ele><time>2026-03-28T09:01:44.114Z</time></trkpt><trkpt lat="45.8378052" lon="9.6870953"><ele>629.0</ele><time>2026-03-28T09:01:45.113Z</time></trkpt><trkpt lat="45.8377756" lon="9.687251"><ele>629.0</ele><time>2026-03-28T09:01:47.113Z</time></trkpt><trkpt lat="45.8378305" lon="9.6873545"><ele>629.0</ele><time>2026-03-28T09:01:49.113Z</time></trkpt><trkpt lat="45.8379458" lon="9.6874205"><ele>631.4</ele><time>2026-03-28T09:01:51.113Z</time></trkpt><trkpt lat="45.8380092" lon="9.6874643"><ele>633.8</ele><time>2026-03-28T09:01:52.114Z</time></trkpt><trkpt lat="45.8381065" lon="9.687536"><ele>636.1999999999999</ele><time>2026-03-28T09:01:54.113Z</time></trkpt><trkpt lat="45.8382137" lon="9.6876197"><ele>638.5999999999999</ele><time>2026-03-28T09:01:56.114Z</time></trkpt><trkpt lat="45.8382927" lon="9.6877044"><ele>641.0</ele><time>2026-03-28T09:01:58.114Z</time></trkpt><trkpt lat="45.8383393" lon="9.6877844"><ele>646.0</ele><time>2026-03-28T09:02:00.114Z</time></trkpt><trkpt lat="45.8384072" lon="9.687944"><ele>651.0</ele><time>2026-03-28T09:02:02.114Z</time></trkpt><trkpt lat="45.8384398" lon="9.6880347"><ele>656.0</ele><time>2026-03-28T09:02:03.114Z</time></trkpt><trkpt lat="45.8384788" lon="9.6881943"><ele>661.0</ele><time>2026-03-28T09:02:05.114Z</time></trkpt><trkpt lat="45.8384981" lon="9.6882892"><ele>666.0</ele><time>2026-03-28T09:02:06.114Z</time></trkpt><trkpt lat="45.8385199" lon="9.6883759"><ele>667.75</ele><time>2026-03-28T09:02:07.114Z</time></trkpt><trkpt lat="45.8385817" lon="9.6884822"><ele>669.5</ele><time>2026-03-28T09:02:09.113Z</time></trkpt><trkpt lat="45.8386732" lon="9.6886414"><ele>671.25</ele><time>2026-03-28T09:02:11.113Z</time></trkpt><trkpt lat="45.8387289" lon="9.6887642"><ele>673.0</ele><time>2026-03-28T09:02:12.114Z</time></trkpt><trkpt lat="45.8388044" lon="9.6888871"><ele>674.1666666666667</ele><time>2026-03-28T09:02:13.114Z</time></trkpt><trkpt lat="45.8388756" lon="9.6889961"><ele>675.3333333333334</ele><time>2026-03-28T09:02:14.113Z</time></trkpt><trkpt lat="45.8389383" lon="9.6890774"><ele>676.5</ele><time>2026-03-28T09:02:15.114Z</time></trkpt><trkpt lat="45.8390086" lon="9.6891522"><ele>677.6666666666666</ele><time>2026-03-28T09:02:17.113Z</time></trkpt><trkpt lat="45.8390737" lon="9.6891751"><ele>678.8333333333333</ele><time>2026-03-28T09:02:20.114Z</time></trkpt><trkpt lat="45.8390738" lon="9.6893034"><ele>680.0</ele><time>2026-03-28T09:02:23.113Z</time></trkpt><trkpt lat="45.8390539" lon="9.6894512"><ele>681.1666666666666</ele><time>2026-03-28T09:02:25.114Z</time></trkpt><trkpt lat="45.8390208" lon="9.6896191"><ele>682.3333333333333</ele><time>2026-03-28T09:02:27.114Z</time></trkpt><trkpt lat="45.8390271" lon="9.6897463"><ele>683.5</ele><time>2026-03-28T09:02:29.113Z</time></trkpt><trkpt lat="45.8390741" lon="9.6898179"><ele>684.6666666666666</ele><time>2026-03-28T09:02:30.114Z</time></trkpt><trkpt lat="45.8391141" lon="9.6899215"><ele>685.8333333333334</ele><time>2026-03-28T09:02:32.113Z</time></trkpt><trkpt lat="45.8391388" lon="9.6900225"><ele>687.0</ele><time>2026-03-28T09:02:34.114Z</time></trkpt><trkpt lat="45.8391508" lon="9.6901246"><ele>687.0</ele><time>2026-03-28T09:02:35.113Z</time></trkpt><trkpt lat="45.8391543" lon="9.6902342"><ele>687.0</ele><time>2026-03-28T09:02:36.114Z</time></trkpt><trkpt lat="45.8391439" lon="9.6903375"><ele>687.0</ele><time>2026-03-28T09:02:37.113Z</time></trkpt><trkpt lat="45.8391414" lon="9.6904281"><ele>687.0</ele><time>2026-03-28T09:02:38.114Z</time></trkpt><trkpt lat="45.8391586" lon="9.6905831"><ele>687.0</ele><time>2026-03-28T09:02:40.114Z</time></trkpt><trkpt lat="45.839188" lon="9.6906724"><ele>687.0</ele><time>2026-03-28T09:02:41.113Z</time></trkpt><trkpt lat="45.8392583" lon="9.6908154"><ele>693.8</ele><time>2026-03-28T09:02:43.114Z</time></trkpt><trkpt lat="45.8393116" lon="9.6908678"><ele>700.6</ele><time>2026-03-28T09:02:45.114Z</time></trkpt><trkpt lat="45.8394119" lon="9.6908369"><ele>707.4</ele><time>2026-03-28T09:02:48.114Z</time></trkpt><trkpt lat="45.83949" lon="9.6907769"><ele>714.1999999999999</ele><time>2026-03-28T09:02:50.114Z</time></trkpt><trkpt lat="45.8395476" lon="9.6906323"><ele>721.0</ele><time>2026-03-28T09:02:52.114Z</time></trkpt><trkpt lat="45.8396277" lon="9.6904939"><ele>721.0</ele><time>2026-03-28T09:02:54.113Z</time></trkpt><trkpt lat="45.8396688" lon="9.6904156"><ele>721.0</ele><time>2026-03-28T09:02:55.113Z</time></trkpt><trkpt lat="45.8397251" lon="9.6903028"><ele>721.0</ele><time>2026-03-28T09:02:57.114Z</time></trkpt><trkpt lat="45.839784" lon="9.6902489"><ele>721.0</ele><time>2026-03-28T09:02:59.114Z</time></trkpt><trkpt lat="45.839858" lon="9.6902134"><ele>721.0</ele><time>2026-03-28T09:03:01.114Z</time></trkpt><trkpt lat="45.8399297" lon="9.6901506"><ele>721.0</ele><time>2026-03-28T09:03:03.114Z</time></trkpt><trkpt lat="45.8399818" lon="9.6900566"><ele>718.5999999999999</ele><time>2026-03-28T09:03:05.114Z</time></trkpt><trkpt lat="45.8400411" lon="9.6899732"><ele>716.2</ele><time>2026-03-28T09:03:07.114Z</time></trkpt><trkpt lat="45.840079" lon="9.6898762"><ele>713.8</ele><time>2026-03-28T09:03:09.114Z</time></trkpt><trkpt lat="45.8401402" lon="9.6897649"><ele>711.4000000000001</ele><time>2026-03-28T09:03:12.113Z</time></trkpt><trkpt lat="45.8402026" lon="9.68962"><ele>709.0</ele><time>2026-03-28T09:03:14.114Z</time></trkpt><trkpt lat="45.8402396" lon="9.6895038"><ele>713.8333333333334</ele><time>2026-03-28T09:03:16.114Z</time></trkpt><trkpt lat="45.8402875" lon="9.6894261"><ele>718.6666666666667</ele><time>2026-03-28T09:03:18.114Z</time></trkpt><trkpt lat="45.8403162" lon="9.6892945"><ele>723.5</ele><time>2026-03-28T09:03:20.113Z</time></trkpt><trkpt lat="45.8403194" lon="9.6891903"><ele>728.3333333333334</ele><time>2026-03-28T09:03:21.114Z</time></trkpt><trkpt lat="45.8403186" lon="9.6890774"><ele>733.1666666666666</ele><time>2026-03-28T09:03:22.114Z</time></trkpt><trkpt lat="45.840369" lon="9.68894"><ele>738.0</ele><time>2026-03-28T09:03:24.114Z</time></trkpt><trkpt lat="45.8404872" lon="9.688874"><ele>738.0</ele><time>2026-03-28T09:03:26.114Z</time></trkpt><trkpt lat="45.8405523" lon="9.6888443"><ele>738.0</ele><time>2026-03-28T09:03:27.114Z</time></trkpt><trkpt lat="45.8406572" lon="9.6888535"><ele>738.0</ele><time>2026-03-28T09:03:29.114Z</time></trkpt><trkpt lat="45.8407063" lon="9.688928"><ele>738.0</ele><time>2026-03-28T09:03:30.114Z</time></trkpt><trkpt lat="45.8407657" lon="9.6890146"><ele>738.0</ele><time>2026-03-28T09:03:31.114Z</time></trkpt><trkpt lat="45.8408417" lon="9.6890922"><ele>738.0</ele><time>2026-03-28T09:03:32.113Z</time></trkpt><trkpt lat="45.8409002" lon="9.6891863"><ele>738.0</ele><time>2026-03-28T09:03:33.113Z</time></trkpt><trkpt lat="45.8409624" lon="9.6893181"><ele>738.0</ele><time>2026-03-28T09:03:34.114Z</time></trkpt><trkpt lat="45.8410157" lon="9.6894706"><ele>738.0</ele><time>2026-03-28T09:03:35.113Z</time></trkpt><trkpt lat="45.8410515" lon="9.6896293"><ele>738.0</ele><time>2026-03-28T09:03:36.113Z</time></trkpt><trkpt lat="45.8410942" lon="9.6897979"><ele>740.6666666666666</ele><time>2026-03-28T09:03:37.114Z</time></trkpt><trkpt lat="45.8411285" lon="9.6899331"><ele>743.3333333333334</ele><time>2026-03-28T09:03:38.114Z</time></trkpt><trkpt lat="45.8411573" lon="9.6900408"><ele>746.0</ele><time>2026-03-28T09:03:39.113Z</time></trkpt><trkpt lat="45.8411902" lon="9.6901282"><ele>748.6666666666667</ele><time>2026-03-28T09:03:40.113Z</time></trkpt><trkpt lat="45.8413023" lon="9.6901347"><ele>751.3333333333334</ele><time>2026-03-28T09:03:42.114Z</time></trkpt><trkpt lat="45.8413852" lon="9.6901012"><ele>754.0</ele><time>2026-03-28T09:03:43.114Z</time></trkpt><trkpt lat="45.841483" lon="9.6900432"><ele>754.0</ele><time>2026-03-28T09:03:44.114Z</time></trkpt><trkpt lat="45.841587" lon="9.6900039"><ele>754.0</ele><time>2026-03-28T09:03:45.113Z</time></trkpt><trkpt lat="45.841698" lon="9.6899624"><ele>754.0</ele><time>2026-03-28T09:03:46.113Z</time></trkpt><trkpt lat="45.8418078" lon="9.6899312"><ele>754.0</ele><time>2026-03-28T09:03:47.114Z</time></trkpt><trkpt lat="45.8419087" lon="9.6898947"><ele>754.0</ele><time>2026-03-28T09:03:48.114Z</time></trkpt><trkpt lat="45.8419996" lon="9.6898592"><ele>756.2</ele><time>2026-03-28T09:03:49.114Z</time></trkpt><trkpt lat="45.8420783" lon="9.6898413"><ele>758.4000000000001</ele><time>2026-03-28T09:03:50.114Z</time></trkpt><trkpt lat="45.8421682" lon="9.6899246"><ele>760.6</ele><time>2026-03-28T09:03:52.114Z</time></trkpt><trkpt lat="45.8422976" lon="9.6899681"><ele>762.8</ele><time>2026-03-28T09:03:54.113Z</time></trkpt><trkpt lat="45.8423966" lon="9.689921"><ele>765.0</ele><time>2026-03-28T09:03:55.114Z</time></trkpt><trkpt lat="45.8425036" lon="9.6898579"><ele>765.0</ele><time>2026-03-28T09:03:56.113Z</time></trkpt><trkpt lat="45.842623" lon="9.6897979"><ele>765.0</ele><time>2026-03-28T09:03:57.114Z</time></trkpt><trkpt lat="45.8427458" lon="9.6897445"><ele>765.0</ele><time>2026-03-28T09:03:58.114Z</time></trkpt><trkpt lat="45.8428703" lon="9.6897021"><ele>765.0</ele><time>2026-03-28T09:03:59.113Z</time></trkpt><trkpt lat="45.8429918" lon="9.6896798"><ele>766.6666666666666</ele><time>2026-03-28T09:04:00.113Z</time></trkpt><trkpt lat="45.8431019" lon="9.6897072"><ele>768.3333333333333</ele><time>2026-03-28T09:04:01.114Z</time></trkpt><trkpt lat="45.8432023" lon="9.6897437"><ele>770.0</ele><time>2026-03-28T09:04:02.113Z</time></trkpt><trkpt lat="45.8432913" lon="9.6897629"><ele>771.6666666666666</ele><time>2026-03-28T09:04:03.114Z</time></trkpt><trkpt lat="45.8433511" lon="9.6897169"><ele>773.3333333333333</ele><time>2026-03-28T09:04:04.114Z</time></trkpt><trkpt lat="45.8433919" lon="9.6896322"><ele>775.0</ele><time>2026-03-28T09:04:05.113Z</time></trkpt><trkpt lat="45.8434047" lon="9.6895086"><ele>772.4</ele><time>2026-03-28T09:04:06.114Z</time></trkpt><trkpt lat="45.8433897" lon="9.6893699"><ele>769.8</ele><time>2026-03-28T09:04:07.114Z</time></trkpt><trkpt lat="45.8433658" lon="9.68925"><ele>767.2</ele><time>2026-03-28T09:04:08.113Z</time></trkpt><trkpt lat="45.8433601" lon="9.6891521"><ele>764.6</ele><time>2026-03-28T09:04:09.113Z</time></trkpt><trkpt lat="45.843429" lon="9.689149"><ele>762.0</ele><time>2026-03-28T09:04:12.114Z</time></trkpt><trkpt lat="45.8434479" lon="9.6893435"><ele>768.6</ele><time>2026-03-28T09:04:14.114Z</time></trkpt><trkpt lat="45.8434793" lon="9.6894648"><ele>775.2</ele><time>2026-03-28T09:04:15.113Z</time></trkpt><trkpt lat="45.8435323" lon="9.6895929"><ele>781.8</ele><time>2026-03-28T09:04:16.113Z</time></trkpt><trkpt lat="45.8435986" lon="9.689719"><ele>788.4</ele><time>2026-03-28T09:04:17.114Z</time></trkpt><trkpt lat="45.843658" lon="9.6898724"><ele>795.0</ele><time>2026-03-28T09:04:18.114Z</time></trkpt><trkpt lat="45.8436834" lon="9.6900177"><ele>795.0</ele><time>2026-03-28T09:04:19.114Z</time></trkpt><trkpt lat="45.8437114" lon="9.6901275"><ele>795.0</ele><time>2026-03-28T09:04:20.114Z</time></trkpt><trkpt lat="45.8437755" lon="9.6901691"><ele>795.0</ele><time>2026-03-28T09:04:21.114Z</time></trkpt><trkpt lat="45.8438527" lon="9.6901508"><ele>795.0</ele><time>2026-03-28T09:04:22.114Z</time></trkpt><trkpt lat="45.8439221" lon="9.6900966"><ele>795.0</ele><time>2026-03-28T09:04:23.113Z</time></trkpt><trkpt lat="45.8439781" lon="9.689994"><ele>795.0</ele><time>2026-03-28T09:04:24.114Z</time></trkpt><trkpt lat="45.8440124" lon="9.6898548"><ele>795.0</ele><time>2026-03-28T09:04:25.114Z</time></trkpt><trkpt lat="45.8440166" lon="9.6896954"><ele>795.0</ele><time>2026-03-28T09:04:26.114Z</time></trkpt><trkpt lat="45.8440231" lon="9.6895213"><ele>795.0</ele><time>2026-03-28T09:04:27.114Z</time></trkpt><trkpt lat="45.8440319" lon="9.6893384"><ele>795.0</ele><time>2026-03-28T09:04:28.114Z</time></trkpt><trkpt lat="45.8440491" lon="9.6891492"><ele>793.5</ele><time>2026-03-28T09:04:29.113Z</time></trkpt><trkpt lat="45.8440846" lon="9.6889573"><ele>792.0</ele><time>2026-03-28T09:04:30.114Z</time></trkpt><trkpt lat="45.8441365" lon="9.6887517"><ele>790.5</ele><time>2026-03-28T09:04:31.113Z</time></trkpt><trkpt lat="45.8441932" lon="9.68854"><ele>789.0</ele><time>2026-03-28T09:04:32.114Z</time></trkpt><trkpt lat="45.8442506" lon="9.6883279"><ele>797.5</ele><time>2026-03-28T09:04:33.113Z</time></trkpt><trkpt lat="45.8443003" lon="9.6881236"><ele>806.0</ele><time>2026-03-28T09:04:34.113Z</time></trkpt><trkpt lat="45.8443267" lon="9.6879324"><ele>814.5</ele><time>2026-03-28T09:04:35.114Z</time></trkpt><trkpt lat="45.8443221" lon="9.6877567"><ele>823.0</ele><time>2026-03-28T09:04:36.113Z</time></trkpt><trkpt lat="45.8443019" lon="9.687588"><ele>823.0</ele><time>2026-03-28T09:04:37.114Z</time></trkpt><trkpt lat="45.8442773" lon="9.6874352"><ele>823.0</ele><time>2026-03-28T09:04:38.114Z</time></trkpt><trkpt lat="45.8442677" lon="9.6872838"><ele>823.0</ele><time>2026-03-28T09:04:39.114Z</time></trkpt><trkpt lat="45.8442783" lon="9.6871287"><ele>823.0</ele><time>2026-03-28T09:04:40.114Z</time></trkpt><trkpt lat="45.8443098" lon="9.686988"><ele>823.0</ele><time>2026-03-28T09:04:41.114Z</time></trkpt><trkpt lat="45.8443636" lon="9.6868806"><ele>820.5999999999999</ele><time>2026-03-28T09:04:42.114Z</time></trkpt><trkpt lat="45.8444375" lon="9.6868093"><ele>818.1999999999999</ele><time>2026-03-28T09:04:43.114Z</time></trkpt><trkpt lat="45.8445197" lon="9.6867274"><ele>815.8</ele><time>2026-03-28T09:04:44.114Z</time></trkpt><trkpt lat="45.8445885" lon="9.6866111"><ele>813.4</ele><time>2026-03-28T09:04:45.114Z</time></trkpt><trkpt lat="45.8446578" lon="9.6864737"><ele>811.0</ele><time>2026-03-28T09:04:46.114Z</time></trkpt><trkpt lat="45.8447437" lon="9.6863539"><ele>811.0</ele><time>2026-03-28T09:04:47.114Z</time></trkpt><trkpt lat="45.8448573" lon="9.6862609"><ele>811.0</ele><time>2026-03-28T09:04:48.114Z</time></trkpt><trkpt lat="45.8449838" lon="9.6861525"><ele>811.0</ele><time>2026-03-28T09:04:49.114Z</time></trkpt><trkpt lat="45.8451142" lon="9.6860396"><ele>811.0</ele><time>2026-03-28T09:04:50.114Z</time></trkpt><trkpt lat="45.8452468" lon="9.6859299"><ele>810.25</ele><time>2026-03-28T09:04:51.113Z</time></trkpt><trkpt lat="45.8453842" lon="9.6858366"><ele>809.5</ele><time>2026-03-28T09:04:52.113Z</time></trkpt><trkpt lat="45.8455197" lon="9.6857671"><ele>808.75</ele><time>2026-03-28T09:04:53.114Z</time></trkpt><trkpt lat="45.8456404" lon="9.6857127"><ele>808.0</ele><time>2026-03-28T09:04:54.114Z</time></trkpt><trkpt lat="45.8457446" lon="9.685692"><ele>808.0</ele><time>2026-03-28T09:04:55.113Z</time></trkpt><trkpt lat="45.8458331" lon="9.6857072"><ele>808.0</ele><time>2026-03-28T09:04:56.114Z</time></trkpt><trkpt lat="45.8459284" lon="9.6857541"><ele>808.0</ele><time>2026-03-28T09:04:57.114Z</time></trkpt><trkpt lat="45.8460268" lon="9.6857996"><ele>808.0</ele><time>2026-03-28T09:04:58.113Z</time></trkpt><trkpt lat="45.8461407" lon="9.6858237"><ele>808.0</ele><time>2026-03-28T09:04:59.114Z</time></trkpt><trkpt lat="45.8462491" lon="9.6857936"><ele>807.4</ele><time>2026-03-28T09:05:00.114Z</time></trkpt><trkpt lat="45.8463476" lon="9.6857557"><ele>806.8</ele><time>2026-03-28T09:05:01.113Z</time></trkpt><trkpt lat="45.8464319" lon="9.6857442"><ele>806.2</ele><time>2026-03-28T09:05:02.114Z</time></trkpt><trkpt lat="45.8464964" lon="9.6857617"><ele>805.6</ele><time>2026-03-28T09:05:03.114Z</time></trkpt><trkpt lat="45.846583" lon="9.685908"><ele>805.0</ele><time>2026-03-28T09:05:05.114Z</time></trkpt><trkpt lat="45.8466201" lon="9.6860158"><ele>808.9999999999999</ele><time>2026-03-28T09:05:06.114Z</time></trkpt><trkpt lat="45.8466769" lon="9.6861171"><ele>813.0</ele><time>2026-03-28T09:05:07.114Z</time></trkpt><trkpt lat="45.8467482" lon="9.6861968"><ele>817.0</ele><time>2026-03-28T09:05:08.113Z</time></trkpt><trkpt lat="45.846794" lon="9.6863085"><ele>821.0</ele><time>2026-03-28T09:05:10.114Z</time></trkpt><trkpt lat="45.8467207" lon="9.6862729"><ele>824.9999999999999</ele><time>2026-03-28T09:05:12.113Z</time></trkpt><trkpt lat="45.8466604" lon="9.6862141"><ele>829.0</ele><time>2026-03-28T09:05:13.114Z</time></trkpt><trkpt lat="45.8465586" lon="9.686198"><ele>829.0</ele><time>2026-03-28T09:05:14.113Z</time></trkpt><trkpt lat="45.8464496" lon="9.6862386"><ele>829.0</ele><time>2026-03-28T09:05:15.113Z</time></trkpt><trkpt lat="45.846329" lon="9.6863022"><ele>829.0</ele><time>2026-03-28T09:05:16.114Z</time></trkpt><trkpt lat="45.8462097" lon="9.686389"><ele>829.0</ele><time>2026-03-28T09:05:17.113Z</time></trkpt><trkpt lat="45.84609" lon="9.6864399"><ele>828.9999999999999</ele><time>2026-03-28T09:05:18.114Z</time></trkpt><trkpt lat="45.8459946" lon="9.6864662"><ele>829.0</ele><time>2026-03-28T09:05:19.113Z</time></trkpt><trkpt lat="45.8459173" lon="9.6864376"><ele>829.0</ele><time>2026-03-28T09:05:20.114Z</time></trkpt><trkpt lat="45.84585" lon="9.6863604"><ele>829.0</ele><time>2026-03-28T09:05:21.114Z</time></trkpt><trkpt lat="45.8457899" lon="9.6863139"><ele>828.9999999999999</ele><time>2026-03-28T09:05:22.113Z</time></trkpt><trkpt lat="45.8456973" lon="9.6863192"><ele>829.0</ele><time>2026-03-28T09:05:23.114Z</time></trkpt><trkpt lat="45.8456019" lon="9.6863793"><ele>828.4000000000001</ele><time>2026-03-28T09:05:24.114Z</time></trkpt><trkpt lat="45.8455132" lon="9.6864669"><ele>827.8</ele><time>2026-03-28T09:05:25.113Z</time></trkpt><trkpt lat="45.845423" lon="9.6865534"><ele>827.2</ele><time>2026-03-28T09:05:26.114Z</time></trkpt><trkpt lat="45.8453397" lon="9.6866314"><ele>826.5999999999999</ele><time>2026-03-28T09:05:27.113Z</time></trkpt><trkpt lat="45.8452742" lon="9.6867039"><ele>826.0</ele><time>2026-03-28T09:05:28.114Z</time></trkpt><trkpt lat="45.8452294" lon="9.6867864"><ele>826.0</ele><time>2026-03-28T09:05:29.114Z</time></trkpt><trkpt lat="45.8451949" lon="9.686887"><ele>826.0</ele><time>2026-03-28T09:05:30.113Z</time></trkpt><trkpt lat="45.8451632" lon="9.6870122"><ele>826.0</ele><time>2026-03-28T09:05:31.114Z</time></trkpt><trkpt lat="45.8451393" lon="9.687164"><ele>826.0</ele><time>2026-03-28T09:05:32.114Z</time></trkpt><trkpt lat="45.8451216" lon="9.6873393"><ele>826.0</ele><time>2026-03-28T09:05:33.113Z</time></trkpt><trkpt lat="45.845117" lon="9.6875238"><ele>825.25</ele><time>2026-03-28T09:05:34.114Z</time></trkpt><trkpt lat="45.8451202" lon="9.6877132"><ele>824.5</ele><time>2026-03-28T09:05:35.114Z</time></trkpt><trkpt lat="45.8451293" lon="9.6879098"><ele>823.75</ele><time>2026-03-28T09:05:36.114Z</time></trkpt><trkpt lat="45.8451471" lon="9.6881217"><ele>823.0</ele><time>2026-03-28T09:05:37.114Z</time></trkpt><trkpt lat="45.8451694" lon="9.6883384"><ele>834.3333333333333</ele><time>2026-03-28T09:05:38.114Z</time></trkpt><trkpt lat="45.8452001" lon="9.6885633"><ele>845.6666666666667</ele><time>2026-03-28T09:05:39.114Z</time></trkpt><trkpt lat="45.8452235" lon="9.6887911"><ele>857.0</ele><time>2026-03-28T09:05:40.113Z</time></trkpt><trkpt lat="45.8452399" lon="9.6890004"><ele>859.0</ele><time>2026-03-28T09:05:41.113Z</time></trkpt><trkpt lat="45.8452409" lon="9.6891726"><ele>861.0</ele><time>2026-03-28T09:05:42.114Z</time></trkpt><trkpt lat="45.8452247" lon="9.6893242"><ele>863.0</ele><time>2026-03-28T09:05:43.113Z</time></trkpt><trkpt lat="45.8452123" lon="9.6894449"><ele>865.0</ele><time>2026-03-28T09:05:44.114Z</time></trkpt><trkpt lat="45.8452775" lon="9.6895572"><ele>867.0</ele><time>2026-03-28T09:05:46.114Z</time></trkpt><trkpt lat="45.8453466" lon="9.6895128"><ele>867.0</ele><time>2026-03-28T09:05:47.114Z</time></trkpt><trkpt lat="45.8454068" lon="9.6894155"><ele>867.0</ele><time>2026-03-28T09:05:48.113Z</time></trkpt><trkpt lat="45.8454568" lon="9.6892939"><ele>867.0</ele><time>2026-03-28T09:05:49.113Z</time></trkpt><trkpt lat="45.8455033" lon="9.6891526"><ele>867.0</ele><time>2026-03-28T09:05:50.114Z</time></trkpt><trkpt lat="45.8455363" lon="9.6889948"><ele>867.0</ele><time>2026-03-28T09:05:51.114Z</time></trkpt><trkpt lat="45.845558" lon="9.6888205"><ele>867.0</ele><time>2026-03-28T09:05:52.114Z</time></trkpt><trkpt lat="45.8455698" lon="9.68867"><ele>867.0</ele><time>2026-03-28T09:05:53.114Z</time></trkpt><trkpt lat="45.8456083" lon="9.6885669"><ele>867.0</ele><time>2026-03-28T09:05:54.114Z</time></trkpt><trkpt lat="45.8456994" lon="9.688483"><ele>867.0</ele><time>2026-03-28T09:05:55.114Z</time></trkpt><trkpt lat="45.8458125" lon="9.6884237"><ele>867.0</ele><time>2026-03-28T09:05:56.114Z</time></trkpt><trkpt lat="45.8459458" lon="9.6884089"><ele>867.0</ele><time>2026-03-28T09:05:57.114Z</time></trkpt><trkpt lat="45.8460757" lon="9.6884014"><ele>867.0</ele><time>2026-03-28T09:05:58.114Z</time></trkpt><trkpt lat="45.8461997" lon="9.6883897"><ele>867.0</ele><time>2026-03-28T09:05:59.114Z</time></trkpt><trkpt lat="45.8463161" lon="9.6883413"><ele>867.0</ele><time>2026-03-28T09:06:00.113Z</time></trkpt><trkpt lat="45.8464001" lon="9.6882507"><ele>867.0</ele><time>2026-03-28T09:06:01.113Z</time></trkpt><trkpt lat="45.8464833" lon="9.688198"><ele>867.0</ele><time>2026-03-28T09:06:02.114Z</time></trkpt><trkpt lat="45.8465485" lon="9.6882076"><ele>867.0</ele><time>2026-03-28T09:06:03.114Z</time></trkpt><trkpt lat="45.846587" lon="9.6883123"><ele>867.0</ele><time>2026-03-28T09:06:04.114Z</time></trkpt><trkpt lat="45.8466234" lon="9.6884461"><ele>867.0</ele><time>2026-03-28T09:06:05.113Z</time></trkpt><trkpt lat="45.8466651" lon="9.6885938"><ele>868.8</ele><time>2026-03-28T09:06:06.114Z</time></trkpt><trkpt lat="45.846714" lon="9.6887321"><ele>870.6</ele><time>2026-03-28T09:06:07.114Z</time></trkpt><trkpt lat="45.8467662" lon="9.6888553"><ele>872.3999999999999</ele><time>2026-03-28T09:06:08.114Z</time></trkpt><trkpt lat="45.846827" lon="9.6889607"><ele>874.1999999999999</ele><time>2026-03-28T09:06:09.115Z</time></trkpt><trkpt lat="45.8468954" lon="9.6890709"><ele>876.0</ele><time>2026-03-28T09:06:10.115Z</time></trkpt><trkpt lat="45.846937" lon="9.6891919"><ele>874.1666666666666</ele><time>2026-03-28T09:06:11.115Z</time></trkpt><trkpt lat="45.8469582" lon="9.6893262"><ele>872.3333333333333</ele><time>2026-03-28T09:06:12.114Z</time></trkpt><trkpt lat="45.8469608" lon="9.6894735"><ele>870.5</ele><time>2026-03-28T09:06:13.115Z</time></trkpt><trkpt lat="45.8469498" lon="9.6895959"><ele>868.6666666666666</ele><time>2026-03-28T09:06:14.114Z</time></trkpt><trkpt lat="45.8469383" lon="9.6896853"><ele>866.8333333333333</ele><time>2026-03-28T09:06:15.114Z</time></trkpt><trkpt lat="45.8469448" lon="9.6897798"><ele>865.0</ele><time>2026-03-28T09:06:17.114Z</time></trkpt><trkpt lat="45.84701" lon="9.6898557"><ele>865.0</ele><time>2026-03-28T09:06:19.115Z</time></trkpt><trkpt lat="45.8470911" lon="9.6899429"><ele>865.0</ele><time>2026-03-28T09:06:21.115Z</time></trkpt><trkpt lat="45.8471327" lon="9.6900116"><ele>865.0</ele><time>2026-03-28T09:06:22.114Z</time></trkpt><trkpt lat="45.8472041" lon="9.6901375"><ele>865.0</ele><time>2026-03-28T09:06:24.114Z</time></trkpt><trkpt lat="45.8472511" lon="9.6902354"><ele>865.0</ele><time>2026-03-28T09:06:26.115Z</time></trkpt><trkpt lat="45.8472819" lon="9.6903572"><ele>867.4999999999999</ele><time>2026-03-28T09:06:29.115Z</time></trkpt><trkpt lat="45.8472674" lon="9.6904767"><ele>870.0</ele><time>2026-03-28T09:06:31.115Z</time></trkpt><trkpt lat="45.8472397" lon="9.6905896"><ele>872.5</ele><time>2026-03-28T09:06:33.114Z</time></trkpt><trkpt lat="45.8472439" lon="9.6907239"><ele>875.0</ele><time>2026-03-28T09:06:35.114Z</time></trkpt><trkpt lat="45.8472769" lon="9.6908452"><ele>877.4999999999999</ele><time>2026-03-28T09:06:37.115Z</time></trkpt><trkpt lat="45.8473284" lon="9.6909547"><ele>880.0</ele><time>2026-03-28T09:06:39.115Z</time></trkpt><trkpt lat="45.8473976" lon="9.6910412"><ele>878.4999999999999</ele><time>2026-03-28T09:06:42.115Z</time></trkpt><trkpt lat="45.8474552" lon="9.6910922"><ele>877.0</ele><time>2026-03-28T09:06:44.114Z</time></trkpt><trkpt lat="45.8475533" lon="9.6911503"><ele>875.5</ele><time>2026-03-28T09:06:46.115Z</time></trkpt><trkpt lat="45.8476726" lon="9.6912011"><ele>874.0</ele><time>2026-03-28T09:06:48.115Z</time></trkpt><trkpt lat="45.8477293" lon="9.6912436"><ele>872.4999999999999</ele><time>2026-03-28T09:06:49.115Z</time></trkpt><trkpt lat="45.8478003" lon="9.6912876"><ele>871.0</ele><time>2026-03-28T09:06:50.115Z</time></trkpt><trkpt lat="45.8478993" lon="9.6913866"><ele>870.9999999999999</ele><time>2026-03-28T09:06:52.115Z</time></trkpt><trkpt lat="45.8479427" lon="9.6914522"><ele>871.0</ele><time>2026-03-28T09:06:53.115Z</time></trkpt><trkpt lat="45.8479917" lon="9.6915933"><ele>871.0</ele><time>2026-03-28T09:06:55.115Z</time></trkpt><trkpt lat="45.848034" lon="9.6917263"><ele>871.0</ele><time>2026-03-28T09:06:57.114Z</time></trkpt><trkpt lat="45.8480674" lon="9.69182"><ele>870.9999999999999</ele><time>2026-03-28T09:06:59.114Z</time></trkpt><trkpt lat="45.8481095" lon="9.6919223"><ele>871.0</ele><time>2026-03-28T09:07:01.115Z</time></trkpt><trkpt lat="45.848146" lon="9.6920079"><ele>874.9999999999999</ele><time>2026-03-28T09:07:04.114Z</time></trkpt><trkpt lat="45.8481701" lon="9.6921288"><ele>879.0</ele><time>2026-03-28T09:07:24.114Z</time></trkpt><trkpt lat="45.8481892" lon="9.6922343"><ele>883.0</ele><time>2026-03-28T09:07:26.115Z</time></trkpt><trkpt lat="45.8482183" lon="9.6923148"><ele>887.0</ele><time>2026-03-28T09:07:29.114Z</time></trkpt><trkpt lat="45.8481709" lon="9.6922284"><ele>890.9999999999999</ele><time>2026-03-28T09:07:39.114Z</time></trkpt><trkpt lat="45.8481406" lon="9.692098"><ele>895.0</ele><time>2026-03-28T09:07:55.114Z</time></trkpt><trkpt lat="45.8481213" lon="9.6919839"><ele>891.5714285714286</ele><time>2026-03-28T09:07:56.115Z</time></trkpt><trkpt lat="45.8480968" lon="9.6918999"><ele>888.1428571428572</ele><time>2026-03-28T09:07:57.114Z</time></trkpt><trkpt lat="45.8480713" lon="9.691815"><ele>884.7142857142858</ele><time>2026-03-28T09:07:58.114Z</time></trkpt><trkpt lat="45.8480341" lon="9.691721"><ele>881.2857142857142</ele><time>2026-03-28T09:07:59.115Z</time></trkpt><trkpt lat="45.8479974" lon="9.6916465"><ele>877.8571428571429</ele><time>2026-03-28T09:08:00.115Z</time></trkpt><trkpt lat="45.8479674" lon="9.6915569"><ele>874.4285714285714</ele><time>2026-03-28T09:08:01.115Z</time></trkpt><trkpt lat="45.847935" lon="9.6914678"><ele>871.0</ele><time>2026-03-28T09:08:02.114Z</time></trkpt><trkpt lat="45.8478857" lon="9.6913904"><ele>870.9999999999999</ele><time>2026-03-28T09:08:03.115Z</time></trkpt><trkpt lat="45.8478151" lon="9.6913208"><ele>871.0</ele><time>2026-03-28T09:08:04.115Z</time></trkpt><trkpt lat="45.8477272" lon="9.6912732"><ele>871.0</ele><time>2026-03-28T09:08:05.115Z</time></trkpt><trkpt lat="45.8476423" lon="9.6912254"><ele>871.0</ele><time>2026-03-28T09:08:06.115Z</time></trkpt><trkpt lat="45.8475709" lon="9.6911756"><ele>870.9999999999999</ele><time>2026-03-28T09:08:07.115Z</time></trkpt><trkpt lat="45.8475165" lon="9.6911196"><ele>871.0</ele><time>2026-03-28T09:08:08.115Z</time></trkpt><trkpt lat="45.8474697" lon="9.6910525"><ele>872.8</ele><time>2026-03-28T09:08:09.114Z</time></trkpt><trkpt lat="45.8474305" lon="9.6909744"><ele>874.5999999999999</ele><time>2026-03-28T09:08:10.114Z</time></trkpt><trkpt lat="45.8473765" lon="9.6909005"><ele>876.4</ele><time>2026-03-28T09:08:11.114Z</time></trkpt><trkpt lat="45.8473096" lon="9.6907519"><ele>878.2</ele><time>2026-03-28T09:08:13.115Z</time></trkpt><trkpt lat="45.847299" lon="9.69057"><ele>880.0</ele><time>2026-03-28T09:08:15.115Z</time></trkpt><trkpt lat="45.8473105" lon="9.6904676"><ele>879.9999999999999</ele><time>2026-03-28T09:08:16.115Z</time></trkpt><trkpt lat="45.8472913" lon="9.6903694"><ele>880.0</ele><time>2026-03-28T09:08:17.115Z</time></trkpt><trkpt lat="45.847265" lon="9.6902814"><ele>880.0</ele><time>2026-03-28T09:08:18.114Z</time></trkpt><trkpt lat="45.847214" lon="9.6901676"><ele>880.0</ele><time>2026-03-28T09:08:19.115Z</time></trkpt><trkpt lat="45.8471554" lon="9.690048"><ele>879.9999999999999</ele><time>2026-03-28T09:08:20.115Z</time></trkpt><trkpt lat="45.8471029" lon="9.6899562"><ele>880.0</ele><time>2026-03-28T09:08:21.114Z</time></trkpt><trkpt lat="45.8470433" lon="9.6898549"><ele>879.9999999999999</ele><time>2026-03-28T09:08:23.114Z</time></trkpt><trkpt lat="45.8469862" lon="9.6899209"><ele>880.0</ele><time>2026-03-28T09:08:26.115Z</time></trkpt><trkpt lat="45.8470026" lon="9.6900158"><ele>880.0</ele><time>2026-03-28T09:08:27.114Z</time></trkpt><trkpt lat="45.8470464" lon="9.6901165"><ele>880.0</ele><time>2026-03-28T09:08:28.114Z</time></trkpt><trkpt lat="45.8470612" lon="9.6902131"><ele>879.9999999999999</ele><time>2026-03-28T09:08:29.115Z</time></trkpt><trkpt lat="45.8469891" lon="9.6902914"><ele>880.0</ele><time>2026-03-28T09:08:31.114Z</time></trkpt><trkpt lat="45.8469007" lon="9.6902509"><ele>882.0</ele><time>2026-03-28T09:08:32.115Z</time></trkpt><trkpt lat="45.8468018" lon="9.6901969"><ele>884.0</ele><time>2026-03-28T09:08:33.115Z</time></trkpt><trkpt lat="45.8466934" lon="9.6901358"><ele>886.0</ele><time>2026-03-28T09:08:34.115Z</time></trkpt><trkpt lat="45.8465805" lon="9.690072"><ele>888.0</ele><time>2026-03-28T09:08:35.115Z</time></trkpt><trkpt lat="45.8464643" lon="9.6900432"><ele>888.0</ele><time>2026-03-28T09:08:36.115Z</time></trkpt><trkpt lat="45.8463622" lon="9.690083"><ele>888.0</ele><time>2026-03-28T09:08:37.115Z</time></trkpt><trkpt lat="45.8462862" lon="9.6901707"><ele>888.0</ele><time>2026-03-28T09:08:38.115Z</time></trkpt><trkpt lat="45.8462307" lon="9.6902912"><ele>888.0</ele><time>2026-03-28T09:08:39.115Z</time></trkpt><trkpt lat="45.8462006" lon="9.6904615"><ele>888.0</ele><time>2026-03-28T09:08:40.115Z</time></trkpt><trkpt lat="45.8461683" lon="9.6906493"><ele>891.25</ele><time>2026-03-28T09:08:41.115Z</time></trkpt><trkpt lat="45.8461614" lon="9.6908455"><ele>894.5</ele><time>2026-03-28T09:08:42.114Z</time></trkpt><trkpt lat="45.8461753" lon="9.6910471"><ele>897.75</ele><time>2026-03-28T09:08:43.114Z</time></trkpt><trkpt lat="45.8461971" lon="9.6912305"><ele>901.0</ele><time>2026-03-28T09:08:44.115Z</time></trkpt><trkpt lat="45.846224" lon="9.6913818"><ele>904.0</ele><time>2026-03-28T09:08:45.115Z</time></trkpt><trkpt lat="45.8462538" lon="9.6914839"><ele>906.9999999999999</ele><time>2026-03-28T09:08:46.115Z</time></trkpt><trkpt lat="45.8463591" lon="9.6914425"><ele>909.9999999999999</ele><time>2026-03-28T09:08:48.115Z</time></trkpt><trkpt lat="45.8464118" lon="9.6913366"><ele>913.0</ele><time>2026-03-28T09:08:49.114Z</time></trkpt><trkpt lat="45.846456" lon="9.6912038"><ele>916.0</ele><time>2026-03-28T09:08:50.115Z</time></trkpt><trkpt lat="45.8465155" lon="9.6911157"><ele>916.0</ele><time>2026-03-28T09:08:51.114Z</time></trkpt><trkpt lat="45.8465843" lon="9.6910949"><ele>915.9999999999999</ele><time>2026-03-28T09:08:52.115Z</time></trkpt><trkpt lat="45.8466461" lon="9.6911678"><ele>915.9999999999999</ele><time>2026-03-28T09:08:53.114Z</time></trkpt><trkpt lat="45.8467018" lon="9.6913069"><ele>916.0</ele><time>2026-03-28T09:08:54.115Z</time></trkpt><trkpt lat="45.8467217" lon="9.6914618"><ele>916.0</ele><time>2026-03-28T09:08:55.115Z</time></trkpt><trkpt lat="45.8467173" lon="9.6916289"><ele>915.9999999999999</ele><time>2026-03-28T09:08:56.114Z</time></trkpt><trkpt lat="45.8466851" lon="9.6917884"><ele>916.0</ele><time>2026-03-28T09:08:57.115Z</time></trkpt><trkpt lat="45.8466514" lon="9.6919209"><ele>916.0</ele><time>2026-03-28T09:08:58.115Z</time></trkpt><trkpt lat="45.8466194" lon="9.6920325"><ele>916.0</ele><time>2026-03-28T09:08:59.114Z</time></trkpt><trkpt lat="45.846595" lon="9.6921329"><ele>915.9999999999999</ele><time>2026-03-28T09:09:00.114Z</time></trkpt><trkpt lat="45.8465592" lon="9.6922295"><ele>916.0</ele><time>2026-03-28T09:09:01.114Z</time></trkpt><trkpt lat="45.8465135" lon="9.6923245"><ele>918.4999999999999</ele><time>2026-03-28T09:09:02.115Z</time></trkpt><trkpt lat="45.846459" lon="9.692409"><ele>921.0</ele><time>2026-03-28T09:09:03.115Z</time></trkpt><trkpt lat="45.8464013" lon="9.6924748"><ele>923.5</ele><time>2026-03-28T09:09:04.115Z</time></trkpt><trkpt lat="45.8463353" lon="9.6925962"><ele>926.0</ele><time>2026-03-28T09:09:06.115Z</time></trkpt><trkpt lat="45.8464244" lon="9.6926767"><ele>928.4999999999999</ele><time>2026-03-28T09:09:08.114Z</time></trkpt><trkpt lat="45.8464953" lon="9.6926622"><ele>931.0</ele><time>2026-03-28T09:09:09.115Z</time></trkpt><trkpt lat="45.8465727" lon="9.6926291"><ele>930.9999999999999</ele><time>2026-03-28T09:09:10.114Z</time></trkpt><trkpt lat="45.8466406" lon="9.6926155"><ele>931.0</ele><time>2026-03-28T09:09:11.115Z</time></trkpt><trkpt lat="45.846718" lon="9.692596"><ele>931.0</ele><time>2026-03-28T09:09:12.115Z</time></trkpt><trkpt lat="45.8468061" lon="9.6925713"><ele>931.0</ele><time>2026-03-28T09:09:13.115Z</time></trkpt><trkpt lat="45.846895" lon="9.6925634"><ele>930.9999999999999</ele><time>2026-03-28T09:09:14.115Z</time></trkpt><trkpt lat="45.8469847" lon="9.6925811"><ele>931.0</ele><time>2026-03-28T09:09:15.115Z</time></trkpt><trkpt lat="45.8470662" lon="9.6925933"><ele>930.6666666666666</ele><time>2026-03-28T09:09:16.114Z</time></trkpt><trkpt lat="45.8471396" lon="9.6925857"><ele>930.3333333333333</ele><time>2026-03-28T09:09:17.115Z</time></trkpt><trkpt lat="45.8472071" lon="9.6925775"><ele>930.0</ele><time>2026-03-28T09:09:18.114Z</time></trkpt><trkpt lat="45.847275" lon="9.6926021"><ele>929.6666666666667</ele><time>2026-03-28T09:09:19.115Z</time></trkpt><trkpt lat="45.8473418" lon="9.692654"><ele>929.3333333333334</ele><time>2026-03-28T09:09:20.115Z</time></trkpt><trkpt lat="45.8474018" lon="9.6927327"><ele>929.0</ele><time>2026-03-28T09:09:21.115Z</time></trkpt><trkpt lat="45.8474599" lon="9.692854"><ele>925.25</ele><time>2026-03-28T09:09:22.114Z</time></trkpt><trkpt lat="45.8475227" lon="9.6929803"><ele>921.5</ele><time>2026-03-28T09:09:23.115Z</time></trkpt><trkpt lat="45.8475876" lon="9.6931309"><ele>917.75</ele><time>2026-03-28T09:09:24.115Z</time></trkpt><trkpt lat="45.8476514" lon="9.6932801"><ele>914.0</ele><time>2026-03-28T09:09:25.115Z</time></trkpt><trkpt lat="45.8477161" lon="9.6934139"><ele>914.0</ele><time>2026-03-28T09:09:26.115Z</time></trkpt><trkpt lat="45.8477689" lon="9.6935534"><ele>914.0000000000001</ele><time>2026-03-28T09:09:27.115Z</time></trkpt><trkpt lat="45.8478059" lon="9.6936995"><ele>914.0000000000001</ele><time>2026-03-28T09:09:28.114Z</time></trkpt><trkpt lat="45.8478338" lon="9.6938406"><ele>914.0</ele><time>2026-03-28T09:09:29.115Z</time></trkpt><trkpt lat="45.8478387" lon="9.6939963"><ele>914.0</ele><time>2026-03-28T09:09:30.115Z</time></trkpt><trkpt lat="45.8478262" lon="9.6941744"><ele>915.25</ele><time>2026-03-28T09:09:31.114Z</time></trkpt><trkpt lat="45.8477917" lon="9.6943717"><ele>916.5</ele><time>2026-03-28T09:09:32.115Z</time></trkpt><trkpt lat="45.8477775" lon="9.6945702"><ele>917.75</ele><time>2026-03-28T09:09:33.114Z</time></trkpt><trkpt lat="45.847783" lon="9.6947626"><ele>919.0</ele><time>2026-03-28T09:09:34.115Z</time></trkpt><trkpt lat="45.8477781" lon="9.6949507"><ele>919.0</ele><time>2026-03-28T09:09:35.114Z</time></trkpt><trkpt lat="45.8477634" lon="9.6951154"><ele>919.0000000000001</ele><time>2026-03-28T09:09:36.114Z</time></trkpt><trkpt lat="45.8477644" lon="9.6952689"><ele>919.0000000000001</ele><time>2026-03-28T09:09:37.115Z</time></trkpt><trkpt lat="45.8477933" lon="9.6954102"><ele>919.0</ele><time>2026-03-28T09:09:38.114Z</time></trkpt><trkpt lat="45.8478244" lon="9.6955368"><ele>919.0</ele><time>2026-03-28T09:09:39.114Z</time></trkpt><trkpt lat="45.8478403" lon="9.6956358"><ele>919.2</ele><time>2026-03-28T09:09:40.114Z</time></trkpt><trkpt lat="45.8478382" lon="9.6957408"><ele>919.4000000000001</ele><time>2026-03-28T09:09:41.114Z</time></trkpt><trkpt lat="45.847817" lon="9.6958719"><ele>919.6</ele><time>2026-03-28T09:09:42.115Z</time></trkpt><trkpt lat="45.8478084" lon="9.696015"><ele>919.8</ele><time>2026-03-28T09:09:43.115Z</time></trkpt><trkpt lat="45.8478181" lon="9.6961496"><ele>920.0</ele><time>2026-03-28T09:09:44.114Z</time></trkpt><trkpt lat="45.8478259" lon="9.6962966"><ele>922.3333333333334</ele><time>2026-03-28T09:09:45.114Z</time></trkpt><trkpt lat="45.8478281" lon="9.696423"><ele>924.6666666666667</ele><time>2026-03-28T09:09:46.115Z</time></trkpt><trkpt lat="45.8478559" lon="9.6965193"><ele>927.0</ele><time>2026-03-28T09:09:47.114Z</time></trkpt><trkpt lat="45.8479414" lon="9.6966107"><ele>929.3333333333333</ele><time>2026-03-28T09:09:49.115Z</time></trkpt><trkpt lat="45.8480059" lon="9.6966207"><ele>931.6666666666666</ele><time>2026-03-28T09:09:50.115Z</time></trkpt><trkpt lat="45.8481001" lon="9.6966883"><ele>934.0</ele><time>2026-03-28T09:09:52.114Z</time></trkpt><trkpt lat="45.8481027" lon="9.6968989"><ele>937.0</ele><time>2026-03-28T09:09:54.115Z</time></trkpt><trkpt lat="45.8481209" lon="9.6970256"><ele>940.0000000000001</ele><time>2026-03-28T09:09:55.114Z</time></trkpt><trkpt lat="45.8481799" lon="9.6971524"><ele>943.0000000000001</ele><time>2026-03-28T09:09:56.115Z</time></trkpt><trkpt lat="45.8482675" lon="9.6972645"><ele>946.0</ele><time>2026-03-28T09:09:57.115Z</time></trkpt><trkpt lat="45.8483245" lon="9.6973782"><ele>949.0</ele><time>2026-03-28T09:09:58.114Z</time></trkpt><trkpt lat="45.8483635" lon="9.6974977"><ele>949.0</ele><time>2026-03-28T09:09:59.114Z</time></trkpt><trkpt lat="45.8483545" lon="9.6976057"><ele>949.0000000000001</ele><time>2026-03-28T09:10:00.114Z</time></trkpt><trkpt lat="45.8483165" lon="9.6977284"><ele>949.0000000000001</ele><time>2026-03-28T09:10:01.115Z</time></trkpt><trkpt lat="45.848268" lon="9.697885"><ele>949.0</ele><time>2026-03-28T09:10:02.114Z</time></trkpt><trkpt lat="45.8482135" lon="9.6980432"><ele>949.0</ele><time>2026-03-28T09:10:03.114Z</time></trkpt><trkpt lat="45.8481431" lon="9.6982103"><ele>949.25</ele><time>2026-03-28T09:10:04.115Z</time></trkpt><trkpt lat="45.8480508" lon="9.6983909"><ele>949.5</ele><time>2026-03-28T09:10:05.114Z</time></trkpt><trkpt lat="45.8479553" lon="9.6985596"><ele>949.75</ele><time>2026-03-28T09:10:06.115Z</time></trkpt><trkpt lat="45.8478672" lon="9.6987022"><ele>950.0</ele><time>2026-03-28T09:10:07.114Z</time></trkpt><trkpt lat="45.8477891" lon="9.6988188"><ele>950.0000000000001</ele><time>2026-03-28T09:10:08.115Z</time></trkpt><trkpt lat="45.847738" lon="9.6989293"><ele>950.0</ele><time>2026-03-28T09:10:09.115Z</time></trkpt><trkpt lat="45.8477202" lon="9.6990348"><ele>950.0</ele><time>2026-03-28T09:10:10.115Z</time></trkpt><trkpt lat="45.8477316" lon="9.699134"><ele>950.0</ele><time>2026-03-28T09:10:11.114Z</time></trkpt><trkpt lat="45.8477669" lon="9.6992456"><ele>950.0000000000001</ele><time>2026-03-28T09:10:12.115Z</time></trkpt><trkpt lat="45.8478162" lon="9.6993565"><ele>950.0</ele><time>2026-03-28T09:10:13.115Z</time></trkpt><trkpt lat="45.847867" lon="9.6994389"><ele>952.8333333333334</ele><time>2026-03-28T09:10:14.115Z</time></trkpt><trkpt lat="45.8479323" lon="9.6994946"><ele>955.6666666666667</ele><time>2026-03-28T09:10:15.115Z</time></trkpt><trkpt lat="45.8479971" lon="9.6995302"><ele>958.5</ele><time>2026-03-28T09:10:16.114Z</time></trkpt><trkpt lat="45.8480597" lon="9.699545"><ele>961.3333333333333</ele><time>2026-03-28T09:10:17.115Z</time></trkpt><trkpt lat="45.8481545" lon="9.6995587"><ele>964.1666666666666</ele><time>2026-03-28T09:10:19.114Z</time></trkpt><trkpt lat="45.8482416" lon="9.6996086"><ele>967.0</ele><time>2026-03-28T09:10:21.115Z</time></trkpt><trkpt lat="45.8482947" lon="9.6996644"><ele>966.9999999999999</ele><time>2026-03-28T09:10:22.115Z</time></trkpt><trkpt lat="45.8483597" lon="9.6997395"><ele>967.0</ele><time>2026-03-28T09:10:23.115Z</time></trkpt><trkpt lat="45.8484376" lon="9.6998072"><ele>967.0</ele><time>2026-03-28T09:10:24.115Z</time></trkpt><trkpt lat="45.8485253" lon="9.6998754"><ele>967.0</ele><time>2026-03-28T09:10:25.115Z</time></trkpt><trkpt lat="45.8486093" lon="9.6999343"><ele>966.9999999999999</ele><time>2026-03-28T09:10:26.115Z</time></trkpt><trkpt lat="45.8486707" lon="9.6999811"><ele>967.0</ele><time>2026-03-28T09:10:27.115Z</time></trkpt><trkpt lat="45.8487179" lon="9.7000657"><ele>967.1666666666666</ele><time>2026-03-28T09:10:29.115Z</time></trkpt><trkpt lat="45.8487257" lon="9.7001653"><ele>967.3333333333333</ele><time>2026-03-28T09:10:30.114Z</time></trkpt><trkpt lat="45.8487482" lon="9.700288"><ele>967.5</ele><time>2026-03-28T09:10:31.115Z</time></trkpt><trkpt lat="45.8487906" lon="9.7003925"><ele>967.6666666666667</ele><time>2026-03-28T09:10:32.115Z</time></trkpt><trkpt lat="45.8488525" lon="9.7004682"><ele>967.8333333333334</ele><time>2026-03-28T09:10:33.115Z</time></trkpt><trkpt lat="45.8489169" lon="9.7005307"><ele>968.0</ele><time>2026-03-28T09:10:34.114Z</time></trkpt><trkpt lat="45.8489717" lon="9.7006175"><ele>968.0</ele><time>2026-03-28T09:10:35.114Z</time></trkpt><trkpt lat="45.8490325" lon="9.7007339"><ele>968.0</ele><time>2026-03-28T09:10:36.115Z</time></trkpt><trkpt lat="45.8491095" lon="9.7008681"><ele>968.0</ele><time>2026-03-28T09:10:37.115Z</time></trkpt><trkpt lat="45.8491814" lon="9.7009676"><ele>968.0</ele><time>2026-03-28T09:10:38.115Z</time></trkpt><trkpt lat="45.8492522" lon="9.7010095"><ele>968.0</ele><time>2026-03-28T09:10:39.114Z</time></trkpt><trkpt lat="45.8493199" lon="9.7009857"><ele>968.3333333333334</ele><time>2026-03-28T09:10:40.114Z</time></trkpt><trkpt lat="45.8494013" lon="9.7009482"><ele>968.6666666666667</ele><time>2026-03-28T09:10:42.114Z</time></trkpt><trkpt lat="45.8494729" lon="9.7010691"><ele>969.0</ele><time>2026-03-28T09:10:44.114Z</time></trkpt><trkpt lat="45.8495276" lon="9.7011407"><ele>969.3333333333333</ele><time>2026-03-28T09:10:45.114Z</time></trkpt><trkpt lat="45.8495964" lon="9.701215"><ele>969.6666666666666</ele><time>2026-03-28T09:10:46.115Z</time></trkpt><trkpt lat="45.8496756" lon="9.7012844"><ele>970.0</ele><time>2026-03-28T09:10:47.115Z</time></trkpt><trkpt lat="45.8497374" lon="9.7013018"><ele>969.9999999999999</ele><time>2026-03-28T09:10:48.114Z</time></trkpt><trkpt lat="45.8497945" lon="9.7012597"><ele>970.0</ele><time>2026-03-28T09:10:49.115Z</time></trkpt><trkpt lat="45.8498304" lon="9.7011696"><ele>970.0</ele><time>2026-03-28T09:10:50.115Z</time></trkpt><trkpt lat="45.8498538" lon="9.7010434"><ele>970.0</ele><time>2026-03-28T09:10:51.115Z</time></trkpt><trkpt lat="45.8498745" lon="9.700922"><ele>969.9999999999999</ele><time>2026-03-28T09:10:52.115Z</time></trkpt><trkpt lat="45.8498977" lon="9.7008368"><ele>970.0</ele><time>2026-03-28T09:10:53.115Z</time></trkpt><trkpt lat="45.8499868" lon="9.7006809"><ele>969.9999999999999</ele><time>2026-03-28T09:10:55.115Z</time></trkpt><trkpt lat="45.8500094" lon="9.700571"><ele>970.0</ele><time>2026-03-28T09:10:56.114Z</time></trkpt><trkpt lat="45.8500227" lon="9.7004583"><ele>970.0</ele><time>2026-03-28T09:10:57.115Z</time></trkpt><trkpt lat="45.8500171" lon="9.7003131"><ele>970.0</ele><time>2026-03-28T09:10:59.115Z</time></trkpt><trkpt lat="45.8499948" lon="9.7001962"><ele>969.9999999999999</ele><time>2026-03-28T09:11:01.115Z</time></trkpt><trkpt lat="45.8499814" lon="9.7000802"><ele>970.0</ele><time>2026-03-28T09:11:02.115Z</time></trkpt><trkpt lat="45.8499723" lon="9.699961"><ele>969.9999999999999</ele><time>2026-03-28T09:11:03.114Z</time></trkpt><trkpt lat="45.8499713" lon="9.6998508"><ele>970.0</ele><time>2026-03-28T09:11:04.115Z</time></trkpt><trkpt lat="45.8499785" lon="9.699759"><ele>970.0</ele><time>2026-03-28T09:11:05.115Z</time></trkpt><trkpt lat="45.8500014" lon="9.6996039"><ele>970.0</ele><time>2026-03-28T09:11:07.115Z</time></trkpt><trkpt lat="45.8500606" lon="9.6995082"><ele>969.9999999999999</ele><time>2026-03-28T09:11:09.114Z</time></trkpt><trkpt lat="45.8501557" lon="9.6994829"><ele>970.0</ele><time>2026-03-28T09:11:11.115Z</time></trkpt><trkpt lat="45.8502285" lon="9.6995135"><ele>974.0</ele><time>2026-03-28T09:11:12.114Z</time></trkpt><trkpt lat="45.8503053" lon="9.6995464"><ele>978.0</ele><time>2026-03-28T09:11:13.114Z</time></trkpt><trkpt lat="45.8503794" lon="9.6995773"><ele>982.0</ele><time>2026-03-28T09:11:14.115Z</time></trkpt><trkpt lat="45.8504821" lon="9.6995324"><ele>986.0</ele><time>2026-03-28T09:11:16.114Z</time></trkpt><trkpt lat="45.8505424" lon="9.6994205"><ele>990.0</ele><time>2026-03-28T09:11:17.115Z</time></trkpt><trkpt lat="45.850588" lon="9.6992965"><ele>990.0</ele><time>2026-03-28T09:11:18.115Z</time></trkpt><trkpt lat="45.8505709" lon="9.6991551"><ele>990.0</ele><time>2026-03-28T09:11:20.115Z</time></trkpt><trkpt lat="45.8505193" lon="9.6990477"><ele>990.0</ele><time>2026-03-28T09:11:22.114Z</time></trkpt><trkpt lat="45.8505221" lon="9.6988699"><ele>990.0</ele><time>2026-03-28T09:11:24.114Z</time></trkpt><trkpt lat="45.8505437" lon="9.6987779"><ele>990.0</ele><time>2026-03-28T09:11:25.115Z</time></trkpt><trkpt lat="45.8505649" lon="9.6986862"><ele>990.0</ele><time>2026-03-28T09:11:26.115Z</time></trkpt><trkpt lat="45.8505609" lon="9.6985948"><ele>990.0</ele><time>2026-03-28T09:11:27.115Z</time></trkpt><trkpt lat="45.8505735" lon="9.6984563"><ele>990.0</ele><time>2026-03-28T09:11:29.114Z</time></trkpt><trkpt lat="45.8506706" lon="9.6983043"><ele>990.0</ele><time>2026-03-28T09:11:31.115Z</time></trkpt><trkpt lat="45.8507174" lon="9.6982118"><ele>990.0</ele><time>2026-03-28T09:11:32.115Z</time></trkpt><trkpt lat="45.8507936" lon="9.6981133"><ele>991.6</ele><time>2026-03-28T09:11:34.115Z</time></trkpt><trkpt lat="45.8508609" lon="9.6981976"><ele>993.2</ele><time>2026-03-28T09:11:36.114Z</time></trkpt><trkpt lat="45.8508902" lon="9.6982787"><ele>994.8</ele><time>2026-03-28T09:11:37.115Z</time></trkpt><trkpt lat="45.8509685" lon="9.6983683"><ele>996.4</ele><time>2026-03-28T09:11:39.115Z</time></trkpt><trkpt lat="45.8510732" lon="9.6984283"><ele>998.0</ele><time>2026-03-28T09:11:41.114Z</time></trkpt><trkpt lat="45.8511816" lon="9.6984451"><ele>998.0000000000001</ele><time>2026-03-28T09:11:43.115Z</time></trkpt><trkpt lat="45.8512583" lon="9.6984543"><ele>998.0</ele><time>2026-03-28T09:11:45.115Z</time></trkpt><trkpt lat="45.8513014" lon="9.6985345"><ele>998.0</ele><time>2026-03-28T09:11:48.115Z</time></trkpt><trkpt lat="45.8513697" lon="9.6985245"><ele>998.0</ele><time>2026-03-28T09:11:51.115Z</time></trkpt><trkpt lat="45.8513716" lon="9.6984217"><ele>998.0000000000001</ele><time>2026-03-28T09:11:53.115Z</time></trkpt><trkpt lat="45.8513611" lon="9.6983117"><ele>998.0</ele><time>2026-03-28T09:11:55.115Z</time></trkpt><trkpt lat="45.851386" lon="9.698166"><ele>998.0</ele><time>2026-03-28T09:11:57.114Z</time></trkpt><trkpt lat="45.8514399" lon="9.6980828"><ele>998.0</ele><time>2026-03-28T09:12:08.114Z</time></trkpt><trkpt lat="45.8515205" lon="9.6979569"><ele>998.0</ele><time>2026-03-28T09:12:18.114Z</time></trkpt><trkpt lat="45.851625" lon="9.6978341"><ele>998.0</ele><time>2026-03-28T09:12:54.115Z</time></trkpt><trkpt lat="45.8516815" lon="9.6976779"><ele>998.0000000000001</ele><time>2026-03-28T09:12:56.114Z</time></trkpt><trkpt lat="45.8517428" lon="9.6975685"><ele>998.0</ele><time>2026-03-28T09:12:58.114Z</time></trkpt><trkpt lat="45.8518217" lon="9.6975332"><ele>998.0</ele><time>2026-03-28T09:13:00.115Z</time></trkpt><trkpt lat="45.8518915" lon="9.6974676"><ele>998.0</ele><time>2026-03-28T09:13:03.115Z</time></trkpt><trkpt lat="45.8519427" lon="9.6974099"><ele>998.0000000000001</ele><time>2026-03-28T09:13:06.115Z</time></trkpt><trkpt lat="45.8520192" lon="9.6973382"><ele>998.0</ele><time>2026-03-28T09:13:08.115Z</time></trkpt><trkpt lat="45.8521257" lon="9.6973206"><ele>998.0</ele><time>2026-03-28T09:13:10.115Z</time></trkpt><trkpt lat="45.8522305" lon="9.6973354"><ele>998.0</ele><time>2026-03-28T09:13:12.114Z</time></trkpt><trkpt lat="45.8523226" lon="9.6973634"><ele>998.0</ele><time>2026-03-28T09:13:16.115Z</time></trkpt><trkpt lat="45.8523933" lon="9.6973541"><ele>998.0</ele><time>2026-03-28T09:13:18.114Z</time></trkpt><trkpt lat="45.8524691" lon="9.6973707"><ele>998.0</ele><time>2026-03-28T09:13:20.115Z</time></trkpt><trkpt lat="45.8525725" lon="9.6973948"><ele>1000.5000000000001</ele><time>2026-03-28T09:13:22.115Z</time></trkpt><trkpt lat="45.8526407" lon="9.6973658"><ele>1003.0</ele><time>2026-03-28T09:13:25.114Z</time></trkpt><trkpt lat="45.8526283" lon="9.6972487"><ele>1005.5</ele><time>2026-03-28T09:13:28.115Z</time></trkpt><trkpt lat="45.8526621" lon="9.6971268"><ele>1008.0</ele><time>2026-03-28T09:13:31.114Z</time></trkpt><trkpt lat="45.8527139" lon="9.697054"><ele>1010.5000000000001</ele><time>2026-03-28T09:13:33.114Z</time></trkpt><trkpt lat="45.8528168" lon="9.6969634"><ele>1013.0</ele><time>2026-03-28T09:13:35.115Z</time></trkpt><trkpt lat="45.8528738" lon="9.6968851"><ele>1013.0000000000001</ele><time>2026-03-28T09:13:36.115Z</time></trkpt><trkpt lat="45.8529257" lon="9.6968085"><ele>1013.0</ele><time>2026-03-28T09:13:37.115Z</time></trkpt><trkpt lat="45.8529747" lon="9.696732"><ele>1013.0</ele><time>2026-03-28T09:13:38.114Z</time></trkpt><trkpt lat="45.8530842" lon="9.6966485"><ele>1013.0</ele><time>2026-03-28T09:13:40.115Z</time></trkpt><trkpt lat="45.8531864" lon="9.6966046"><ele>1013.0000000000001</ele><time>2026-03-28T09:13:42.114Z</time></trkpt><trkpt lat="45.8532241" lon="9.6965313"><ele>1013.0</ele><time>2026-03-28T09:13:44.115Z</time></trkpt><trkpt lat="45.8531666" lon="9.6964091"><ele>1013.0</ele><time>2026-03-28T09:13:46.115Z</time></trkpt><trkpt lat="45.8531485" lon="9.696259"><ele>1013.0</ele><time>2026-03-28T09:13:48.115Z</time></trkpt><trkpt lat="45.8532081" lon="9.6961287"><ele>1013.0</ele><time>2026-03-28T09:13:50.115Z</time></trkpt><trkpt lat="45.8532807" lon="9.6960863"><ele>1013.0</ele><time>2026-03-28T09:13:51.114Z</time></trkpt><trkpt lat="45.8533762" lon="9.6960387"><ele>1013.0</ele><time>2026-03-28T09:13:52.115Z</time></trkpt><trkpt lat="45.8534695" lon="9.6959879"><ele>1014.5000000000001</ele><time>2026-03-28T09:13:53.114Z</time></trkpt><trkpt lat="45.8535649" lon="9.6959625"><ele>1016.0</ele><time>2026-03-28T09:13:54.114Z</time></trkpt><trkpt lat="45.8536656" lon="9.6959432"><ele>1017.5</ele><time>2026-03-28T09:13:55.114Z</time></trkpt><trkpt lat="45.8537662" lon="9.6959367"><ele>1019.0</ele><time>2026-03-28T09:13:56.115Z</time></trkpt><trkpt lat="45.8538461" lon="9.6959356"><ele>1020.5000000000001</ele><time>2026-03-28T09:13:57.114Z</time></trkpt><trkpt lat="45.8539117" lon="9.6959378"><ele>1022.0</ele><time>2026-03-28T09:13:58.114Z</time></trkpt><trkpt lat="45.8539834" lon="9.6958475"><ele>1022.0000000000001</ele><time>2026-03-28T09:14:00.114Z</time></trkpt><trkpt lat="45.8539963" lon="9.6957479"><ele>1022.0</ele><time>2026-03-28T09:14:01.115Z</time></trkpt><trkpt lat="45.8540769" lon="9.6956222"><ele>1022.0</ele><time>2026-03-28T09:14:03.114Z</time></trkpt><trkpt lat="45.8541542" lon="9.6955782"><ele>1022.0</ele><time>2026-03-28T09:14:04.114Z</time></trkpt><trkpt lat="45.8542126" lon="9.6954823"><ele>1022.0000000000001</ele><time>2026-03-28T09:14:06.115Z</time></trkpt><trkpt lat="45.854192" lon="9.6953595"><ele>1022.0</ele><time>2026-03-28T09:14:09.115Z</time></trkpt><trkpt lat="45.8541377" lon="9.6952255"><ele>1022.0</ele><time>2026-03-28T09:14:12.114Z</time></trkpt><trkpt lat="45.8540154" lon="9.6951528"><ele>1022.0</ele><time>2026-03-28T09:14:14.115Z</time></trkpt><trkpt lat="45.8539326" lon="9.6951011"><ele>1022.0</ele><time>2026-03-28T09:14:15.115Z</time></trkpt><trkpt lat="45.8538431" lon="9.6950088"><ele>1022.0</ele><time>2026-03-28T09:14:16.115Z</time></trkpt><trkpt lat="45.8537512" lon="9.6948706"><ele>1022.0</ele><time>2026-03-28T09:14:17.115Z</time></trkpt><trkpt lat="45.8536621" lon="9.6947166"><ele>1022.0</ele><time>2026-03-28T09:14:18.114Z</time></trkpt><trkpt lat="45.8535688" lon="9.6945642"><ele>1022.0</ele><time>2026-03-28T09:14:19.115Z</time></trkpt><trkpt lat="45.8534853" lon="9.6944263"><ele>1022.0</ele><time>2026-03-28T09:14:20.115Z</time></trkpt><trkpt lat="45.8534227" lon="9.6943172"><ele>1019.8</ele><time>2026-03-28T09:14:21.115Z</time></trkpt><trkpt lat="45.8533766" lon="9.6942022"><ele>1017.6</ele><time>2026-03-28T09:14:22.114Z</time></trkpt><trkpt lat="45.8533486" lon="9.6940827"><ele>1015.3999999999999</ele><time>2026-03-28T09:14:23.115Z</time></trkpt><trkpt lat="45.8533277" lon="9.6939421"><ele>1013.1999999999999</ele><time>2026-03-28T09:14:24.114Z</time></trkpt><trkpt lat="45.8533053" lon="9.6937988"><ele>1011.0</ele><time>2026-03-28T09:14:25.115Z</time></trkpt><trkpt lat="45.8532695" lon="9.693673"><ele>1013.1666666666666</ele><time>2026-03-28T09:14:26.115Z</time></trkpt><trkpt lat="45.853231" lon="9.6935876"><ele>1015.3333333333333</ele><time>2026-03-28T09:14:27.114Z</time></trkpt><trkpt lat="45.8531605" lon="9.6934551"><ele>1017.5</ele><time>2026-03-28T09:14:29.115Z</time></trkpt><trkpt lat="45.8530955" lon="9.6933162"><ele>1019.6666666666666</ele><time>2026-03-28T09:14:31.115Z</time></trkpt><trkpt lat="45.8530838" lon="9.6932269"><ele>1021.8333333333333</ele><time>2026-03-28T09:14:32.115Z</time></trkpt><trkpt lat="45.8530856" lon="9.6931227"><ele>1024.0</ele><time>2026-03-28T09:14:33.115Z</time></trkpt><trkpt lat="45.8530838" lon="9.6930298"><ele>1024.0</ele><time>2026-03-28T09:14:34.115Z</time></trkpt><trkpt lat="45.8529955" lon="9.6929021"><ele>1024.0</ele><time>2026-03-28T09:14:36.114Z</time></trkpt><trkpt lat="45.8529409" lon="9.6928429"><ele>1024.0</ele><time>2026-03-28T09:14:37.115Z</time></trkpt><trkpt lat="45.8528915" lon="9.6927651"><ele>1024.0</ele><time>2026-03-28T09:14:38.114Z</time></trkpt><trkpt lat="45.8528397" lon="9.6926719"><ele>1024.0</ele><time>2026-03-28T09:14:39.115Z</time></trkpt><trkpt lat="45.8527724" lon="9.6925537"><ele>1026.25</ele><time>2026-03-28T09:14:40.115Z</time></trkpt><trkpt lat="45.8527036" lon="9.6924089"><ele>1028.5</ele><time>2026-03-28T09:14:41.115Z</time></trkpt><trkpt lat="45.852661" lon="9.6922538"><ele>1030.75</ele><time>2026-03-28T09:14:42.115Z</time></trkpt><trkpt lat="45.8526457" lon="9.6920979"><ele>1033.0</ele><time>2026-03-28T09:14:43.114Z</time></trkpt><trkpt lat="45.8526606" lon="9.6919479"><ele>1034.75</ele><time>2026-03-28T09:14:44.114Z</time></trkpt><trkpt lat="45.8526911" lon="9.6917953"><ele>1036.5</ele><time>2026-03-28T09:14:45.115Z</time></trkpt><trkpt lat="45.8527402" lon="9.6916518"><ele>1038.25</ele><time>2026-03-28T09:14:46.114Z</time></trkpt><trkpt lat="45.8528095" lon="9.6915122"><ele>1040.0</ele><time>2026-03-28T09:14:47.115Z</time></trkpt><trkpt lat="45.8529078" lon="9.6913923"><ele>1040.0</ele><time>2026-03-28T09:14:48.114Z</time></trkpt><trkpt lat="45.8530307" lon="9.6912653"><ele>1040.0</ele><time>2026-03-28T09:14:49.115Z</time></trkpt><trkpt lat="45.8531559" lon="9.6911332"><ele>1040.0</ele><time>2026-03-28T09:14:50.115Z</time></trkpt><trkpt lat="45.8532666" lon="9.691001"><ele>1037.8</ele><time>2026-03-28T09:14:51.115Z</time></trkpt><trkpt lat="45.8533511" lon="9.690884"><ele>1035.6</ele><time>2026-03-28T09:14:52.115Z</time></trkpt><trkpt lat="45.8534134" lon="9.6907852"><ele>1033.4</ele><time>2026-03-28T09:14:53.115Z</time></trkpt><trkpt lat="45.8534308" lon="9.6906802"><ele>1031.2</ele><time>2026-03-28T09:14:54.115Z</time></trkpt><trkpt lat="45.8534016" lon="9.6905732"><ele>1029.0</ele><time>2026-03-28T09:14:55.115Z</time></trkpt><trkpt lat="45.8533396" lon="9.6904607"><ele>1029.0</ele><time>2026-03-28T09:14:56.115Z</time></trkpt><trkpt lat="45.8532687" lon="9.6903597"><ele>1029.0</ele><time>2026-03-28T09:14:57.115Z</time></trkpt><trkpt lat="45.8532313" lon="9.6902307"><ele>1029.0</ele><time>2026-03-28T09:14:58.115Z</time></trkpt><trkpt lat="45.8532193" lon="9.690081"><ele>1029.0</ele><time>2026-03-28T09:14:59.114Z</time></trkpt><trkpt lat="45.8532224" lon="9.6899044"><ele>1029.0</ele><time>2026-03-28T09:15:00.115Z</time></trkpt><trkpt lat="45.8532401" lon="9.6897067"><ele>1029.5</ele><time>2026-03-28T09:15:01.115Z</time></trkpt><trkpt lat="45.8532672" lon="9.6895123"><ele>1030.0</ele><time>2026-03-28T09:15:02.115Z</time></trkpt><trkpt lat="45.8532952" lon="9.6893342"><ele>1030.5</ele><time>2026-03-28T09:15:03.115Z</time></trkpt><trkpt lat="45.8532973" lon="9.6891528"><ele>1031.0</ele><time>2026-03-28T09:15:04.115Z</time></trkpt><trkpt lat="45.8532658" lon="9.6889601"><ele>1032.0</ele><time>2026-03-28T09:15:05.115Z</time></trkpt><trkpt lat="45.8532268" lon="9.6887586"><ele>1033.0</ele><time>2026-03-28T09:15:06.115Z</time></trkpt><trkpt lat="45.8532021" lon="9.6885486"><ele>1034.0</ele><time>2026-03-28T09:15:07.114Z</time></trkpt><trkpt lat="45.8531811" lon="9.6883401"><ele>1035.0</ele><time>2026-03-28T09:15:08.115Z</time></trkpt><trkpt lat="45.8531419" lon="9.688156"><ele>1036.4</ele><time>2026-03-28T09:15:09.115Z</time></trkpt><trkpt lat="45.8530943" lon="9.6879862"><ele>1037.8</ele><time>2026-03-28T09:15:10.114Z</time></trkpt><trkpt lat="45.8530388" lon="9.6878354"><ele>1039.2</ele><time>2026-03-28T09:15:11.114Z</time></trkpt><trkpt lat="45.8529883" lon="9.687698"><ele>1040.6</ele><time>2026-03-28T09:15:12.114Z</time></trkpt><trkpt lat="45.852956" lon="9.687579"><ele>1042.0</ele><time>2026-03-28T09:15:13.115Z</time></trkpt><trkpt lat="45.8529566" lon="9.6874387"><ele>1042.0</ele><time>2026-03-28T09:15:15.115Z</time></trkpt><trkpt lat="45.8530273" lon="9.6875568"><ele>1042.0</ele><time>2026-03-28T09:15:18.114Z</time></trkpt><trkpt lat="45.8530545" lon="9.6876759"><ele>1042.0</ele><time>2026-03-28T09:15:19.115Z</time></trkpt><trkpt lat="45.8531035" lon="9.6877925"><ele>1042.0</ele><time>2026-03-28T09:15:20.114Z</time></trkpt><trkpt lat="45.8531674" lon="9.6879128"><ele>1042.0</ele><time>2026-03-28T09:15:21.115Z</time></trkpt><trkpt lat="45.8532405" lon="9.6880385"><ele>1042.0</ele><time>2026-03-28T09:15:22.115Z</time></trkpt><trkpt lat="45.8533165" lon="9.6881779"><ele>1042.0</ele><time>2026-03-28T09:15:23.114Z</time></trkpt><trkpt lat="45.8533995" lon="9.6883346"><ele>1042.0</ele><time>2026-03-28T09:15:24.115Z</time></trkpt><trkpt lat="45.8534773" lon="9.6884895"><ele>1042.0</ele><time>2026-03-28T09:15:25.115Z</time></trkpt><trkpt lat="45.8535497" lon="9.6886568"><ele>1047.5</ele><time>2026-03-28T09:15:26.114Z</time></trkpt><trkpt lat="45.8536249" lon="9.68883"><ele>1053.0</ele><time>2026-03-28T09:15:27.114Z</time></trkpt><trkpt lat="45.853725" lon="9.688976"><ele>1058.5</ele><time>2026-03-28T09:15:28.115Z</time></trkpt><trkpt lat="45.8538366" lon="9.6891207"><ele>1064.0</ele><time>2026-03-28T09:15:29.114Z</time></trkpt><trkpt lat="45.8539415" lon="9.6892823"><ele>1062.5</ele><time>2026-03-28T09:15:30.115Z</time></trkpt><trkpt lat="45.8540193" lon="9.6894326"><ele>1061.0</ele><time>2026-03-28T09:15:31.115Z</time></trkpt><trkpt lat="45.8541027" lon="9.6895508"><ele>1059.5</ele><time>2026-03-28T09:15:32.115Z</time></trkpt><trkpt lat="45.8542158" lon="9.6896259"><ele>1058.0</ele><time>2026-03-28T09:15:33.114Z</time></trkpt><trkpt lat="45.8543424" lon="9.6896827"><ele>1062.6</ele><time>2026-03-28T09:15:34.115Z</time></trkpt><trkpt lat="45.8544476" lon="9.6897405"><ele>1067.1999999999998</ele><time>2026-03-28T09:15:35.115Z</time></trkpt><trkpt lat="45.8545202" lon="9.6898262"><ele>1071.8</ele><time>2026-03-28T09:15:36.114Z</time></trkpt><trkpt lat="45.8545443" lon="9.6899359"><ele>1076.3999999999999</ele><time>2026-03-28T09:15:37.115Z</time></trkpt><trkpt lat="45.8545382" lon="9.6900807"><ele>1081.0</ele><time>2026-03-28T09:15:38.115Z</time></trkpt><trkpt lat="45.8545173" lon="9.6902303"><ele>1080.5</ele><time>2026-03-28T09:15:39.115Z</time></trkpt><trkpt lat="45.8545156" lon="9.6903892"><ele>1080.0</ele><time>2026-03-28T09:15:40.115Z</time></trkpt><trkpt lat="45.8545518" lon="9.6905588"><ele>1079.5</ele><time>2026-03-28T09:15:41.115Z</time></trkpt><trkpt lat="45.8545924" lon="9.6907355"><ele>1079.0</ele><time>2026-03-28T09:15:42.114Z</time></trkpt><trkpt lat="45.8546213" lon="9.6908988"><ele>1079.0</ele><time>2026-03-28T09:15:43.115Z</time></trkpt><trkpt lat="45.8546356" lon="9.6910546"><ele>1079.0</ele><time>2026-03-28T09:15:44.114Z</time></trkpt><trkpt lat="45.8546435" lon="9.691179"><ele>1079.0</ele><time>2026-03-28T09:15:45.115Z</time></trkpt><trkpt lat="45.8546551" lon="9.6912757"><ele>1079.0</ele><time>2026-03-28T09:15:46.114Z</time></trkpt><trkpt lat="45.8547054" lon="9.6913721"><ele>1079.0</ele><time>2026-03-28T09:15:48.115Z</time></trkpt><trkpt lat="45.8547707" lon="9.6914006"><ele>1079.0</ele><time>2026-03-28T09:15:51.115Z</time></trkpt><trkpt lat="45.8548664" lon="9.6914367"><ele>1079.142857142857</ele><time>2026-03-28T09:16:52.115Z</time></trkpt><trkpt lat="45.854903" lon="9.6915189"><ele>1079.2857142857142</ele><time>2026-03-28T09:16:53.114Z</time></trkpt><trkpt lat="45.8549215" lon="9.6916107"><ele>1079.4285714285713</ele><time>2026-03-28T09:16:54.114Z</time></trkpt><trkpt lat="45.8549391" lon="9.6917077"><ele>1079.5714285714284</ele><time>2026-03-28T09:16:55.114Z</time></trkpt><trkpt lat="45.8549708" lon="9.6917985"><ele>1079.7142857142856</ele><time>2026-03-28T09:16:56.115Z</time></trkpt><trkpt lat="45.8550075" lon="9.691881"><ele>1079.857142857143</ele><time>2026-03-28T09:16:57.115Z</time></trkpt><trkpt lat="45.855099" lon="9.6919517"><ele>1080.0</ele><time>2026-03-28T09:16:59.114Z</time></trkpt><trkpt lat="45.8551798" lon="9.6919575"><ele>1077.1666666666667</ele><time>2026-03-28T09:17:00.115Z</time></trkpt><trkpt lat="45.8552763" lon="9.6919533"><ele>1074.3333333333333</ele><time>2026-03-28T09:17:01.114Z</time></trkpt><trkpt lat="45.8553678" lon="9.6919585"><ele>1071.5</ele><time>2026-03-28T09:17:02.115Z</time></trkpt><trkpt lat="45.8554575" lon="9.6919893"><ele>1068.6666666666665</ele><time>2026-03-28T09:17:03.115Z</time></trkpt><trkpt lat="45.8555311" lon="9.6920365"><ele>1065.8333333333333</ele><time>2026-03-28T09:17:04.115Z</time></trkpt><trkpt lat="45.8555814" lon="9.6920943"><ele>1063.0</ele><time>2026-03-28T09:17:05.115Z</time></trkpt><trkpt lat="45.8556459" lon="9.6922315"><ele>1063.0</ele><time>2026-03-28T09:17:07.114Z</time></trkpt><trkpt lat="45.8556585" lon="9.6923296"><ele>1063.0</ele><time>2026-03-28T09:17:08.114Z</time></trkpt><trkpt lat="45.8556639" lon="9.6924989"><ele>1063.0</ele><time>2026-03-28T09:17:10.114Z</time></trkpt><trkpt lat="45.8556442" lon="9.6926481"><ele>1063.0</ele><time>2026-03-28T09:17:12.114Z</time></trkpt><trkpt lat="45.8556712" lon="9.6927634"><ele>1063.0</ele><time>2026-03-28T09:17:14.114Z</time></trkpt><trkpt lat="45.8557436" lon="9.6928581"><ele>1063.3333333333333</ele><time>2026-03-28T09:17:16.115Z</time></trkpt><trkpt lat="45.8558362" lon="9.6929701"><ele>1063.6666666666665</ele><time>2026-03-28T09:17:18.114Z</time></trkpt><trkpt lat="45.8558838" lon="9.6930369"><ele>1064.0</ele><time>2026-03-28T09:17:19.115Z</time></trkpt><trkpt lat="45.8559411" lon="9.693084"><ele>1064.3333333333333</ele><time>2026-03-28T09:17:20.115Z</time></trkpt><trkpt lat="45.8560021" lon="9.6931419"><ele>1064.6666666666667</ele><time>2026-03-28T09:17:21.114Z</time></trkpt><trkpt lat="45.8560692" lon="9.6931964"><ele>1065.0</ele><time>2026-03-28T09:17:22.114Z</time></trkpt><trkpt lat="45.8561406" lon="9.6932513"><ele>1058.8333333333333</ele><time>2026-03-28T09:17:23.115Z</time></trkpt><trkpt lat="45.8562044" lon="9.6933078"><ele>1052.6666666666667</ele><time>2026-03-28T09:17:24.115Z</time></trkpt><trkpt lat="45.8562847" lon="9.693411"><ele>1046.5</ele><time>2026-03-28T09:17:26.115Z</time></trkpt><trkpt lat="45.8563367" lon="9.6934761"><ele>1040.3333333333335</ele><time>2026-03-28T09:17:28.115Z</time></trkpt><trkpt lat="45.856341" lon="9.6933575"><ele>1034.1666666666667</ele><time>2026-03-28T09:17:35.114Z</time></trkpt><trkpt lat="45.856348" lon="9.6932321"><ele>1028.0</ele><time>2026-03-28T09:17:38.115Z</time></trkpt><trkpt lat="45.8563466" lon="9.6931374"><ele>1028.0</ele><time>2026-03-28T09:17:40.115Z</time></trkpt><trkpt lat="45.8563401" lon="9.6930311"><ele>1028.0</ele><time>2026-03-28T09:17:42.115Z</time></trkpt><trkpt lat="45.856341" lon="9.6929157"><ele>1028.0</ele><time>2026-03-28T09:17:44.115Z</time></trkpt><trkpt lat="45.8563366" lon="9.6928054"><ele>1028.0</ele><time>2026-03-28T09:17:46.115Z</time></trkpt><trkpt lat="45.8563594" lon="9.6926631"><ele>1028.0</ele><time>2026-03-28T09:17:48.114Z</time></trkpt><trkpt lat="45.8563709" lon="9.6925731"><ele>1028.0</ele><time>2026-03-28T09:17:50.115Z</time></trkpt><trkpt lat="45.8563904" lon="9.6924655"><ele>1025.6666666666667</ele><time>2026-03-28T09:17:54.115Z</time></trkpt><trkpt lat="45.8564407" lon="9.6923463"><ele>1023.3333333333334</ele><time>2026-03-28T09:18:08.115Z</time></trkpt><trkpt lat="45.8564663" lon="9.692252"><ele>1021.0</ele><time>2026-03-28T09:18:10.114Z</time></trkpt><trkpt lat="45.8564998" lon="9.6921582"><ele>1018.6666666666667</ele><time>2026-03-28T09:18:12.115Z</time></trkpt><trkpt lat="45.8565153" lon="9.6920465"><ele>1016.3333333333334</ele><time>2026-03-28T09:18:15.115Z</time></trkpt><trkpt lat="45.8565386" lon="9.6919471"><ele>1014.0</ele><time>2026-03-28T09:18:18.115Z</time></trkpt><trkpt lat="45.8565662" lon="9.6918497"><ele>1014.0</ele><time>2026-03-28T09:18:20.115Z</time></trkpt><trkpt lat="45.8565983" lon="9.691739"><ele>1014.0</ele><time>2026-03-28T09:18:22.115Z</time></trkpt><trkpt lat="45.8566357" lon="9.6916428"><ele>1014.0</ele><time>2026-03-28T09:18:24.115Z</time></trkpt><trkpt lat="45.8566961" lon="9.6915417"><ele>1014.0</ele><time>2026-03-28T09:18:26.114Z</time></trkpt><trkpt lat="45.8567265" lon="9.6914491"><ele>1014.0</ele><time>2026-03-28T09:18:28.115Z</time></trkpt><trkpt lat="45.8567911" lon="9.6913506"><ele>1014.0</ele><time>2026-03-28T09:18:31.115Z</time></trkpt><trkpt lat="45.8568538" lon="9.6912663"><ele>1004.4000000000001</ele><time>2026-03-28T09:18:33.115Z</time></trkpt><trkpt lat="45.8569272" lon="9.6911417"><ele>994.8000000000001</ele><time>2026-03-28T09:18:35.115Z</time></trkpt><trkpt lat="45.8570056" lon="9.6910323"><ele>985.1999999999999</ele><time>2026-03-28T09:18:37.115Z</time></trkpt><trkpt lat="45.8570605" lon="9.6909238"><ele>975.5999999999999</ele><time>2026-03-28T09:18:39.114Z</time></trkpt><trkpt lat="45.8571236" lon="9.6907919"><ele>966.0</ele><time>2026-03-28T09:18:41.115Z</time></trkpt><trkpt lat="45.85716" lon="9.6907157"><ele>966.0</ele><time>2026-03-28T09:18:42.115Z</time></trkpt><trkpt lat="45.8572391" lon="9.6906026"><ele>966.0</ele><time>2026-03-28T09:18:44.115Z</time></trkpt><trkpt lat="45.8573032" lon="9.6905253"><ele>966.0</ele><time>2026-03-28T09:18:46.115Z</time></trkpt><trkpt lat="45.8573462" lon="9.6904519"><ele>966.0</ele><time>2026-03-28T09:18:48.114Z</time></trkpt><trkpt lat="45.8574014" lon="9.6903692"><ele>966.0</ele><time>2026-03-28T09:18:50.115Z</time></trkpt><trkpt lat="45.8574624" lon="9.6902782"><ele>966.0</ele><time>2026-03-28T09:18:52.115Z</time></trkpt><trkpt lat="45.8575062" lon="9.6901629"><ele>968.4</ele><time>2026-03-28T09:18:54.115Z</time></trkpt><trkpt lat="45.8575562" lon="9.6900227"><ele>970.8</ele><time>2026-03-28T09:18:56.115Z</time></trkpt><trkpt lat="45.8576011" lon="9.6899019"><ele>973.1999999999999</ele><time>2026-03-28T09:18:58.115Z</time></trkpt><trkpt lat="45.8576437" lon="9.689763"><ele>975.5999999999999</ele><time>2026-03-28T09:19:00.114Z</time></trkpt><trkpt lat="45.8577019" lon="9.6896381"><ele>978.0</ele><time>2026-03-28T09:19:02.115Z</time></trkpt><trkpt lat="45.8577592" lon="9.6895414"><ele>970.0</ele><time>2026-03-28T09:19:04.115Z</time></trkpt><trkpt lat="45.8577979" lon="9.6894574"><ele>962.0</ele><time>2026-03-28T09:19:06.114Z</time></trkpt><trkpt lat="45.8578559" lon="9.6893482"><ele>954.0</ele><time>2026-03-28T09:19:08.114Z</time></trkpt><trkpt lat="45.8578963" lon="9.6892659"><ele>946.0</ele><time>2026-03-28T09:19:10.115Z</time></trkpt><trkpt lat="45.8579377" lon="9.6891559"><ele>938.0</ele><time>2026-03-28T09:19:13.115Z</time></trkpt><trkpt lat="45.8580033" lon="9.6891727"><ele>930.0</ele><time>2026-03-28T09:19:18.115Z</time></trkpt><trkpt lat="45.8579993" lon="9.6893002"><ele>929.1666666666666</ele><time>2026-03-28T09:19:21.114Z</time></trkpt><trkpt lat="45.8579926" lon="9.6894268"><ele>928.3333333333333</ele><time>2026-03-28T09:19:24.115Z</time></trkpt><trkpt lat="45.8580286" lon="9.6895869"><ele>927.5</ele><time>2026-03-28T09:19:37.115Z</time></trkpt><trkpt lat="45.8580392" lon="9.6896836"><ele>926.6666666666666</ele><time>2026-03-28T09:19:39.115Z</time></trkpt><trkpt lat="45.8580508" lon="9.689812"><ele>925.8333333333333</ele><time>2026-03-28T09:19:42.115Z</time></trkpt><trkpt lat="45.8580799" lon="9.6899122"><ele>925.0</ele><time>2026-03-28T09:19:44.114Z</time></trkpt><trkpt lat="45.8580916" lon="9.6900052"><ele>924.9999999999999</ele><time>2026-03-28T09:19:46.114Z</time></trkpt><trkpt lat="45.8580931" lon="9.6901099"><ele>925.0</ele><time>2026-03-28T09:19:48.115Z</time></trkpt><trkpt lat="45.8581019" lon="9.6902111"><ele>925.0</ele><time>2026-03-28T09:19:50.114Z</time></trkpt><trkpt lat="45.8581299" lon="9.6903235"><ele>925.0</ele><time>2026-03-28T09:19:53.115Z</time></trkpt><trkpt lat="45.8581679" lon="9.6904116"><ele>924.9999999999999</ele><time>2026-03-28T09:19:57.114Z</time></trkpt><trkpt lat="45.8581928" lon="9.6905359"><ele>925.0</ele><time>2026-03-28T09:20:00.114Z</time></trkpt><trkpt lat="45.858224" lon="9.690688"><ele>923.0</ele><time>2026-03-28T09:20:02.115Z</time></trkpt><trkpt lat="45.8582407" lon="9.6908086"><ele>921.0</ele><time>2026-03-28T09:20:05.114Z</time></trkpt><trkpt lat="45.8582607" lon="9.6909383"><ele>919.0</ele><time>2026-03-28T09:20:07.115Z</time></trkpt><trkpt lat="45.8582716" lon="9.6911046"><ele>917.0</ele><time>2026-03-28T09:20:09.115Z</time></trkpt><trkpt lat="45.8582706" lon="9.6912537"><ele>915.0</ele><time>2026-03-28T09:20:11.114Z</time></trkpt><trkpt lat="45.8583046" lon="9.691372"><ele>914.3333333333334</ele><time>2026-03-28T09:20:14.114Z</time></trkpt><trkpt lat="45.8584495" lon="9.6913423"><ele>913.6666666666667</ele><time>2026-03-28T09:20:44.114Z</time></trkpt><trkpt lat="45.8584982" lon="9.6912782"><ele>913.0</ele><time>2026-03-28T09:20:47.115Z</time></trkpt><trkpt lat="45.8585643" lon="9.691245"><ele>912.3333333333334</ele><time>2026-03-28T09:20:51.115Z</time></trkpt><trkpt lat="45.8586125" lon="9.6913163"><ele>911.6666666666667</ele><time>2026-03-28T09:21:12.115Z</time></trkpt><trkpt lat="45.8586735" lon="9.6913616"><ele>911.0</ele><time>2026-03-28T09:21:16.114Z</time></trkpt><trkpt lat="45.8587394" lon="9.6913539"><ele>907.5714285714286</ele><time>2026-03-28T09:21:21.115Z</time></trkpt><trkpt lat="45.8587858" lon="9.6912712"><ele>904.1428571428571</ele><time>2026-03-28T09:21:26.115Z</time></trkpt><trkpt lat="45.8588396" lon="9.6911874"><ele>900.7142857142857</ele><time>2026-03-28T09:21:30.115Z</time></trkpt><trkpt lat="45.8589007" lon="9.6911286"><ele>897.2857142857142</ele><time>2026-03-28T09:21:34.114Z</time></trkpt><trkpt lat="45.8589838" lon="9.6911455"><ele>893.8571428571429</ele><time>2026-03-28T09:21:38.115Z</time></trkpt><trkpt lat="45.8590355" lon="9.6912088"><ele>890.4285714285713</ele><time>2026-03-28T09:21:41.114Z</time></trkpt><trkpt lat="45.8590841" lon="9.6912714"><ele>887.0</ele><time>2026-03-28T09:21:44.114Z</time></trkpt><trkpt lat="45.8591509" lon="9.691295"><ele>887.0000000000001</ele><time>2026-03-28T09:22:09.114Z</time></trkpt><trkpt lat="45.8592115" lon="9.6912465"><ele>887.0</ele><time>2026-03-28T09:22:15.115Z</time></trkpt><trkpt lat="45.8592829" lon="9.6911548"><ele>887.0</ele><time>2026-03-28T09:22:18.115Z</time></trkpt><trkpt lat="45.8593522" lon="9.6910907"><ele>887.0</ele><time>2026-03-28T09:22:21.115Z</time></trkpt><trkpt lat="45.8594123" lon="9.691057"><ele>887.0000000000001</ele><time>2026-03-28T09:22:23.114Z</time></trkpt><trkpt lat="45.8594749" lon="9.6910146"><ele>887.0</ele><time>2026-03-28T09:22:25.115Z</time></trkpt><trkpt lat="45.8595399" lon="9.6909591"><ele>880.8</ele><time>2026-03-28T09:22:27.114Z</time></trkpt><trkpt lat="45.8596059" lon="9.6908835"><ele>874.6</ele><time>2026-03-28T09:22:29.114Z</time></trkpt><trkpt lat="45.859693" lon="9.6907644"><ele>868.3999999999999</ele><time>2026-03-28T09:22:31.115Z</time></trkpt><trkpt lat="45.8597741" lon="9.6907208"><ele>862.1999999999999</ele><time>2026-03-28T09:22:33.115Z</time></trkpt><trkpt lat="45.8598543" lon="9.6907189"><ele>856.0</ele><time>2026-03-28T09:22:35.115Z</time></trkpt><trkpt lat="45.8599435" lon="9.6907322"><ele>855.9999999999999</ele><time>2026-03-28T09:22:37.115Z</time></trkpt><trkpt lat="45.8600383" lon="9.6907762"><ele>856.0</ele><time>2026-03-28T09:22:39.115Z</time></trkpt><trkpt lat="45.8601268" lon="9.6907835"><ele>856.0</ele><time>2026-03-28T09:22:41.114Z</time></trkpt><trkpt lat="45.8601984" lon="9.6907238"><ele>856.0</ele><time>2026-03-28T09:22:44.115Z</time></trkpt><trkpt lat="45.8602854" lon="9.6907135"><ele>855.9999999999999</ele><time>2026-03-28T09:22:47.115Z</time></trkpt><trkpt lat="45.8603471" lon="9.6907545"><ele>856.0</ele><time>2026-03-28T09:22:49.115Z</time></trkpt><trkpt lat="45.860427" lon="9.6908057"><ele>853.3333333333333</ele><time>2026-03-28T09:22:52.114Z</time></trkpt><trkpt lat="45.8604854" lon="9.6908398"><ele>850.6666666666666</ele><time>2026-03-28T09:22:54.115Z</time></trkpt><trkpt lat="45.8605664" lon="9.6908607"><ele>848.0</ele><time>2026-03-28T09:22:56.114Z</time></trkpt><trkpt lat="45.8606442" lon="9.6907973"><ele>845.3333333333333</ele><time>2026-03-28T09:22:58.115Z</time></trkpt><trkpt lat="45.8607209" lon="9.6907098"><ele>842.6666666666666</ele><time>2026-03-28T09:23:01.114Z</time></trkpt><trkpt lat="45.860796" lon="9.6906194"><ele>840.0</ele><time>2026-03-28T09:23:03.114Z</time></trkpt><trkpt lat="45.8608616" lon="9.690538"><ele>840.0</ele><time>2026-03-28T09:23:05.115Z</time></trkpt><trkpt lat="45.8609088" lon="9.690458"><ele>840.0</ele><time>2026-03-28T09:23:07.115Z</time></trkpt><trkpt lat="45.8609588" lon="9.690382"><ele>840.0</ele><time>2026-03-28T09:23:09.115Z</time></trkpt><trkpt lat="45.8610261" lon="9.6903502"><ele>840.0</ele><time>2026-03-28T09:23:12.114Z</time></trkpt><trkpt lat="45.8610841" lon="9.6904053"><ele>840.0</ele><time>2026-03-28T09:23:15.114Z</time></trkpt><trkpt lat="45.8611311" lon="9.6904913"><ele>840.0</ele><time>2026-03-28T09:23:18.115Z</time></trkpt><trkpt lat="45.8611774" lon="9.6905545"><ele>840.0</ele><time>2026-03-28T09:23:21.114Z</time></trkpt><trkpt lat="45.8612284" lon="9.6906288"><ele>836.0</ele><time>2026-03-28T09:23:26.114Z</time></trkpt><trkpt lat="45.8613254" lon="9.6906143"><ele>832.0</ele><time>2026-03-28T09:23:29.115Z</time></trkpt><trkpt lat="45.8614294" lon="9.6905711"><ele>828.0</ele><time>2026-03-28T09:24:00.115Z</time></trkpt><trkpt lat="45.8615182" lon="9.6905789"><ele>824.0</ele><time>2026-03-28T09:24:03.115Z</time></trkpt><trkpt lat="45.8615827" lon="9.6905903"><ele>820.0</ele><time>2026-03-28T09:24:05.115Z</time></trkpt><trkpt lat="45.861653" lon="9.6905772"><ele>816.0</ele><time>2026-03-28T09:24:07.115Z</time></trkpt><trkpt lat="45.8617174" lon="9.6905483"><ele>816.0</ele><time>2026-03-28T09:24:09.115Z</time></trkpt><trkpt lat="45.8617817" lon="9.6904682"><ele>816.0</ele><time>2026-03-28T09:24:12.115Z</time></trkpt><trkpt lat="45.8618623" lon="9.6904354"><ele>816.0</ele><time>2026-03-28T09:24:15.115Z</time></trkpt><trkpt lat="45.8619255" lon="9.6904293"><ele>816.0</ele><time>2026-03-28T09:24:17.115Z</time></trkpt><trkpt lat="45.8619855" lon="9.6904664"><ele>816.0</ele><time>2026-03-28T09:24:19.115Z</time></trkpt><trkpt lat="45.8620448" lon="9.6905393"><ele>816.0</ele><time>2026-03-28T09:24:22.115Z</time></trkpt><trkpt lat="45.8620945" lon="9.6906182"><ele>808.1666666666666</ele><time>2026-03-28T09:24:25.115Z</time></trkpt><trkpt lat="45.8621563" lon="9.6907158"><ele>800.3333333333333</ele><time>2026-03-28T09:24:28.114Z</time></trkpt><trkpt lat="45.8621963" lon="9.6908074"><ele>792.5</ele><time>2026-03-28T09:24:30.115Z</time></trkpt><trkpt lat="45.8622576" lon="9.6907346"><ele>784.6666666666666</ele><time>2026-03-28T09:24:38.115Z</time></trkpt><trkpt lat="45.8622538" lon="9.6906232"><ele>776.8333333333333</ele><time>2026-03-28T09:24:41.115Z</time></trkpt><trkpt lat="45.8622456" lon="9.6904934"><ele>769.0</ele><time>2026-03-28T09:24:44.115Z</time></trkpt><trkpt lat="45.8622471" lon="9.6903769"><ele>768.9999999999999</ele><time>2026-03-28T09:24:47.114Z</time></trkpt><trkpt lat="45.8622711" lon="9.6902513"><ele>769.0</ele><time>2026-03-28T09:24:50.114Z</time></trkpt><trkpt lat="45.8623312" lon="9.6901163"><ele>769.0</ele><time>2026-03-28T09:25:20.115Z</time></trkpt><trkpt lat="45.8623729" lon="9.6900292"><ele>769.0</ele><time>2026-03-28T09:25:24.115Z</time></trkpt><trkpt lat="45.8624319" lon="9.690089"><ele>768.9999999999999</ele><time>2026-03-28T09:25:27.114Z</time></trkpt><trkpt lat="45.862467" lon="9.690172"><ele>769.0</ele><time>2026-03-28T09:25:29.115Z</time></trkpt><trkpt lat="45.8624994" lon="9.690282"><ele>768.9999999999999</ele><time>2026-03-28T09:25:32.115Z</time></trkpt><trkpt lat="45.8625355" lon="9.6903577"><ele>769.0</ele><time>2026-03-28T09:25:36.115Z</time></trkpt><trkpt lat="45.8625997" lon="9.690431"><ele>769.0</ele><time>2026-03-28T09:25:39.115Z</time></trkpt><trkpt lat="45.8626615" lon="9.6905368"><ele>769.0</ele><time>2026-03-28T09:25:41.114Z</time></trkpt><trkpt lat="45.8627049" lon="9.6906175"><ele>768.9999999999999</ele><time>2026-03-28T09:25:42.115Z</time></trkpt><trkpt lat="45.8627493" lon="9.6907056"><ele>769.0</ele><time>2026-03-28T09:25:43.114Z</time></trkpt><trkpt lat="45.862793" lon="9.6907923"><ele>760.8333333333333</ele><time>2026-03-28T09:25:44.115Z</time></trkpt><trkpt lat="45.8628326" lon="9.690883"><ele>752.6666666666666</ele><time>2026-03-28T09:25:45.114Z</time></trkpt><trkpt lat="45.8628728" lon="9.690972"><ele>744.5</ele><time>2026-03-28T09:25:46.115Z</time></trkpt><trkpt lat="45.8629137" lon="9.6910571"><ele>736.3333333333333</ele><time>2026-03-28T09:25:47.115Z</time></trkpt><trkpt lat="45.8629501" lon="9.6911373"><ele>728.1666666666666</ele><time>2026-03-28T09:25:48.114Z</time></trkpt><trkpt lat="45.8630176" lon="9.6913167"><ele>720.0</ele><time>2026-03-28T09:25:50.114Z</time></trkpt><trkpt lat="45.8630567" lon="9.6914242"><ele>720.0</ele><time>2026-03-28T09:25:51.115Z</time></trkpt><trkpt lat="45.8631001" lon="9.6915377"><ele>720.0</ele><time>2026-03-28T09:25:52.114Z</time></trkpt><trkpt lat="45.8631399" lon="9.6916403"><ele>720.0</ele><time>2026-03-28T09:25:53.114Z</time></trkpt><trkpt lat="45.8631821" lon="9.6917376"><ele>720.0</ele><time>2026-03-28T09:25:54.115Z</time></trkpt><trkpt lat="45.8632264" lon="9.6918205"><ele>720.0</ele><time>2026-03-28T09:25:55.115Z</time></trkpt><trkpt lat="45.863271" lon="9.6918977"><ele>720.0</ele><time>2026-03-28T09:25:56.115Z</time></trkpt><trkpt lat="45.8633155" lon="9.6919707"><ele>722.2857142857142</ele><time>2026-03-28T09:25:57.115Z</time></trkpt><trkpt lat="45.863359" lon="9.6920371"><ele>724.5714285714287</ele><time>2026-03-28T09:25:58.114Z</time></trkpt><trkpt lat="45.8634136" lon="9.6921315"><ele>726.8571428571429</ele><time>2026-03-28T09:26:00.114Z</time></trkpt><trkpt lat="45.8634801" lon="9.6922417"><ele>729.1428571428571</ele><time>2026-03-28T09:26:02.115Z</time></trkpt><trkpt lat="45.8635273" lon="9.6923032"><ele>731.4285714285713</ele><time>2026-03-28T09:26:03.114Z</time></trkpt><trkpt lat="45.8635769" lon="9.6923725"><ele>733.7142857142858</ele><time>2026-03-28T09:26:04.114Z</time></trkpt><trkpt lat="45.8636221" lon="9.6924388"><ele>736.0</ele><time>2026-03-28T09:26:05.114Z</time></trkpt><trkpt lat="45.8636676" lon="9.6925146"><ele>733.1428571428572</ele><time>2026-03-28T09:26:06.115Z</time></trkpt><trkpt lat="45.8637229" lon="9.6925735"><ele>730.2857142857142</ele><time>2026-03-28T09:26:07.114Z</time></trkpt><trkpt lat="45.8637748" lon="9.6926388"><ele>727.4285714285714</ele><time>2026-03-28T09:26:08.114Z</time></trkpt><trkpt lat="45.86382" lon="9.6927165"><ele>724.5714285714287</ele><time>2026-03-28T09:26:09.115Z</time></trkpt><trkpt lat="45.8638551" lon="9.6928024"><ele>721.7142857142858</ele><time>2026-03-28T09:26:10.115Z</time></trkpt><trkpt lat="45.8638907" lon="9.6928869"><ele>718.8571428571429</ele><time>2026-03-28T09:26:11.114Z</time></trkpt><trkpt lat="45.8639276" lon="9.6929718"><ele>716.0</ele><time>2026-03-28T09:26:12.114Z</time></trkpt><trkpt lat="45.8639741" lon="9.693038"><ele>716.0</ele><time>2026-03-28T09:26:13.114Z</time></trkpt><trkpt lat="45.8640805" lon="9.6931219"><ele>716.0</ele><time>2026-03-28T09:26:15.115Z</time></trkpt><trkpt lat="45.8641909" lon="9.6931586"><ele>716.0</ele><time>2026-03-28T09:26:17.115Z</time></trkpt><trkpt lat="45.8642923" lon="9.6931154"><ele>716.0</ele><time>2026-03-28T09:26:19.115Z</time></trkpt><trkpt lat="45.8643812" lon="9.6930578"><ele>716.0</ele><time>2026-03-28T09:26:21.115Z</time></trkpt><trkpt lat="45.864441" lon="9.6929893"><ele>713.0</ele><time>2026-03-28T09:26:23.115Z</time></trkpt><trkpt lat="45.8644963" lon="9.6929406"><ele>710.0</ele><time>2026-03-28T09:26:26.115Z</time></trkpt><trkpt lat="45.864548" lon="9.6930056"><ele>707.0</ele><time>2026-03-28T09:26:28.114Z</time></trkpt><trkpt lat="45.864618" lon="9.6930042"><ele>704.0</ele><time>2026-03-28T09:26:30.114Z</time></trkpt><trkpt lat="45.8646668" lon="9.6928732"><ele>701.0</ele><time>2026-03-28T09:26:32.115Z</time></trkpt><trkpt lat="45.8647146" lon="9.6927204"><ele>698.0</ele><time>2026-03-28T09:26:34.114Z</time></trkpt><trkpt lat="45.8648154" lon="9.6926063"><ele>695.1666666666666</ele><time>2026-03-28T09:26:36.114Z</time></trkpt><trkpt lat="45.8648822" lon="9.6925543"><ele>692.3333333333333</ele><time>2026-03-28T09:26:37.114Z</time></trkpt><trkpt lat="45.8649518" lon="9.6925022"><ele>689.5</ele><time>2026-03-28T09:26:38.115Z</time></trkpt><trkpt lat="45.8650194" lon="9.6924562"><ele>686.6666666666666</ele><time>2026-03-28T09:26:39.114Z</time></trkpt><trkpt lat="45.8650822" lon="9.692424"><ele>683.8333333333334</ele><time>2026-03-28T09:26:40.115Z</time></trkpt><trkpt lat="45.8651922" lon="9.6924044"><ele>681.0</ele><time>2026-03-28T09:26:42.114Z</time></trkpt><trkpt lat="45.8653082" lon="9.6924489"><ele>679.8</ele><time>2026-03-28T09:26:44.115Z</time></trkpt><trkpt lat="45.865368" lon="9.6924791"><ele>678.5999999999999</ele><time>2026-03-28T09:26:45.114Z</time></trkpt><trkpt lat="45.8654823" lon="9.6925406"><ele>677.4</ele><time>2026-03-28T09:26:47.114Z</time></trkpt><trkpt lat="45.8655987" lon="9.6925943"><ele>676.2</ele><time>2026-03-28T09:26:49.115Z</time></trkpt><trkpt lat="45.8657092" lon="9.6926316"><ele>675.0</ele><time>2026-03-28T09:26:51.115Z</time></trkpt><trkpt lat="45.8658163" lon="9.6926428"><ele>675.0</ele><time>2026-03-28T09:26:53.115Z</time></trkpt><trkpt lat="45.8659174" lon="9.6926802"><ele>675.0</ele><time>2026-03-28T09:26:55.115Z</time></trkpt><trkpt lat="45.8659995" lon="9.6927132"><ele>675.0</ele><time>2026-03-28T09:26:57.115Z</time></trkpt><trkpt lat="45.86609" lon="9.6928087"><ele>675.0</ele><time>2026-03-28T09:26:59.114Z</time></trkpt><trkpt lat="45.866143" lon="9.6929287"><ele>675.0</ele><time>2026-03-28T09:27:00.115Z</time></trkpt><trkpt lat="45.8661894" lon="9.6930736"><ele>674.2</ele><time>2026-03-28T09:27:01.114Z</time></trkpt><trkpt lat="45.8662365" lon="9.6932469"><ele>673.4</ele><time>2026-03-28T09:27:02.114Z</time></trkpt><trkpt lat="45.8662676" lon="9.6934134"><ele>672.5999999999999</ele><time>2026-03-28T09:27:03.115Z</time></trkpt><trkpt lat="45.8662875" lon="9.6935579"><ele>671.8</ele><time>2026-03-28T09:27:04.115Z</time></trkpt><trkpt lat="45.8663248" lon="9.6936597"><ele>671.0</ele><time>2026-03-28T09:27:05.115Z</time></trkpt><trkpt lat="45.8663801" lon="9.6937123"><ele>671.0</ele><time>2026-03-28T09:27:06.115Z</time></trkpt><trkpt lat="45.8664546" lon="9.6937116"><ele>671.0</ele><time>2026-03-28T09:27:07.115Z</time></trkpt><trkpt lat="45.866537" lon="9.6936544"><ele>671.0</ele><time>2026-03-28T09:27:08.114Z</time></trkpt><trkpt lat="45.8666179" lon="9.6935886"><ele>671.0</ele><time>2026-03-28T09:27:09.115Z</time></trkpt><trkpt lat="45.8667" lon="9.6935627"><ele>671.0</ele><time>2026-03-28T09:27:10.114Z</time></trkpt><trkpt lat="45.8667801" lon="9.6935745"><ele>671.0</ele><time>2026-03-28T09:27:11.115Z</time></trkpt><trkpt lat="45.8668677" lon="9.6936133"><ele>669.8333333333333</ele><time>2026-03-28T09:27:12.115Z</time></trkpt><trkpt lat="45.8669626" lon="9.6936579"><ele>668.6666666666666</ele><time>2026-03-28T09:27:13.115Z</time></trkpt><trkpt lat="45.8670618" lon="9.6937035"><ele>667.5</ele><time>2026-03-28T09:27:14.115Z</time></trkpt><trkpt lat="45.8671423" lon="9.6937346"><ele>666.3333333333334</ele><time>2026-03-28T09:27:15.115Z</time></trkpt><trkpt lat="45.867204" lon="9.693783"><ele>665.1666666666667</ele><time>2026-03-28T09:27:16.115Z</time></trkpt><trkpt lat="45.867243" lon="9.6938726"><ele>664.0</ele><time>2026-03-28T09:27:17.115Z</time></trkpt><trkpt lat="45.867276" lon="9.6939986"><ele>664.0</ele><time>2026-03-28T09:27:18.115Z</time></trkpt><trkpt lat="45.8673075" lon="9.6941209"><ele>664.0</ele><time>2026-03-28T09:27:19.115Z</time></trkpt><trkpt lat="45.8673593" lon="9.6942251"><ele>664.0</ele><time>2026-03-28T09:27:20.114Z</time></trkpt><trkpt lat="45.867408" lon="9.6943027"><ele>664.0</ele><time>2026-03-28T09:27:21.115Z</time></trkpt><trkpt lat="45.8674391" lon="9.6944602"><ele>664.0</ele><time>2026-03-28T09:27:23.114Z</time></trkpt><trkpt lat="45.8674206" lon="9.6946644"><ele>664.5</ele><time>2026-03-28T09:27:25.114Z</time></trkpt><trkpt lat="45.8674113" lon="9.6947897"><ele>665.0</ele><time>2026-03-28T09:27:26.115Z</time></trkpt><trkpt lat="45.8674425" lon="9.6948976"><ele>665.5</ele><time>2026-03-28T09:27:27.115Z</time></trkpt><trkpt lat="45.8675025" lon="9.6949849"><ele>666.0</ele><time>2026-03-28T09:27:28.115Z</time></trkpt><trkpt lat="45.8675571" lon="9.6950735"><ele>666.5</ele><time>2026-03-28T09:27:29.114Z</time></trkpt><trkpt lat="45.8675928" lon="9.6951716"><ele>667.0</ele><time>2026-03-28T09:27:30.115Z</time></trkpt><trkpt lat="45.8676141" lon="9.6952826"><ele>667.0</ele><time>2026-03-28T09:27:31.115Z</time></trkpt><trkpt lat="45.8676261" lon="9.6953959"><ele>667.0</ele><time>2026-03-28T09:27:32.115Z</time></trkpt><trkpt lat="45.8676334" lon="9.6955049"><ele>667.0</ele><time>2026-03-28T09:27:33.115Z</time></trkpt><trkpt lat="45.8676369" lon="9.6956124"><ele>667.0</ele><time>2026-03-28T09:27:34.114Z</time></trkpt><trkpt lat="45.8676473" lon="9.6957141"><ele>667.0</ele><time>2026-03-28T09:27:35.114Z</time></trkpt><trkpt lat="45.8676836" lon="9.6958083"><ele>667.0</ele><time>2026-03-28T09:27:36.114Z</time></trkpt><trkpt lat="45.8677385" lon="9.695883"><ele>667.0</ele><time>2026-03-28T09:27:37.115Z</time></trkpt><trkpt lat="45.8678052" lon="9.6959266"><ele>667.0</ele><time>2026-03-28T09:27:38.114Z</time></trkpt><trkpt lat="45.8678779" lon="9.6959402"><ele>667.0</ele><time>2026-03-28T09:27:39.114Z</time></trkpt><trkpt lat="45.8679544" lon="9.6959081"><ele>667.0</ele><time>2026-03-28T09:27:40.114Z</time></trkpt><trkpt lat="45.868029" lon="9.6958599"><ele>667.0</ele><time>2026-03-28T09:27:41.115Z</time></trkpt><trkpt lat="45.8680929" lon="9.695817"><ele>667.0</ele><time>2026-03-28T09:27:42.115Z</time></trkpt><trkpt lat="45.8681783" lon="9.6957564"><ele>667.0</ele><time>2026-03-28T09:27:44.115Z</time></trkpt><trkpt lat="45.8682203" lon="9.6955963"><ele>667.0</ele><time>2026-03-28T09:27:48.115Z</time></trkpt><trkpt lat="45.8682527" lon="9.6954726"><ele>667.0</ele><time>2026-03-28T09:27:49.115Z</time></trkpt><trkpt lat="45.8683088" lon="9.6953365"><ele>667.0</ele><time>2026-03-28T09:27:50.115Z</time></trkpt><trkpt lat="45.8683622" lon="9.6951715"><ele>667.0</ele><time>2026-03-28T09:27:51.115Z</time></trkpt><trkpt lat="45.8683841" lon="9.6949716"><ele>666.75</ele><time>2026-03-28T09:27:52.115Z</time></trkpt><trkpt lat="45.8683841" lon="9.694768"><ele>666.5</ele><time>2026-03-28T09:27:53.114Z</time></trkpt><trkpt lat="45.8683936" lon="9.694568"><ele>666.25</ele><time>2026-03-28T09:27:54.115Z</time></trkpt><trkpt lat="45.8684277" lon="9.6943821"><ele>666.0</ele><time>2026-03-28T09:27:55.114Z</time></trkpt><trkpt lat="45.8684679" lon="9.6942024"><ele>666.0</ele><time>2026-03-28T09:27:56.115Z</time></trkpt><trkpt lat="45.8684767" lon="9.6940284"><ele>666.0</ele><time>2026-03-28T09:27:57.115Z</time></trkpt><trkpt lat="45.868438" lon="9.6938584"><ele>666.0</ele><time>2026-03-28T09:27:58.115Z</time></trkpt><trkpt lat="45.8683641" lon="9.6936837"><ele>666.0</ele><time>2026-03-28T09:27:59.115Z</time></trkpt><trkpt lat="45.8682879" lon="9.6935108"><ele>662.75</ele><time>2026-03-28T09:28:00.115Z</time></trkpt><trkpt lat="45.8682246" lon="9.6933335"><ele>659.5</ele><time>2026-03-28T09:28:01.114Z</time></trkpt><trkpt lat="45.8681696" lon="9.6931598"><ele>656.25</ele><time>2026-03-28T09:28:02.115Z</time></trkpt><trkpt lat="45.8681126" lon="9.6929924"><ele>653.0</ele><time>2026-03-28T09:28:03.115Z</time></trkpt><trkpt lat="45.8680501" lon="9.6928447"><ele>657.5999999999999</ele><time>2026-03-28T09:28:04.115Z</time></trkpt><trkpt lat="45.8679638" lon="9.6927396"><ele>662.1999999999999</ele><time>2026-03-28T09:28:05.114Z</time></trkpt><trkpt lat="45.867871" lon="9.6926653"><ele>666.8</ele><time>2026-03-28T09:28:06.115Z</time></trkpt><trkpt lat="45.8678004" lon="9.69258"><ele>671.4</ele><time>2026-03-28T09:28:07.114Z</time></trkpt><trkpt lat="45.867746" lon="9.6924295"><ele>676.0</ele><time>2026-03-28T09:28:08.115Z</time></trkpt><trkpt lat="45.8676926" lon="9.6922798"><ele>676.0</ele><time>2026-03-28T09:28:09.114Z</time></trkpt><trkpt lat="45.8676491" lon="9.6921637"><ele>676.0</ele><time>2026-03-28T09:28:10.114Z</time></trkpt><trkpt lat="45.8676105" lon="9.6920696"><ele>676.0</ele><time>2026-03-28T09:28:11.114Z</time></trkpt><trkpt lat="45.8676192" lon="9.6919706"><ele>676.0</ele><time>2026-03-28T09:28:12.115Z</time></trkpt><trkpt lat="45.8676598" lon="9.6918537"><ele>676.0</ele><time>2026-03-28T09:28:13.115Z</time></trkpt><trkpt lat="45.8677057" lon="9.6917367"><ele>676.0</ele><time>2026-03-28T09:28:14.115Z</time></trkpt><trkpt lat="45.8677499" lon="9.69165"><ele>677.5</ele><time>2026-03-28T09:28:15.115Z</time></trkpt><trkpt lat="45.8677547" lon="9.691558"><ele>679.0</ele><time>2026-03-28T09:28:17.114Z</time></trkpt><trkpt lat="45.8676643" lon="9.6915837"><ele>680.5</ele><time>2026-03-28T09:28:19.115Z</time></trkpt><trkpt lat="45.8675918" lon="9.6916001"><ele>682.0</ele><time>2026-03-28T09:28:20.114Z</time></trkpt><trkpt lat="45.8675007" lon="9.691597"><ele>683.5</ele><time>2026-03-28T09:28:21.114Z</time></trkpt><trkpt lat="45.867425" lon="9.6915439"><ele>685.0</ele><time>2026-03-28T09:28:22.114Z</time></trkpt><trkpt lat="45.8673697" lon="9.6914412"><ele>681.25</ele><time>2026-03-28T09:28:23.115Z</time></trkpt><trkpt lat="45.8673263" lon="9.6913139"><ele>677.5</ele><time>2026-03-28T09:28:24.115Z</time></trkpt><trkpt lat="45.8672963" lon="9.6911538"><ele>673.75</ele><time>2026-03-28T09:28:25.115Z</time></trkpt><trkpt lat="45.8672686" lon="9.6909668"><ele>670.0</ele><time>2026-03-28T09:28:26.114Z</time></trkpt><trkpt lat="45.8672338" lon="9.6907866"><ele>670.0</ele><time>2026-03-28T09:28:27.115Z</time></trkpt><trkpt lat="45.8671996" lon="9.6906183"><ele>670.0</ele><time>2026-03-28T09:28:28.115Z</time></trkpt><trkpt lat="45.8671785" lon="9.6904604"><ele>670.0</ele><time>2026-03-28T09:28:29.114Z</time></trkpt><trkpt lat="45.8671811" lon="9.6903048"><ele>670.0</ele><time>2026-03-28T09:28:30.115Z</time></trkpt><trkpt lat="45.8672015" lon="9.6901438"><ele>671.0</ele><time>2026-03-28T09:28:31.115Z</time></trkpt><trkpt lat="45.8672319" lon="9.6899693"><ele>672.0</ele><time>2026-03-28T09:28:32.115Z</time></trkpt><trkpt lat="45.8672696" lon="9.689806"><ele>673.0</ele><time>2026-03-28T09:28:33.114Z</time></trkpt><trkpt lat="45.8672945" lon="9.6896668"><ele>674.0</ele><time>2026-03-28T09:28:34.115Z</time></trkpt><trkpt lat="45.8672978" lon="9.689549"><ele>675.0</ele><time>2026-03-28T09:28:35.114Z</time></trkpt><trkpt lat="45.8673057" lon="9.6894264"><ele>674.8</ele><time>2026-03-28T09:28:36.115Z</time></trkpt><trkpt lat="45.8673282" lon="9.6893046"><ele>674.6</ele><time>2026-03-28T09:28:37.114Z</time></trkpt><trkpt lat="45.8673662" lon="9.6891738"><ele>674.4000000000001</ele><time>2026-03-28T09:28:38.115Z</time></trkpt><trkpt lat="45.8674188" lon="9.6890487"><ele>674.2</ele><time>2026-03-28T09:28:39.115Z</time></trkpt><trkpt lat="45.867478" lon="9.6889474"><ele>674.0</ele><time>2026-03-28T09:28:40.114Z</time></trkpt><trkpt lat="45.8675384" lon="9.6888681"><ele>674.0</ele><time>2026-03-28T09:28:41.115Z</time></trkpt><trkpt lat="45.8675984" lon="9.6888345"><ele>674.0</ele><time>2026-03-28T09:28:42.115Z</time></trkpt><trkpt lat="45.8676698" lon="9.6888435"><ele>674.0</ele><time>2026-03-28T09:28:43.115Z</time></trkpt><trkpt lat="45.8677501" lon="9.6888964"><ele>674.0</ele><time>2026-03-28T09:28:44.115Z</time></trkpt><trkpt lat="45.8678386" lon="9.6889765"><ele>674.0</ele><time>2026-03-28T09:28:45.115Z</time></trkpt><trkpt lat="45.8679305" lon="9.6890715"><ele>674.0</ele><time>2026-03-28T09:28:46.115Z</time></trkpt><trkpt lat="45.8680111" lon="9.6891702"><ele>676.0</ele><time>2026-03-28T09:28:47.115Z</time></trkpt><trkpt lat="45.868078" lon="9.68926"><ele>678.0</ele><time>2026-03-28T09:28:48.115Z</time></trkpt><trkpt lat="45.8681447" lon="9.6893199"><ele>680.0</ele><time>2026-03-28T09:28:49.115Z</time></trkpt><trkpt lat="45.8682538" lon="9.6893387"><ele>682.0</ele><time>2026-03-28T09:28:51.115Z</time></trkpt><trkpt lat="45.8683173" lon="9.6892885"><ele>684.0</ele><time>2026-03-28T09:28:52.114Z</time></trkpt><trkpt lat="45.8683793" lon="9.6892558"><ele>686.0</ele><time>2026-03-28T09:28:53.115Z</time></trkpt><trkpt lat="45.8684577" lon="9.6892055"><ele>694.0</ele><time>2026-03-28T09:28:54.115Z</time></trkpt><trkpt lat="45.8685709" lon="9.6891201"><ele>702.0</ele><time>2026-03-28T09:28:55.114Z</time></trkpt><trkpt lat="45.8686935" lon="9.6890412"><ele>710.0</ele><time>2026-03-28T09:28:56.115Z</time></trkpt><trkpt lat="45.8688073" lon="9.6889829"><ele>718.0</ele><time>2026-03-28T09:28:57.114Z</time></trkpt><trkpt lat="45.8689011" lon="9.6889444"><ele>718.0</ele><time>2026-03-28T09:28:58.115Z</time></trkpt><trkpt lat="45.8689885" lon="9.6888917"><ele>718.0</ele><time>2026-03-28T09:28:59.115Z</time></trkpt><trkpt lat="45.8690709" lon="9.6888137"><ele>718.0</ele><time>2026-03-28T09:29:00.114Z</time></trkpt><trkpt lat="45.8691401" lon="9.688729"><ele>718.0</ele><time>2026-03-28T09:29:01.115Z</time></trkpt><trkpt lat="45.8692104" lon="9.6886445"><ele>718.0</ele><time>2026-03-28T09:29:02.115Z</time></trkpt><trkpt lat="45.8692795" lon="9.6885633"><ele>721.3333333333334</ele><time>2026-03-28T09:29:03.115Z</time></trkpt><trkpt lat="45.8693497" lon="9.6885005"><ele>724.6666666666667</ele><time>2026-03-28T09:29:04.115Z</time></trkpt><trkpt lat="45.8694" lon="9.6884257"><ele>728.0</ele><time>2026-03-28T09:29:05.115Z</time></trkpt><trkpt lat="45.8694161" lon="9.6883281"><ele>731.3333333333334</ele><time>2026-03-28T09:29:07.114Z</time></trkpt><trkpt lat="45.8693423" lon="9.6882243"><ele>734.6666666666666</ele><time>2026-03-28T09:29:09.115Z</time></trkpt><trkpt lat="45.8693154" lon="9.6881346"><ele>738.0</ele><time>2026-03-28T09:29:10.115Z</time></trkpt><trkpt lat="45.8692926" lon="9.6880129"><ele>738.0</ele><time>2026-03-28T09:29:12.114Z</time></trkpt><trkpt lat="45.8693285" lon="9.6879346"><ele>738.0</ele><time>2026-03-28T09:29:13.115Z</time></trkpt><trkpt lat="45.8693916" lon="9.6878631"><ele>738.0</ele><time>2026-03-28T09:29:14.115Z</time></trkpt><trkpt lat="45.8694572" lon="9.6878096"><ele>738.0</ele><time>2026-03-28T09:29:15.115Z</time></trkpt><trkpt lat="45.8695293" lon="9.6877696"><ele>738.0</ele><time>2026-03-28T09:29:16.114Z</time></trkpt><trkpt lat="45.8696266" lon="9.6877307"><ele>738.0</ele><time>2026-03-28T09:29:17.114Z</time></trkpt><trkpt lat="45.8697407" lon="9.6876969"><ele>737.5999999999999</ele><time>2026-03-28T09:29:18.114Z</time></trkpt><trkpt lat="45.8698512" lon="9.6876646"><ele>737.1999999999999</ele><time>2026-03-28T09:29:19.114Z</time></trkpt><trkpt lat="45.8699607" lon="9.6876414"><ele>736.8</ele><time>2026-03-28T09:29:20.115Z</time></trkpt><trkpt lat="45.8700655" lon="9.6876174"><ele>736.4</ele><time>2026-03-28T09:29:21.115Z</time></trkpt><trkpt lat="45.8701497" lon="9.6875809"><ele>736.0</ele><time>2026-03-28T09:29:22.115Z</time></trkpt><trkpt lat="45.8702214" lon="9.6875156"><ele>736.0</ele><time>2026-03-28T09:29:23.115Z</time></trkpt><trkpt lat="45.8702777" lon="9.6874421"><ele>736.0</ele><time>2026-03-28T09:29:24.115Z</time></trkpt><trkpt lat="45.8703292" lon="9.6873595"><ele>736.0</ele><time>2026-03-28T09:29:26.115Z</time></trkpt><trkpt lat="45.8703115" lon="9.6872505"><ele>736.0</ele><time>2026-03-28T09:29:28.114Z</time></trkpt><trkpt lat="45.8702785" lon="9.6871056"><ele>736.0</ele><time>2026-03-28T09:29:30.114Z</time></trkpt><trkpt lat="45.8702184" lon="9.6870285"><ele>736.0</ele><time>2026-03-28T09:29:32.115Z</time></trkpt><trkpt lat="45.8701351" lon="9.6870534"><ele>733.1666666666667</ele><time>2026-03-28T09:29:34.114Z</time></trkpt><trkpt lat="45.8700725" lon="9.6870642"><ele>730.3333333333334</ele><time>2026-03-28T09:29:35.115Z</time></trkpt><trkpt lat="45.8699674" lon="9.6870205"><ele>727.5</ele><time>2026-03-28T09:29:37.115Z</time></trkpt><trkpt lat="45.8698963" lon="9.6869928"><ele>724.6666666666666</ele><time>2026-03-28T09:29:38.115Z</time></trkpt><trkpt lat="45.8698144" lon="9.686963"><ele>721.8333333333333</ele><time>2026-03-28T09:29:39.115Z</time></trkpt><trkpt lat="45.8697433" lon="9.6869409"><ele>719.0</ele><time>2026-03-28T09:29:40.114Z</time></trkpt><trkpt lat="45.8696619" lon="9.6869021"><ele>719.0</ele><time>2026-03-28T09:29:41.114Z</time></trkpt><trkpt lat="45.8695805" lon="9.6868773"><ele>719.0</ele><time>2026-03-28T09:29:42.115Z</time></trkpt><trkpt lat="45.8695025" lon="9.6868606"><ele>719.0</ele><time>2026-03-28T09:29:43.114Z</time></trkpt><trkpt lat="45.8694336" lon="9.6868285"><ele>719.0</ele><time>2026-03-28T09:29:44.115Z</time></trkpt><trkpt lat="45.8693481" lon="9.6867363"><ele>719.0</ele><time>2026-03-28T09:29:46.115Z</time></trkpt><trkpt lat="45.8692952" lon="9.6866529"><ele>719.0</ele><time>2026-03-28T09:29:47.114Z</time></trkpt><trkpt lat="45.8692548" lon="9.6864965"><ele>715.5</ele><time>2026-03-28T09:29:49.115Z</time></trkpt><trkpt lat="45.869239" lon="9.6863869"><ele>712.0</ele><time>2026-03-28T09:29:50.115Z</time></trkpt><trkpt lat="45.8692376" lon="9.6862783"><ele>708.5</ele><time>2026-03-28T09:29:51.115Z</time></trkpt><trkpt lat="45.8692472" lon="9.6861785"><ele>705.0</ele><time>2026-03-28T09:29:52.115Z</time></trkpt><trkpt lat="45.8692874" lon="9.6860167"><ele>701.5</ele><time>2026-03-28T09:29:54.115Z</time></trkpt><trkpt lat="45.8693256" lon="9.685891"><ele>698.0</ele><time>2026-03-28T09:29:56.114Z</time></trkpt><trkpt lat="45.8693416" lon="9.6858011"><ele>701.8333333333333</ele><time>2026-03-28T09:29:58.115Z</time></trkpt><trkpt lat="45.869345" lon="9.6857018"><ele>705.6666666666666</ele><time>2026-03-28T09:30:01.115Z</time></trkpt><trkpt lat="45.8692731" lon="9.6856966"><ele>709.5</ele><time>2026-03-28T09:30:09.114Z</time></trkpt><trkpt lat="45.8692964" lon="9.6856057"><ele>713.3333333333334</ele><time>2026-03-28T09:30:12.114Z</time></trkpt><trkpt lat="45.8692179" lon="9.6855641"><ele>717.1666666666667</ele><time>2026-03-28T09:30:16.115Z</time></trkpt><trkpt lat="45.8691178" lon="9.6855915"><ele>721.0</ele><time>2026-03-28T09:30:18.115Z</time></trkpt><trkpt lat="45.8690282" lon="9.6855987"><ele>721.0</ele><time>2026-03-28T09:30:20.115Z</time></trkpt><trkpt lat="45.8689498" lon="9.6856487"><ele>721.0</ele><time>2026-03-28T09:30:22.114Z</time></trkpt><trkpt lat="45.8688486" lon="9.6856526"><ele>721.0</ele><time>2026-03-28T09:30:24.114Z</time></trkpt><trkpt lat="45.8687799" lon="9.6856357"><ele>721.0</ele><time>2026-03-28T09:30:25.115Z</time></trkpt><trkpt lat="45.8687181" lon="9.68561"><ele>721.0</ele><time>2026-03-28T09:30:26.115Z</time></trkpt><trkpt lat="45.8686461" lon="9.6855628"><ele>721.0</ele><time>2026-03-28T09:30:27.115Z</time></trkpt><trkpt lat="45.8685712" lon="9.6855046"><ele>721.0</ele><time>2026-03-28T09:30:28.115Z</time></trkpt><trkpt lat="45.8684958" lon="9.6854421"><ele>721.0</ele><time>2026-03-28T09:30:29.115Z</time></trkpt><trkpt lat="45.8684283" lon="9.6853756"><ele>721.0</ele><time>2026-03-28T09:30:30.114Z</time></trkpt><trkpt lat="45.8683661" lon="9.6853051"><ele>721.0</ele><time>2026-03-28T09:30:31.115Z</time></trkpt><trkpt lat="45.8683036" lon="9.6852535"><ele>721.0</ele><time>2026-03-28T09:30:32.115Z</time></trkpt><trkpt lat="45.8681903" lon="9.6852061"><ele>721.0</ele><time>2026-03-28T09:30:34.114Z</time></trkpt><trkpt lat="45.8681177" lon="9.6852141"><ele>717.1666666666667</ele><time>2026-03-28T09:30:35.115Z</time></trkpt><trkpt lat="45.8680369" lon="9.6852142"><ele>713.3333333333334</ele><time>2026-03-28T09:30:36.115Z</time></trkpt><trkpt lat="45.8679467" lon="9.6852252"><ele>709.5</ele><time>2026-03-28T09:30:37.115Z</time></trkpt><trkpt lat="45.8678515" lon="9.6852374"><ele>705.6666666666666</ele><time>2026-03-28T09:30:38.115Z</time></trkpt><trkpt lat="45.8677659" lon="9.685245"><ele>701.8333333333333</ele><time>2026-03-28T09:30:39.115Z</time></trkpt><trkpt lat="45.8677008" lon="9.6852495"><ele>698.0</ele><time>2026-03-28T09:30:40.115Z</time></trkpt><trkpt lat="45.867573" lon="9.6852822"><ele>698.0</ele><time>2026-03-28T09:30:42.115Z</time></trkpt><trkpt lat="45.8675081" lon="9.6853188"><ele>698.0</ele><time>2026-03-28T09:30:43.115Z</time></trkpt><trkpt lat="45.8674334" lon="9.6853611"><ele>698.0</ele><time>2026-03-28T09:30:44.115Z</time></trkpt><trkpt lat="45.8673568" lon="9.685378"><ele>698.0</ele><time>2026-03-28T09:30:45.115Z</time></trkpt><trkpt lat="45.8672688" lon="9.685371"><ele>698.0</ele><time>2026-03-28T09:30:46.114Z</time></trkpt><trkpt lat="45.8671799" lon="9.6853766"><ele>698.0</ele><time>2026-03-28T09:30:47.114Z</time></trkpt><trkpt lat="45.8670974" lon="9.6853907"><ele>698.0</ele><time>2026-03-28T09:30:49.115Z</time></trkpt><trkpt lat="45.8670298" lon="9.6853863"><ele>698.0</ele><time>2026-03-28T09:30:51.115Z</time></trkpt><trkpt lat="45.8669093" lon="9.6852945"><ele>698.0</ele><time>2026-03-28T09:30:53.115Z</time></trkpt><trkpt lat="45.8668255" lon="9.685261"><ele>698.0</ele><time>2026-03-28T09:30:54.115Z</time></trkpt><trkpt lat="45.8667217" lon="9.6852331"><ele>698.0</ele><time>2026-03-28T09:30:55.115Z</time></trkpt><trkpt lat="45.8666339" lon="9.6852242"><ele>701.5999999999999</ele><time>2026-03-28T09:30:56.115Z</time></trkpt><trkpt lat="45.8665684" lon="9.6852121"><ele>705.1999999999999</ele><time>2026-03-28T09:30:57.115Z</time></trkpt><trkpt lat="45.8664959" lon="9.6851897"><ele>708.8</ele><time>2026-03-28T09:30:58.115Z</time></trkpt><trkpt lat="45.8663886" lon="9.6851023"><ele>712.4</ele><time>2026-03-28T09:31:00.114Z</time></trkpt><trkpt lat="45.8663577" lon="9.6849807"><ele>716.0</ele><time>2026-03-28T09:31:02.115Z</time></trkpt><trkpt lat="45.8664306" lon="9.6848316"><ele>716.0</ele><time>2026-03-28T09:31:04.115Z</time></trkpt><trkpt lat="45.8664931" lon="9.6847593"><ele>716.0</ele><time>2026-03-28T09:31:05.114Z</time></trkpt><trkpt lat="45.8665761" lon="9.6846815"><ele>716.0</ele><time>2026-03-28T09:31:06.115Z</time></trkpt><trkpt lat="45.8666561" lon="9.6846052"><ele>716.0</ele><time>2026-03-28T09:31:07.115Z</time></trkpt><trkpt lat="45.8667382" lon="9.6845014"><ele>716.0</ele><time>2026-03-28T09:31:08.114Z</time></trkpt><trkpt lat="45.8668104" lon="9.6843857"><ele>717.3333333333333</ele><time>2026-03-28T09:31:09.115Z</time></trkpt><trkpt lat="45.866867" lon="9.6842945"><ele>718.6666666666666</ele><time>2026-03-28T09:31:10.115Z</time></trkpt><trkpt lat="45.866925" lon="9.6842394"><ele>720.0</ele><time>2026-03-28T09:31:12.115Z</time></trkpt><trkpt lat="45.8668291" lon="9.6841628"><ele>721.3333333333334</ele><time>2026-03-28T09:31:15.115Z</time></trkpt><trkpt lat="45.8667521" lon="9.6841269"><ele>722.6666666666667</ele><time>2026-03-28T09:31:16.115Z</time></trkpt><trkpt lat="45.8666859" lon="9.6840673"><ele>724.0</ele><time>2026-03-28T09:31:17.114Z</time></trkpt><trkpt lat="45.8666315" lon="9.6839887"><ele>724.0</ele><time>2026-03-28T09:31:18.114Z</time></trkpt><trkpt lat="45.8665805" lon="9.6838871"><ele>724.0</ele><time>2026-03-28T09:31:19.114Z</time></trkpt><trkpt lat="45.8665306" lon="9.6837824"><ele>724.0</ele><time>2026-03-28T09:31:20.114Z</time></trkpt><trkpt lat="45.8664987" lon="9.6836875"><ele>724.0</ele><time>2026-03-28T09:31:21.115Z</time></trkpt><trkpt lat="45.8663854" lon="9.6835939"><ele>724.0</ele><time>2026-03-28T09:31:23.115Z</time></trkpt><trkpt lat="45.8663087" lon="9.6835453"><ele>727.0</ele><time>2026-03-28T09:31:24.115Z</time></trkpt><trkpt lat="45.866207" lon="9.6834227"><ele>730.0</ele><time>2026-03-28T09:31:26.115Z</time></trkpt><trkpt lat="45.866159" lon="9.6833406"><ele>733.0</ele><time>2026-03-28T09:31:27.115Z</time></trkpt><trkpt lat="45.8661223" lon="9.6832592"><ele>736.0</ele><time>2026-03-28T09:31:28.115Z</time></trkpt><trkpt lat="45.8660889" lon="9.683161"><ele>739.0</ele><time>2026-03-28T09:31:29.115Z</time></trkpt><trkpt lat="45.8660562" lon="9.6830418"><ele>742.0</ele><time>2026-03-28T09:31:30.115Z</time></trkpt><trkpt lat="45.8660109" lon="9.6829272"><ele>742.0</ele><time>2026-03-28T09:31:31.115Z</time></trkpt><trkpt lat="45.8659626" lon="9.6828093"><ele>742.0</ele><time>2026-03-28T09:31:32.115Z</time></trkpt><trkpt lat="45.865923" lon="9.6827043"><ele>742.0</ele><time>2026-03-28T09:31:33.115Z</time></trkpt><trkpt lat="45.8658971" lon="9.6826035"><ele>742.0</ele><time>2026-03-28T09:31:34.115Z</time></trkpt><trkpt lat="45.8658635" lon="9.6824913"><ele>742.0</ele><time>2026-03-28T09:31:35.115Z</time></trkpt><trkpt lat="45.8658398" lon="9.6823669"><ele>742.0</ele><time>2026-03-28T09:31:36.115Z</time></trkpt><trkpt lat="45.8658063" lon="9.6822643"><ele>741.8333333333334</ele><time>2026-03-28T09:31:37.115Z</time></trkpt><trkpt lat="45.8657537" lon="9.682172"><ele>741.6666666666667</ele><time>2026-03-28T09:31:38.115Z</time></trkpt><trkpt lat="45.865695" lon="9.6820909"><ele>741.5</ele><time>2026-03-28T09:31:39.114Z</time></trkpt><trkpt lat="45.8656411" lon="9.6820006"><ele>741.3333333333334</ele><time>2026-03-28T09:31:40.115Z</time></trkpt><trkpt lat="45.8655916" lon="9.6819291"><ele>741.1666666666666</ele><time>2026-03-28T09:31:41.114Z</time></trkpt><trkpt lat="45.8655476" lon="9.6818482"><ele>741.0</ele><time>2026-03-28T09:31:42.115Z</time></trkpt><trkpt lat="45.8655021" lon="9.6817693"><ele>741.0</ele><time>2026-03-28T09:31:43.114Z</time></trkpt><trkpt lat="45.8654501" lon="9.6816883"><ele>741.0</ele><time>2026-03-28T09:31:44.115Z</time></trkpt><trkpt lat="45.8653919" lon="9.6816134"><ele>741.0</ele><time>2026-03-28T09:31:45.115Z</time></trkpt><trkpt lat="45.8653452" lon="9.6815215"><ele>741.0</ele><time>2026-03-28T09:31:46.114Z</time></trkpt><trkpt lat="45.8652958" lon="9.6814393"><ele>741.0</ele><time>2026-03-28T09:31:47.114Z</time></trkpt><trkpt lat="45.8652631" lon="9.6813581"><ele>741.0</ele><time>2026-03-28T09:31:48.115Z</time></trkpt><trkpt lat="45.8652517" lon="9.6811967"><ele>741.0</ele><time>2026-03-28T09:31:50.114Z</time></trkpt><trkpt lat="45.8652681" lon="9.6811022"><ele>741.0</ele><time>2026-03-28T09:31:51.115Z</time></trkpt><trkpt lat="45.8652936" lon="9.6810098"><ele>741.0</ele><time>2026-03-28T09:31:52.115Z</time></trkpt><trkpt lat="45.8653327" lon="9.6809105"><ele>741.0</ele><time>2026-03-28T09:31:53.115Z</time></trkpt><trkpt lat="45.8653764" lon="9.6808242"><ele>741.0</ele><time>2026-03-28T09:31:54.115Z</time></trkpt><trkpt lat="45.8654276" lon="9.6807453"><ele>741.0</ele><time>2026-03-28T09:31:55.115Z</time></trkpt><trkpt lat="45.865477" lon="9.6806742"><ele>741.0</ele><time>2026-03-28T09:31:56.115Z</time></trkpt><trkpt lat="45.8655312" lon="9.6806253"><ele>740.1999999999999</ele><time>2026-03-28T09:31:57.114Z</time></trkpt><trkpt lat="45.8656665" lon="9.680607"><ele>739.4</ele><time>2026-03-28T09:31:59.115Z</time></trkpt><trkpt lat="45.8657433" lon="9.6805909"><ele>738.6</ele><time>2026-03-28T09:32:00.115Z</time></trkpt><trkpt lat="45.8658105" lon="9.6805732"><ele>737.8</ele><time>2026-03-28T09:32:01.115Z</time></trkpt><trkpt lat="45.8659371" lon="9.6805131"><ele>737.0</ele><time>2026-03-28T09:32:03.114Z</time></trkpt><trkpt lat="45.8660138" lon="9.680484"><ele>740.2</ele><time>2026-03-28T09:32:04.114Z</time></trkpt><trkpt lat="45.8660951" lon="9.6804751"><ele>743.4000000000001</ele><time>2026-03-28T09:32:05.115Z</time></trkpt><trkpt lat="45.8661785" lon="9.6804649"><ele>746.5999999999999</ele><time>2026-03-28T09:32:06.114Z</time></trkpt><trkpt lat="45.8662449" lon="9.6804445"><ele>749.8</ele><time>2026-03-28T09:32:07.115Z</time></trkpt><trkpt lat="45.8663523" lon="9.6804478"><ele>753.0</ele><time>2026-03-28T09:32:09.115Z</time></trkpt><trkpt lat="45.8664702" lon="9.6804746"><ele>753.0</ele><time>2026-03-28T09:32:11.114Z</time></trkpt><trkpt lat="45.8665323" lon="9.6804263"><ele>753.0</ele><time>2026-03-28T09:32:12.114Z</time></trkpt><trkpt lat="45.8665801" lon="9.6802956"><ele>753.0</ele><time>2026-03-28T09:32:14.114Z</time></trkpt><trkpt lat="45.866647" lon="9.6802124"><ele>753.0</ele><time>2026-03-28T09:32:16.115Z</time></trkpt><trkpt lat="45.8667204" lon="9.6801954"><ele>753.0</ele><time>2026-03-28T09:32:17.115Z</time></trkpt><trkpt lat="45.866816" lon="9.6801439"><ele>753.0</ele><time>2026-03-28T09:32:19.115Z</time></trkpt><trkpt lat="45.8668113" lon="9.6799912"><ele>750.8333333333334</ele><time>2026-03-28T09:32:24.114Z</time></trkpt><trkpt lat="45.8667582" lon="9.6798879"><ele>748.6666666666666</ele><time>2026-03-28T09:32:25.115Z</time></trkpt><trkpt lat="45.8667064" lon="9.6797991"><ele>746.5</ele><time>2026-03-28T09:32:26.115Z</time></trkpt><trkpt lat="45.8666635" lon="9.6797285"><ele>744.3333333333333</ele><time>2026-03-28T09:32:27.114Z</time></trkpt><trkpt lat="45.8666267" lon="9.6796549"><ele>742.1666666666666</ele><time>2026-03-28T09:32:28.114Z</time></trkpt><trkpt lat="45.8666032" lon="9.6795571"><ele>740.0</ele><time>2026-03-28T09:32:29.115Z</time></trkpt><trkpt lat="45.8665707" lon="9.6794416"><ele>744.3333333333333</ele><time>2026-03-28T09:32:30.115Z</time></trkpt><trkpt lat="45.866529" lon="9.6792882"><ele>748.6666666666666</ele><time>2026-03-28T09:32:31.114Z</time></trkpt><trkpt lat="45.8664994" lon="9.6791565"><ele>753.0</ele><time>2026-03-28T09:32:32.115Z</time></trkpt><trkpt lat="45.8664822" lon="9.6790651"><ele>757.3333333333334</ele><time>2026-03-28T09:32:33.115Z</time></trkpt><trkpt lat="45.8664654" lon="9.6789731"><ele>761.6666666666667</ele><time>2026-03-28T09:32:34.115Z</time></trkpt><trkpt lat="45.8664484" lon="9.6788729"><ele>766.0</ele><time>2026-03-28T09:32:35.114Z</time></trkpt><trkpt lat="45.8664053" lon="9.6787737"><ele>766.0</ele><time>2026-03-28T09:32:36.114Z</time></trkpt><trkpt lat="45.8663458" lon="9.6786603"><ele>766.0</ele><time>2026-03-28T09:32:37.115Z</time></trkpt><trkpt lat="45.8662754" lon="9.6785506"><ele>766.0</ele><time>2026-03-28T09:32:38.115Z</time></trkpt><trkpt lat="45.8661879" lon="9.6784759"><ele>766.0</ele><time>2026-03-28T09:32:39.114Z</time></trkpt><trkpt lat="45.8660735" lon="9.678416"><ele>766.0</ele><time>2026-03-28T09:32:40.115Z</time></trkpt><trkpt lat="45.8659666" lon="9.678354"><ele>761.0</ele><time>2026-03-28T09:32:41.115Z</time></trkpt><trkpt lat="45.8658716" lon="9.6782827"><ele>756.0</ele><time>2026-03-28T09:32:42.114Z</time></trkpt><trkpt lat="45.8657962" lon="9.678199"><ele>751.0</ele><time>2026-03-28T09:32:43.115Z</time></trkpt><trkpt lat="45.865734" lon="9.6781262"><ele>746.0</ele><time>2026-03-28T09:32:44.115Z</time></trkpt><trkpt lat="45.865683" lon="9.6780626"><ele>741.0</ele><time>2026-03-28T09:32:45.115Z</time></trkpt><trkpt lat="45.8656133" lon="9.6779583"><ele>741.0</ele><time>2026-03-28T09:32:47.115Z</time></trkpt><trkpt lat="45.8656138" lon="9.6777864"><ele>741.0</ele><time>2026-03-28T09:32:49.114Z</time></trkpt><trkpt lat="45.8656105" lon="9.6776803"><ele>741.0</ele><time>2026-03-28T09:32:50.114Z</time></trkpt><trkpt lat="45.8655816" lon="9.6775685"><ele>741.0</ele><time>2026-03-28T09:32:51.114Z</time></trkpt><trkpt lat="45.865538" lon="9.6774659"><ele>741.0</ele><time>2026-03-28T09:32:52.115Z</time></trkpt><trkpt lat="45.8655023" lon="9.6773787"><ele>741.0</ele><time>2026-03-28T09:32:53.115Z</time></trkpt><trkpt lat="45.8654585" lon="9.6772904"><ele>742.5</ele><time>2026-03-28T09:32:54.115Z</time></trkpt><trkpt lat="45.8654248" lon="9.6771798"><ele>744.0</ele><time>2026-03-28T09:32:55.114Z</time></trkpt><trkpt lat="45.8654199" lon="9.6770608"><ele>745.5</ele><time>2026-03-28T09:32:56.114Z</time></trkpt><trkpt lat="45.865424" lon="9.6769464"><ele>747.0</ele><time>2026-03-28T09:32:57.115Z</time></trkpt><trkpt lat="45.8654274" lon="9.6768328"><ele>748.5</ele><time>2026-03-28T09:32:58.114Z</time></trkpt><trkpt lat="45.8654157" lon="9.6767252"><ele>750.0</ele><time>2026-03-28T09:32:59.114Z</time></trkpt><trkpt lat="45.8653917" lon="9.6766262"><ele>750.0</ele><time>2026-03-28T09:33:00.115Z</time></trkpt><trkpt lat="45.8653541" lon="9.6765308"><ele>750.0</ele><time>2026-03-28T09:33:01.114Z</time></trkpt><trkpt lat="45.8653199" lon="9.6764439"><ele>750.0</ele><time>2026-03-28T09:33:02.115Z</time></trkpt><trkpt lat="45.8653183" lon="9.676262"><ele>750.0</ele><time>2026-03-28T09:33:04.115Z</time></trkpt><trkpt lat="45.8653533" lon="9.6761431"><ele>750.0</ele><time>2026-03-28T09:33:05.115Z</time></trkpt><trkpt lat="45.8653857" lon="9.6760346"><ele>750.0</ele><time>2026-03-28T09:33:06.114Z</time></trkpt><trkpt lat="45.8654061" lon="9.6759173"><ele>751.3333333333334</ele><time>2026-03-28T09:33:07.115Z</time></trkpt><trkpt lat="45.8654034" lon="9.6758073"><ele>752.6666666666666</ele><time>2026-03-28T09:33:08.115Z</time></trkpt><trkpt lat="45.8653836" lon="9.675693"><ele>754.0</ele><time>2026-03-28T09:33:09.114Z</time></trkpt><trkpt lat="45.8653469" lon="9.6755824"><ele>755.3333333333333</ele><time>2026-03-28T09:33:10.114Z</time></trkpt><trkpt lat="45.8652941" lon="9.6754883"><ele>756.6666666666666</ele><time>2026-03-28T09:33:11.115Z</time></trkpt><trkpt lat="45.8652215" lon="9.67542"><ele>758.0</ele><time>2026-03-28T09:33:12.114Z</time></trkpt><trkpt lat="45.8651461" lon="9.675368"><ele>756.0</ele><time>2026-03-28T09:33:13.114Z</time></trkpt><trkpt lat="45.8650705" lon="9.6753255"><ele>754.0</ele><time>2026-03-28T09:33:14.115Z</time></trkpt><trkpt lat="45.8649937" lon="9.675281"><ele>752.0</ele><time>2026-03-28T09:33:15.115Z</time></trkpt><trkpt lat="45.8649205" lon="9.6752191"><ele>750.0</ele><time>2026-03-28T09:33:16.115Z</time></trkpt><trkpt lat="45.8648536" lon="9.6751535"><ele>748.0</ele><time>2026-03-28T09:33:17.115Z</time></trkpt><trkpt lat="45.8648087" lon="9.6750796"><ele>746.0</ele><time>2026-03-28T09:33:18.115Z</time></trkpt><trkpt lat="45.8647869" lon="9.6749754"><ele>746.0</ele><time>2026-03-28T09:33:19.115Z</time></trkpt><trkpt lat="45.8647747" lon="9.6748431"><ele>746.0</ele><time>2026-03-28T09:33:20.114Z</time></trkpt><trkpt lat="45.8647608" lon="9.6746806"><ele>746.0</ele><time>2026-03-28T09:33:21.114Z</time></trkpt><trkpt lat="45.8647497" lon="9.6745054"><ele>746.0</ele><time>2026-03-28T09:33:22.115Z</time></trkpt><trkpt lat="45.8647217" lon="9.6743473"><ele>746.0</ele><time>2026-03-28T09:33:23.115Z</time></trkpt><trkpt lat="45.8646863" lon="9.6741939"><ele>746.75</ele><time>2026-03-28T09:33:24.114Z</time></trkpt><trkpt lat="45.864652" lon="9.6740434"><ele>747.5</ele><time>2026-03-28T09:33:25.115Z</time></trkpt><trkpt lat="45.8646206" lon="9.6738834"><ele>748.25</ele><time>2026-03-28T09:33:26.114Z</time></trkpt><trkpt lat="45.8645894" lon="9.673729"><ele>749.0</ele><time>2026-03-28T09:33:27.115Z</time></trkpt><trkpt lat="45.8645578" lon="9.6735741"><ele>747.8000000000001</ele><time>2026-03-28T09:33:28.114Z</time></trkpt><trkpt lat="45.8645273" lon="9.6734157"><ele>746.6</ele><time>2026-03-28T09:33:29.115Z</time></trkpt><trkpt lat="45.8644951" lon="9.6732645"><ele>745.4</ele><time>2026-03-28T09:33:30.114Z</time></trkpt><trkpt lat="45.8644641" lon="9.6731226"><ele>744.2</ele><time>2026-03-28T09:33:31.114Z</time></trkpt><trkpt lat="45.8644501" lon="9.6729795"><ele>743.0</ele><time>2026-03-28T09:33:32.115Z</time></trkpt><trkpt lat="45.8644439" lon="9.6728312"><ele>741.2</ele><time>2026-03-28T09:33:33.114Z</time></trkpt><trkpt lat="45.8644192" lon="9.6726818"><ele>739.4</ele><time>2026-03-28T09:33:34.115Z</time></trkpt><trkpt lat="45.8643671" lon="9.6725562"><ele>737.6</ele><time>2026-03-28T09:33:35.115Z</time></trkpt><trkpt lat="45.8643125" lon="9.6724539"><ele>735.8000000000001</ele><time>2026-03-28T09:33:36.114Z</time></trkpt><trkpt lat="45.8642681" lon="9.6723758"><ele>734.0</ele><time>2026-03-28T09:33:37.115Z</time></trkpt><trkpt lat="45.8642651" lon="9.6722198"><ele>734.0</ele><time>2026-03-28T09:33:39.114Z</time></trkpt><trkpt lat="45.8643632" lon="9.6721181"><ele>734.0</ele><time>2026-03-28T09:33:41.114Z</time></trkpt><trkpt lat="45.8644154" lon="9.6720671"><ele>734.0</ele><time>2026-03-28T09:33:42.115Z</time></trkpt><trkpt lat="45.8644953" lon="9.6719541"><ele>734.0</ele><time>2026-03-28T09:33:44.115Z</time></trkpt><trkpt lat="45.8645355" lon="9.6718418"><ele>734.0</ele><time>2026-03-28T09:33:46.114Z</time></trkpt><trkpt lat="45.8645114" lon="9.6717031"><ele>731.8333333333333</ele><time>2026-03-28T09:33:48.115Z</time></trkpt><trkpt lat="45.8644389" lon="9.671653"><ele>729.6666666666666</ele><time>2026-03-28T09:33:50.115Z</time></trkpt><trkpt lat="45.8643779" lon="9.6716225"><ele>727.5</ele><time>2026-03-28T09:33:52.115Z</time></trkpt><trkpt lat="45.8642719" lon="9.6716254"><ele>725.3333333333334</ele><time>2026-03-28T09:34:01.115Z</time></trkpt><trkpt lat="45.8641763" lon="9.6716827"><ele>723.1666666666667</ele><time>2026-03-28T09:34:03.115Z</time></trkpt><trkpt lat="45.8641641" lon="9.6715662"><ele>721.0</ele><time>2026-03-28T09:34:06.115Z</time></trkpt><trkpt lat="45.8642637" lon="9.6715085"><ele>721.0</ele><time>2026-03-28T09:34:08.114Z</time></trkpt><trkpt lat="45.8643638" lon="9.671465"><ele>721.0</ele><time>2026-03-28T09:34:10.114Z</time></trkpt><trkpt lat="45.8644556" lon="9.6713941"><ele>721.0</ele><time>2026-03-28T09:34:12.114Z</time></trkpt><trkpt lat="45.8645344" lon="9.6713235"><ele>721.0</ele><time>2026-03-28T09:34:14.115Z</time></trkpt><trkpt lat="45.8645879" lon="9.6712488"><ele>721.0</ele><time>2026-03-28T09:34:16.115Z</time></trkpt><trkpt lat="45.8645508" lon="9.6711559"><ele>721.0</ele><time>2026-03-28T09:34:19.115Z</time></trkpt><trkpt lat="45.8645069" lon="9.671228"><ele>721.0</ele><time>2026-03-28T09:35:10.115Z</time></trkpt><trkpt lat="45.8644708" lon="9.6711538"><ele>721.0</ele><time>2026-03-28T09:53:18.115Z</time></trkpt><trkpt lat="45.8644412" lon="9.6712343"><ele>721.0</ele><time>2026-03-28T10:09:29.783Z</time></trkpt><trkpt lat="45.86451" lon="9.6712239"><ele>721.0</ele><time>2026-03-28T10:21:40.114Z</time></trkpt><trkpt lat="45.8644955" lon="9.6713172"><ele>721.0</ele><time>2026-03-28T10:22:40.114Z</time></trkpt><trkpt lat="45.8644126" lon="9.6713951"><ele>721.0</ele><time>2026-03-28T10:22:41.113Z</time></trkpt><trkpt lat="45.8643165" lon="9.6714615"><ele>719.4</ele><time>2026-03-28T10:22:42.114Z</time></trkpt><trkpt lat="45.8642159" lon="9.6715051"><ele>717.8</ele><time>2026-03-28T10:22:43.113Z</time></trkpt><trkpt lat="45.8641375" lon="9.6715329"><ele>716.1999999999999</ele><time>2026-03-28T10:22:44.113Z</time></trkpt><trkpt lat="45.8640739" lon="9.6715573"><ele>714.5999999999999</ele><time>2026-03-28T10:22:46.114Z</time></trkpt><trkpt lat="45.8641859" lon="9.6715856"><ele>713.0</ele><time>2026-03-28T10:22:48.114Z</time></trkpt><trkpt lat="45.8642701" lon="9.6715737"><ele>714.5999999999999</ele><time>2026-03-28T10:22:49.114Z</time></trkpt><trkpt lat="45.8643618" lon="9.6716073"><ele>716.1999999999999</ele><time>2026-03-28T10:22:50.114Z</time></trkpt><trkpt lat="45.8644558" lon="9.671651"><ele>717.8</ele><time>2026-03-28T10:22:51.114Z</time></trkpt><trkpt lat="45.8645462" lon="9.6716654"><ele>719.4</ele><time>2026-03-28T10:22:52.114Z</time></trkpt><trkpt lat="45.8646384" lon="9.6716368"><ele>721.0</ele><time>2026-03-28T10:22:53.114Z</time></trkpt><trkpt lat="45.8647174" lon="9.6715598"><ele>721.0</ele><time>2026-03-28T10:22:54.114Z</time></trkpt><trkpt lat="45.8647914" lon="9.6714701"><ele>721.0</ele><time>2026-03-28T10:22:55.114Z</time></trkpt><trkpt lat="45.8648626" lon="9.6713975"><ele>721.0</ele><time>2026-03-28T10:22:56.114Z</time></trkpt><trkpt lat="45.8649249" lon="9.6713518"><ele>721.0</ele><time>2026-03-28T10:22:57.113Z</time></trkpt><trkpt lat="45.8649968" lon="9.6713376"><ele>721.0</ele><time>2026-03-28T10:22:58.114Z</time></trkpt><trkpt lat="45.8650818" lon="9.6713283"><ele>721.0</ele><time>2026-03-28T10:22:59.113Z</time></trkpt><trkpt lat="45.8651763" lon="9.6713369"><ele>723.75</ele><time>2026-03-28T10:23:00.114Z</time></trkpt><trkpt lat="45.8652824" lon="9.6713568"><ele>726.5</ele><time>2026-03-28T10:23:01.114Z</time></trkpt><trkpt lat="45.8654038" lon="9.6713532"><ele>729.25</ele><time>2026-03-28T10:23:02.113Z</time></trkpt><trkpt lat="45.8655345" lon="9.6712923"><ele>732.0</ele><time>2026-03-28T10:23:03.113Z</time></trkpt><trkpt lat="45.8656608" lon="9.6711785"><ele>731.75</ele><time>2026-03-28T10:23:04.113Z</time></trkpt><trkpt lat="45.8657685" lon="9.6710138"><ele>731.5</ele><time>2026-03-28T10:23:05.114Z</time></trkpt><trkpt lat="45.865859" lon="9.6708319"><ele>731.25</ele><time>2026-03-28T10:23:06.114Z</time></trkpt><trkpt lat="45.8659425" lon="9.6706771"><ele>731.0</ele><time>2026-03-28T10:23:07.113Z</time></trkpt><trkpt lat="45.8660445" lon="9.6705614"><ele>731.0</ele><time>2026-03-28T10:23:08.114Z</time></trkpt><trkpt lat="45.8661692" lon="9.670472"><ele>731.0</ele><time>2026-03-28T10:23:09.114Z</time></trkpt><trkpt lat="45.8662934" lon="9.6703554"><ele>731.0</ele><time>2026-03-28T10:23:10.113Z</time></trkpt><trkpt lat="45.8664053" lon="9.6701885"><ele>731.0</ele><time>2026-03-28T10:23:11.114Z</time></trkpt><trkpt lat="45.866501" lon="9.6700103"><ele>728.0</ele><time>2026-03-28T10:23:12.114Z</time></trkpt><trkpt lat="45.8665898" lon="9.6698485"><ele>725.0</ele><time>2026-03-28T10:23:13.114Z</time></trkpt><trkpt lat="45.8666944" lon="9.6697147"><ele>722.0</ele><time>2026-03-28T10:23:14.113Z</time></trkpt><trkpt lat="45.8668215" lon="9.6696172"><ele>719.0</ele><time>2026-03-28T10:23:15.113Z</time></trkpt><trkpt lat="45.866959" lon="9.6695312"><ele>719.0</ele><time>2026-03-28T10:23:16.114Z</time></trkpt><trkpt lat="45.8670951" lon="9.6694564"><ele>719.0</ele><time>2026-03-28T10:23:17.114Z</time></trkpt><trkpt lat="45.8672325" lon="9.6694053"><ele>719.0</ele><time>2026-03-28T10:23:18.114Z</time></trkpt><trkpt lat="45.8673736" lon="9.6693667"><ele>719.0</ele><time>2026-03-28T10:23:19.114Z</time></trkpt><trkpt lat="45.8675187" lon="9.6693378"><ele>718.0</ele><time>2026-03-28T10:23:20.114Z</time></trkpt><trkpt lat="45.8676523" lon="9.6693228"><ele>717.0</ele><time>2026-03-28T10:23:21.114Z</time></trkpt><trkpt lat="45.8677709" lon="9.6693358"><ele>716.0</ele><time>2026-03-28T10:23:22.114Z</time></trkpt><trkpt lat="45.8678834" lon="9.6693922"><ele>715.0</ele><time>2026-03-28T10:23:23.114Z</time></trkpt><trkpt lat="45.8680049" lon="9.6694957"><ele>715.0</ele><time>2026-03-28T10:23:24.114Z</time></trkpt><trkpt lat="45.8681203" lon="9.6695989"><ele>715.0</ele><time>2026-03-28T10:23:25.114Z</time></trkpt><trkpt lat="45.8682233" lon="9.6696885"><ele>715.0</ele><time>2026-03-28T10:23:26.113Z</time></trkpt><trkpt lat="45.8683075" lon="9.6697479"><ele>715.0</ele><time>2026-03-28T10:23:27.114Z</time></trkpt><trkpt lat="45.8683689" lon="9.6697783"><ele>715.0</ele><time>2026-03-28T10:23:28.113Z</time></trkpt><trkpt lat="45.8684507" lon="9.6697433"><ele>714.6666666666667</ele><time>2026-03-28T10:23:30.114Z</time></trkpt><trkpt lat="45.8685349" lon="9.6697191"><ele>714.3333333333334</ele><time>2026-03-28T10:23:32.114Z</time></trkpt><trkpt lat="45.8685889" lon="9.6696484"><ele>714.0</ele><time>2026-03-28T10:23:35.113Z</time></trkpt><trkpt lat="45.8685971" lon="9.6695437"><ele>713.6666666666666</ele><time>2026-03-28T10:23:37.113Z</time></trkpt><trkpt lat="45.8686111" lon="9.6694228"><ele>713.3333333333333</ele><time>2026-03-28T10:23:39.114Z</time></trkpt><trkpt lat="45.8686353" lon="9.6693291"><ele>713.0</ele><time>2026-03-28T10:23:41.114Z</time></trkpt><trkpt lat="45.8686793" lon="9.669226"><ele>709.6666666666666</ele><time>2026-03-28T10:23:43.113Z</time></trkpt><trkpt lat="45.8686917" lon="9.6691187"><ele>706.3333333333333</ele><time>2026-03-28T10:23:44.114Z</time></trkpt><trkpt lat="45.868677" lon="9.668996"><ele>703.0</ele><time>2026-03-28T10:23:45.114Z</time></trkpt><trkpt lat="45.868665" lon="9.6688873"><ele>699.6666666666666</ele><time>2026-03-28T10:23:46.114Z</time></trkpt><trkpt lat="45.8686742" lon="9.6687915"><ele>696.3333333333334</ele><time>2026-03-28T10:23:47.113Z</time></trkpt><trkpt lat="45.8687147" lon="9.6686603"><ele>693.0</ele><time>2026-03-28T10:23:49.114Z</time></trkpt><trkpt lat="45.8687599" lon="9.6685278"><ele>690.1666666666666</ele><time>2026-03-28T10:23:51.114Z</time></trkpt><trkpt lat="45.868796" lon="9.6684298"><ele>687.3333333333334</ele><time>2026-03-28T10:23:52.114Z</time></trkpt><trkpt lat="45.8688382" lon="9.6683062"><ele>684.5</ele><time>2026-03-28T10:23:53.114Z</time></trkpt><trkpt lat="45.8688773" lon="9.6681755"><ele>681.6666666666667</ele><time>2026-03-28T10:23:54.113Z</time></trkpt><trkpt lat="45.8688936" lon="9.6680456"><ele>678.8333333333334</ele><time>2026-03-28T10:23:55.114Z</time></trkpt><trkpt lat="45.8689084" lon="9.6679263"><ele>676.0</ele><time>2026-03-28T10:23:56.113Z</time></trkpt><trkpt lat="45.8689217" lon="9.6678046"><ele>673.1666666666667</ele><time>2026-03-28T10:23:57.114Z</time></trkpt><trkpt lat="45.868934" lon="9.6676885"><ele>670.3333333333334</ele><time>2026-03-28T10:23:58.113Z</time></trkpt><trkpt lat="45.8689564" lon="9.667587"><ele>667.5</ele><time>2026-03-28T10:23:59.114Z</time></trkpt><trkpt lat="45.8689742" lon="9.6674956"><ele>664.6666666666666</ele><time>2026-03-28T10:24:00.114Z</time></trkpt><trkpt lat="45.8689916" lon="9.667353"><ele>661.8333333333333</ele><time>2026-03-28T10:24:02.113Z</time></trkpt><trkpt lat="45.8690038" lon="9.6671775"><ele>659.0</ele><time>2026-03-28T10:24:04.114Z</time></trkpt><trkpt lat="45.8690129" lon="9.6670675"><ele>659.0</ele><time>2026-03-28T10:24:05.114Z</time></trkpt><trkpt lat="45.8690239" lon="9.6669538"><ele>659.0</ele><time>2026-03-28T10:24:06.114Z</time></trkpt><trkpt lat="45.8690358" lon="9.6668475"><ele>659.0</ele><time>2026-03-28T10:24:07.114Z</time></trkpt><trkpt lat="45.8690393" lon="9.6667416"><ele>659.0</ele><time>2026-03-28T10:24:08.114Z</time></trkpt><trkpt lat="45.8690442" lon="9.666636"><ele>659.0</ele><time>2026-03-28T10:24:09.114Z</time></trkpt><trkpt lat="45.8690482" lon="9.6665419"><ele>659.0</ele><time>2026-03-28T10:24:10.113Z</time></trkpt><trkpt lat="45.8690698" lon="9.6664037"><ele>656.4000000000001</ele><time>2026-03-28T10:24:12.114Z</time></trkpt><trkpt lat="45.8689967" lon="9.6664003"><ele>653.8</ele><time>2026-03-28T10:24:18.113Z</time></trkpt><trkpt lat="45.868996" lon="9.6662916"><ele>651.2</ele><time>2026-03-28T10:24:21.114Z</time></trkpt><trkpt lat="45.8690166" lon="9.666113"><ele>648.5999999999999</ele><time>2026-03-28T10:24:23.114Z</time></trkpt><trkpt lat="45.8690402" lon="9.6660241"><ele>646.0</ele><time>2026-03-28T10:24:24.114Z</time></trkpt><trkpt lat="45.8691068" lon="9.665876"><ele>642.5</ele><time>2026-03-28T10:24:26.113Z</time></trkpt><trkpt lat="45.8691588" lon="9.6657679"><ele>639.0</ele><time>2026-03-28T10:24:28.113Z</time></trkpt><trkpt lat="45.8692137" lon="9.6656905"><ele>635.5</ele><time>2026-03-28T10:24:30.114Z</time></trkpt><trkpt lat="45.8692691" lon="9.6656121"><ele>632.0</ele><time>2026-03-28T10:24:32.114Z</time></trkpt><trkpt lat="45.8693094" lon="9.6654901"><ele>628.5</ele><time>2026-03-28T10:24:34.114Z</time></trkpt><trkpt lat="45.8693262" lon="9.6653385"><ele>625.0</ele><time>2026-03-28T10:24:36.114Z</time></trkpt><trkpt lat="45.8693675" lon="9.6652078"><ele>621.1666666666667</ele><time>2026-03-28T10:24:38.114Z</time></trkpt><trkpt lat="45.8694037" lon="9.6651222"><ele>617.3333333333334</ele><time>2026-03-28T10:24:40.114Z</time></trkpt><trkpt lat="45.8694276" lon="9.6650058"><ele>613.5</ele><time>2026-03-28T10:24:42.114Z</time></trkpt><trkpt lat="45.8694631" lon="9.6649164"><ele>609.6666666666666</ele><time>2026-03-28T10:24:44.113Z</time></trkpt><trkpt lat="45.8694818" lon="9.6648222"><ele>605.8333333333333</ele><time>2026-03-28T10:24:48.113Z</time></trkpt><trkpt lat="45.8695709" lon="9.6647534"><ele>602.0</ele><time>2026-03-28T10:24:52.114Z</time></trkpt><trkpt lat="45.8696687" lon="9.6647803"><ele>602.0</ele><time>2026-03-28T10:24:54.114Z</time></trkpt><trkpt lat="45.8697391" lon="9.6647976"><ele>602.0</ele><time>2026-03-28T10:24:57.114Z</time></trkpt><trkpt lat="45.8697717" lon="9.6647107"><ele>602.0</ele><time>2026-03-28T10:24:58.114Z</time></trkpt><trkpt lat="45.8698064" lon="9.6646057"><ele>602.0</ele><time>2026-03-28T10:24:59.113Z</time></trkpt><trkpt lat="45.8698484" lon="9.6644893"><ele>602.0</ele><time>2026-03-28T10:25:00.114Z</time></trkpt><trkpt lat="45.869888" lon="9.6643869"><ele>602.0</ele><time>2026-03-28T10:25:01.113Z</time></trkpt><trkpt lat="45.8699135" lon="9.6642969"><ele>599.5</ele><time>2026-03-28T10:25:02.114Z</time></trkpt><trkpt lat="45.8699636" lon="9.6642272"><ele>597.0</ele><time>2026-03-28T10:25:04.114Z</time></trkpt><trkpt lat="45.8700283" lon="9.6643055"><ele>594.5</ele><time>2026-03-28T10:25:06.114Z</time></trkpt><trkpt lat="45.8700833" lon="9.6642516"><ele>592.0</ele><time>2026-03-28T10:25:10.113Z</time></trkpt><trkpt lat="45.8700934" lon="9.6641337"><ele>589.5</ele><time>2026-03-28T10:25:11.114Z</time></trkpt><trkpt lat="45.870113" lon="9.6639956"><ele>587.0</ele><time>2026-03-28T10:25:12.114Z</time></trkpt><trkpt lat="45.8701422" lon="9.6638662"><ele>584.5</ele><time>2026-03-28T10:25:13.114Z</time></trkpt><trkpt lat="45.8701735" lon="9.6637432"><ele>582.0</ele><time>2026-03-28T10:25:14.113Z</time></trkpt><trkpt lat="45.8702079" lon="9.6636396"><ele>579.5</ele><time>2026-03-28T10:25:15.113Z</time></trkpt><trkpt lat="45.870227" lon="9.6635458"><ele>577.0</ele><time>2026-03-28T10:25:16.114Z</time></trkpt><trkpt lat="45.8702412" lon="9.6634046"><ele>574.5</ele><time>2026-03-28T10:25:18.114Z</time></trkpt><trkpt lat="45.8702227" lon="9.6633172"><ele>572.0</ele><time>2026-03-28T10:25:20.114Z</time></trkpt><trkpt lat="45.8702807" lon="9.6631933"><ele>569.7142857142857</ele><time>2026-03-28T10:25:22.113Z</time></trkpt><trkpt lat="45.8703236" lon="9.6631219"><ele>567.4285714285714</ele><time>2026-03-28T10:25:23.114Z</time></trkpt><trkpt lat="45.8703552" lon="9.6630344"><ele>565.1428571428571</ele><time>2026-03-28T10:25:24.114Z</time></trkpt><trkpt lat="45.8703823" lon="9.6629388"><ele>562.8571428571429</ele><time>2026-03-28T10:25:25.114Z</time></trkpt><trkpt lat="45.8704162" lon="9.6628543"><ele>560.5714285714286</ele><time>2026-03-28T10:25:26.113Z</time></trkpt><trkpt lat="45.8704674" lon="9.6627172"><ele>558.2857142857142</ele><time>2026-03-28T10:25:28.113Z</time></trkpt><trkpt lat="45.8704471" lon="9.6626275"><ele>556.0</ele><time>2026-03-28T10:25:31.114Z</time></trkpt><trkpt lat="45.8704962" lon="9.6624734"><ele>554.1666666666667</ele><time>2026-03-28T10:25:38.114Z</time></trkpt><trkpt lat="45.870548" lon="9.6623799"><ele>552.3333333333334</ele><time>2026-03-28T10:25:39.113Z</time></trkpt><trkpt lat="45.8705917" lon="9.6623003"><ele>550.5</ele><time>2026-03-28T10:25:40.114Z</time></trkpt><trkpt lat="45.8706339" lon="9.6622231"><ele>548.6666666666666</ele><time>2026-03-28T10:25:41.113Z</time></trkpt><trkpt lat="45.8706711" lon="9.6621406"><ele>546.8333333333333</ele><time>2026-03-28T10:25:42.114Z</time></trkpt><trkpt lat="45.8707305" lon="9.6620267"><ele>545.0</ele><time>2026-03-28T10:25:44.113Z</time></trkpt><trkpt lat="45.8706629" lon="9.6620126"><ele>542.4</ele><time>2026-03-28T10:26:01.114Z</time></trkpt><trkpt lat="45.8706934" lon="9.6618646"><ele>539.8</ele><time>2026-03-28T10:26:14.114Z</time></trkpt><trkpt lat="45.8707486" lon="9.6617327"><ele>537.2</ele><time>2026-03-28T10:26:15.113Z</time></trkpt><trkpt lat="45.8707986" lon="9.6616366"><ele>534.6</ele><time>2026-03-28T10:26:16.113Z</time></trkpt><trkpt lat="45.8708378" lon="9.6615527"><ele>532.0</ele><time>2026-03-28T10:26:17.114Z</time></trkpt><trkpt lat="45.8709047" lon="9.6614194"><ele>529.5</ele><time>2026-03-28T10:26:19.113Z</time></trkpt><trkpt lat="45.870983" lon="9.6613071"><ele>527.0</ele><time>2026-03-28T10:26:21.114Z</time></trkpt><trkpt lat="45.8710313" lon="9.6612273"><ele>524.5</ele><time>2026-03-28T10:26:22.113Z</time></trkpt><trkpt lat="45.8710835" lon="9.6611442"><ele>522.0</ele><time>2026-03-28T10:26:23.113Z</time></trkpt><trkpt lat="45.8711424" lon="9.6610597"><ele>519.5</ele><time>2026-03-28T10:26:24.114Z</time></trkpt><trkpt lat="45.8712016" lon="9.6609702"><ele>517.0</ele><time>2026-03-28T10:26:25.114Z</time></trkpt><trkpt lat="45.8712661" lon="9.6608791"><ele>515.3333333333334</ele><time>2026-03-28T10:26:26.114Z</time></trkpt><trkpt lat="45.8713309" lon="9.6608002"><ele>513.6666666666667</ele><time>2026-03-28T10:26:27.114Z</time></trkpt><trkpt lat="45.8713956" lon="9.6607282"><ele>512.0</ele><time>2026-03-28T10:26:28.114Z</time></trkpt><trkpt lat="45.8714696" lon="9.6606601"><ele>510.33333333333337</ele><time>2026-03-28T10:26:29.113Z</time></trkpt><trkpt lat="45.8715561" lon="9.6606137"><ele>508.6666666666667</ele><time>2026-03-28T10:26:30.114Z</time></trkpt><trkpt lat="45.8716442" lon="9.6605741"><ele>507.0</ele><time>2026-03-28T10:26:31.113Z</time></trkpt><trkpt lat="45.8717249" lon="9.6605423"><ele>504.8333333333333</ele><time>2026-03-28T10:26:32.114Z</time></trkpt><trkpt lat="45.8717981" lon="9.6604728"><ele>502.66666666666663</ele><time>2026-03-28T10:26:33.114Z</time></trkpt><trkpt lat="45.8718654" lon="9.6603829"><ele>500.5</ele><time>2026-03-28T10:26:34.114Z</time></trkpt><trkpt lat="45.8719248" lon="9.6602875"><ele>498.3333333333333</ele><time>2026-03-28T10:26:35.113Z</time></trkpt><trkpt lat="45.8719837" lon="9.6602027"><ele>496.16666666666663</ele><time>2026-03-28T10:26:36.113Z</time></trkpt><trkpt lat="45.8720345" lon="9.6601321"><ele>494.0</ele><time>2026-03-28T10:26:37.114Z</time></trkpt><trkpt lat="45.8720846" lon="9.6600756"><ele>491.99999999999994</ele><time>2026-03-28T10:26:38.114Z</time></trkpt><trkpt lat="45.8721606" lon="9.6599832"><ele>490.0</ele><time>2026-03-28T10:26:40.114Z</time></trkpt><trkpt lat="45.8721706" lon="9.6598876"><ele>488.0</ele><time>2026-03-28T10:26:42.114Z</time></trkpt><trkpt lat="45.8722507" lon="9.6598973"><ele>486.0</ele><time>2026-03-28T10:26:46.114Z</time></trkpt><trkpt lat="45.8723133" lon="9.6598486"><ele>483.99999999999994</ele><time>2026-03-28T10:26:48.114Z</time></trkpt><trkpt lat="45.872388" lon="9.6597197"><ele>482.0</ele><time>2026-03-28T10:26:50.114Z</time></trkpt><trkpt lat="45.8724056" lon="9.6595528"><ele>479.3333333333333</ele><time>2026-03-28T10:26:52.114Z</time></trkpt><trkpt lat="45.8723826" lon="9.6594027"><ele>476.66666666666663</ele><time>2026-03-28T10:26:54.114Z</time></trkpt><trkpt lat="45.8723519" lon="9.6593028"><ele>474.0</ele><time>2026-03-28T10:26:56.114Z</time></trkpt><trkpt lat="45.8724222" lon="9.6592484"><ele>471.33333333333337</ele><time>2026-03-28T10:27:00.114Z</time></trkpt><trkpt lat="45.8724105" lon="9.6590804"><ele>468.6666666666667</ele><time>2026-03-28T10:27:03.114Z</time></trkpt><trkpt lat="45.8723985" lon="9.6589838"><ele>466.0</ele><time>2026-03-28T10:27:04.114Z</time></trkpt><trkpt lat="45.8723987" lon="9.6588832"><ele>466.00000000000006</ele><time>2026-03-28T10:27:05.113Z</time></trkpt><trkpt lat="45.8724097" lon="9.6587748"><ele>466.0</ele><time>2026-03-28T10:27:06.113Z</time></trkpt><trkpt lat="45.8724351" lon="9.6586811"><ele>466.0</ele><time>2026-03-28T10:27:07.114Z</time></trkpt><trkpt lat="45.8724744" lon="9.65861"><ele>466.0</ele><time>2026-03-28T10:27:08.114Z</time></trkpt><trkpt lat="45.8725515" lon="9.6585398"><ele>466.00000000000006</ele><time>2026-03-28T10:27:10.114Z</time></trkpt><trkpt lat="45.8725804" lon="9.6586606"><ele>466.0</ele><time>2026-03-28T10:27:14.114Z</time></trkpt><trkpt lat="45.8726421" lon="9.6586989"><ele>463.00000000000006</ele><time>2026-03-28T10:27:17.114Z</time></trkpt><trkpt lat="45.87273" lon="9.6585907"><ele>460.0</ele><time>2026-03-28T10:27:19.113Z</time></trkpt><trkpt lat="45.8727831" lon="9.6585361"><ele>457.0</ele><time>2026-03-28T10:27:20.114Z</time></trkpt><trkpt lat="45.8728323" lon="9.6584767"><ele>454.0</ele><time>2026-03-28T10:27:21.114Z</time></trkpt><trkpt lat="45.872898" lon="9.6583799"><ele>451.00000000000006</ele><time>2026-03-28T10:27:23.114Z</time></trkpt><trkpt lat="45.8729232" lon="9.6582337"><ele>448.0</ele><time>2026-03-28T10:27:25.114Z</time></trkpt><trkpt lat="45.8729217" lon="9.6581344"><ele>448.00000000000006</ele><time>2026-03-28T10:27:26.113Z</time></trkpt><trkpt lat="45.8729229" lon="9.6580432"><ele>448.0</ele><time>2026-03-28T10:27:27.114Z</time></trkpt><trkpt lat="45.8729283" lon="9.6579298"><ele>448.0</ele><time>2026-03-28T10:27:29.113Z</time></trkpt><trkpt lat="45.8729543" lon="9.6578287"><ele>448.0</ele><time>2026-03-28T10:27:32.114Z</time></trkpt><trkpt lat="45.8729928" lon="9.6576977"><ele>448.00000000000006</ele><time>2026-03-28T10:27:34.114Z</time></trkpt><trkpt lat="45.8730139" lon="9.6575233"><ele>448.0</ele><time>2026-03-28T10:27:36.114Z</time></trkpt><trkpt lat="45.873021" lon="9.6574299"><ele>445.00000000000006</ele><time>2026-03-28T10:27:37.113Z</time></trkpt><trkpt lat="45.8730185" lon="9.6573172"><ele>442.0</ele><time>2026-03-28T10:27:38.114Z</time></trkpt><trkpt lat="45.8730079" lon="9.6571704"><ele>439.0</ele><time>2026-03-28T10:27:39.114Z</time></trkpt><trkpt lat="45.8729919" lon="9.6570213"><ele>436.0</ele><time>2026-03-28T10:27:40.113Z</time></trkpt><trkpt lat="45.8729793" lon="9.6569001"><ele>433.00000000000006</ele><time>2026-03-28T10:27:41.114Z</time></trkpt><trkpt lat="45.8729833" lon="9.6567921"><ele>430.0</ele><time>2026-03-28T10:27:42.114Z</time></trkpt><trkpt lat="45.8730065" lon="9.656694"><ele>428.83333333333337</ele><time>2026-03-28T10:27:43.114Z</time></trkpt><trkpt lat="45.873037" lon="9.6565922"><ele>427.6666666666667</ele><time>2026-03-28T10:27:44.114Z</time></trkpt><trkpt lat="45.8730717" lon="9.6564964"><ele>426.5</ele><time>2026-03-28T10:27:45.114Z</time></trkpt><trkpt lat="45.8730961" lon="9.6563252"><ele>425.33333333333337</ele><time>2026-03-28T10:27:47.114Z</time></trkpt><trkpt lat="45.8730917" lon="9.6561848"><ele>424.1666666666667</ele><time>2026-03-28T10:27:49.113Z</time></trkpt><trkpt lat="45.8730927" lon="9.6560897"><ele>423.0</ele><time>2026-03-28T10:27:52.114Z</time></trkpt><trkpt lat="45.8730935" lon="9.655957"><ele>421.1666666666667</ele><time>2026-03-28T10:27:56.114Z</time></trkpt><trkpt lat="45.8730745" lon="9.6558651"><ele>419.33333333333337</ele><time>2026-03-28T10:27:57.114Z</time></trkpt><trkpt lat="45.8730492" lon="9.6557762"><ele>417.5</ele><time>2026-03-28T10:27:58.114Z</time></trkpt><trkpt lat="45.8730061" lon="9.6556109"><ele>415.6666666666667</ele><time>2026-03-28T10:28:00.114Z</time></trkpt><trkpt lat="45.872963" lon="9.6555328"><ele>413.83333333333337</ele><time>2026-03-28T10:28:01.113Z</time></trkpt><trkpt lat="45.8729119" lon="9.6554555"><ele>412.0</ele><time>2026-03-28T10:28:02.114Z</time></trkpt><trkpt lat="45.8728598" lon="9.6553722"><ele>409.40000000000003</ele><time>2026-03-28T10:28:03.113Z</time></trkpt><trkpt lat="45.8728099" lon="9.6552746"><ele>406.8</ele><time>2026-03-28T10:28:04.114Z</time></trkpt><trkpt lat="45.8727772" lon="9.6551769"><ele>404.2</ele><time>2026-03-28T10:28:05.113Z</time></trkpt><trkpt lat="45.8727707" lon="9.6549928"><ele>401.6</ele><time>2026-03-28T10:28:07.113Z</time></trkpt><trkpt lat="45.8727925" lon="9.6549035"><ele>399.0</ele><time>2026-03-28T10:28:08.113Z</time></trkpt><trkpt lat="45.8727962" lon="9.6547449"><ele>399.0</ele><time>2026-03-28T10:28:10.113Z</time></trkpt><trkpt lat="45.8728013" lon="9.6545712"><ele>399.0</ele><time>2026-03-28T10:28:12.114Z</time></trkpt><trkpt lat="45.872797" lon="9.6543992"><ele>399.0</ele><time>2026-03-28T10:28:13.113Z</time></trkpt><trkpt lat="45.8728132" lon="9.6541945"><ele>399.0</ele><time>2026-03-28T10:28:14.114Z</time></trkpt><trkpt lat="45.8728492" lon="9.653984"><ele>395.66666666666663</ele><time>2026-03-28T10:28:15.113Z</time></trkpt><trkpt lat="45.872899" lon="9.6537488"><ele>392.3333333333333</ele><time>2026-03-28T10:28:16.113Z</time></trkpt><trkpt lat="45.8729408" lon="9.653531"><ele>389.0</ele><time>2026-03-28T10:28:17.113Z</time></trkpt><trkpt lat="45.8729851" lon="9.6533385"><ele>388.6</ele><time>2026-03-28T10:28:18.113Z</time></trkpt><trkpt lat="45.8730173" lon="9.653162"><ele>388.2</ele><time>2026-03-28T10:28:19.113Z</time></trkpt><trkpt lat="45.8730472" lon="9.6530091"><ele>387.8</ele><time>2026-03-28T10:28:20.114Z</time></trkpt><trkpt lat="45.8730724" lon="9.6529066"><ele>387.40000000000003</ele><time>2026-03-28T10:28:21.114Z</time></trkpt><trkpt lat="45.8730975" lon="9.6528202"><ele>387.0</ele><time>2026-03-28T10:28:23.114Z</time></trkpt><trkpt lat="45.8732221" lon="9.6528014"><ele>387.0</ele><time>2026-03-28T10:28:26.114Z</time></trkpt><trkpt lat="45.8733118" lon="9.6528204"><ele>387.0</ele><time>2026-03-28T10:28:27.113Z</time></trkpt><trkpt lat="45.8734206" lon="9.6528373"><ele>387.0</ele><time>2026-03-28T10:28:28.114Z</time></trkpt><trkpt lat="45.8735475" lon="9.6528389"><ele>387.0</ele><time>2026-03-28T10:28:29.113Z</time></trkpt><trkpt lat="45.8736796" lon="9.652839"><ele>388.0</ele><time>2026-03-28T10:28:30.114Z</time></trkpt><trkpt lat="45.8738193" lon="9.652842"><ele>389.0</ele><time>2026-03-28T10:28:31.113Z</time></trkpt><trkpt lat="45.8739599" lon="9.6528467"><ele>390.0</ele><time>2026-03-28T10:28:32.113Z</time></trkpt><trkpt lat="45.8740976" lon="9.6528393"><ele>391.0</ele><time>2026-03-28T10:28:33.114Z</time></trkpt><trkpt lat="45.8742279" lon="9.6528301"><ele>391.6</ele><time>2026-03-28T10:28:34.114Z</time></trkpt><trkpt lat="45.8743544" lon="9.6528273"><ele>392.20000000000005</ele><time>2026-03-28T10:28:35.114Z</time></trkpt><trkpt lat="45.8744787" lon="9.6528247"><ele>392.79999999999995</ele><time>2026-03-28T10:28:36.114Z</time></trkpt><trkpt lat="45.874587" lon="9.6528217"><ele>393.4</ele><time>2026-03-28T10:28:37.114Z</time></trkpt><trkpt lat="45.8746752" lon="9.6528132"><ele>394.0</ele><time>2026-03-28T10:28:38.114Z</time></trkpt><trkpt lat="45.8747457" lon="9.652802"><ele>394.0</ele><time>2026-03-28T10:28:39.114Z</time></trkpt><trkpt lat="45.8748386" lon="9.6528133"><ele>394.0</ele><time>2026-03-28T10:28:41.114Z</time></trkpt><trkpt lat="45.8749132" lon="9.6528264"><ele>394.0</ele><time>2026-03-28T10:28:44.113Z</time></trkpt><trkpt lat="45.8750052" lon="9.6528406"><ele>394.0</ele><time>2026-03-28T10:28:46.114Z</time></trkpt><trkpt lat="45.875107" lon="9.6528595"><ele>394.0</ele><time>2026-03-28T10:28:48.113Z</time></trkpt><trkpt lat="45.8752305" lon="9.6528568"><ele>393.6</ele><time>2026-03-28T10:28:50.114Z</time></trkpt><trkpt lat="45.8753075" lon="9.6528406"><ele>393.2</ele><time>2026-03-28T10:28:51.114Z</time></trkpt><trkpt lat="45.8753866" lon="9.6527932"><ele>392.8</ele><time>2026-03-28T10:28:52.114Z</time></trkpt><trkpt lat="45.8754749" lon="9.6527356"><ele>392.40000000000003</ele><time>2026-03-28T10:28:53.114Z</time></trkpt><trkpt lat="45.8755667" lon="9.6526618"><ele>392.0</ele><time>2026-03-28T10:28:54.114Z</time></trkpt><trkpt lat="45.8756491" lon="9.652586"><ele>391.99999999999994</ele><time>2026-03-28T10:28:55.113Z</time></trkpt><trkpt lat="45.875726" lon="9.6525142"><ele>392.0</ele><time>2026-03-28T10:28:56.114Z</time></trkpt><trkpt lat="45.8758069" lon="9.6524565"><ele>392.0</ele><time>2026-03-28T10:28:57.114Z</time></trkpt><trkpt lat="45.8758827" lon="9.6524027"><ele>392.0</ele><time>2026-03-28T10:28:58.113Z</time></trkpt><trkpt lat="45.8759482" lon="9.6523515"><ele>391.99999999999994</ele><time>2026-03-28T10:28:59.114Z</time></trkpt><trkpt lat="45.8760066" lon="9.6523098"><ele>392.0</ele><time>2026-03-28T10:29:00.113Z</time></trkpt><trkpt lat="45.8761081" lon="9.6522305"><ele>392.0</ele><time>2026-03-28T10:29:02.114Z</time></trkpt><trkpt lat="45.8761468" lon="9.6521433"><ele>392.0</ele><time>2026-03-28T10:29:04.113Z</time></trkpt><trkpt lat="45.8761125" lon="9.6520652"><ele>392.0</ele><time>2026-03-28T10:29:07.114Z</time></trkpt><trkpt lat="45.8759948" lon="9.652056"><ele>392.0</ele><time>2026-03-28T10:31:20.113Z</time></trkpt><trkpt lat="45.8759" lon="9.652051"><ele>392.0</ele><time>2026-03-28T10:31:22.112Z</time></trkpt><trkpt lat="45.875783" lon="9.6520009"><ele>395.20000000000005</ele><time>2026-03-28T10:31:24.113Z</time></trkpt><trkpt lat="45.875683" lon="9.651898"><ele>398.4</ele><time>2026-03-28T10:31:26.113Z</time></trkpt><trkpt lat="45.8756304" lon="9.6518093"><ele>401.6</ele><time>2026-03-28T10:31:27.113Z</time></trkpt><trkpt lat="45.8755957" lon="9.6517064"><ele>404.79999999999995</ele><time>2026-03-28T10:31:28.113Z</time></trkpt><trkpt lat="45.8755953" lon="9.6515645"><ele>408.0</ele><time>2026-03-28T10:31:29.113Z</time></trkpt><trkpt lat="45.875661" lon="9.6513784"><ele>408.0</ele><time>2026-03-28T10:31:30.113Z</time></trkpt><trkpt lat="45.8757349" lon="9.6512149"><ele>408.0</ele><time>2026-03-28T10:31:31.113Z</time></trkpt><trkpt lat="45.8758132" lon="9.6510741"><ele>408.0</ele><time>2026-03-28T10:31:32.113Z</time></trkpt><trkpt lat="45.8758936" lon="9.6509531"><ele>408.0</ele><time>2026-03-28T10:31:33.112Z</time></trkpt><trkpt lat="45.8759773" lon="9.6508378"><ele>408.25</ele><time>2026-03-28T10:31:34.113Z</time></trkpt><trkpt lat="45.8760659" lon="9.6507043"><ele>408.5</ele><time>2026-03-28T10:31:35.113Z</time></trkpt><trkpt lat="45.8761545" lon="9.6505569"><ele>408.75</ele><time>2026-03-28T10:31:36.112Z</time></trkpt><trkpt lat="45.8762372" lon="9.6504147"><ele>409.0</ele><time>2026-03-28T10:31:37.113Z</time></trkpt><trkpt lat="45.8763276" lon="9.6502789"><ele>409.0</ele><time>2026-03-28T10:31:38.112Z</time></trkpt><trkpt lat="45.8764219" lon="9.6501589"><ele>409.0</ele><time>2026-03-28T10:31:39.112Z</time></trkpt><trkpt lat="45.8765314" lon="9.6500618"><ele>409.0</ele><time>2026-03-28T10:31:40.112Z</time></trkpt><trkpt lat="45.8766468" lon="9.6499806"><ele>409.0</ele><time>2026-03-28T10:31:41.113Z</time></trkpt><trkpt lat="45.8767626" lon="9.6499012"><ele>419.0</ele><time>2026-03-28T10:31:42.113Z</time></trkpt><trkpt lat="45.8768805" lon="9.6498176"><ele>429.0</ele><time>2026-03-28T10:31:43.112Z</time></trkpt><trkpt lat="45.8769882" lon="9.6497273"><ele>439.0</ele><time>2026-03-28T10:31:44.113Z</time></trkpt><trkpt lat="45.877092" lon="9.6496248"><ele>449.0</ele><time>2026-03-28T10:31:45.113Z</time></trkpt><trkpt lat="45.8771824" lon="9.6494996"><ele>443.0</ele><time>2026-03-28T10:31:46.113Z</time></trkpt><trkpt lat="45.8772495" lon="9.6493556"><ele>437.0</ele><time>2026-03-28T10:31:47.112Z</time></trkpt><trkpt lat="45.8773045" lon="9.6491984"><ele>431.0</ele><time>2026-03-28T10:31:48.113Z</time></trkpt><trkpt lat="45.8773478" lon="9.6490383"><ele>425.0</ele><time>2026-03-28T10:31:49.113Z</time></trkpt><trkpt lat="45.8773812" lon="9.6488769"><ele>425.0</ele><time>2026-03-28T10:31:50.112Z</time></trkpt><trkpt lat="45.8774139" lon="9.6487107"><ele>425.0</ele><time>2026-03-28T10:31:51.113Z</time></trkpt><trkpt lat="45.8774425" lon="9.6485437"><ele>425.0</ele><time>2026-03-28T10:31:52.113Z</time></trkpt><trkpt lat="45.8774695" lon="9.6483657"><ele>425.0</ele><time>2026-03-28T10:31:53.113Z</time></trkpt><trkpt lat="45.877488" lon="9.6481803"><ele>422.0</ele><time>2026-03-28T10:31:54.113Z</time></trkpt><trkpt lat="45.8775031" lon="9.6479859"><ele>419.0</ele><time>2026-03-28T10:31:55.113Z</time></trkpt><trkpt lat="45.8775126" lon="9.6477858"><ele>416.0</ele><time>2026-03-28T10:31:56.112Z</time></trkpt><trkpt lat="45.8775214" lon="9.6475819"><ele>413.0</ele><time>2026-03-28T10:31:57.113Z</time></trkpt><trkpt lat="45.8775303" lon="9.6473747"><ele>412.25</ele><time>2026-03-28T10:31:58.112Z</time></trkpt><trkpt lat="45.8775424" lon="9.6471636"><ele>411.5</ele><time>2026-03-28T10:31:59.113Z</time></trkpt><trkpt lat="45.8775588" lon="9.6469495"><ele>410.75</ele><time>2026-03-28T10:32:00.113Z</time></trkpt><trkpt lat="45.8775773" lon="9.6467371"><ele>410.0</ele><time>2026-03-28T10:32:01.112Z</time></trkpt><trkpt lat="45.8775909" lon="9.6465243"><ele>414.0</ele><time>2026-03-28T10:32:02.112Z</time></trkpt><trkpt lat="45.8776026" lon="9.6463078"><ele>418.0</ele><time>2026-03-28T10:32:03.112Z</time></trkpt><trkpt lat="45.8776179" lon="9.6460863"><ele>422.0</ele><time>2026-03-28T10:32:04.112Z</time></trkpt><trkpt lat="45.8776326" lon="9.645871"><ele>422.0</ele><time>2026-03-28T10:32:05.113Z</time></trkpt><trkpt lat="45.8776544" lon="9.6456482"><ele>422.0</ele><time>2026-03-28T10:32:06.113Z</time></trkpt><trkpt lat="45.8776833" lon="9.6454337"><ele>422.0</ele><time>2026-03-28T10:32:07.113Z</time></trkpt><trkpt lat="45.8777308" lon="9.6452288"><ele>423.66666666666663</ele><time>2026-03-28T10:32:08.113Z</time></trkpt><trkpt lat="45.8777976" lon="9.6450332"><ele>425.33333333333337</ele><time>2026-03-28T10:32:09.113Z</time></trkpt><trkpt lat="45.8778784" lon="9.6448418"><ele>427.0</ele><time>2026-03-28T10:32:10.113Z</time></trkpt><trkpt lat="45.8779713" lon="9.6446749"><ele>427.0</ele><time>2026-03-28T10:32:11.113Z</time></trkpt><trkpt lat="45.8780776" lon="9.6445232"><ele>427.0</ele><time>2026-03-28T10:32:12.113Z</time></trkpt><trkpt lat="45.8781854" lon="9.6443695"><ele>427.0</ele><time>2026-03-28T10:32:13.113Z</time></trkpt><trkpt lat="45.8782934" lon="9.644212"><ele>424.6666666666667</ele><time>2026-03-28T10:32:14.112Z</time></trkpt><trkpt lat="45.8783988" lon="9.644045"><ele>422.33333333333337</ele><time>2026-03-28T10:32:15.112Z</time></trkpt><trkpt lat="45.8785031" lon="9.6438729"><ele>420.0</ele><time>2026-03-28T10:32:16.112Z</time></trkpt><trkpt lat="45.878608" lon="9.6437004"><ele>424.66666666666663</ele><time>2026-03-28T10:32:17.112Z</time></trkpt><trkpt lat="45.8787141" lon="9.6435287"><ele>429.3333333333333</ele><time>2026-03-28T10:32:18.112Z</time></trkpt><trkpt lat="45.8788167" lon="9.643362"><ele>434.0</ele><time>2026-03-28T10:32:19.113Z</time></trkpt><trkpt lat="45.878927" lon="9.6432001"><ele>434.0</ele><time>2026-03-28T10:32:20.113Z</time></trkpt><trkpt lat="45.8790318" lon="9.6430423"><ele>434.0</ele><time>2026-03-28T10:32:21.112Z</time></trkpt><trkpt lat="45.8791293" lon="9.6428898"><ele>434.0</ele><time>2026-03-28T10:32:22.113Z</time></trkpt><trkpt lat="45.8792313" lon="9.6427297"><ele>434.0</ele><time>2026-03-28T10:32:23.112Z</time></trkpt><trkpt lat="45.8793307" lon="9.6425751"><ele>432.5</ele><time>2026-03-28T10:32:24.113Z</time></trkpt><trkpt lat="45.8794254" lon="9.6424215"><ele>431.0</ele><time>2026-03-28T10:32:25.113Z</time></trkpt><trkpt lat="45.8795235" lon="9.6422577"><ele>429.5</ele><time>2026-03-28T10:32:26.113Z</time></trkpt><trkpt lat="45.8796159" lon="9.6420879"><ele>428.0</ele><time>2026-03-28T10:32:27.113Z</time></trkpt><trkpt lat="45.8797033" lon="9.6418962"><ele>428.0</ele><time>2026-03-28T10:32:28.113Z</time></trkpt><trkpt lat="45.8797765" lon="9.6416902"><ele>428.0</ele><time>2026-03-28T10:32:29.113Z</time></trkpt><trkpt lat="45.8798401" lon="9.6414854"><ele>428.0</ele><time>2026-03-28T10:32:30.113Z</time></trkpt><trkpt lat="45.879895" lon="9.641244"><ele>425.0</ele><time>2026-03-28T10:32:31.113Z</time></trkpt><trkpt lat="45.8799394" lon="9.6409798"><ele>422.0</ele><time>2026-03-28T10:32:32.113Z</time></trkpt><trkpt lat="45.8799846" lon="9.6407266"><ele>419.0</ele><time>2026-03-28T10:32:33.113Z</time></trkpt><trkpt lat="45.8800348" lon="9.6404953"><ele>417.0</ele><time>2026-03-28T10:32:34.113Z</time></trkpt><trkpt lat="45.880083" lon="9.6402793"><ele>415.0</ele><time>2026-03-28T10:32:35.113Z</time></trkpt><trkpt lat="45.8801332" lon="9.6400564"><ele>413.0</ele><time>2026-03-28T10:32:36.112Z</time></trkpt><trkpt lat="45.8801866" lon="9.6398325"><ele>419.3333333333333</ele><time>2026-03-28T10:32:37.112Z</time></trkpt><trkpt lat="45.8802341" lon="9.6396066"><ele>425.66666666666663</ele><time>2026-03-28T10:32:38.113Z</time></trkpt><trkpt lat="45.88028" lon="9.6393893"><ele>432.0</ele><time>2026-03-28T10:32:39.112Z</time></trkpt><trkpt lat="45.8803282" lon="9.6391752"><ele>432.0</ele><time>2026-03-28T10:32:40.112Z</time></trkpt><trkpt lat="45.8803774" lon="9.6389656"><ele>432.0</ele><time>2026-03-28T10:32:41.112Z</time></trkpt><trkpt lat="45.8804307" lon="9.6387638"><ele>432.0</ele><time>2026-03-28T10:32:42.113Z</time></trkpt><trkpt lat="45.8804835" lon="9.6385736"><ele>432.0</ele><time>2026-03-28T10:32:43.113Z</time></trkpt><trkpt lat="45.8805353" lon="9.6383989"><ele>429.75</ele><time>2026-03-28T10:32:44.113Z</time></trkpt><trkpt lat="45.8805876" lon="9.6382353"><ele>427.5</ele><time>2026-03-28T10:32:45.113Z</time></trkpt><trkpt lat="45.8806396" lon="9.6380846"><ele>425.25</ele><time>2026-03-28T10:32:46.113Z</time></trkpt><trkpt lat="45.8806952" lon="9.6379469"><ele>423.0</ele><time>2026-03-28T10:32:47.112Z</time></trkpt><trkpt lat="45.8807585" lon="9.6378407"><ele>421.79999999999995</ele><time>2026-03-28T10:32:48.113Z</time></trkpt><trkpt lat="45.8808346" lon="9.6377506"><ele>420.6</ele><time>2026-03-28T10:32:49.112Z</time></trkpt><trkpt lat="45.8809116" lon="9.6376671"><ele>419.4</ele><time>2026-03-28T10:32:50.113Z</time></trkpt><trkpt lat="45.88099" lon="9.6375857"><ele>418.20000000000005</ele><time>2026-03-28T10:32:51.112Z</time></trkpt><trkpt lat="45.8810644" lon="9.6375149"><ele>417.0</ele><time>2026-03-28T10:32:52.113Z</time></trkpt><trkpt lat="45.8811421" lon="9.6374534"><ele>420.75</ele><time>2026-03-28T10:32:53.112Z</time></trkpt><trkpt lat="45.8812395" lon="9.637395"><ele>424.5</ele><time>2026-03-28T10:32:54.112Z</time></trkpt><trkpt lat="45.8813509" lon="9.6373259"><ele>428.25</ele><time>2026-03-28T10:32:55.113Z</time></trkpt><trkpt lat="45.8814606" lon="9.637226"><ele>432.0</ele><time>2026-03-28T10:32:56.112Z</time></trkpt><trkpt lat="45.8815722" lon="9.6370975"><ele>431.75</ele><time>2026-03-28T10:32:57.112Z</time></trkpt><trkpt lat="45.8816857" lon="9.6369684"><ele>431.5</ele><time>2026-03-28T10:32:58.113Z</time></trkpt><trkpt lat="45.8817869" lon="9.6368534"><ele>431.25</ele><time>2026-03-28T10:32:59.113Z</time></trkpt><trkpt lat="45.8818895" lon="9.6367735"><ele>431.0</ele><time>2026-03-28T10:33:00.113Z</time></trkpt><trkpt lat="45.8819988" lon="9.6367447"><ele>431.0</ele><time>2026-03-28T10:33:01.112Z</time></trkpt><trkpt lat="45.8821161" lon="9.6367465"><ele>431.0</ele><time>2026-03-28T10:33:02.112Z</time></trkpt><trkpt lat="45.8822337" lon="9.6367115"><ele>431.0</ele><time>2026-03-28T10:33:03.113Z</time></trkpt><trkpt lat="45.8823475" lon="9.6366068"><ele>431.0</ele><time>2026-03-28T10:33:04.113Z</time></trkpt><trkpt lat="45.8824332" lon="9.636496"><ele>431.0</ele><time>2026-03-28T10:33:05.113Z</time></trkpt><trkpt lat="45.8825038" lon="9.6363862"><ele>431.0</ele><time>2026-03-28T10:33:06.112Z</time></trkpt><trkpt lat="45.8825753" lon="9.636294"><ele>431.0</ele><time>2026-03-28T10:33:07.113Z</time></trkpt><trkpt lat="45.8826531" lon="9.6362363"><ele>450.0</ele><time>2026-03-28T10:33:08.112Z</time></trkpt><trkpt lat="45.8827362" lon="9.6362279"><ele>450.0</ele><time>2026-03-28T10:33:10.112Z</time></trkpt></trkseg></trk></gpx>